<?xml version="1.0" encoding="UTF-8" standalone="no" ?>
<gpx xmlns="http://www.topografix.com/GPX/1/1" xmlns:xsi="http://www.w3.org/2001/XMLSchema-instance" xsi:schemaLocation="http://www.topografix.com/GPX/1/1 http://www.topografix.com/GPX/1/1/gpx.xsd" version="1.1" creator="VisuGPX - https://www.visugpx.com">
  <metadata>
    <name>Val de Sully sur Loire 23 mai 2022 08:43:38</name>
    <desc><![CDATA[Sortie Cyclotouriste - Rencontre régionale des Amis du Randonneur à CHATEAUNEUF SUR LOIRE]]></desc>
  </metadata>
  <trk>
    <name><![CDATA[23 mai 2022 08:43:38]]></name>
    <trkseg>
      <trkpt lat="47.85671" lon="2.22955">
        <ele>233.82</ele>
        <time>2022-05-23T06:43:40Z</time>
      </trkpt>
      <trkpt lat="47.85665" lon="2.22945">
        <ele>235.92</ele>
        <time>2022-05-23T06:44:12Z</time>
      </trkpt>
      <trkpt lat="47.85666" lon="2.22951">
        <ele>236.38</ele>
        <time>2022-05-23T06:46:13Z</time>
      </trkpt>
      <trkpt lat="47.85667" lon="2.22964">
        <ele>237.4</ele>
        <time>2022-05-23T06:47:51Z</time>
      </trkpt>
      <trkpt lat="47.85669" lon="2.2298">
        <ele>238.11</ele>
        <time>2022-05-23T06:47:56Z</time>
      </trkpt>
      <trkpt lat="47.85668" lon="2.22995">
        <ele>237.94</ele>
        <time>2022-05-23T06:48:00Z</time>
      </trkpt>
      <trkpt lat="47.85667" lon="2.23009">
        <ele>238.6</ele>
        <time>2022-05-23T06:48:04Z</time>
      </trkpt>
      <trkpt lat="47.85666" lon="2.23024">
        <ele>239.74</ele>
        <time>2022-05-23T06:48:10Z</time>
      </trkpt>
      <trkpt lat="47.85666" lon="2.23041">
        <ele>239.47</ele>
        <time>2022-05-23T06:48:15Z</time>
      </trkpt>
      <trkpt lat="47.85665" lon="2.23056">
        <ele>239.2</ele>
        <time>2022-05-23T06:48:19Z</time>
      </trkpt>
      <trkpt lat="47.85663" lon="2.23072">
        <ele>239.34</ele>
        <time>2022-05-23T06:48:24Z</time>
      </trkpt>
      <trkpt lat="47.85661" lon="2.23087">
        <ele>239.56</ele>
        <time>2022-05-23T06:48:30Z</time>
      </trkpt>
      <trkpt lat="47.85659" lon="2.23102">
        <ele>240.25</ele>
        <time>2022-05-23T06:48:35Z</time>
      </trkpt>
      <trkpt lat="47.85657" lon="2.23118">
        <ele>240.26</ele>
        <time>2022-05-23T06:48:40Z</time>
      </trkpt>
      <trkpt lat="47.85654" lon="2.23133">
        <ele>238.98</ele>
        <time>2022-05-23T06:48:45Z</time>
      </trkpt>
      <trkpt lat="47.85652" lon="2.23146">
        <ele>238.96</ele>
        <time>2022-05-23T06:48:49Z</time>
      </trkpt>
      <trkpt lat="47.8565" lon="2.2316">
        <ele>238.87</ele>
        <time>2022-05-23T06:48:56Z</time>
      </trkpt>
      <trkpt lat="47.85651" lon="2.23174">
        <ele>240.39</ele>
        <time>2022-05-23T06:49:08Z</time>
      </trkpt>
      <trkpt lat="47.85647" lon="2.23187">
        <ele>241.29</ele>
        <time>2022-05-23T06:49:12Z</time>
      </trkpt>
      <trkpt lat="47.8564" lon="2.23195">
        <ele>240.14</ele>
        <time>2022-05-23T06:49:16Z</time>
      </trkpt>
      <trkpt lat="47.85631" lon="2.23199">
        <ele>239.96</ele>
        <time>2022-05-23T06:49:20Z</time>
      </trkpt>
      <trkpt lat="47.85623" lon="2.2321">
        <ele>241.5</ele>
        <time>2022-05-23T06:49:25Z</time>
      </trkpt>
      <trkpt lat="47.85625" lon="2.23225">
        <ele>241.44</ele>
        <time>2022-05-23T06:49:31Z</time>
      </trkpt>
      <trkpt lat="47.85632" lon="2.23234">
        <ele>242.02</ele>
        <time>2022-05-23T06:49:37Z</time>
      </trkpt>
      <trkpt lat="47.85624" lon="2.23226">
        <ele>240.8</ele>
        <time>2022-05-23T06:51:27Z</time>
      </trkpt>
      <trkpt lat="47.85621" lon="2.23211">
        <ele>240.35</ele>
        <time>2022-05-23T06:51:31Z</time>
      </trkpt>
      <trkpt lat="47.85626" lon="2.23199">
        <ele>240.16</ele>
        <time>2022-05-23T06:51:35Z</time>
      </trkpt>
      <trkpt lat="47.85635" lon="2.23192">
        <ele>240.83</ele>
        <time>2022-05-23T06:51:39Z</time>
      </trkpt>
      <trkpt lat="47.85645" lon="2.23186">
        <ele>241.27</ele>
        <time>2022-05-23T06:51:43Z</time>
      </trkpt>
      <trkpt lat="47.85648" lon="2.23171">
        <ele>241.62</ele>
        <time>2022-05-23T06:51:47Z</time>
      </trkpt>
      <trkpt lat="47.8565" lon="2.23154">
        <ele>241.32</ele>
        <time>2022-05-23T06:51:51Z</time>
      </trkpt>
      <trkpt lat="47.85652" lon="2.23137">
        <ele>241.24</ele>
        <time>2022-05-23T06:51:55Z</time>
      </trkpt>
      <trkpt lat="47.85655" lon="2.23124">
        <ele>240.9</ele>
        <time>2022-05-23T06:51:58Z</time>
      </trkpt>
      <trkpt lat="47.85657" lon="2.2311">
        <ele>240.75</ele>
        <time>2022-05-23T06:52:01Z</time>
      </trkpt>
      <trkpt lat="47.85659" lon="2.23095">
        <ele>240.49</ele>
        <time>2022-05-23T06:52:04Z</time>
      </trkpt>
      <trkpt lat="47.85661" lon="2.23081">
        <ele>240.49</ele>
        <time>2022-05-23T06:52:07Z</time>
      </trkpt>
      <trkpt lat="47.85663" lon="2.23068">
        <ele>240.18</ele>
        <time>2022-05-23T06:52:10Z</time>
      </trkpt>
      <trkpt lat="47.85665" lon="2.23052">
        <ele>239.95</ele>
        <time>2022-05-23T06:52:14Z</time>
      </trkpt>
      <trkpt lat="47.85666" lon="2.23037">
        <ele>239.84</ele>
        <time>2022-05-23T06:52:19Z</time>
      </trkpt>
      <trkpt lat="47.85671" lon="2.23025">
        <ele>239.83</ele>
        <time>2022-05-23T06:53:10Z</time>
      </trkpt>
      <trkpt lat="47.85675" lon="2.23019">
        <ele>237.96</ele>
        <time>2022-05-23T06:55:11Z</time>
      </trkpt>
      <trkpt lat="47.85675" lon="2.23005">
        <ele>238.45</ele>
        <time>2022-05-23T06:56:18Z</time>
      </trkpt>
      <trkpt lat="47.85674" lon="2.23007">
        <ele>238.05</ele>
        <time>2022-05-23T06:58:19Z</time>
      </trkpt>
      <trkpt lat="47.85672" lon="2.23011">
        <ele>235.68</ele>
        <time>2022-05-23T07:00:20Z</time>
      </trkpt>
      <trkpt lat="47.85672" lon="2.23009">
        <ele>234.75</ele>
        <time>2022-05-23T07:02:21Z</time>
      </trkpt>
      <trkpt lat="47.85672" lon="2.23009">
        <ele>234.67</ele>
        <time>2022-05-23T07:04:22Z</time>
      </trkpt>
      <trkpt lat="47.85671" lon="2.22995">
        <ele>237.29</ele>
        <time>2022-05-23T07:05:53Z</time>
      </trkpt>
      <trkpt lat="47.85672" lon="2.22982">
        <ele>237.32</ele>
        <time>2022-05-23T07:06:07Z</time>
      </trkpt>
      <trkpt lat="47.85673" lon="2.22966">
        <ele>237.15</ele>
        <time>2022-05-23T07:06:16Z</time>
      </trkpt>
      <trkpt lat="47.85672" lon="2.22953">
        <ele>237.12</ele>
        <time>2022-05-23T07:06:21Z</time>
      </trkpt>
      <trkpt lat="47.85672" lon="2.22939">
        <ele>238.3</ele>
        <time>2022-05-23T07:06:26Z</time>
      </trkpt>
      <trkpt lat="47.85673" lon="2.22923">
        <ele>238.42</ele>
        <time>2022-05-23T07:06:31Z</time>
      </trkpt>
      <trkpt lat="47.85672" lon="2.2291">
        <ele>239.04</ele>
        <time>2022-05-23T07:06:35Z</time>
      </trkpt>
      <trkpt lat="47.85672" lon="2.22895">
        <ele>239.08</ele>
        <time>2022-05-23T07:06:39Z</time>
      </trkpt>
      <trkpt lat="47.85672" lon="2.22881">
        <ele>238.87</ele>
        <time>2022-05-23T07:06:43Z</time>
      </trkpt>
      <trkpt lat="47.85672" lon="2.22865">
        <ele>238.14</ele>
        <time>2022-05-23T07:06:47Z</time>
      </trkpt>
      <trkpt lat="47.85672" lon="2.22847">
        <ele>238.36</ele>
        <time>2022-05-23T07:06:51Z</time>
      </trkpt>
      <trkpt lat="47.85673" lon="2.22831">
        <ele>237.99</ele>
        <time>2022-05-23T07:06:55Z</time>
      </trkpt>
      <trkpt lat="47.85673" lon="2.22814">
        <ele>237.45</ele>
        <time>2022-05-23T07:06:59Z</time>
      </trkpt>
      <trkpt lat="47.85673" lon="2.22797">
        <ele>237.59</ele>
        <time>2022-05-23T07:07:03Z</time>
      </trkpt>
      <trkpt lat="47.85674" lon="2.22781">
        <ele>239.84</ele>
        <time>2022-05-23T07:07:07Z</time>
      </trkpt>
      <trkpt lat="47.85675" lon="2.22767">
        <ele>239.94</ele>
        <time>2022-05-23T07:07:10Z</time>
      </trkpt>
      <trkpt lat="47.85675" lon="2.22752">
        <ele>241.01</ele>
        <time>2022-05-23T07:07:13Z</time>
      </trkpt>
      <trkpt lat="47.85675" lon="2.22734">
        <ele>239.72</ele>
        <time>2022-05-23T07:07:17Z</time>
      </trkpt>
      <trkpt lat="47.85674" lon="2.2272">
        <ele>239.75</ele>
        <time>2022-05-23T07:07:20Z</time>
      </trkpt>
      <trkpt lat="47.85674" lon="2.22703">
        <ele>239.27</ele>
        <time>2022-05-23T07:07:24Z</time>
      </trkpt>
      <trkpt lat="47.85675" lon="2.22686">
        <ele>239.71</ele>
        <time>2022-05-23T07:07:28Z</time>
      </trkpt>
      <trkpt lat="47.85676" lon="2.22669">
        <ele>239.65</ele>
        <time>2022-05-23T07:07:32Z</time>
      </trkpt>
      <trkpt lat="47.85675" lon="2.22652">
        <ele>238.69</ele>
        <time>2022-05-23T07:07:36Z</time>
      </trkpt>
      <trkpt lat="47.85675" lon="2.22639">
        <ele>239</ele>
        <time>2022-05-23T07:07:39Z</time>
      </trkpt>
      <trkpt lat="47.85675" lon="2.22625">
        <ele>238.63</ele>
        <time>2022-05-23T07:07:42Z</time>
      </trkpt>
      <trkpt lat="47.85676" lon="2.22611">
        <ele>238.7</ele>
        <time>2022-05-23T07:07:45Z</time>
      </trkpt>
      <trkpt lat="47.85676" lon="2.22594">
        <ele>238.8</ele>
        <time>2022-05-23T07:07:49Z</time>
      </trkpt>
      <trkpt lat="47.85676" lon="2.22577">
        <ele>238.41</ele>
        <time>2022-05-23T07:07:53Z</time>
      </trkpt>
      <trkpt lat="47.85676" lon="2.22563">
        <ele>238.29</ele>
        <time>2022-05-23T07:07:56Z</time>
      </trkpt>
      <trkpt lat="47.85676" lon="2.22546">
        <ele>238</ele>
        <time>2022-05-23T07:08:00Z</time>
      </trkpt>
      <trkpt lat="47.85676" lon="2.22528">
        <ele>238.53</ele>
        <time>2022-05-23T07:08:04Z</time>
      </trkpt>
      <trkpt lat="47.85677" lon="2.22514">
        <ele>238.51</ele>
        <time>2022-05-23T07:08:07Z</time>
      </trkpt>
      <trkpt lat="47.85677" lon="2.22499">
        <ele>237.58</ele>
        <time>2022-05-23T07:08:11Z</time>
      </trkpt>
      <trkpt lat="47.85677" lon="2.22483">
        <ele>237.76</ele>
        <time>2022-05-23T07:08:15Z</time>
      </trkpt>
      <trkpt lat="47.85677" lon="2.22467">
        <ele>238.02</ele>
        <time>2022-05-23T07:08:19Z</time>
      </trkpt>
      <trkpt lat="47.85678" lon="2.22451">
        <ele>239.82</ele>
        <time>2022-05-23T07:08:23Z</time>
      </trkpt>
      <trkpt lat="47.85679" lon="2.22435">
        <ele>239.43</ele>
        <time>2022-05-23T07:08:27Z</time>
      </trkpt>
      <trkpt lat="47.85679" lon="2.2242">
        <ele>239.8</ele>
        <time>2022-05-23T07:08:31Z</time>
      </trkpt>
      <trkpt lat="47.85677" lon="2.22407">
        <ele>239.65</ele>
        <time>2022-05-23T07:08:34Z</time>
      </trkpt>
      <trkpt lat="47.85678" lon="2.22392">
        <ele>239.94</ele>
        <time>2022-05-23T07:08:39Z</time>
      </trkpt>
      <trkpt lat="47.85679" lon="2.22377">
        <ele>239.52</ele>
        <time>2022-05-23T07:08:44Z</time>
      </trkpt>
      <trkpt lat="47.8568" lon="2.22362">
        <ele>240.5</ele>
        <time>2022-05-23T07:08:51Z</time>
      </trkpt>
      <trkpt lat="47.85688" lon="2.22354">
        <ele>241.72</ele>
        <time>2022-05-23T07:08:55Z</time>
      </trkpt>
      <trkpt lat="47.85699" lon="2.22354">
        <ele>242.2</ele>
        <time>2022-05-23T07:08:59Z</time>
      </trkpt>
      <trkpt lat="47.8571" lon="2.22353">
        <ele>242.37</ele>
        <time>2022-05-23T07:09:03Z</time>
      </trkpt>
      <trkpt lat="47.8572" lon="2.22353">
        <ele>243.23</ele>
        <time>2022-05-23T07:09:06Z</time>
      </trkpt>
      <trkpt lat="47.85731" lon="2.22351">
        <ele>243.97</ele>
        <time>2022-05-23T07:09:10Z</time>
      </trkpt>
      <trkpt lat="47.85742" lon="2.2235">
        <ele>244.88</ele>
        <time>2022-05-23T07:09:14Z</time>
      </trkpt>
      <trkpt lat="47.85753" lon="2.22349">
        <ele>245.64</ele>
        <time>2022-05-23T07:09:18Z</time>
      </trkpt>
      <trkpt lat="47.85762" lon="2.22348">
        <ele>245.49</ele>
        <time>2022-05-23T07:09:21Z</time>
      </trkpt>
      <trkpt lat="47.85772" lon="2.22347">
        <ele>246.17</ele>
        <time>2022-05-23T07:09:24Z</time>
      </trkpt>
      <trkpt lat="47.85782" lon="2.22346">
        <ele>245.22</ele>
        <time>2022-05-23T07:09:27Z</time>
      </trkpt>
      <trkpt lat="47.85792" lon="2.22345">
        <ele>245.47</ele>
        <time>2022-05-23T07:09:30Z</time>
      </trkpt>
      <trkpt lat="47.85801" lon="2.22344">
        <ele>245.17</ele>
        <time>2022-05-23T07:09:33Z</time>
      </trkpt>
      <trkpt lat="47.85812" lon="2.22343">
        <ele>245.01</ele>
        <time>2022-05-23T07:09:36Z</time>
      </trkpt>
      <trkpt lat="47.85824" lon="2.22342">
        <ele>245.67</ele>
        <time>2022-05-23T07:09:39Z</time>
      </trkpt>
      <trkpt lat="47.85834" lon="2.22341">
        <ele>245.71</ele>
        <time>2022-05-23T07:09:42Z</time>
      </trkpt>
      <trkpt lat="47.85843" lon="2.2234">
        <ele>245.76</ele>
        <time>2022-05-23T07:09:45Z</time>
      </trkpt>
      <trkpt lat="47.85853" lon="2.22339">
        <ele>245.99</ele>
        <time>2022-05-23T07:09:48Z</time>
      </trkpt>
      <trkpt lat="47.85864" lon="2.22338">
        <ele>246.14</ele>
        <time>2022-05-23T07:09:51Z</time>
      </trkpt>
      <trkpt lat="47.85875" lon="2.22337">
        <ele>246.34</ele>
        <time>2022-05-23T07:09:54Z</time>
      </trkpt>
      <trkpt lat="47.85885" lon="2.22336">
        <ele>244.91</ele>
        <time>2022-05-23T07:09:57Z</time>
      </trkpt>
      <trkpt lat="47.85896" lon="2.22336">
        <ele>245.26</ele>
        <time>2022-05-23T07:10:00Z</time>
      </trkpt>
      <trkpt lat="47.85907" lon="2.22334">
        <ele>245.35</ele>
        <time>2022-05-23T07:10:03Z</time>
      </trkpt>
      <trkpt lat="47.85917" lon="2.22333">
        <ele>245.27</ele>
        <time>2022-05-23T07:10:06Z</time>
      </trkpt>
      <trkpt lat="47.85927" lon="2.22332">
        <ele>244.84</ele>
        <time>2022-05-23T07:10:09Z</time>
      </trkpt>
      <trkpt lat="47.85936" lon="2.22331">
        <ele>244.48</ele>
        <time>2022-05-23T07:10:12Z</time>
      </trkpt>
      <trkpt lat="47.85946" lon="2.2233">
        <ele>244.99</ele>
        <time>2022-05-23T07:10:15Z</time>
      </trkpt>
      <trkpt lat="47.85958" lon="2.22329">
        <ele>244.87</ele>
        <time>2022-05-23T07:10:18Z</time>
      </trkpt>
      <trkpt lat="47.85969" lon="2.22327">
        <ele>244.97</ele>
        <time>2022-05-23T07:10:21Z</time>
      </trkpt>
      <trkpt lat="47.85981" lon="2.22326">
        <ele>244.96</ele>
        <time>2022-05-23T07:10:24Z</time>
      </trkpt>
      <trkpt lat="47.85993" lon="2.22326">
        <ele>244.65</ele>
        <time>2022-05-23T07:10:27Z</time>
      </trkpt>
      <trkpt lat="47.85999" lon="2.22339">
        <ele>244.4</ele>
        <time>2022-05-23T07:10:30Z</time>
      </trkpt>
      <trkpt lat="47.85997" lon="2.22356">
        <ele>243.85</ele>
        <time>2022-05-23T07:10:33Z</time>
      </trkpt>
      <trkpt lat="47.85995" lon="2.22373">
        <ele>243.38</ele>
        <time>2022-05-23T07:10:36Z</time>
      </trkpt>
      <trkpt lat="47.85995" lon="2.2239">
        <ele>243.67</ele>
        <time>2022-05-23T07:10:39Z</time>
      </trkpt>
      <trkpt lat="47.85997" lon="2.22404">
        <ele>243.63</ele>
        <time>2022-05-23T07:10:42Z</time>
      </trkpt>
      <trkpt lat="47.86007" lon="2.22413">
        <ele>244.54</ele>
        <time>2022-05-23T07:10:46Z</time>
      </trkpt>
      <trkpt lat="47.86017" lon="2.22418">
        <ele>246.14</ele>
        <time>2022-05-23T07:10:50Z</time>
      </trkpt>
      <trkpt lat="47.86028" lon="2.22423">
        <ele>244.88</ele>
        <time>2022-05-23T07:10:54Z</time>
      </trkpt>
      <trkpt lat="47.86039" lon="2.22429">
        <ele>245.61</ele>
        <time>2022-05-23T07:10:58Z</time>
      </trkpt>
      <trkpt lat="47.8605" lon="2.22434">
        <ele>245.81</ele>
        <time>2022-05-23T07:11:02Z</time>
      </trkpt>
      <trkpt lat="47.8606" lon="2.22439">
        <ele>246.97</ele>
        <time>2022-05-23T07:11:06Z</time>
      </trkpt>
      <trkpt lat="47.86069" lon="2.22444">
        <ele>247.98</ele>
        <time>2022-05-23T07:11:10Z</time>
      </trkpt>
      <trkpt lat="47.86074" lon="2.22456">
        <ele>248.75</ele>
        <time>2022-05-23T07:11:14Z</time>
      </trkpt>
      <trkpt lat="47.8607" lon="2.22475">
        <ele>249.2</ele>
        <time>2022-05-23T07:11:18Z</time>
      </trkpt>
      <trkpt lat="47.86066" lon="2.22488">
        <ele>249.66</ele>
        <time>2022-05-23T07:11:21Z</time>
      </trkpt>
      <trkpt lat="47.8606" lon="2.22499">
        <ele>250.44</ele>
        <time>2022-05-23T07:11:24Z</time>
      </trkpt>
      <trkpt lat="47.86056" lon="2.22511">
        <ele>250.9</ele>
        <time>2022-05-23T07:11:27Z</time>
      </trkpt>
      <trkpt lat="47.86051" lon="2.22523">
        <ele>250.94</ele>
        <time>2022-05-23T07:11:30Z</time>
      </trkpt>
      <trkpt lat="47.86048" lon="2.22536">
        <ele>250.68</ele>
        <time>2022-05-23T07:11:33Z</time>
      </trkpt>
      <trkpt lat="47.8605" lon="2.2255">
        <ele>251.43</ele>
        <time>2022-05-23T07:11:36Z</time>
      </trkpt>
      <trkpt lat="47.86059" lon="2.22558">
        <ele>251.67</ele>
        <time>2022-05-23T07:11:39Z</time>
      </trkpt>
      <trkpt lat="47.86068" lon="2.22562">
        <ele>251.62</ele>
        <time>2022-05-23T07:11:42Z</time>
      </trkpt>
      <trkpt lat="47.86077" lon="2.22569">
        <ele>252.58</ele>
        <time>2022-05-23T07:11:45Z</time>
      </trkpt>
      <trkpt lat="47.86085" lon="2.22575">
        <ele>251.91</ele>
        <time>2022-05-23T07:11:48Z</time>
      </trkpt>
      <trkpt lat="47.86094" lon="2.22581">
        <ele>252.55</ele>
        <time>2022-05-23T07:11:51Z</time>
      </trkpt>
      <trkpt lat="47.86103" lon="2.22587">
        <ele>252.37</ele>
        <time>2022-05-23T07:11:54Z</time>
      </trkpt>
      <trkpt lat="47.86111" lon="2.22594">
        <ele>252.55</ele>
        <time>2022-05-23T07:11:57Z</time>
      </trkpt>
      <trkpt lat="47.86118" lon="2.22602">
        <ele>252.81</ele>
        <time>2022-05-23T07:12:00Z</time>
      </trkpt>
      <trkpt lat="47.86126" lon="2.22609">
        <ele>252.64</ele>
        <time>2022-05-23T07:12:03Z</time>
      </trkpt>
      <trkpt lat="47.86134" lon="2.22617">
        <ele>253.06</ele>
        <time>2022-05-23T07:12:06Z</time>
      </trkpt>
      <trkpt lat="47.86144" lon="2.22626">
        <ele>253</ele>
        <time>2022-05-23T07:12:10Z</time>
      </trkpt>
      <trkpt lat="47.86152" lon="2.22634">
        <ele>253.15</ele>
        <time>2022-05-23T07:12:13Z</time>
      </trkpt>
      <trkpt lat="47.86159" lon="2.22642">
        <ele>253.34</ele>
        <time>2022-05-23T07:12:16Z</time>
      </trkpt>
      <trkpt lat="47.86167" lon="2.22649">
        <ele>253.54</ele>
        <time>2022-05-23T07:12:19Z</time>
      </trkpt>
      <trkpt lat="47.86177" lon="2.22658">
        <ele>254.04</ele>
        <time>2022-05-23T07:12:23Z</time>
      </trkpt>
      <trkpt lat="47.86186" lon="2.22665">
        <ele>254.46</ele>
        <time>2022-05-23T07:12:27Z</time>
      </trkpt>
      <trkpt lat="47.86195" lon="2.22671">
        <ele>254.78</ele>
        <time>2022-05-23T07:12:31Z</time>
      </trkpt>
      <trkpt lat="47.86204" lon="2.22677">
        <ele>255.14</ele>
        <time>2022-05-23T07:12:35Z</time>
      </trkpt>
      <trkpt lat="47.86214" lon="2.22686">
        <ele>255.43</ele>
        <time>2022-05-23T07:12:39Z</time>
      </trkpt>
      <trkpt lat="47.86222" lon="2.22694">
        <ele>255.6</ele>
        <time>2022-05-23T07:12:43Z</time>
      </trkpt>
      <trkpt lat="47.86231" lon="2.22698">
        <ele>255.69</ele>
        <time>2022-05-23T07:12:48Z</time>
      </trkpt>
      <trkpt lat="47.86241" lon="2.22705">
        <ele>255.85</ele>
        <time>2022-05-23T07:12:53Z</time>
      </trkpt>
      <trkpt lat="47.86246" lon="2.22716">
        <ele>256.22</ele>
        <time>2022-05-23T07:12:57Z</time>
      </trkpt>
      <trkpt lat="47.86249" lon="2.2273">
        <ele>256.03</ele>
        <time>2022-05-23T07:13:01Z</time>
      </trkpt>
      <trkpt lat="47.86253" lon="2.22745">
        <ele>256.18</ele>
        <time>2022-05-23T07:13:05Z</time>
      </trkpt>
      <trkpt lat="47.86256" lon="2.2276">
        <ele>256.75</ele>
        <time>2022-05-23T07:13:09Z</time>
      </trkpt>
      <trkpt lat="47.86261" lon="2.22778">
        <ele>256.75</ele>
        <time>2022-05-23T07:13:13Z</time>
      </trkpt>
      <trkpt lat="47.86264" lon="2.22794">
        <ele>256.93</ele>
        <time>2022-05-23T07:13:16Z</time>
      </trkpt>
      <trkpt lat="47.86268" lon="2.22808">
        <ele>257.06</ele>
        <time>2022-05-23T07:13:19Z</time>
      </trkpt>
      <trkpt lat="47.86272" lon="2.22822">
        <ele>256.99</ele>
        <time>2022-05-23T07:13:22Z</time>
      </trkpt>
      <trkpt lat="47.86277" lon="2.22836">
        <ele>256.74</ele>
        <time>2022-05-23T07:13:25Z</time>
      </trkpt>
      <trkpt lat="47.86281" lon="2.2285">
        <ele>256.79</ele>
        <time>2022-05-23T07:13:28Z</time>
      </trkpt>
      <trkpt lat="47.86286" lon="2.22863">
        <ele>256.67</ele>
        <time>2022-05-23T07:13:31Z</time>
      </trkpt>
      <trkpt lat="47.86291" lon="2.22878">
        <ele>256.27</ele>
        <time>2022-05-23T07:13:35Z</time>
      </trkpt>
      <trkpt lat="47.86294" lon="2.22891">
        <ele>255.83</ele>
        <time>2022-05-23T07:13:38Z</time>
      </trkpt>
      <trkpt lat="47.86299" lon="2.22903">
        <ele>255.64</ele>
        <time>2022-05-23T07:13:41Z</time>
      </trkpt>
      <trkpt lat="47.86303" lon="2.22917">
        <ele>255.5</ele>
        <time>2022-05-23T07:13:44Z</time>
      </trkpt>
      <trkpt lat="47.86309" lon="2.22931">
        <ele>255.82</ele>
        <time>2022-05-23T07:13:47Z</time>
      </trkpt>
      <trkpt lat="47.86314" lon="2.22944">
        <ele>255.98</ele>
        <time>2022-05-23T07:13:50Z</time>
      </trkpt>
      <trkpt lat="47.86319" lon="2.22958">
        <ele>256.34</ele>
        <time>2022-05-23T07:13:53Z</time>
      </trkpt>
      <trkpt lat="47.86324" lon="2.22971">
        <ele>256.66</ele>
        <time>2022-05-23T07:13:56Z</time>
      </trkpt>
      <trkpt lat="47.8633" lon="2.22985">
        <ele>256.62</ele>
        <time>2022-05-23T07:13:59Z</time>
      </trkpt>
      <trkpt lat="47.86336" lon="2.22998">
        <ele>256.81</ele>
        <time>2022-05-23T07:14:02Z</time>
      </trkpt>
      <trkpt lat="47.86341" lon="2.23012">
        <ele>256.49</ele>
        <time>2022-05-23T07:14:05Z</time>
      </trkpt>
      <trkpt lat="47.86346" lon="2.23026">
        <ele>256.43</ele>
        <time>2022-05-23T07:14:08Z</time>
      </trkpt>
      <trkpt lat="47.86351" lon="2.2304">
        <ele>256.76</ele>
        <time>2022-05-23T07:14:11Z</time>
      </trkpt>
      <trkpt lat="47.86356" lon="2.23053">
        <ele>257.01</ele>
        <time>2022-05-23T07:14:14Z</time>
      </trkpt>
      <trkpt lat="47.8636" lon="2.23067">
        <ele>257.11</ele>
        <time>2022-05-23T07:14:17Z</time>
      </trkpt>
      <trkpt lat="47.86365" lon="2.23081">
        <ele>256.73</ele>
        <time>2022-05-23T07:14:20Z</time>
      </trkpt>
      <trkpt lat="47.86369" lon="2.23096">
        <ele>257.12</ele>
        <time>2022-05-23T07:14:23Z</time>
      </trkpt>
      <trkpt lat="47.86373" lon="2.23114">
        <ele>257.36</ele>
        <time>2022-05-23T07:14:26Z</time>
      </trkpt>
      <trkpt lat="47.86376" lon="2.23133">
        <ele>257.41</ele>
        <time>2022-05-23T07:14:29Z</time>
      </trkpt>
      <trkpt lat="47.86381" lon="2.23149">
        <ele>257.32</ele>
        <time>2022-05-23T07:14:32Z</time>
      </trkpt>
      <trkpt lat="47.86384" lon="2.23165">
        <ele>257.45</ele>
        <time>2022-05-23T07:14:35Z</time>
      </trkpt>
      <trkpt lat="47.86388" lon="2.2318">
        <ele>257.43</ele>
        <time>2022-05-23T07:14:38Z</time>
      </trkpt>
      <trkpt lat="47.86392" lon="2.23195">
        <ele>257.67</ele>
        <time>2022-05-23T07:14:41Z</time>
      </trkpt>
      <trkpt lat="47.86396" lon="2.2321">
        <ele>257.81</ele>
        <time>2022-05-23T07:14:44Z</time>
      </trkpt>
      <trkpt lat="47.864" lon="2.23225">
        <ele>257.76</ele>
        <time>2022-05-23T07:14:47Z</time>
      </trkpt>
      <trkpt lat="47.86405" lon="2.2324">
        <ele>257.75</ele>
        <time>2022-05-23T07:14:50Z</time>
      </trkpt>
      <trkpt lat="47.86407" lon="2.23256">
        <ele>257.84</ele>
        <time>2022-05-23T07:14:53Z</time>
      </trkpt>
      <trkpt lat="47.8641" lon="2.23271">
        <ele>257.98</ele>
        <time>2022-05-23T07:14:56Z</time>
      </trkpt>
      <trkpt lat="47.86413" lon="2.23285">
        <ele>258.1</ele>
        <time>2022-05-23T07:14:59Z</time>
      </trkpt>
      <trkpt lat="47.86417" lon="2.23299">
        <ele>258.26</ele>
        <time>2022-05-23T07:15:02Z</time>
      </trkpt>
      <trkpt lat="47.8642" lon="2.23313">
        <ele>258.13</ele>
        <time>2022-05-23T07:15:05Z</time>
      </trkpt>
      <trkpt lat="47.86423" lon="2.23328">
        <ele>258.11</ele>
        <time>2022-05-23T07:15:08Z</time>
      </trkpt>
      <trkpt lat="47.86426" lon="2.23342">
        <ele>258.05</ele>
        <time>2022-05-23T07:15:11Z</time>
      </trkpt>
      <trkpt lat="47.8643" lon="2.23357">
        <ele>258.02</ele>
        <time>2022-05-23T07:15:14Z</time>
      </trkpt>
      <trkpt lat="47.86434" lon="2.23371">
        <ele>257.79</ele>
        <time>2022-05-23T07:15:17Z</time>
      </trkpt>
      <trkpt lat="47.86437" lon="2.23386">
        <ele>257.78</ele>
        <time>2022-05-23T07:15:20Z</time>
      </trkpt>
      <trkpt lat="47.8644" lon="2.234">
        <ele>257.91</ele>
        <time>2022-05-23T07:15:23Z</time>
      </trkpt>
      <trkpt lat="47.86443" lon="2.23414">
        <ele>258.32</ele>
        <time>2022-05-23T07:15:26Z</time>
      </trkpt>
      <trkpt lat="47.86446" lon="2.23428">
        <ele>258.79</ele>
        <time>2022-05-23T07:15:29Z</time>
      </trkpt>
      <trkpt lat="47.8645" lon="2.23446">
        <ele>258.44</ele>
        <time>2022-05-23T07:15:33Z</time>
      </trkpt>
      <trkpt lat="47.86456" lon="2.2346">
        <ele>258.82</ele>
        <time>2022-05-23T07:15:36Z</time>
      </trkpt>
      <trkpt lat="47.86462" lon="2.23475">
        <ele>259.07</ele>
        <time>2022-05-23T07:15:39Z</time>
      </trkpt>
      <trkpt lat="47.8647" lon="2.23489">
        <ele>258.97</ele>
        <time>2022-05-23T07:15:42Z</time>
      </trkpt>
      <trkpt lat="47.86478" lon="2.23502">
        <ele>258.91</ele>
        <time>2022-05-23T07:15:45Z</time>
      </trkpt>
      <trkpt lat="47.86487" lon="2.23514">
        <ele>259.04</ele>
        <time>2022-05-23T07:15:48Z</time>
      </trkpt>
      <trkpt lat="47.86495" lon="2.23526">
        <ele>259.08</ele>
        <time>2022-05-23T07:15:51Z</time>
      </trkpt>
      <trkpt lat="47.86504" lon="2.23538">
        <ele>259.54</ele>
        <time>2022-05-23T07:15:54Z</time>
      </trkpt>
      <trkpt lat="47.86514" lon="2.2355">
        <ele>259.38</ele>
        <time>2022-05-23T07:15:57Z</time>
      </trkpt>
      <trkpt lat="47.86523" lon="2.23562">
        <ele>259.47</ele>
        <time>2022-05-23T07:16:00Z</time>
      </trkpt>
      <trkpt lat="47.86532" lon="2.23574">
        <ele>259.5</ele>
        <time>2022-05-23T07:16:03Z</time>
      </trkpt>
      <trkpt lat="47.86542" lon="2.23586">
        <ele>259.06</ele>
        <time>2022-05-23T07:16:06Z</time>
      </trkpt>
      <trkpt lat="47.86551" lon="2.23599">
        <ele>259.28</ele>
        <time>2022-05-23T07:16:09Z</time>
      </trkpt>
      <trkpt lat="47.86561" lon="2.23614">
        <ele>259.33</ele>
        <time>2022-05-23T07:16:12Z</time>
      </trkpt>
      <trkpt lat="47.86569" lon="2.23628">
        <ele>259.33</ele>
        <time>2022-05-23T07:16:15Z</time>
      </trkpt>
      <trkpt lat="47.86575" lon="2.23639">
        <ele>259.23</ele>
        <time>2022-05-23T07:16:17Z</time>
      </trkpt>
      <trkpt lat="47.8658" lon="2.23651">
        <ele>259.28</ele>
        <time>2022-05-23T07:16:19Z</time>
      </trkpt>
      <trkpt lat="47.86586" lon="2.23662">
        <ele>259.36</ele>
        <time>2022-05-23T07:16:21Z</time>
      </trkpt>
      <trkpt lat="47.86594" lon="2.23678">
        <ele>259.5</ele>
        <time>2022-05-23T07:16:24Z</time>
      </trkpt>
      <trkpt lat="47.86601" lon="2.23694">
        <ele>259.49</ele>
        <time>2022-05-23T07:16:27Z</time>
      </trkpt>
      <trkpt lat="47.86608" lon="2.23711">
        <ele>259.29</ele>
        <time>2022-05-23T07:16:30Z</time>
      </trkpt>
      <trkpt lat="47.86616" lon="2.23727">
        <ele>259.5</ele>
        <time>2022-05-23T07:16:33Z</time>
      </trkpt>
      <trkpt lat="47.86623" lon="2.23742">
        <ele>259.84</ele>
        <time>2022-05-23T07:16:36Z</time>
      </trkpt>
      <trkpt lat="47.86631" lon="2.23757">
        <ele>259.52</ele>
        <time>2022-05-23T07:16:39Z</time>
      </trkpt>
      <trkpt lat="47.86639" lon="2.23772">
        <ele>259.33</ele>
        <time>2022-05-23T07:16:42Z</time>
      </trkpt>
      <trkpt lat="47.86646" lon="2.23784">
        <ele>258.99</ele>
        <time>2022-05-23T07:16:45Z</time>
      </trkpt>
      <trkpt lat="47.86654" lon="2.23797">
        <ele>259.04</ele>
        <time>2022-05-23T07:16:48Z</time>
      </trkpt>
      <trkpt lat="47.86662" lon="2.23809">
        <ele>259.26</ele>
        <time>2022-05-23T07:16:51Z</time>
      </trkpt>
      <trkpt lat="47.8667" lon="2.23823">
        <ele>258.86</ele>
        <time>2022-05-23T07:16:54Z</time>
      </trkpt>
      <trkpt lat="47.86678" lon="2.23836">
        <ele>258.83</ele>
        <time>2022-05-23T07:16:57Z</time>
      </trkpt>
      <trkpt lat="47.86686" lon="2.23852">
        <ele>259.01</ele>
        <time>2022-05-23T07:17:00Z</time>
      </trkpt>
      <trkpt lat="47.8669" lon="2.23864">
        <ele>258.96</ele>
        <time>2022-05-23T07:17:02Z</time>
      </trkpt>
      <trkpt lat="47.86693" lon="2.23877">
        <ele>259.44</ele>
        <time>2022-05-23T07:17:04Z</time>
      </trkpt>
      <trkpt lat="47.86695" lon="2.23895">
        <ele>259.55</ele>
        <time>2022-05-23T07:17:07Z</time>
      </trkpt>
      <trkpt lat="47.86694" lon="2.23911">
        <ele>259.54</ele>
        <time>2022-05-23T07:17:10Z</time>
      </trkpt>
      <trkpt lat="47.86692" lon="2.23928">
        <ele>259.3</ele>
        <time>2022-05-23T07:17:13Z</time>
      </trkpt>
      <trkpt lat="47.8669" lon="2.23944">
        <ele>259.24</ele>
        <time>2022-05-23T07:17:16Z</time>
      </trkpt>
      <trkpt lat="47.86689" lon="2.23961">
        <ele>259.15</ele>
        <time>2022-05-23T07:17:19Z</time>
      </trkpt>
      <trkpt lat="47.86687" lon="2.23978">
        <ele>258.66</ele>
        <time>2022-05-23T07:17:22Z</time>
      </trkpt>
      <trkpt lat="47.86685" lon="2.23995">
        <ele>258.8</ele>
        <time>2022-05-23T07:17:25Z</time>
      </trkpt>
      <trkpt lat="47.86682" lon="2.24013">
        <ele>258.62</ele>
        <time>2022-05-23T07:17:28Z</time>
      </trkpt>
      <trkpt lat="47.8668" lon="2.2403">
        <ele>258.52</ele>
        <time>2022-05-23T07:17:31Z</time>
      </trkpt>
      <trkpt lat="47.86677" lon="2.24047">
        <ele>258.63</ele>
        <time>2022-05-23T07:17:34Z</time>
      </trkpt>
      <trkpt lat="47.86674" lon="2.24063">
        <ele>258.76</ele>
        <time>2022-05-23T07:17:37Z</time>
      </trkpt>
      <trkpt lat="47.86671" lon="2.24078">
        <ele>258.83</ele>
        <time>2022-05-23T07:17:40Z</time>
      </trkpt>
      <trkpt lat="47.86668" lon="2.24092">
        <ele>258.55</ele>
        <time>2022-05-23T07:17:43Z</time>
      </trkpt>
      <trkpt lat="47.86665" lon="2.24106">
        <ele>258.31</ele>
        <time>2022-05-23T07:17:46Z</time>
      </trkpt>
      <trkpt lat="47.86663" lon="2.24119">
        <ele>257.89</ele>
        <time>2022-05-23T07:17:49Z</time>
      </trkpt>
      <trkpt lat="47.86662" lon="2.24137">
        <ele>258.12</ele>
        <time>2022-05-23T07:17:53Z</time>
      </trkpt>
      <trkpt lat="47.86669" lon="2.24149">
        <ele>258.61</ele>
        <time>2022-05-23T07:17:57Z</time>
      </trkpt>
      <trkpt lat="47.86679" lon="2.24156">
        <ele>258.72</ele>
        <time>2022-05-23T07:18:01Z</time>
      </trkpt>
      <trkpt lat="47.8669" lon="2.24162">
        <ele>258.98</ele>
        <time>2022-05-23T07:18:05Z</time>
      </trkpt>
      <trkpt lat="47.86699" lon="2.24172">
        <ele>259.08</ele>
        <time>2022-05-23T07:18:09Z</time>
      </trkpt>
      <trkpt lat="47.86707" lon="2.24183">
        <ele>259.16</ele>
        <time>2022-05-23T07:18:12Z</time>
      </trkpt>
      <trkpt lat="47.86713" lon="2.24196">
        <ele>259.33</ele>
        <time>2022-05-23T07:18:15Z</time>
      </trkpt>
      <trkpt lat="47.8672" lon="2.24209">
        <ele>259.63</ele>
        <time>2022-05-23T07:18:18Z</time>
      </trkpt>
      <trkpt lat="47.86726" lon="2.24222">
        <ele>259.23</ele>
        <time>2022-05-23T07:18:21Z</time>
      </trkpt>
      <trkpt lat="47.86733" lon="2.24235">
        <ele>259.24</ele>
        <time>2022-05-23T07:18:24Z</time>
      </trkpt>
      <trkpt lat="47.86739" lon="2.24248">
        <ele>259.64</ele>
        <time>2022-05-23T07:18:27Z</time>
      </trkpt>
      <trkpt lat="47.86745" lon="2.24261">
        <ele>258.68</ele>
        <time>2022-05-23T07:18:30Z</time>
      </trkpt>
      <trkpt lat="47.86746" lon="2.24276">
        <ele>258.94</ele>
        <time>2022-05-23T07:18:33Z</time>
      </trkpt>
      <trkpt lat="47.86741" lon="2.2429">
        <ele>258.28</ele>
        <time>2022-05-23T07:18:36Z</time>
      </trkpt>
      <trkpt lat="47.86732" lon="2.243">
        <ele>258.46</ele>
        <time>2022-05-23T07:18:39Z</time>
      </trkpt>
      <trkpt lat="47.86721" lon="2.24307">
        <ele>258.3</ele>
        <time>2022-05-23T07:18:42Z</time>
      </trkpt>
      <trkpt lat="47.86709" lon="2.24315">
        <ele>258.29</ele>
        <time>2022-05-23T07:18:45Z</time>
      </trkpt>
      <trkpt lat="47.86697" lon="2.24324">
        <ele>257.81</ele>
        <time>2022-05-23T07:18:48Z</time>
      </trkpt>
      <trkpt lat="47.86686" lon="2.24334">
        <ele>257.82</ele>
        <time>2022-05-23T07:18:51Z</time>
      </trkpt>
      <trkpt lat="47.86676" lon="2.24345">
        <ele>258.01</ele>
        <time>2022-05-23T07:18:54Z</time>
      </trkpt>
      <trkpt lat="47.86668" lon="2.24356">
        <ele>257.01</ele>
        <time>2022-05-23T07:18:57Z</time>
      </trkpt>
      <trkpt lat="47.8666" lon="2.2437">
        <ele>257.38</ele>
        <time>2022-05-23T07:19:00Z</time>
      </trkpt>
      <trkpt lat="47.86653" lon="2.24384">
        <ele>257.85</ele>
        <time>2022-05-23T07:19:03Z</time>
      </trkpt>
      <trkpt lat="47.86646" lon="2.24398">
        <ele>257.61</ele>
        <time>2022-05-23T07:19:06Z</time>
      </trkpt>
      <trkpt lat="47.86641" lon="2.24413">
        <ele>257.9</ele>
        <time>2022-05-23T07:19:09Z</time>
      </trkpt>
      <trkpt lat="47.86636" lon="2.24429">
        <ele>257.33</ele>
        <time>2022-05-23T07:19:12Z</time>
      </trkpt>
      <trkpt lat="47.86631" lon="2.24447">
        <ele>258.16</ele>
        <time>2022-05-23T07:19:15Z</time>
      </trkpt>
      <trkpt lat="47.86627" lon="2.24463">
        <ele>256.98</ele>
        <time>2022-05-23T07:19:18Z</time>
      </trkpt>
      <trkpt lat="47.86623" lon="2.24479">
        <ele>257.2</ele>
        <time>2022-05-23T07:19:21Z</time>
      </trkpt>
      <trkpt lat="47.86619" lon="2.24493">
        <ele>255.36</ele>
        <time>2022-05-23T07:19:24Z</time>
      </trkpt>
      <trkpt lat="47.86614" lon="2.24509">
        <ele>254.88</ele>
        <time>2022-05-23T07:19:27Z</time>
      </trkpt>
      <trkpt lat="47.8661" lon="2.24525">
        <ele>254.12</ele>
        <time>2022-05-23T07:19:30Z</time>
      </trkpt>
      <trkpt lat="47.86605" lon="2.24541">
        <ele>255.15</ele>
        <time>2022-05-23T07:19:33Z</time>
      </trkpt>
      <trkpt lat="47.86602" lon="2.24556">
        <ele>255.94</ele>
        <time>2022-05-23T07:19:36Z</time>
      </trkpt>
      <trkpt lat="47.86598" lon="2.24573">
        <ele>256.36</ele>
        <time>2022-05-23T07:19:39Z</time>
      </trkpt>
      <trkpt lat="47.86593" lon="2.24589">
        <ele>255.75</ele>
        <time>2022-05-23T07:19:42Z</time>
      </trkpt>
      <trkpt lat="47.86588" lon="2.24605">
        <ele>256.61</ele>
        <time>2022-05-23T07:19:45Z</time>
      </trkpt>
      <trkpt lat="47.86584" lon="2.2462">
        <ele>255.64</ele>
        <time>2022-05-23T07:19:48Z</time>
      </trkpt>
      <trkpt lat="47.86581" lon="2.24633">
        <ele>254.36</ele>
        <time>2022-05-23T07:19:51Z</time>
      </trkpt>
      <trkpt lat="47.86576" lon="2.24649">
        <ele>255.24</ele>
        <time>2022-05-23T07:19:54Z</time>
      </trkpt>
      <trkpt lat="47.86571" lon="2.24666">
        <ele>255.58</ele>
        <time>2022-05-23T07:19:57Z</time>
      </trkpt>
      <trkpt lat="47.86566" lon="2.24683">
        <ele>256.52</ele>
        <time>2022-05-23T07:20:00Z</time>
      </trkpt>
      <trkpt lat="47.86562" lon="2.247">
        <ele>258.22</ele>
        <time>2022-05-23T07:20:03Z</time>
      </trkpt>
      <trkpt lat="47.86557" lon="2.24717">
        <ele>258.63</ele>
        <time>2022-05-23T07:20:06Z</time>
      </trkpt>
      <trkpt lat="47.86553" lon="2.24733">
        <ele>258.45</ele>
        <time>2022-05-23T07:20:09Z</time>
      </trkpt>
      <trkpt lat="47.86552" lon="2.24749">
        <ele>257.77</ele>
        <time>2022-05-23T07:20:12Z</time>
      </trkpt>
      <trkpt lat="47.86552" lon="2.24765">
        <ele>257.94</ele>
        <time>2022-05-23T07:20:15Z</time>
      </trkpt>
      <trkpt lat="47.86555" lon="2.24782">
        <ele>258.19</ele>
        <time>2022-05-23T07:20:18Z</time>
      </trkpt>
      <trkpt lat="47.8656" lon="2.24797">
        <ele>258.17</ele>
        <time>2022-05-23T07:20:21Z</time>
      </trkpt>
      <trkpt lat="47.86568" lon="2.24812">
        <ele>258.16</ele>
        <time>2022-05-23T07:20:24Z</time>
      </trkpt>
      <trkpt lat="47.86575" lon="2.24826">
        <ele>258.32</ele>
        <time>2022-05-23T07:20:27Z</time>
      </trkpt>
      <trkpt lat="47.86582" lon="2.2484">
        <ele>258.43</ele>
        <time>2022-05-23T07:20:30Z</time>
      </trkpt>
      <trkpt lat="47.86588" lon="2.24853">
        <ele>258.83</ele>
        <time>2022-05-23T07:20:33Z</time>
      </trkpt>
      <trkpt lat="47.86595" lon="2.24868">
        <ele>258.72</ele>
        <time>2022-05-23T07:20:36Z</time>
      </trkpt>
      <trkpt lat="47.866" lon="2.24884">
        <ele>258.69</ele>
        <time>2022-05-23T07:20:39Z</time>
      </trkpt>
      <trkpt lat="47.86603" lon="2.24902">
        <ele>258.59</ele>
        <time>2022-05-23T07:20:42Z</time>
      </trkpt>
      <trkpt lat="47.86603" lon="2.24921">
        <ele>258.76</ele>
        <time>2022-05-23T07:20:45Z</time>
      </trkpt>
      <trkpt lat="47.86602" lon="2.2494">
        <ele>258.7</ele>
        <time>2022-05-23T07:20:48Z</time>
      </trkpt>
      <trkpt lat="47.866" lon="2.24959">
        <ele>258.57</ele>
        <time>2022-05-23T07:20:51Z</time>
      </trkpt>
      <trkpt lat="47.86597" lon="2.24978">
        <ele>258.07</ele>
        <time>2022-05-23T07:20:54Z</time>
      </trkpt>
      <trkpt lat="47.86597" lon="2.24992">
        <ele>258</ele>
        <time>2022-05-23T07:20:56Z</time>
      </trkpt>
      <trkpt lat="47.86595" lon="2.25011">
        <ele>257.74</ele>
        <time>2022-05-23T07:20:59Z</time>
      </trkpt>
      <trkpt lat="47.86593" lon="2.25029">
        <ele>258.2</ele>
        <time>2022-05-23T07:21:02Z</time>
      </trkpt>
      <trkpt lat="47.86592" lon="2.25046">
        <ele>258.29</ele>
        <time>2022-05-23T07:21:05Z</time>
      </trkpt>
      <trkpt lat="47.86591" lon="2.25064">
        <ele>258.55</ele>
        <time>2022-05-23T07:21:08Z</time>
      </trkpt>
      <trkpt lat="47.86589" lon="2.25082">
        <ele>258.56</ele>
        <time>2022-05-23T07:21:11Z</time>
      </trkpt>
      <trkpt lat="47.86587" lon="2.25101">
        <ele>258.55</ele>
        <time>2022-05-23T07:21:14Z</time>
      </trkpt>
      <trkpt lat="47.86586" lon="2.25119">
        <ele>258.28</ele>
        <time>2022-05-23T07:21:17Z</time>
      </trkpt>
      <trkpt lat="47.86584" lon="2.25136">
        <ele>258.12</ele>
        <time>2022-05-23T07:21:21Z</time>
      </trkpt>
      <trkpt lat="47.86583" lon="2.2515">
        <ele>257.83</ele>
        <time>2022-05-23T07:21:24Z</time>
      </trkpt>
      <trkpt lat="47.86581" lon="2.25165">
        <ele>257.64</ele>
        <time>2022-05-23T07:21:27Z</time>
      </trkpt>
      <trkpt lat="47.86578" lon="2.25181">
        <ele>257.49</ele>
        <time>2022-05-23T07:21:30Z</time>
      </trkpt>
      <trkpt lat="47.86574" lon="2.25197">
        <ele>257.71</ele>
        <time>2022-05-23T07:21:33Z</time>
      </trkpt>
      <trkpt lat="47.8657" lon="2.25212">
        <ele>258.05</ele>
        <time>2022-05-23T07:21:36Z</time>
      </trkpt>
      <trkpt lat="47.86565" lon="2.25228">
        <ele>258.23</ele>
        <time>2022-05-23T07:21:39Z</time>
      </trkpt>
      <trkpt lat="47.8656" lon="2.25244">
        <ele>258.52</ele>
        <time>2022-05-23T07:21:42Z</time>
      </trkpt>
      <trkpt lat="47.86555" lon="2.25259">
        <ele>258.7</ele>
        <time>2022-05-23T07:21:45Z</time>
      </trkpt>
      <trkpt lat="47.8655" lon="2.25275">
        <ele>258.27</ele>
        <time>2022-05-23T07:21:48Z</time>
      </trkpt>
      <trkpt lat="47.86545" lon="2.25291">
        <ele>258.02</ele>
        <time>2022-05-23T07:21:51Z</time>
      </trkpt>
      <trkpt lat="47.8654" lon="2.25307">
        <ele>258.1</ele>
        <time>2022-05-23T07:21:54Z</time>
      </trkpt>
      <trkpt lat="47.86536" lon="2.25324">
        <ele>258.02</ele>
        <time>2022-05-23T07:21:57Z</time>
      </trkpt>
      <trkpt lat="47.86532" lon="2.25338">
        <ele>258.1</ele>
        <time>2022-05-23T07:22:00Z</time>
      </trkpt>
      <trkpt lat="47.86528" lon="2.25354">
        <ele>258.07</ele>
        <time>2022-05-23T07:22:03Z</time>
      </trkpt>
      <trkpt lat="47.86524" lon="2.2537">
        <ele>258.13</ele>
        <time>2022-05-23T07:22:06Z</time>
      </trkpt>
      <trkpt lat="47.86521" lon="2.25387">
        <ele>257.86</ele>
        <time>2022-05-23T07:22:09Z</time>
      </trkpt>
      <trkpt lat="47.86518" lon="2.25405">
        <ele>258</ele>
        <time>2022-05-23T07:22:12Z</time>
      </trkpt>
      <trkpt lat="47.86515" lon="2.25423">
        <ele>258.29</ele>
        <time>2022-05-23T07:22:15Z</time>
      </trkpt>
      <trkpt lat="47.86513" lon="2.25443">
        <ele>258.39</ele>
        <time>2022-05-23T07:22:18Z</time>
      </trkpt>
      <trkpt lat="47.8651" lon="2.25461">
        <ele>258.23</ele>
        <time>2022-05-23T07:22:21Z</time>
      </trkpt>
      <trkpt lat="47.86507" lon="2.2548">
        <ele>258.41</ele>
        <time>2022-05-23T07:22:24Z</time>
      </trkpt>
      <trkpt lat="47.86505" lon="2.25498">
        <ele>258.34</ele>
        <time>2022-05-23T07:22:27Z</time>
      </trkpt>
      <trkpt lat="47.86502" lon="2.25516">
        <ele>257.9</ele>
        <time>2022-05-23T07:22:30Z</time>
      </trkpt>
      <trkpt lat="47.86498" lon="2.25533">
        <ele>257.91</ele>
        <time>2022-05-23T07:22:33Z</time>
      </trkpt>
      <trkpt lat="47.86493" lon="2.25551">
        <ele>257.94</ele>
        <time>2022-05-23T07:22:36Z</time>
      </trkpt>
      <trkpt lat="47.86487" lon="2.25567">
        <ele>258.07</ele>
        <time>2022-05-23T07:22:39Z</time>
      </trkpt>
      <trkpt lat="47.8648" lon="2.25581">
        <ele>258.03</ele>
        <time>2022-05-23T07:22:42Z</time>
      </trkpt>
      <trkpt lat="47.86472" lon="2.25595">
        <ele>258.07</ele>
        <time>2022-05-23T07:22:45Z</time>
      </trkpt>
      <trkpt lat="47.86463" lon="2.25611">
        <ele>257.71</ele>
        <time>2022-05-23T07:22:48Z</time>
      </trkpt>
      <trkpt lat="47.86456" lon="2.25625">
        <ele>257.55</ele>
        <time>2022-05-23T07:22:51Z</time>
      </trkpt>
      <trkpt lat="47.86449" lon="2.25638">
        <ele>257.38</ele>
        <time>2022-05-23T07:22:54Z</time>
      </trkpt>
      <trkpt lat="47.86444" lon="2.25651">
        <ele>257.32</ele>
        <time>2022-05-23T07:22:57Z</time>
      </trkpt>
      <trkpt lat="47.8644" lon="2.25664">
        <ele>257.63</ele>
        <time>2022-05-23T07:23:00Z</time>
      </trkpt>
      <trkpt lat="47.86437" lon="2.25681">
        <ele>258.01</ele>
        <time>2022-05-23T07:23:04Z</time>
      </trkpt>
      <trkpt lat="47.86436" lon="2.25695">
        <ele>258.65</ele>
        <time>2022-05-23T07:23:07Z</time>
      </trkpt>
      <trkpt lat="47.86436" lon="2.2571">
        <ele>259.16</ele>
        <time>2022-05-23T07:23:10Z</time>
      </trkpt>
      <trkpt lat="47.86437" lon="2.25725">
        <ele>259.2</ele>
        <time>2022-05-23T07:23:13Z</time>
      </trkpt>
      <trkpt lat="47.86438" lon="2.2574">
        <ele>259.29</ele>
        <time>2022-05-23T07:23:16Z</time>
      </trkpt>
      <trkpt lat="47.86439" lon="2.25756">
        <ele>259.85</ele>
        <time>2022-05-23T07:23:19Z</time>
      </trkpt>
      <trkpt lat="47.86441" lon="2.25771">
        <ele>259.7</ele>
        <time>2022-05-23T07:23:22Z</time>
      </trkpt>
      <trkpt lat="47.86442" lon="2.25784">
        <ele>259.82</ele>
        <time>2022-05-23T07:23:25Z</time>
      </trkpt>
      <trkpt lat="47.86443" lon="2.25798">
        <ele>259.4</ele>
        <time>2022-05-23T07:23:28Z</time>
      </trkpt>
      <trkpt lat="47.86443" lon="2.25812">
        <ele>259.66</ele>
        <time>2022-05-23T07:23:31Z</time>
      </trkpt>
      <trkpt lat="47.86443" lon="2.25826">
        <ele>259.33</ele>
        <time>2022-05-23T07:23:34Z</time>
      </trkpt>
      <trkpt lat="47.86443" lon="2.25841">
        <ele>259.58</ele>
        <time>2022-05-23T07:23:37Z</time>
      </trkpt>
      <trkpt lat="47.86441" lon="2.25855">
        <ele>259.21</ele>
        <time>2022-05-23T07:23:40Z</time>
      </trkpt>
      <trkpt lat="47.86438" lon="2.2587">
        <ele>258.85</ele>
        <time>2022-05-23T07:23:43Z</time>
      </trkpt>
      <trkpt lat="47.86435" lon="2.25885">
        <ele>258.63</ele>
        <time>2022-05-23T07:23:46Z</time>
      </trkpt>
      <trkpt lat="47.86431" lon="2.25901">
        <ele>258.29</ele>
        <time>2022-05-23T07:23:50Z</time>
      </trkpt>
      <trkpt lat="47.86427" lon="2.25914">
        <ele>258.59</ele>
        <time>2022-05-23T07:24:53Z</time>
      </trkpt>
      <trkpt lat="47.86416" lon="2.25916">
        <ele>258.59</ele>
        <time>2022-05-23T07:24:59Z</time>
      </trkpt>
      <trkpt lat="47.86405" lon="2.25913">
        <ele>258.76</ele>
        <time>2022-05-23T07:25:03Z</time>
      </trkpt>
      <trkpt lat="47.86395" lon="2.2591">
        <ele>258.85</ele>
        <time>2022-05-23T07:25:06Z</time>
      </trkpt>
      <trkpt lat="47.86386" lon="2.25909">
        <ele>258.94</ele>
        <time>2022-05-23T07:25:09Z</time>
      </trkpt>
      <trkpt lat="47.86375" lon="2.25907">
        <ele>259.13</ele>
        <time>2022-05-23T07:25:12Z</time>
      </trkpt>
      <trkpt lat="47.86366" lon="2.25906">
        <ele>259.02</ele>
        <time>2022-05-23T07:25:15Z</time>
      </trkpt>
      <trkpt lat="47.86355" lon="2.25903">
        <ele>259.02</ele>
        <time>2022-05-23T07:25:19Z</time>
      </trkpt>
      <trkpt lat="47.86346" lon="2.25901">
        <ele>258.61</ele>
        <time>2022-05-23T07:25:24Z</time>
      </trkpt>
      <trkpt lat="47.86337" lon="2.25899">
        <ele>258.3</ele>
        <time>2022-05-23T07:25:29Z</time>
      </trkpt>
      <trkpt lat="47.86327" lon="2.25898">
        <ele>260.12</ele>
        <time>2022-05-23T07:26:13Z</time>
      </trkpt>
      <trkpt lat="47.86317" lon="2.259">
        <ele>259.5</ele>
        <time>2022-05-23T07:26:35Z</time>
      </trkpt>
      <trkpt lat="47.86306" lon="2.25899">
        <ele>259.79</ele>
        <time>2022-05-23T07:26:39Z</time>
      </trkpt>
      <trkpt lat="47.86296" lon="2.25898">
        <ele>259.57</ele>
        <time>2022-05-23T07:26:42Z</time>
      </trkpt>
      <trkpt lat="47.86286" lon="2.25895">
        <ele>259.55</ele>
        <time>2022-05-23T07:26:45Z</time>
      </trkpt>
      <trkpt lat="47.86275" lon="2.25893">
        <ele>259.21</ele>
        <time>2022-05-23T07:26:48Z</time>
      </trkpt>
      <trkpt lat="47.86265" lon="2.2589">
        <ele>259.2</ele>
        <time>2022-05-23T07:26:51Z</time>
      </trkpt>
      <trkpt lat="47.86256" lon="2.25887">
        <ele>259.3</ele>
        <time>2022-05-23T07:26:54Z</time>
      </trkpt>
      <trkpt lat="47.86246" lon="2.25883">
        <ele>260.05</ele>
        <time>2022-05-23T07:26:58Z</time>
      </trkpt>
      <trkpt lat="47.86236" lon="2.25877">
        <ele>260.05</ele>
        <time>2022-05-23T07:27:02Z</time>
      </trkpt>
      <trkpt lat="47.86228" lon="2.25872">
        <ele>259.69</ele>
        <time>2022-05-23T07:27:06Z</time>
      </trkpt>
      <trkpt lat="47.86218" lon="2.25867">
        <ele>259.32</ele>
        <time>2022-05-23T07:27:10Z</time>
      </trkpt>
      <trkpt lat="47.86206" lon="2.2586">
        <ele>258.9</ele>
        <time>2022-05-23T07:27:13Z</time>
      </trkpt>
      <trkpt lat="47.86194" lon="2.25854">
        <ele>258.86</ele>
        <time>2022-05-23T07:27:16Z</time>
      </trkpt>
      <trkpt lat="47.86182" lon="2.25848">
        <ele>258.97</ele>
        <time>2022-05-23T07:27:19Z</time>
      </trkpt>
      <trkpt lat="47.86166" lon="2.25843">
        <ele>259.2</ele>
        <time>2022-05-23T07:27:23Z</time>
      </trkpt>
      <trkpt lat="47.86154" lon="2.25838">
        <ele>259.16</ele>
        <time>2022-05-23T07:27:26Z</time>
      </trkpt>
      <trkpt lat="47.86141" lon="2.25832">
        <ele>258.59</ele>
        <time>2022-05-23T07:27:29Z</time>
      </trkpt>
      <trkpt lat="47.86129" lon="2.25829">
        <ele>258.21</ele>
        <time>2022-05-23T07:27:32Z</time>
      </trkpt>
      <trkpt lat="47.86117" lon="2.25823">
        <ele>258.4</ele>
        <time>2022-05-23T07:27:35Z</time>
      </trkpt>
      <trkpt lat="47.86108" lon="2.25819">
        <ele>258.29</ele>
        <time>2022-05-23T07:27:37Z</time>
      </trkpt>
      <trkpt lat="47.86096" lon="2.25813">
        <ele>258.56</ele>
        <time>2022-05-23T07:27:40Z</time>
      </trkpt>
      <trkpt lat="47.86086" lon="2.25808">
        <ele>258.59</ele>
        <time>2022-05-23T07:27:43Z</time>
      </trkpt>
      <trkpt lat="47.86076" lon="2.25803">
        <ele>258.7</ele>
        <time>2022-05-23T07:27:46Z</time>
      </trkpt>
      <trkpt lat="47.86066" lon="2.25799">
        <ele>258.97</ele>
        <time>2022-05-23T07:27:49Z</time>
      </trkpt>
      <trkpt lat="47.86057" lon="2.25793">
        <ele>258.36</ele>
        <time>2022-05-23T07:27:53Z</time>
      </trkpt>
      <trkpt lat="47.86048" lon="2.25787">
        <ele>258.56</ele>
        <time>2022-05-23T07:27:58Z</time>
      </trkpt>
      <trkpt lat="47.86046" lon="2.25791">
        <ele>257.32</ele>
        <time>2022-05-23T07:29:59Z</time>
      </trkpt>
      <trkpt lat="47.86055" lon="2.25793">
        <ele>256.83</ele>
        <time>2022-05-23T07:30:25Z</time>
      </trkpt>
      <trkpt lat="47.86064" lon="2.25792">
        <ele>257.55</ele>
        <time>2022-05-23T07:30:36Z</time>
      </trkpt>
      <trkpt lat="47.86073" lon="2.25801">
        <ele>259.92</ele>
        <time>2022-05-23T07:31:45Z</time>
      </trkpt>
      <trkpt lat="47.86082" lon="2.25805">
        <ele>260.17</ele>
        <time>2022-05-23T07:31:49Z</time>
      </trkpt>
      <trkpt lat="47.86092" lon="2.2581">
        <ele>259.9</ele>
        <time>2022-05-23T07:31:53Z</time>
      </trkpt>
      <trkpt lat="47.86102" lon="2.25815">
        <ele>259.89</ele>
        <time>2022-05-23T07:31:57Z</time>
      </trkpt>
      <trkpt lat="47.86111" lon="2.25819">
        <ele>259.87</ele>
        <time>2022-05-23T07:32:01Z</time>
      </trkpt>
      <trkpt lat="47.86121" lon="2.25825">
        <ele>259.81</ele>
        <time>2022-05-23T07:32:05Z</time>
      </trkpt>
      <trkpt lat="47.8613" lon="2.25829">
        <ele>259.49</ele>
        <time>2022-05-23T07:32:09Z</time>
      </trkpt>
      <trkpt lat="47.8614" lon="2.25836">
        <ele>259.46</ele>
        <time>2022-05-23T07:32:14Z</time>
      </trkpt>
      <trkpt lat="47.8615" lon="2.25838">
        <ele>260.46</ele>
        <time>2022-05-23T07:32:50Z</time>
      </trkpt>
      <trkpt lat="47.86162" lon="2.25842">
        <ele>260.37</ele>
        <time>2022-05-23T07:32:54Z</time>
      </trkpt>
      <trkpt lat="47.86171" lon="2.25845">
        <ele>260.11</ele>
        <time>2022-05-23T07:32:57Z</time>
      </trkpt>
      <trkpt lat="47.8618" lon="2.25849">
        <ele>259.92</ele>
        <time>2022-05-23T07:33:00Z</time>
      </trkpt>
      <trkpt lat="47.86189" lon="2.25853">
        <ele>259.63</ele>
        <time>2022-05-23T07:33:03Z</time>
      </trkpt>
      <trkpt lat="47.862" lon="2.25859">
        <ele>259.46</ele>
        <time>2022-05-23T07:33:07Z</time>
      </trkpt>
      <trkpt lat="47.86209" lon="2.25865">
        <ele>259.77</ele>
        <time>2022-05-23T07:33:10Z</time>
      </trkpt>
      <trkpt lat="47.86218" lon="2.2587">
        <ele>259.98</ele>
        <time>2022-05-23T07:33:13Z</time>
      </trkpt>
      <trkpt lat="47.86228" lon="2.25877">
        <ele>259.84</ele>
        <time>2022-05-23T07:33:16Z</time>
      </trkpt>
      <trkpt lat="47.86238" lon="2.25882">
        <ele>259.59</ele>
        <time>2022-05-23T07:33:19Z</time>
      </trkpt>
      <trkpt lat="47.86248" lon="2.25887">
        <ele>259.45</ele>
        <time>2022-05-23T07:33:22Z</time>
      </trkpt>
      <trkpt lat="47.86257" lon="2.2589">
        <ele>259.25</ele>
        <time>2022-05-23T07:33:25Z</time>
      </trkpt>
      <trkpt lat="47.86269" lon="2.25894">
        <ele>258.93</ele>
        <time>2022-05-23T07:33:29Z</time>
      </trkpt>
      <trkpt lat="47.86279" lon="2.25897">
        <ele>258.85</ele>
        <time>2022-05-23T07:33:32Z</time>
      </trkpt>
      <trkpt lat="47.86291" lon="2.25899">
        <ele>258.73</ele>
        <time>2022-05-23T07:33:35Z</time>
      </trkpt>
      <trkpt lat="47.86304" lon="2.259">
        <ele>259.01</ele>
        <time>2022-05-23T07:33:38Z</time>
      </trkpt>
      <trkpt lat="47.86316" lon="2.25901">
        <ele>259.08</ele>
        <time>2022-05-23T07:33:41Z</time>
      </trkpt>
      <trkpt lat="47.86325" lon="2.25901">
        <ele>259.17</ele>
        <time>2022-05-23T07:33:44Z</time>
      </trkpt>
      <trkpt lat="47.86336" lon="2.25901">
        <ele>259.44</ele>
        <time>2022-05-23T07:33:49Z</time>
      </trkpt>
      <trkpt lat="47.86346" lon="2.25906">
        <ele>259.53</ele>
        <time>2022-05-23T07:33:54Z</time>
      </trkpt>
      <trkpt lat="47.86355" lon="2.25906">
        <ele>259.46</ele>
        <time>2022-05-23T07:34:23Z</time>
      </trkpt>
      <trkpt lat="47.86366" lon="2.25907">
        <ele>259.43</ele>
        <time>2022-05-23T07:34:27Z</time>
      </trkpt>
      <trkpt lat="47.86377" lon="2.25908">
        <ele>259.46</ele>
        <time>2022-05-23T07:34:30Z</time>
      </trkpt>
      <trkpt lat="47.86389" lon="2.2591">
        <ele>259.39</ele>
        <time>2022-05-23T07:34:33Z</time>
      </trkpt>
      <trkpt lat="47.864" lon="2.25912">
        <ele>259.29</ele>
        <time>2022-05-23T07:34:36Z</time>
      </trkpt>
      <trkpt lat="47.8641" lon="2.25915">
        <ele>259.03</ele>
        <time>2022-05-23T07:34:39Z</time>
      </trkpt>
      <trkpt lat="47.86419" lon="2.25919">
        <ele>258.68</ele>
        <time>2022-05-23T07:34:42Z</time>
      </trkpt>
      <trkpt lat="47.86428" lon="2.25922">
        <ele>258.88</ele>
        <time>2022-05-23T07:34:45Z</time>
      </trkpt>
      <trkpt lat="47.86437" lon="2.25928">
        <ele>259.1</ele>
        <time>2022-05-23T07:34:50Z</time>
      </trkpt>
      <trkpt lat="47.86447" lon="2.25933">
        <ele>259.48</ele>
        <time>2022-05-23T07:35:00Z</time>
      </trkpt>
      <trkpt lat="47.86457" lon="2.25939">
        <ele>259.43</ele>
        <time>2022-05-23T07:35:05Z</time>
      </trkpt>
      <trkpt lat="47.86466" lon="2.25941">
        <ele>259.13</ele>
        <time>2022-05-23T07:35:10Z</time>
      </trkpt>
      <trkpt lat="47.86476" lon="2.25951">
        <ele>260.37</ele>
        <time>2022-05-23T07:35:47Z</time>
      </trkpt>
      <trkpt lat="47.86485" lon="2.25956">
        <ele>260.13</ele>
        <time>2022-05-23T07:35:50Z</time>
      </trkpt>
      <trkpt lat="47.86494" lon="2.25961">
        <ele>260</ele>
        <time>2022-05-23T07:35:53Z</time>
      </trkpt>
      <trkpt lat="47.86503" lon="2.25966">
        <ele>259.8</ele>
        <time>2022-05-23T07:35:56Z</time>
      </trkpt>
      <trkpt lat="47.86513" lon="2.25972">
        <ele>259.72</ele>
        <time>2022-05-23T07:35:59Z</time>
      </trkpt>
      <trkpt lat="47.86524" lon="2.25977">
        <ele>259.4</ele>
        <time>2022-05-23T07:36:02Z</time>
      </trkpt>
      <trkpt lat="47.86533" lon="2.25979">
        <ele>258.63</ele>
        <time>2022-05-23T07:36:30Z</time>
      </trkpt>
      <trkpt lat="47.86537" lon="2.25991">
        <ele>258.62</ele>
        <time>2022-05-23T07:36:35Z</time>
      </trkpt>
      <trkpt lat="47.86546" lon="2.25998">
        <ele>260.99</ele>
        <time>2022-05-23T07:36:56Z</time>
      </trkpt>
      <trkpt lat="47.86552" lon="2.26011">
        <ele>260.86</ele>
        <time>2022-05-23T07:36:59Z</time>
      </trkpt>
      <trkpt lat="47.86555" lon="2.26023">
        <ele>260.94</ele>
        <time>2022-05-23T07:37:01Z</time>
      </trkpt>
      <trkpt lat="47.86559" lon="2.26036">
        <ele>260.8</ele>
        <time>2022-05-23T07:37:03Z</time>
      </trkpt>
      <trkpt lat="47.86562" lon="2.26051">
        <ele>260.81</ele>
        <time>2022-05-23T07:37:05Z</time>
      </trkpt>
      <trkpt lat="47.86566" lon="2.26065">
        <ele>261.12</ele>
        <time>2022-05-23T07:37:07Z</time>
      </trkpt>
      <trkpt lat="47.8657" lon="2.26078">
        <ele>261.38</ele>
        <time>2022-05-23T07:37:09Z</time>
      </trkpt>
      <trkpt lat="47.86575" lon="2.26096">
        <ele>261.45</ele>
        <time>2022-05-23T07:37:12Z</time>
      </trkpt>
      <trkpt lat="47.8658" lon="2.26112">
        <ele>261.36</ele>
        <time>2022-05-23T07:37:15Z</time>
      </trkpt>
      <trkpt lat="47.86582" lon="2.26128">
        <ele>261.23</ele>
        <time>2022-05-23T07:37:18Z</time>
      </trkpt>
      <trkpt lat="47.86586" lon="2.26142">
        <ele>261.12</ele>
        <time>2022-05-23T07:37:21Z</time>
      </trkpt>
      <trkpt lat="47.8659" lon="2.26159">
        <ele>260.99</ele>
        <time>2022-05-23T07:37:24Z</time>
      </trkpt>
      <trkpt lat="47.86594" lon="2.26178">
        <ele>261.22</ele>
        <time>2022-05-23T07:37:27Z</time>
      </trkpt>
      <trkpt lat="47.86597" lon="2.26193">
        <ele>261.01</ele>
        <time>2022-05-23T07:37:29Z</time>
      </trkpt>
      <trkpt lat="47.86601" lon="2.26208">
        <ele>260.73</ele>
        <time>2022-05-23T07:37:31Z</time>
      </trkpt>
      <trkpt lat="47.86604" lon="2.26225">
        <ele>260.45</ele>
        <time>2022-05-23T07:37:33Z</time>
      </trkpt>
      <trkpt lat="47.86606" lon="2.26243">
        <ele>259.91</ele>
        <time>2022-05-23T07:37:35Z</time>
      </trkpt>
      <trkpt lat="47.86608" lon="2.26261">
        <ele>259.23</ele>
        <time>2022-05-23T07:37:37Z</time>
      </trkpt>
      <trkpt lat="47.8661" lon="2.2628">
        <ele>258.99</ele>
        <time>2022-05-23T07:37:39Z</time>
      </trkpt>
      <trkpt lat="47.86613" lon="2.26299">
        <ele>259.21</ele>
        <time>2022-05-23T07:37:41Z</time>
      </trkpt>
      <trkpt lat="47.86616" lon="2.26318">
        <ele>259.26</ele>
        <time>2022-05-23T07:37:43Z</time>
      </trkpt>
      <trkpt lat="47.86618" lon="2.26335">
        <ele>259.44</ele>
        <time>2022-05-23T07:37:45Z</time>
      </trkpt>
      <trkpt lat="47.86621" lon="2.26351">
        <ele>259.67</ele>
        <time>2022-05-23T07:37:47Z</time>
      </trkpt>
      <trkpt lat="47.86624" lon="2.26365">
        <ele>259.46</ele>
        <time>2022-05-23T07:37:49Z</time>
      </trkpt>
      <trkpt lat="47.86625" lon="2.26379">
        <ele>259.39</ele>
        <time>2022-05-23T07:37:51Z</time>
      </trkpt>
      <trkpt lat="47.86627" lon="2.26395">
        <ele>259.1</ele>
        <time>2022-05-23T07:37:54Z</time>
      </trkpt>
      <trkpt lat="47.86626" lon="2.26409">
        <ele>257.91</ele>
        <time>2022-05-23T07:38:22Z</time>
      </trkpt>
      <trkpt lat="47.86631" lon="2.26424">
        <ele>258.27</ele>
        <time>2022-05-23T07:38:27Z</time>
      </trkpt>
      <trkpt lat="47.86632" lon="2.26439">
        <ele>257.78</ele>
        <time>2022-05-23T07:38:31Z</time>
      </trkpt>
      <trkpt lat="47.86637" lon="2.26451">
        <ele>257.85</ele>
        <time>2022-05-23T07:38:57Z</time>
      </trkpt>
      <trkpt lat="47.86641" lon="2.26469">
        <ele>258.35</ele>
        <time>2022-05-23T07:39:01Z</time>
      </trkpt>
      <trkpt lat="47.86644" lon="2.26488">
        <ele>258.42</ele>
        <time>2022-05-23T07:39:04Z</time>
      </trkpt>
      <trkpt lat="47.86646" lon="2.26501">
        <ele>258.41</ele>
        <time>2022-05-23T07:39:06Z</time>
      </trkpt>
      <trkpt lat="47.86648" lon="2.26515">
        <ele>258.46</ele>
        <time>2022-05-23T07:39:08Z</time>
      </trkpt>
      <trkpt lat="47.86651" lon="2.26531">
        <ele>258.73</ele>
        <time>2022-05-23T07:39:10Z</time>
      </trkpt>
      <trkpt lat="47.86653" lon="2.26548">
        <ele>258.88</ele>
        <time>2022-05-23T07:39:12Z</time>
      </trkpt>
      <trkpt lat="47.86656" lon="2.26563">
        <ele>258.9</ele>
        <time>2022-05-23T07:39:14Z</time>
      </trkpt>
      <trkpt lat="47.86659" lon="2.26578">
        <ele>259.01</ele>
        <time>2022-05-23T07:39:16Z</time>
      </trkpt>
      <trkpt lat="47.86661" lon="2.26592">
        <ele>258.96</ele>
        <time>2022-05-23T07:39:18Z</time>
      </trkpt>
      <trkpt lat="47.86663" lon="2.26606">
        <ele>258.84</ele>
        <time>2022-05-23T07:39:20Z</time>
      </trkpt>
      <trkpt lat="47.86666" lon="2.2662">
        <ele>258.78</ele>
        <time>2022-05-23T07:39:22Z</time>
      </trkpt>
      <trkpt lat="47.86669" lon="2.26635">
        <ele>259.14</ele>
        <time>2022-05-23T07:39:25Z</time>
      </trkpt>
      <trkpt lat="47.86672" lon="2.26652">
        <ele>260.12</ele>
        <time>2022-05-23T07:39:48Z</time>
      </trkpt>
      <trkpt lat="47.86674" lon="2.26667">
        <ele>259.65</ele>
        <time>2022-05-23T07:39:51Z</time>
      </trkpt>
      <trkpt lat="47.86677" lon="2.26684">
        <ele>259.61</ele>
        <time>2022-05-23T07:39:54Z</time>
      </trkpt>
      <trkpt lat="47.8668" lon="2.26697">
        <ele>259.58</ele>
        <time>2022-05-23T07:39:56Z</time>
      </trkpt>
      <trkpt lat="47.86684" lon="2.26711">
        <ele>259.44</ele>
        <time>2022-05-23T07:39:58Z</time>
      </trkpt>
      <trkpt lat="47.86689" lon="2.26726">
        <ele>259.32</ele>
        <time>2022-05-23T07:40:00Z</time>
      </trkpt>
      <trkpt lat="47.86694" lon="2.26741">
        <ele>259.51</ele>
        <time>2022-05-23T07:40:02Z</time>
      </trkpt>
      <trkpt lat="47.86701" lon="2.26756">
        <ele>259.19</ele>
        <time>2022-05-23T07:40:04Z</time>
      </trkpt>
      <trkpt lat="47.86708" lon="2.26771">
        <ele>258.73</ele>
        <time>2022-05-23T07:40:06Z</time>
      </trkpt>
      <trkpt lat="47.86715" lon="2.26787">
        <ele>258.74</ele>
        <time>2022-05-23T07:40:08Z</time>
      </trkpt>
      <trkpt lat="47.86723" lon="2.26803">
        <ele>258.73</ele>
        <time>2022-05-23T07:40:10Z</time>
      </trkpt>
      <trkpt lat="47.86731" lon="2.26818">
        <ele>258.81</ele>
        <time>2022-05-23T07:40:12Z</time>
      </trkpt>
      <trkpt lat="47.86738" lon="2.26835">
        <ele>258.86</ele>
        <time>2022-05-23T07:40:14Z</time>
      </trkpt>
      <trkpt lat="47.86745" lon="2.26851">
        <ele>259.09</ele>
        <time>2022-05-23T07:40:16Z</time>
      </trkpt>
      <trkpt lat="47.86753" lon="2.26867">
        <ele>258.85</ele>
        <time>2022-05-23T07:40:18Z</time>
      </trkpt>
      <trkpt lat="47.86761" lon="2.26884">
        <ele>258.97</ele>
        <time>2022-05-23T07:40:20Z</time>
      </trkpt>
      <trkpt lat="47.86768" lon="2.269">
        <ele>258.79</ele>
        <time>2022-05-23T07:40:22Z</time>
      </trkpt>
      <trkpt lat="47.86774" lon="2.26916">
        <ele>258.62</ele>
        <time>2022-05-23T07:40:24Z</time>
      </trkpt>
      <trkpt lat="47.86781" lon="2.2693">
        <ele>258.61</ele>
        <time>2022-05-23T07:40:26Z</time>
      </trkpt>
      <trkpt lat="47.86789" lon="2.26945">
        <ele>259.03</ele>
        <time>2022-05-23T07:40:28Z</time>
      </trkpt>
      <trkpt lat="47.86796" lon="2.2696">
        <ele>259.06</ele>
        <time>2022-05-23T07:40:30Z</time>
      </trkpt>
      <trkpt lat="47.86802" lon="2.26978">
        <ele>259.08</ele>
        <time>2022-05-23T07:40:32Z</time>
      </trkpt>
      <trkpt lat="47.86807" lon="2.26995">
        <ele>258.26</ele>
        <time>2022-05-23T07:40:34Z</time>
      </trkpt>
      <trkpt lat="47.8681" lon="2.27015">
        <ele>258.23</ele>
        <time>2022-05-23T07:40:36Z</time>
      </trkpt>
      <trkpt lat="47.86811" lon="2.27034">
        <ele>258.01</ele>
        <time>2022-05-23T07:40:38Z</time>
      </trkpt>
      <trkpt lat="47.86812" lon="2.27053">
        <ele>257.64</ele>
        <time>2022-05-23T07:40:40Z</time>
      </trkpt>
      <trkpt lat="47.86813" lon="2.27072">
        <ele>257.53</ele>
        <time>2022-05-23T07:40:42Z</time>
      </trkpt>
      <trkpt lat="47.86814" lon="2.27089">
        <ele>257.34</ele>
        <time>2022-05-23T07:40:44Z</time>
      </trkpt>
      <trkpt lat="47.86816" lon="2.27108">
        <ele>257.27</ele>
        <time>2022-05-23T07:40:46Z</time>
      </trkpt>
      <trkpt lat="47.86818" lon="2.27126">
        <ele>256.96</ele>
        <time>2022-05-23T07:40:48Z</time>
      </trkpt>
      <trkpt lat="47.8682" lon="2.27144">
        <ele>257.12</ele>
        <time>2022-05-23T07:40:50Z</time>
      </trkpt>
      <trkpt lat="47.86822" lon="2.27162">
        <ele>257.37</ele>
        <time>2022-05-23T07:40:52Z</time>
      </trkpt>
      <trkpt lat="47.86824" lon="2.27179">
        <ele>256.68</ele>
        <time>2022-05-23T07:40:54Z</time>
      </trkpt>
      <trkpt lat="47.86825" lon="2.27196">
        <ele>256.63</ele>
        <time>2022-05-23T07:40:56Z</time>
      </trkpt>
      <trkpt lat="47.86827" lon="2.27212">
        <ele>256.15</ele>
        <time>2022-05-23T07:40:58Z</time>
      </trkpt>
      <trkpt lat="47.86828" lon="2.27227">
        <ele>255.88</ele>
        <time>2022-05-23T07:41:00Z</time>
      </trkpt>
      <trkpt lat="47.8683" lon="2.27242">
        <ele>256.07</ele>
        <time>2022-05-23T07:41:02Z</time>
      </trkpt>
      <trkpt lat="47.8683" lon="2.27261">
        <ele>255.92</ele>
        <time>2022-05-23T07:41:05Z</time>
      </trkpt>
      <trkpt lat="47.86831" lon="2.27278">
        <ele>256.12</ele>
        <time>2022-05-23T07:41:08Z</time>
      </trkpt>
      <trkpt lat="47.86831" lon="2.27294">
        <ele>256.44</ele>
        <time>2022-05-23T07:41:11Z</time>
      </trkpt>
      <trkpt lat="47.86832" lon="2.27308">
        <ele>256.88</ele>
        <time>2022-05-23T07:41:14Z</time>
      </trkpt>
      <trkpt lat="47.86832" lon="2.27321">
        <ele>256.72</ele>
        <time>2022-05-23T07:41:42Z</time>
      </trkpt>
      <trkpt lat="47.86833" lon="2.27335">
        <ele>256.58</ele>
        <time>2022-05-23T07:42:02Z</time>
      </trkpt>
      <trkpt lat="47.86834" lon="2.27351">
        <ele>256.98</ele>
        <time>2022-05-23T07:42:06Z</time>
      </trkpt>
      <trkpt lat="47.86834" lon="2.27366">
        <ele>257.2</ele>
        <time>2022-05-23T07:42:09Z</time>
      </trkpt>
      <trkpt lat="47.86833" lon="2.27383">
        <ele>257.5</ele>
        <time>2022-05-23T07:42:12Z</time>
      </trkpt>
      <trkpt lat="47.86834" lon="2.27397">
        <ele>257.37</ele>
        <time>2022-05-23T07:42:15Z</time>
      </trkpt>
      <trkpt lat="47.86833" lon="2.27413">
        <ele>257.29</ele>
        <time>2022-05-23T07:42:19Z</time>
      </trkpt>
      <trkpt lat="47.86832" lon="2.27426">
        <ele>256.92</ele>
        <time>2022-05-23T07:42:22Z</time>
      </trkpt>
      <trkpt lat="47.86832" lon="2.2744">
        <ele>257.5</ele>
        <time>2022-05-23T07:42:25Z</time>
      </trkpt>
      <trkpt lat="47.86833" lon="2.27456">
        <ele>258.14</ele>
        <time>2022-05-23T07:42:46Z</time>
      </trkpt>
      <trkpt lat="47.86833" lon="2.2747">
        <ele>257.72</ele>
        <time>2022-05-23T07:42:49Z</time>
      </trkpt>
      <trkpt lat="47.86832" lon="2.27489">
        <ele>257.19</ele>
        <time>2022-05-23T07:42:52Z</time>
      </trkpt>
      <trkpt lat="47.86831" lon="2.27503">
        <ele>257.03</ele>
        <time>2022-05-23T07:42:54Z</time>
      </trkpt>
      <trkpt lat="47.86832" lon="2.27517">
        <ele>256.67</ele>
        <time>2022-05-23T07:42:56Z</time>
      </trkpt>
      <trkpt lat="47.86832" lon="2.2753">
        <ele>256.7</ele>
        <time>2022-05-23T07:42:58Z</time>
      </trkpt>
      <trkpt lat="47.86832" lon="2.27545">
        <ele>256.14</ele>
        <time>2022-05-23T07:43:00Z</time>
      </trkpt>
      <trkpt lat="47.86832" lon="2.2756">
        <ele>255.85</ele>
        <time>2022-05-23T07:43:02Z</time>
      </trkpt>
      <trkpt lat="47.86832" lon="2.27574">
        <ele>255.46</ele>
        <time>2022-05-23T07:43:04Z</time>
      </trkpt>
      <trkpt lat="47.86831" lon="2.2759">
        <ele>255.32</ele>
        <time>2022-05-23T07:43:06Z</time>
      </trkpt>
      <trkpt lat="47.86831" lon="2.27607">
        <ele>255.03</ele>
        <time>2022-05-23T07:43:08Z</time>
      </trkpt>
      <trkpt lat="47.86831" lon="2.27623">
        <ele>254.86</ele>
        <time>2022-05-23T07:43:10Z</time>
      </trkpt>
      <trkpt lat="47.86831" lon="2.2764">
        <ele>254.71</ele>
        <time>2022-05-23T07:43:12Z</time>
      </trkpt>
      <trkpt lat="47.8683" lon="2.27655">
        <ele>254.26</ele>
        <time>2022-05-23T07:43:14Z</time>
      </trkpt>
      <trkpt lat="47.86831" lon="2.27671">
        <ele>254.5</ele>
        <time>2022-05-23T07:43:16Z</time>
      </trkpt>
      <trkpt lat="47.86831" lon="2.27686">
        <ele>254.09</ele>
        <time>2022-05-23T07:43:18Z</time>
      </trkpt>
      <trkpt lat="47.86831" lon="2.27702">
        <ele>254.79</ele>
        <time>2022-05-23T07:43:20Z</time>
      </trkpt>
      <trkpt lat="47.86831" lon="2.27718">
        <ele>255.36</ele>
        <time>2022-05-23T07:43:22Z</time>
      </trkpt>
      <trkpt lat="47.86831" lon="2.27734">
        <ele>255.72</ele>
        <time>2022-05-23T07:43:24Z</time>
      </trkpt>
      <trkpt lat="47.86831" lon="2.27751">
        <ele>256.01</ele>
        <time>2022-05-23T07:43:26Z</time>
      </trkpt>
      <trkpt lat="47.86831" lon="2.27768">
        <ele>256.47</ele>
        <time>2022-05-23T07:43:28Z</time>
      </trkpt>
      <trkpt lat="47.86831" lon="2.27786">
        <ele>256.42</ele>
        <time>2022-05-23T07:43:30Z</time>
      </trkpt>
      <trkpt lat="47.86832" lon="2.27805">
        <ele>256.33</ele>
        <time>2022-05-23T07:43:32Z</time>
      </trkpt>
      <trkpt lat="47.86832" lon="2.27825">
        <ele>256.5</ele>
        <time>2022-05-23T07:43:34Z</time>
      </trkpt>
      <trkpt lat="47.86832" lon="2.27842">
        <ele>256.56</ele>
        <time>2022-05-23T07:43:36Z</time>
      </trkpt>
      <trkpt lat="47.86832" lon="2.2786">
        <ele>256.75</ele>
        <time>2022-05-23T07:43:38Z</time>
      </trkpt>
      <trkpt lat="47.86832" lon="2.27877">
        <ele>256.58</ele>
        <time>2022-05-23T07:43:40Z</time>
      </trkpt>
      <trkpt lat="47.86832" lon="2.27893">
        <ele>256.5</ele>
        <time>2022-05-23T07:43:42Z</time>
      </trkpt>
      <trkpt lat="47.86832" lon="2.27907">
        <ele>256.12</ele>
        <time>2022-05-23T07:43:44Z</time>
      </trkpt>
      <trkpt lat="47.86833" lon="2.27921">
        <ele>256.14</ele>
        <time>2022-05-23T07:43:46Z</time>
      </trkpt>
      <trkpt lat="47.86829" lon="2.2794">
        <ele>256.38</ele>
        <time>2022-05-23T07:43:49Z</time>
      </trkpt>
      <trkpt lat="47.86818" lon="2.2794">
        <ele>256.96</ele>
        <time>2022-05-23T07:43:52Z</time>
      </trkpt>
      <trkpt lat="47.86807" lon="2.27934">
        <ele>257.27</ele>
        <time>2022-05-23T07:43:55Z</time>
      </trkpt>
      <trkpt lat="47.86795" lon="2.27926">
        <ele>257.38</ele>
        <time>2022-05-23T07:43:58Z</time>
      </trkpt>
      <trkpt lat="47.86784" lon="2.27919">
        <ele>257.73</ele>
        <time>2022-05-23T07:44:01Z</time>
      </trkpt>
      <trkpt lat="47.86772" lon="2.27912">
        <ele>258.27</ele>
        <time>2022-05-23T07:44:04Z</time>
      </trkpt>
      <trkpt lat="47.8676" lon="2.27903">
        <ele>258.83</ele>
        <time>2022-05-23T07:44:07Z</time>
      </trkpt>
      <trkpt lat="47.86752" lon="2.27898">
        <ele>258.06</ele>
        <time>2022-05-23T07:44:09Z</time>
      </trkpt>
      <trkpt lat="47.8674" lon="2.2789">
        <ele>257.35</ele>
        <time>2022-05-23T07:44:12Z</time>
      </trkpt>
      <trkpt lat="47.86728" lon="2.27882">
        <ele>257.71</ele>
        <time>2022-05-23T07:44:15Z</time>
      </trkpt>
      <trkpt lat="47.86717" lon="2.27875">
        <ele>257.44</ele>
        <time>2022-05-23T07:44:18Z</time>
      </trkpt>
      <trkpt lat="47.86708" lon="2.27869">
        <ele>257.4</ele>
        <time>2022-05-23T07:44:21Z</time>
      </trkpt>
      <trkpt lat="47.86699" lon="2.27864">
        <ele>257.78</ele>
        <time>2022-05-23T07:44:27Z</time>
      </trkpt>
      <trkpt lat="47.86693" lon="2.27854">
        <ele>257.48</ele>
        <time>2022-05-23T07:44:41Z</time>
      </trkpt>
      <trkpt lat="47.86684" lon="2.2785">
        <ele>257.04</ele>
        <time>2022-05-23T07:45:09Z</time>
      </trkpt>
      <trkpt lat="47.86683" lon="2.2785">
        <ele>257.84</ele>
        <time>2022-05-23T07:47:10Z</time>
      </trkpt>
      <trkpt lat="47.86673" lon="2.2785">
        <ele>257.84</ele>
        <time>2022-05-23T07:48:05Z</time>
      </trkpt>
      <trkpt lat="47.86665" lon="2.27842">
        <ele>257.73</ele>
        <time>2022-05-23T07:48:09Z</time>
      </trkpt>
      <trkpt lat="47.86657" lon="2.27835">
        <ele>257.44</ele>
        <time>2022-05-23T07:48:12Z</time>
      </trkpt>
      <trkpt lat="47.86649" lon="2.27828">
        <ele>257.38</ele>
        <time>2022-05-23T07:48:15Z</time>
      </trkpt>
      <trkpt lat="47.8664" lon="2.27821">
        <ele>257.37</ele>
        <time>2022-05-23T07:48:18Z</time>
      </trkpt>
      <trkpt lat="47.8663" lon="2.27814">
        <ele>257.66</ele>
        <time>2022-05-23T07:48:21Z</time>
      </trkpt>
      <trkpt lat="47.86619" lon="2.27808">
        <ele>257.9</ele>
        <time>2022-05-23T07:48:24Z</time>
      </trkpt>
      <trkpt lat="47.86609" lon="2.27801">
        <ele>258.14</ele>
        <time>2022-05-23T07:48:27Z</time>
      </trkpt>
      <trkpt lat="47.86599" lon="2.27795">
        <ele>257.88</ele>
        <time>2022-05-23T07:48:30Z</time>
      </trkpt>
      <trkpt lat="47.86589" lon="2.27789">
        <ele>258.01</ele>
        <time>2022-05-23T07:48:33Z</time>
      </trkpt>
      <trkpt lat="47.86579" lon="2.27782">
        <ele>257.81</ele>
        <time>2022-05-23T07:48:36Z</time>
      </trkpt>
      <trkpt lat="47.86569" lon="2.27776">
        <ele>257.77</ele>
        <time>2022-05-23T07:48:39Z</time>
      </trkpt>
      <trkpt lat="47.86559" lon="2.27769">
        <ele>258.02</ele>
        <time>2022-05-23T07:48:42Z</time>
      </trkpt>
      <trkpt lat="47.86549" lon="2.27763">
        <ele>257.96</ele>
        <time>2022-05-23T07:48:45Z</time>
      </trkpt>
      <trkpt lat="47.8654" lon="2.27756">
        <ele>257.93</ele>
        <time>2022-05-23T07:48:48Z</time>
      </trkpt>
      <trkpt lat="47.8653" lon="2.2775">
        <ele>257.85</ele>
        <time>2022-05-23T07:48:51Z</time>
      </trkpt>
      <trkpt lat="47.8652" lon="2.27742">
        <ele>257.46</ele>
        <time>2022-05-23T07:48:54Z</time>
      </trkpt>
      <trkpt lat="47.8651" lon="2.27735">
        <ele>257.43</ele>
        <time>2022-05-23T07:48:57Z</time>
      </trkpt>
      <trkpt lat="47.86498" lon="2.27728">
        <ele>257.32</ele>
        <time>2022-05-23T07:49:00Z</time>
      </trkpt>
      <trkpt lat="47.86487" lon="2.27721">
        <ele>257</ele>
        <time>2022-05-23T07:49:03Z</time>
      </trkpt>
      <trkpt lat="47.86476" lon="2.27714">
        <ele>257.06</ele>
        <time>2022-05-23T07:49:06Z</time>
      </trkpt>
      <trkpt lat="47.86465" lon="2.27707">
        <ele>256.92</ele>
        <time>2022-05-23T07:49:09Z</time>
      </trkpt>
      <trkpt lat="47.86454" lon="2.277">
        <ele>257.34</ele>
        <time>2022-05-23T07:49:12Z</time>
      </trkpt>
      <trkpt lat="47.86443" lon="2.27692">
        <ele>257.1</ele>
        <time>2022-05-23T07:49:15Z</time>
      </trkpt>
      <trkpt lat="47.86432" lon="2.27685">
        <ele>257.36</ele>
        <time>2022-05-23T07:49:18Z</time>
      </trkpt>
      <trkpt lat="47.86422" lon="2.27678">
        <ele>257.36</ele>
        <time>2022-05-23T07:49:21Z</time>
      </trkpt>
      <trkpt lat="47.86411" lon="2.27671">
        <ele>256.86</ele>
        <time>2022-05-23T07:49:24Z</time>
      </trkpt>
      <trkpt lat="47.864" lon="2.27664">
        <ele>256.57</ele>
        <time>2022-05-23T07:49:27Z</time>
      </trkpt>
      <trkpt lat="47.8639" lon="2.27657">
        <ele>256.71</ele>
        <time>2022-05-23T07:49:30Z</time>
      </trkpt>
      <trkpt lat="47.86381" lon="2.27651">
        <ele>256.77</ele>
        <time>2022-05-23T07:49:33Z</time>
      </trkpt>
      <trkpt lat="47.86371" lon="2.27645">
        <ele>256.74</ele>
        <time>2022-05-23T07:49:36Z</time>
      </trkpt>
      <trkpt lat="47.86361" lon="2.27639">
        <ele>256.92</ele>
        <time>2022-05-23T07:49:39Z</time>
      </trkpt>
      <trkpt lat="47.86351" lon="2.27633">
        <ele>257.11</ele>
        <time>2022-05-23T07:49:42Z</time>
      </trkpt>
      <trkpt lat="47.8634" lon="2.27626">
        <ele>257.31</ele>
        <time>2022-05-23T07:49:45Z</time>
      </trkpt>
      <trkpt lat="47.86329" lon="2.27619">
        <ele>257.2</ele>
        <time>2022-05-23T07:49:48Z</time>
      </trkpt>
      <trkpt lat="47.86318" lon="2.27613">
        <ele>257.2</ele>
        <time>2022-05-23T07:49:51Z</time>
      </trkpt>
      <trkpt lat="47.86308" lon="2.27606">
        <ele>257.26</ele>
        <time>2022-05-23T07:49:54Z</time>
      </trkpt>
      <trkpt lat="47.86298" lon="2.27599">
        <ele>257.37</ele>
        <time>2022-05-23T07:49:57Z</time>
      </trkpt>
      <trkpt lat="47.86288" lon="2.27591">
        <ele>257.63</ele>
        <time>2022-05-23T07:50:00Z</time>
      </trkpt>
      <trkpt lat="47.86277" lon="2.27583">
        <ele>257.93</ele>
        <time>2022-05-23T07:50:03Z</time>
      </trkpt>
      <trkpt lat="47.86266" lon="2.27576">
        <ele>258.34</ele>
        <time>2022-05-23T07:50:06Z</time>
      </trkpt>
      <trkpt lat="47.86254" lon="2.27568">
        <ele>258.73</ele>
        <time>2022-05-23T07:50:09Z</time>
      </trkpt>
      <trkpt lat="47.86243" lon="2.27561">
        <ele>258.99</ele>
        <time>2022-05-23T07:50:12Z</time>
      </trkpt>
      <trkpt lat="47.86231" lon="2.27553">
        <ele>258.79</ele>
        <time>2022-05-23T07:50:15Z</time>
      </trkpt>
      <trkpt lat="47.86219" lon="2.27545">
        <ele>258.73</ele>
        <time>2022-05-23T07:50:18Z</time>
      </trkpt>
      <trkpt lat="47.86208" lon="2.27536">
        <ele>258.66</ele>
        <time>2022-05-23T07:50:21Z</time>
      </trkpt>
      <trkpt lat="47.86197" lon="2.27528">
        <ele>258.21</ele>
        <time>2022-05-23T07:50:24Z</time>
      </trkpt>
      <trkpt lat="47.86186" lon="2.27521">
        <ele>258.39</ele>
        <time>2022-05-23T07:50:27Z</time>
      </trkpt>
      <trkpt lat="47.86176" lon="2.27514">
        <ele>258.61</ele>
        <time>2022-05-23T07:50:30Z</time>
      </trkpt>
      <trkpt lat="47.86166" lon="2.27507">
        <ele>258.73</ele>
        <time>2022-05-23T07:50:33Z</time>
      </trkpt>
      <trkpt lat="47.86155" lon="2.275">
        <ele>258.79</ele>
        <time>2022-05-23T07:50:36Z</time>
      </trkpt>
      <trkpt lat="47.86145" lon="2.27494">
        <ele>258.79</ele>
        <time>2022-05-23T07:50:39Z</time>
      </trkpt>
      <trkpt lat="47.86134" lon="2.27487">
        <ele>259.16</ele>
        <time>2022-05-23T07:50:42Z</time>
      </trkpt>
      <trkpt lat="47.86124" lon="2.2748">
        <ele>259.17</ele>
        <time>2022-05-23T07:50:45Z</time>
      </trkpt>
      <trkpt lat="47.86114" lon="2.27474">
        <ele>259.05</ele>
        <time>2022-05-23T07:50:48Z</time>
      </trkpt>
      <trkpt lat="47.86105" lon="2.27469">
        <ele>259.28</ele>
        <time>2022-05-23T07:50:51Z</time>
      </trkpt>
      <trkpt lat="47.86096" lon="2.27464">
        <ele>259.6</ele>
        <time>2022-05-23T07:50:54Z</time>
      </trkpt>
      <trkpt lat="47.86087" lon="2.27456">
        <ele>259.78</ele>
        <time>2022-05-23T07:50:57Z</time>
      </trkpt>
      <trkpt lat="47.86079" lon="2.27445">
        <ele>259.45</ele>
        <time>2022-05-23T07:51:00Z</time>
      </trkpt>
      <trkpt lat="47.86071" lon="2.27429">
        <ele>259.09</ele>
        <time>2022-05-23T07:51:03Z</time>
      </trkpt>
      <trkpt lat="47.86065" lon="2.27412">
        <ele>258.67</ele>
        <time>2022-05-23T07:51:06Z</time>
      </trkpt>
      <trkpt lat="47.8606" lon="2.27395">
        <ele>258.36</ele>
        <time>2022-05-23T07:51:09Z</time>
      </trkpt>
      <trkpt lat="47.86054" lon="2.27379">
        <ele>258.4</ele>
        <time>2022-05-23T07:51:12Z</time>
      </trkpt>
      <trkpt lat="47.86049" lon="2.27362">
        <ele>258.59</ele>
        <time>2022-05-23T07:51:15Z</time>
      </trkpt>
      <trkpt lat="47.86043" lon="2.27345">
        <ele>258.75</ele>
        <time>2022-05-23T07:51:18Z</time>
      </trkpt>
      <trkpt lat="47.86037" lon="2.27328">
        <ele>258.54</ele>
        <time>2022-05-23T07:51:21Z</time>
      </trkpt>
      <trkpt lat="47.86031" lon="2.27313">
        <ele>258.68</ele>
        <time>2022-05-23T07:51:24Z</time>
      </trkpt>
      <trkpt lat="47.86026" lon="2.27297">
        <ele>258.58</ele>
        <time>2022-05-23T07:51:27Z</time>
      </trkpt>
      <trkpt lat="47.86019" lon="2.27283">
        <ele>258.4</ele>
        <time>2022-05-23T07:51:30Z</time>
      </trkpt>
      <trkpt lat="47.86011" lon="2.27271">
        <ele>258.72</ele>
        <time>2022-05-23T07:51:33Z</time>
      </trkpt>
      <trkpt lat="47.86001" lon="2.27261">
        <ele>258.95</ele>
        <time>2022-05-23T07:51:36Z</time>
      </trkpt>
      <trkpt lat="47.85989" lon="2.27254">
        <ele>259.2</ele>
        <time>2022-05-23T07:51:39Z</time>
      </trkpt>
      <trkpt lat="47.85977" lon="2.27247">
        <ele>259.61</ele>
        <time>2022-05-23T07:51:42Z</time>
      </trkpt>
      <trkpt lat="47.85965" lon="2.27242">
        <ele>259.58</ele>
        <time>2022-05-23T07:51:45Z</time>
      </trkpt>
      <trkpt lat="47.85953" lon="2.27238">
        <ele>259.6</ele>
        <time>2022-05-23T07:51:48Z</time>
      </trkpt>
      <trkpt lat="47.8594" lon="2.27233">
        <ele>260.02</ele>
        <time>2022-05-23T07:51:51Z</time>
      </trkpt>
      <trkpt lat="47.85929" lon="2.27228">
        <ele>259.69</ele>
        <time>2022-05-23T07:51:54Z</time>
      </trkpt>
      <trkpt lat="47.85917" lon="2.27224">
        <ele>259.69</ele>
        <time>2022-05-23T07:51:57Z</time>
      </trkpt>
      <trkpt lat="47.85906" lon="2.27219">
        <ele>259.34</ele>
        <time>2022-05-23T07:52:00Z</time>
      </trkpt>
      <trkpt lat="47.85894" lon="2.27214">
        <ele>259.54</ele>
        <time>2022-05-23T07:52:03Z</time>
      </trkpt>
      <trkpt lat="47.85884" lon="2.2721">
        <ele>259.96</ele>
        <time>2022-05-23T07:52:06Z</time>
      </trkpt>
      <trkpt lat="47.85873" lon="2.27208">
        <ele>260.42</ele>
        <time>2022-05-23T07:52:09Z</time>
      </trkpt>
      <trkpt lat="47.85864" lon="2.27205">
        <ele>260.9</ele>
        <time>2022-05-23T07:52:12Z</time>
      </trkpt>
      <trkpt lat="47.85854" lon="2.27201">
        <ele>261.02</ele>
        <time>2022-05-23T07:52:15Z</time>
      </trkpt>
      <trkpt lat="47.85844" lon="2.27196">
        <ele>260.99</ele>
        <time>2022-05-23T07:52:18Z</time>
      </trkpt>
      <trkpt lat="47.85833" lon="2.2719">
        <ele>260.81</ele>
        <time>2022-05-23T07:52:21Z</time>
      </trkpt>
      <trkpt lat="47.8582" lon="2.27184">
        <ele>260.68</ele>
        <time>2022-05-23T07:52:24Z</time>
      </trkpt>
      <trkpt lat="47.85811" lon="2.2718">
        <ele>260.72</ele>
        <time>2022-05-23T07:52:26Z</time>
      </trkpt>
      <trkpt lat="47.85802" lon="2.27176">
        <ele>260.66</ele>
        <time>2022-05-23T07:52:28Z</time>
      </trkpt>
      <trkpt lat="47.85792" lon="2.27172">
        <ele>260.84</ele>
        <time>2022-05-23T07:52:30Z</time>
      </trkpt>
      <trkpt lat="47.85784" lon="2.27169">
        <ele>260.84</ele>
        <time>2022-05-23T07:52:32Z</time>
      </trkpt>
      <trkpt lat="47.85775" lon="2.27165">
        <ele>260.8</ele>
        <time>2022-05-23T07:52:34Z</time>
      </trkpt>
      <trkpt lat="47.85766" lon="2.27161">
        <ele>261.02</ele>
        <time>2022-05-23T07:52:36Z</time>
      </trkpt>
      <trkpt lat="47.85755" lon="2.27154">
        <ele>260.83</ele>
        <time>2022-05-23T07:52:39Z</time>
      </trkpt>
      <trkpt lat="47.85747" lon="2.27141">
        <ele>259.87</ele>
        <time>2022-05-23T07:52:42Z</time>
      </trkpt>
      <trkpt lat="47.85747" lon="2.27123">
        <ele>259.79</ele>
        <time>2022-05-23T07:52:45Z</time>
      </trkpt>
      <trkpt lat="47.8575" lon="2.2711">
        <ele>259.75</ele>
        <time>2022-05-23T07:52:47Z</time>
      </trkpt>
      <trkpt lat="47.85754" lon="2.27097">
        <ele>259.01</ele>
        <time>2022-05-23T07:52:49Z</time>
      </trkpt>
      <trkpt lat="47.85757" lon="2.27084">
        <ele>258.91</ele>
        <time>2022-05-23T07:52:51Z</time>
      </trkpt>
      <trkpt lat="47.85761" lon="2.27072">
        <ele>258.46</ele>
        <time>2022-05-23T07:52:53Z</time>
      </trkpt>
      <trkpt lat="47.85766" lon="2.27055">
        <ele>257.83</ele>
        <time>2022-05-23T07:52:56Z</time>
      </trkpt>
      <trkpt lat="47.8577" lon="2.27038">
        <ele>257.1</ele>
        <time>2022-05-23T07:52:59Z</time>
      </trkpt>
      <trkpt lat="47.85769" lon="2.27019">
        <ele>256.67</ele>
        <time>2022-05-23T07:53:02Z</time>
      </trkpt>
      <trkpt lat="47.85764" lon="2.27005">
        <ele>256.15</ele>
        <time>2022-05-23T07:53:05Z</time>
      </trkpt>
      <trkpt lat="47.85753" lon="2.26996">
        <ele>255.52</ele>
        <time>2022-05-23T07:53:08Z</time>
      </trkpt>
      <trkpt lat="47.85744" lon="2.26994">
        <ele>255.65</ele>
        <time>2022-05-23T07:53:10Z</time>
      </trkpt>
      <trkpt lat="47.85731" lon="2.26989">
        <ele>255.1</ele>
        <time>2022-05-23T07:53:13Z</time>
      </trkpt>
      <trkpt lat="47.85722" lon="2.26984">
        <ele>255.34</ele>
        <time>2022-05-23T07:53:15Z</time>
      </trkpt>
      <trkpt lat="47.85713" lon="2.26979">
        <ele>255.57</ele>
        <time>2022-05-23T07:53:17Z</time>
      </trkpt>
      <trkpt lat="47.85705" lon="2.26974">
        <ele>255.6</ele>
        <time>2022-05-23T07:53:19Z</time>
      </trkpt>
      <trkpt lat="47.85697" lon="2.26968">
        <ele>255.52</ele>
        <time>2022-05-23T07:53:21Z</time>
      </trkpt>
      <trkpt lat="47.85688" lon="2.26962">
        <ele>255.06</ele>
        <time>2022-05-23T07:53:23Z</time>
      </trkpt>
      <trkpt lat="47.85677" lon="2.26955">
        <ele>255.15</ele>
        <time>2022-05-23T07:53:26Z</time>
      </trkpt>
      <trkpt lat="47.85667" lon="2.26948">
        <ele>255.28</ele>
        <time>2022-05-23T07:53:30Z</time>
      </trkpt>
      <trkpt lat="47.85659" lon="2.26938">
        <ele>255.33</ele>
        <time>2022-05-23T07:53:34Z</time>
      </trkpt>
      <trkpt lat="47.85658" lon="2.26922">
        <ele>254.77</ele>
        <time>2022-05-23T07:53:37Z</time>
      </trkpt>
      <trkpt lat="47.8566" lon="2.26904">
        <ele>254.96</ele>
        <time>2022-05-23T07:53:40Z</time>
      </trkpt>
      <trkpt lat="47.85662" lon="2.26889">
        <ele>255.15</ele>
        <time>2022-05-23T07:53:43Z</time>
      </trkpt>
      <trkpt lat="47.85657" lon="2.26876">
        <ele>254.87</ele>
        <time>2022-05-23T07:53:47Z</time>
      </trkpt>
      <trkpt lat="47.85648" lon="2.26874">
        <ele>254.22</ele>
        <time>2022-05-23T07:53:50Z</time>
      </trkpt>
      <trkpt lat="47.85637" lon="2.26871">
        <ele>253.38</ele>
        <time>2022-05-23T07:53:53Z</time>
      </trkpt>
      <trkpt lat="47.85627" lon="2.26868">
        <ele>252.9</ele>
        <time>2022-05-23T07:53:56Z</time>
      </trkpt>
      <trkpt lat="47.85617" lon="2.26865">
        <ele>252.35</ele>
        <time>2022-05-23T07:53:59Z</time>
      </trkpt>
      <trkpt lat="47.85605" lon="2.26861">
        <ele>252</ele>
        <time>2022-05-23T07:54:02Z</time>
      </trkpt>
      <trkpt lat="47.85594" lon="2.26858">
        <ele>251.37</ele>
        <time>2022-05-23T07:54:05Z</time>
      </trkpt>
      <trkpt lat="47.85583" lon="2.26855">
        <ele>250.75</ele>
        <time>2022-05-23T07:54:08Z</time>
      </trkpt>
      <trkpt lat="47.85574" lon="2.26852">
        <ele>250.07</ele>
        <time>2022-05-23T07:54:11Z</time>
      </trkpt>
      <trkpt lat="47.85564" lon="2.2685">
        <ele>249.5</ele>
        <time>2022-05-23T07:54:14Z</time>
      </trkpt>
      <trkpt lat="47.85553" lon="2.26845">
        <ele>248.98</ele>
        <time>2022-05-23T07:54:17Z</time>
      </trkpt>
      <trkpt lat="47.8554" lon="2.26841">
        <ele>248.26</ele>
        <time>2022-05-23T07:54:20Z</time>
      </trkpt>
      <trkpt lat="47.85531" lon="2.26837">
        <ele>247.85</ele>
        <time>2022-05-23T07:54:22Z</time>
      </trkpt>
      <trkpt lat="47.85522" lon="2.26834">
        <ele>247.07</ele>
        <time>2022-05-23T07:54:24Z</time>
      </trkpt>
      <trkpt lat="47.85513" lon="2.26831">
        <ele>246.62</ele>
        <time>2022-05-23T07:54:26Z</time>
      </trkpt>
      <trkpt lat="47.85504" lon="2.26828">
        <ele>246.37</ele>
        <time>2022-05-23T07:54:28Z</time>
      </trkpt>
      <trkpt lat="47.85495" lon="2.26825">
        <ele>246.01</ele>
        <time>2022-05-23T07:54:30Z</time>
      </trkpt>
      <trkpt lat="47.85482" lon="2.2682">
        <ele>244.73</ele>
        <time>2022-05-23T07:54:33Z</time>
      </trkpt>
      <trkpt lat="47.8547" lon="2.26816">
        <ele>243.64</ele>
        <time>2022-05-23T07:54:36Z</time>
      </trkpt>
      <trkpt lat="47.8546" lon="2.26813">
        <ele>243.26</ele>
        <time>2022-05-23T07:54:39Z</time>
      </trkpt>
      <trkpt lat="47.85449" lon="2.26811">
        <ele>242.59</ele>
        <time>2022-05-23T07:54:43Z</time>
      </trkpt>
      <trkpt lat="47.8544" lon="2.26818">
        <ele>242.14</ele>
        <time>2022-05-23T07:54:47Z</time>
      </trkpt>
      <trkpt lat="47.85435" lon="2.26834">
        <ele>242.46</ele>
        <time>2022-05-23T07:54:51Z</time>
      </trkpt>
      <trkpt lat="47.85432" lon="2.26851">
        <ele>242.49</ele>
        <time>2022-05-23T07:54:54Z</time>
      </trkpt>
      <trkpt lat="47.8543" lon="2.26864">
        <ele>242.32</ele>
        <time>2022-05-23T07:54:56Z</time>
      </trkpt>
      <trkpt lat="47.85428" lon="2.26877">
        <ele>242.59</ele>
        <time>2022-05-23T07:54:58Z</time>
      </trkpt>
      <trkpt lat="47.85424" lon="2.26895">
        <ele>243.01</ele>
        <time>2022-05-23T07:55:01Z</time>
      </trkpt>
      <trkpt lat="47.85422" lon="2.26911">
        <ele>242.87</ele>
        <time>2022-05-23T07:55:04Z</time>
      </trkpt>
      <trkpt lat="47.85419" lon="2.26928">
        <ele>242.93</ele>
        <time>2022-05-23T07:55:07Z</time>
      </trkpt>
      <trkpt lat="47.85416" lon="2.26945">
        <ele>243.09</ele>
        <time>2022-05-23T07:55:10Z</time>
      </trkpt>
      <trkpt lat="47.85414" lon="2.2696">
        <ele>243.57</ele>
        <time>2022-05-23T07:55:13Z</time>
      </trkpt>
      <trkpt lat="47.85412" lon="2.26974">
        <ele>243.95</ele>
        <time>2022-05-23T07:55:16Z</time>
      </trkpt>
      <trkpt lat="47.8541" lon="2.26988">
        <ele>244.14</ele>
        <time>2022-05-23T07:55:19Z</time>
      </trkpt>
      <trkpt lat="47.85407" lon="2.27002">
        <ele>244.43</ele>
        <time>2022-05-23T07:55:22Z</time>
      </trkpt>
      <trkpt lat="47.85405" lon="2.27018">
        <ele>244.58</ele>
        <time>2022-05-23T07:55:26Z</time>
      </trkpt>
      <trkpt lat="47.85403" lon="2.27031">
        <ele>244.61</ele>
        <time>2022-05-23T07:55:30Z</time>
      </trkpt>
      <trkpt lat="47.854" lon="2.27048">
        <ele>245.38</ele>
        <time>2022-05-23T07:55:35Z</time>
      </trkpt>
      <trkpt lat="47.85398" lon="2.27061">
        <ele>245.46</ele>
        <time>2022-05-23T07:55:38Z</time>
      </trkpt>
      <trkpt lat="47.85394" lon="2.27076">
        <ele>245.64</ele>
        <time>2022-05-23T07:55:41Z</time>
      </trkpt>
      <trkpt lat="47.85392" lon="2.27091">
        <ele>245.48</ele>
        <time>2022-05-23T07:55:44Z</time>
      </trkpt>
      <trkpt lat="47.85391" lon="2.27106">
        <ele>244.86</ele>
        <time>2022-05-23T07:55:47Z</time>
      </trkpt>
      <trkpt lat="47.8539" lon="2.27122">
        <ele>244.32</ele>
        <time>2022-05-23T07:55:50Z</time>
      </trkpt>
      <trkpt lat="47.85389" lon="2.27138">
        <ele>243.72</ele>
        <time>2022-05-23T07:55:53Z</time>
      </trkpt>
      <trkpt lat="47.85388" lon="2.27156">
        <ele>243.63</ele>
        <time>2022-05-23T07:55:56Z</time>
      </trkpt>
      <trkpt lat="47.85387" lon="2.27174">
        <ele>243.96</ele>
        <time>2022-05-23T07:55:59Z</time>
      </trkpt>
      <trkpt lat="47.85385" lon="2.27192">
        <ele>243.84</ele>
        <time>2022-05-23T07:56:02Z</time>
      </trkpt>
      <trkpt lat="47.85383" lon="2.2721">
        <ele>243.76</ele>
        <time>2022-05-23T07:56:05Z</time>
      </trkpt>
      <trkpt lat="47.8538" lon="2.27228">
        <ele>243.77</ele>
        <time>2022-05-23T07:56:08Z</time>
      </trkpt>
      <trkpt lat="47.85377" lon="2.27246">
        <ele>244.24</ele>
        <time>2022-05-23T07:56:11Z</time>
      </trkpt>
      <trkpt lat="47.85373" lon="2.27265">
        <ele>245.11</ele>
        <time>2022-05-23T07:56:14Z</time>
      </trkpt>
      <trkpt lat="47.8537" lon="2.2728">
        <ele>245.18</ele>
        <time>2022-05-23T07:56:17Z</time>
      </trkpt>
      <trkpt lat="47.85365" lon="2.27294">
        <ele>245.54</ele>
        <time>2022-05-23T07:56:24Z</time>
      </trkpt>
      <trkpt lat="47.85362" lon="2.27305">
        <ele>248.68</ele>
        <time>2022-05-23T07:58:25Z</time>
      </trkpt>
      <trkpt lat="47.85364" lon="2.27304">
        <ele>247.47</ele>
        <time>2022-05-23T08:00:26Z</time>
      </trkpt>
      <trkpt lat="47.85359" lon="2.27317">
        <ele>248.69</ele>
        <time>2022-05-23T08:01:22Z</time>
      </trkpt>
      <trkpt lat="47.85356" lon="2.27333">
        <ele>248.34</ele>
        <time>2022-05-23T08:01:28Z</time>
      </trkpt>
      <trkpt lat="47.85352" lon="2.27346">
        <ele>248.22</ele>
        <time>2022-05-23T08:01:32Z</time>
      </trkpt>
      <trkpt lat="47.85348" lon="2.2736">
        <ele>248.7</ele>
        <time>2022-05-23T08:01:37Z</time>
      </trkpt>
      <trkpt lat="47.85343" lon="2.27372">
        <ele>248.42</ele>
        <time>2022-05-23T08:01:40Z</time>
      </trkpt>
      <trkpt lat="47.85339" lon="2.27386">
        <ele>248.03</ele>
        <time>2022-05-23T08:01:43Z</time>
      </trkpt>
      <trkpt lat="47.85333" lon="2.27399">
        <ele>247.76</ele>
        <time>2022-05-23T08:01:46Z</time>
      </trkpt>
      <trkpt lat="47.85327" lon="2.27413">
        <ele>247.7</ele>
        <time>2022-05-23T08:01:49Z</time>
      </trkpt>
      <trkpt lat="47.85321" lon="2.27428">
        <ele>246.99</ele>
        <time>2022-05-23T08:01:52Z</time>
      </trkpt>
      <trkpt lat="47.85317" lon="2.27443">
        <ele>246.99</ele>
        <time>2022-05-23T08:01:55Z</time>
      </trkpt>
      <trkpt lat="47.85313" lon="2.27459">
        <ele>246.8</ele>
        <time>2022-05-23T08:01:58Z</time>
      </trkpt>
      <trkpt lat="47.85309" lon="2.27477">
        <ele>246.32</ele>
        <time>2022-05-23T08:02:01Z</time>
      </trkpt>
      <trkpt lat="47.85307" lon="2.2749">
        <ele>246.19</ele>
        <time>2022-05-23T08:02:03Z</time>
      </trkpt>
      <trkpt lat="47.85302" lon="2.27509">
        <ele>245.86</ele>
        <time>2022-05-23T08:02:06Z</time>
      </trkpt>
      <trkpt lat="47.85297" lon="2.27527">
        <ele>245.13</ele>
        <time>2022-05-23T08:02:09Z</time>
      </trkpt>
      <trkpt lat="47.85293" lon="2.27545">
        <ele>244.66</ele>
        <time>2022-05-23T08:02:12Z</time>
      </trkpt>
      <trkpt lat="47.85289" lon="2.27563">
        <ele>244.56</ele>
        <time>2022-05-23T08:02:15Z</time>
      </trkpt>
      <trkpt lat="47.85284" lon="2.27581">
        <ele>244.29</ele>
        <time>2022-05-23T08:02:18Z</time>
      </trkpt>
      <trkpt lat="47.85279" lon="2.276">
        <ele>244.08</ele>
        <time>2022-05-23T08:02:21Z</time>
      </trkpt>
      <trkpt lat="47.85276" lon="2.27613">
        <ele>244.07</ele>
        <time>2022-05-23T08:02:23Z</time>
      </trkpt>
      <trkpt lat="47.85273" lon="2.27626">
        <ele>244.01</ele>
        <time>2022-05-23T08:02:25Z</time>
      </trkpt>
      <trkpt lat="47.85268" lon="2.27645">
        <ele>244.06</ele>
        <time>2022-05-23T08:02:28Z</time>
      </trkpt>
      <trkpt lat="47.85264" lon="2.27658">
        <ele>243.9</ele>
        <time>2022-05-23T08:02:30Z</time>
      </trkpt>
      <trkpt lat="47.85259" lon="2.2767">
        <ele>243.99</ele>
        <time>2022-05-23T08:02:32Z</time>
      </trkpt>
      <trkpt lat="47.85254" lon="2.27686">
        <ele>243.21</ele>
        <time>2022-05-23T08:02:35Z</time>
      </trkpt>
      <trkpt lat="47.85249" lon="2.27702">
        <ele>243.25</ele>
        <time>2022-05-23T08:02:38Z</time>
      </trkpt>
      <trkpt lat="47.85243" lon="2.27718">
        <ele>243.2</ele>
        <time>2022-05-23T08:02:41Z</time>
      </trkpt>
      <trkpt lat="47.85239" lon="2.27733">
        <ele>243.52</ele>
        <time>2022-05-23T08:02:44Z</time>
      </trkpt>
      <trkpt lat="47.85235" lon="2.27747">
        <ele>243.3</ele>
        <time>2022-05-23T08:02:48Z</time>
      </trkpt>
      <trkpt lat="47.85231" lon="2.27763">
        <ele>243.54</ele>
        <time>2022-05-23T08:02:52Z</time>
      </trkpt>
      <trkpt lat="47.85227" lon="2.27779">
        <ele>242.39</ele>
        <time>2022-05-23T08:02:56Z</time>
      </trkpt>
      <trkpt lat="47.85224" lon="2.27792">
        <ele>241.75</ele>
        <time>2022-05-23T08:02:59Z</time>
      </trkpt>
      <trkpt lat="47.85222" lon="2.27806">
        <ele>241.5</ele>
        <time>2022-05-23T08:03:02Z</time>
      </trkpt>
      <trkpt lat="47.85221" lon="2.27819">
        <ele>240.81</ele>
        <time>2022-05-23T08:03:05Z</time>
      </trkpt>
      <trkpt lat="47.85221" lon="2.27833">
        <ele>239.95</ele>
        <time>2022-05-23T08:03:08Z</time>
      </trkpt>
      <trkpt lat="47.8522" lon="2.27849">
        <ele>240.4</ele>
        <time>2022-05-23T08:03:12Z</time>
      </trkpt>
      <trkpt lat="47.85218" lon="2.27862">
        <ele>239.96</ele>
        <time>2022-05-23T08:03:16Z</time>
      </trkpt>
      <trkpt lat="47.85217" lon="2.27877">
        <ele>240.24</ele>
        <time>2022-05-23T08:03:20Z</time>
      </trkpt>
      <trkpt lat="47.85215" lon="2.2789">
        <ele>240.69</ele>
        <time>2022-05-23T08:03:24Z</time>
      </trkpt>
      <trkpt lat="47.85214" lon="2.27904">
        <ele>241.11</ele>
        <time>2022-05-23T08:03:28Z</time>
      </trkpt>
      <trkpt lat="47.85213" lon="2.27918">
        <ele>241.12</ele>
        <time>2022-05-23T08:03:32Z</time>
      </trkpt>
      <trkpt lat="47.85213" lon="2.27932">
        <ele>241.39</ele>
        <time>2022-05-23T08:03:36Z</time>
      </trkpt>
      <trkpt lat="47.85213" lon="2.27947">
        <ele>242.14</ele>
        <time>2022-05-23T08:03:40Z</time>
      </trkpt>
      <trkpt lat="47.85213" lon="2.27963">
        <ele>241.75</ele>
        <time>2022-05-23T08:03:44Z</time>
      </trkpt>
      <trkpt lat="47.85213" lon="2.27979">
        <ele>241.96</ele>
        <time>2022-05-23T08:03:48Z</time>
      </trkpt>
      <trkpt lat="47.85213" lon="2.27996">
        <ele>241.68</ele>
        <time>2022-05-23T08:03:52Z</time>
      </trkpt>
      <trkpt lat="47.85213" lon="2.28013">
        <ele>241.12</ele>
        <time>2022-05-23T08:03:56Z</time>
      </trkpt>
      <trkpt lat="47.85212" lon="2.2803">
        <ele>240.83</ele>
        <time>2022-05-23T08:04:00Z</time>
      </trkpt>
      <trkpt lat="47.85212" lon="2.28047">
        <ele>241.09</ele>
        <time>2022-05-23T08:04:04Z</time>
      </trkpt>
      <trkpt lat="47.8521" lon="2.28062">
        <ele>241.11</ele>
        <time>2022-05-23T08:04:08Z</time>
      </trkpt>
      <trkpt lat="47.85209" lon="2.28078">
        <ele>241.2</ele>
        <time>2022-05-23T08:04:12Z</time>
      </trkpt>
      <trkpt lat="47.85208" lon="2.28096">
        <ele>241.27</ele>
        <time>2022-05-23T08:04:16Z</time>
      </trkpt>
      <trkpt lat="47.85208" lon="2.28111">
        <ele>241.32</ele>
        <time>2022-05-23T08:04:19Z</time>
      </trkpt>
      <trkpt lat="47.85208" lon="2.28125">
        <ele>241.47</ele>
        <time>2022-05-23T08:04:22Z</time>
      </trkpt>
      <trkpt lat="47.85209" lon="2.28142">
        <ele>241.77</ele>
        <time>2022-05-23T08:04:26Z</time>
      </trkpt>
      <trkpt lat="47.85209" lon="2.28159">
        <ele>242.1</ele>
        <time>2022-05-23T08:04:30Z</time>
      </trkpt>
      <trkpt lat="47.85208" lon="2.28174">
        <ele>243.07</ele>
        <time>2022-05-23T08:04:34Z</time>
      </trkpt>
      <trkpt lat="47.85207" lon="2.28187">
        <ele>243.16</ele>
        <time>2022-05-23T08:04:37Z</time>
      </trkpt>
      <trkpt lat="47.85205" lon="2.28201">
        <ele>242.75</ele>
        <time>2022-05-23T08:04:40Z</time>
      </trkpt>
      <trkpt lat="47.85203" lon="2.28215">
        <ele>242.96</ele>
        <time>2022-05-23T08:04:43Z</time>
      </trkpt>
      <trkpt lat="47.85201" lon="2.28228">
        <ele>243.6</ele>
        <time>2022-05-23T08:04:46Z</time>
      </trkpt>
      <trkpt lat="47.85198" lon="2.28244">
        <ele>243.6</ele>
        <time>2022-05-23T08:04:50Z</time>
      </trkpt>
      <trkpt lat="47.85196" lon="2.2826">
        <ele>244.51</ele>
        <time>2022-05-23T08:04:54Z</time>
      </trkpt>
      <trkpt lat="47.85193" lon="2.28274">
        <ele>244.94</ele>
        <time>2022-05-23T08:04:57Z</time>
      </trkpt>
      <trkpt lat="47.8519" lon="2.28289">
        <ele>245.06</ele>
        <time>2022-05-23T08:05:00Z</time>
      </trkpt>
      <trkpt lat="47.85188" lon="2.28304">
        <ele>244.77</ele>
        <time>2022-05-23T08:05:03Z</time>
      </trkpt>
      <trkpt lat="47.85185" lon="2.28319">
        <ele>245.05</ele>
        <time>2022-05-23T08:05:06Z</time>
      </trkpt>
      <trkpt lat="47.85183" lon="2.28336">
        <ele>245.42</ele>
        <time>2022-05-23T08:05:10Z</time>
      </trkpt>
      <trkpt lat="47.85182" lon="2.28351">
        <ele>243.97</ele>
        <time>2022-05-23T08:05:14Z</time>
      </trkpt>
      <trkpt lat="47.8518" lon="2.28367">
        <ele>243.26</ele>
        <time>2022-05-23T08:05:18Z</time>
      </trkpt>
      <trkpt lat="47.85179" lon="2.28381">
        <ele>243.26</ele>
        <time>2022-05-23T08:05:21Z</time>
      </trkpt>
      <trkpt lat="47.85177" lon="2.28397">
        <ele>243.62</ele>
        <time>2022-05-23T08:05:24Z</time>
      </trkpt>
      <trkpt lat="47.85175" lon="2.28413">
        <ele>244.17</ele>
        <time>2022-05-23T08:05:27Z</time>
      </trkpt>
      <trkpt lat="47.85172" lon="2.28429">
        <ele>244.63</ele>
        <time>2022-05-23T08:05:30Z</time>
      </trkpt>
      <trkpt lat="47.85169" lon="2.28444">
        <ele>245.4</ele>
        <time>2022-05-23T08:05:33Z</time>
      </trkpt>
      <trkpt lat="47.85167" lon="2.28458">
        <ele>246.29</ele>
        <time>2022-05-23T08:05:36Z</time>
      </trkpt>
      <trkpt lat="47.85163" lon="2.28474">
        <ele>246.5</ele>
        <time>2022-05-23T08:05:40Z</time>
      </trkpt>
      <trkpt lat="47.8516" lon="2.2849">
        <ele>245.74</ele>
        <time>2022-05-23T08:05:44Z</time>
      </trkpt>
      <trkpt lat="47.85157" lon="2.28505">
        <ele>245.66</ele>
        <time>2022-05-23T08:05:48Z</time>
      </trkpt>
      <trkpt lat="47.85153" lon="2.28518">
        <ele>246.25</ele>
        <time>2022-05-23T08:05:51Z</time>
      </trkpt>
      <trkpt lat="47.85149" lon="2.2853">
        <ele>245.96</ele>
        <time>2022-05-23T08:05:54Z</time>
      </trkpt>
      <trkpt lat="47.85145" lon="2.28543">
        <ele>245.88</ele>
        <time>2022-05-23T08:05:57Z</time>
      </trkpt>
      <trkpt lat="47.85141" lon="2.28557">
        <ele>245.89</ele>
        <time>2022-05-23T08:06:00Z</time>
      </trkpt>
      <trkpt lat="47.85137" lon="2.2857">
        <ele>245.74</ele>
        <time>2022-05-23T08:06:03Z</time>
      </trkpt>
      <trkpt lat="47.85133" lon="2.28583">
        <ele>245.58</ele>
        <time>2022-05-23T08:06:06Z</time>
      </trkpt>
      <trkpt lat="47.85129" lon="2.28599">
        <ele>245.03</ele>
        <time>2022-05-23T08:06:10Z</time>
      </trkpt>
      <trkpt lat="47.85125" lon="2.28616">
        <ele>245.44</ele>
        <time>2022-05-23T08:06:14Z</time>
      </trkpt>
      <trkpt lat="47.85121" lon="2.28632">
        <ele>245.28</ele>
        <time>2022-05-23T08:06:18Z</time>
      </trkpt>
      <trkpt lat="47.85117" lon="2.28647">
        <ele>243.93</ele>
        <time>2022-05-23T08:06:22Z</time>
      </trkpt>
      <trkpt lat="47.85113" lon="2.28663">
        <ele>243.66</ele>
        <time>2022-05-23T08:06:26Z</time>
      </trkpt>
      <trkpt lat="47.85109" lon="2.28678">
        <ele>242.54</ele>
        <time>2022-05-23T08:06:31Z</time>
      </trkpt>
      <trkpt lat="47.85105" lon="2.28689">
        <ele>244.47</ele>
        <time>2022-05-23T08:06:42Z</time>
      </trkpt>
      <trkpt lat="47.851" lon="2.28701">
        <ele>245.88</ele>
        <time>2022-05-23T08:06:56Z</time>
      </trkpt>
      <trkpt lat="47.851" lon="2.28702">
        <ele>246.66</ele>
        <time>2022-05-23T08:08:57Z</time>
      </trkpt>
      <trkpt lat="47.851" lon="2.28702">
        <ele>246.77</ele>
        <time>2022-05-23T08:10:58Z</time>
      </trkpt>
      <trkpt lat="47.851" lon="2.28702">
        <ele>246.88</ele>
        <time>2022-05-23T08:12:59Z</time>
      </trkpt>
      <trkpt lat="47.851" lon="2.28702">
        <ele>246.97</ele>
        <time>2022-05-23T08:15:00Z</time>
      </trkpt>
      <trkpt lat="47.851" lon="2.28702">
        <ele>247.09</ele>
        <time>2022-05-23T08:17:01Z</time>
      </trkpt>
      <trkpt lat="47.85099" lon="2.28717">
        <ele>246.6</ele>
        <time>2022-05-23T08:17:54Z</time>
      </trkpt>
      <trkpt lat="47.85094" lon="2.28728">
        <ele>245.57</ele>
        <time>2022-05-23T08:17:59Z</time>
      </trkpt>
      <trkpt lat="47.85088" lon="2.28739">
        <ele>245.68</ele>
        <time>2022-05-23T08:18:06Z</time>
      </trkpt>
      <trkpt lat="47.85086" lon="2.28753">
        <ele>245.85</ele>
        <time>2022-05-23T08:18:32Z</time>
      </trkpt>
      <trkpt lat="47.85083" lon="2.28766">
        <ele>246.36</ele>
        <time>2022-05-23T08:18:38Z</time>
      </trkpt>
      <trkpt lat="47.85079" lon="2.2878">
        <ele>246.91</ele>
        <time>2022-05-23T08:18:45Z</time>
      </trkpt>
      <trkpt lat="47.85078" lon="2.28793">
        <ele>247.66</ele>
        <time>2022-05-23T08:19:21Z</time>
      </trkpt>
      <trkpt lat="47.85074" lon="2.28805">
        <ele>246.26</ele>
        <time>2022-05-23T08:21:15Z</time>
      </trkpt>
      <trkpt lat="47.85072" lon="2.28818">
        <ele>245.4</ele>
        <time>2022-05-23T08:22:32Z</time>
      </trkpt>
      <trkpt lat="47.85068" lon="2.28828">
        <ele>244.74</ele>
        <time>2022-05-23T08:24:33Z</time>
      </trkpt>
      <trkpt lat="47.85068" lon="2.28828">
        <ele>244.68</ele>
        <time>2022-05-23T08:26:34Z</time>
      </trkpt>
      <trkpt lat="47.85068" lon="2.28828">
        <ele>244.62</ele>
        <time>2022-05-23T08:28:35Z</time>
      </trkpt>
      <trkpt lat="47.85062" lon="2.28839">
        <ele>244.05</ele>
        <time>2022-05-23T08:29:03Z</time>
      </trkpt>
      <trkpt lat="47.8506" lon="2.28852">
        <ele>244.79</ele>
        <time>2022-05-23T08:30:20Z</time>
      </trkpt>
      <trkpt lat="47.85057" lon="2.28865">
        <ele>245.95</ele>
        <time>2022-05-23T08:31:33Z</time>
      </trkpt>
      <trkpt lat="47.85055" lon="2.28872">
        <ele>245.54</ele>
        <time>2022-05-23T08:33:34Z</time>
      </trkpt>
      <trkpt lat="47.85052" lon="2.28885">
        <ele>246.95</ele>
        <time>2022-05-23T08:34:57Z</time>
      </trkpt>
      <trkpt lat="47.85046" lon="2.28896">
        <ele>246.03</ele>
        <time>2022-05-23T08:36:13Z</time>
      </trkpt>
      <trkpt lat="47.85046" lon="2.28899">
        <ele>245.28</ele>
        <time>2022-05-23T08:38:14Z</time>
      </trkpt>
      <trkpt lat="47.8504" lon="2.28909">
        <ele>243.94</ele>
        <time>2022-05-23T08:39:40Z</time>
      </trkpt>
      <trkpt lat="47.85035" lon="2.28916">
        <ele>245.12</ele>
        <time>2022-05-23T08:41:41Z</time>
      </trkpt>
      <trkpt lat="47.85031" lon="2.28928">
        <ele>245.56</ele>
        <time>2022-05-23T08:42:52Z</time>
      </trkpt>
      <trkpt lat="47.85025" lon="2.28938">
        <ele>247.19</ele>
        <time>2022-05-23T08:43:34Z</time>
      </trkpt>
      <trkpt lat="47.85019" lon="2.28949">
        <ele>245.05</ele>
        <time>2022-05-23T08:44:59Z</time>
      </trkpt>
      <trkpt lat="47.85013" lon="2.28958">
        <ele>245.64</ele>
        <time>2022-05-23T08:46:09Z</time>
      </trkpt>
      <trkpt lat="47.85008" lon="2.2897">
        <ele>245.69</ele>
        <time>2022-05-23T08:46:48Z</time>
      </trkpt>
      <trkpt lat="47.85003" lon="2.28981">
        <ele>246.11</ele>
        <time>2022-05-23T08:47:23Z</time>
      </trkpt>
      <trkpt lat="47.84998" lon="2.28993">
        <ele>246.99</ele>
        <time>2022-05-23T08:49:15Z</time>
      </trkpt>
      <trkpt lat="47.84996" lon="2.29006">
        <ele>246.79</ele>
        <time>2022-05-23T08:49:26Z</time>
      </trkpt>
      <trkpt lat="47.84992" lon="2.29019">
        <ele>246.31</ele>
        <time>2022-05-23T08:49:35Z</time>
      </trkpt>
      <trkpt lat="47.84987" lon="2.29031">
        <ele>245.64</ele>
        <time>2022-05-23T08:49:57Z</time>
      </trkpt>
      <trkpt lat="47.84983" lon="2.29044">
        <ele>246.03</ele>
        <time>2022-05-23T08:50:08Z</time>
      </trkpt>
      <trkpt lat="47.84981" lon="2.29054">
        <ele>245.47</ele>
        <time>2022-05-23T08:52:09Z</time>
      </trkpt>
      <trkpt lat="47.84978" lon="2.29068">
        <ele>245.41</ele>
        <time>2022-05-23T08:52:24Z</time>
      </trkpt>
      <trkpt lat="47.8497" lon="2.29075">
        <ele>244.73</ele>
        <time>2022-05-23T08:52:30Z</time>
      </trkpt>
      <trkpt lat="47.8496" lon="2.29077">
        <ele>244.22</ele>
        <time>2022-05-23T08:52:35Z</time>
      </trkpt>
      <trkpt lat="47.84949" lon="2.29073">
        <ele>243.99</ele>
        <time>2022-05-23T08:52:39Z</time>
      </trkpt>
      <trkpt lat="47.8494" lon="2.29065">
        <ele>243.83</ele>
        <time>2022-05-23T08:52:42Z</time>
      </trkpt>
      <trkpt lat="47.84933" lon="2.29054">
        <ele>243.63</ele>
        <time>2022-05-23T08:52:45Z</time>
      </trkpt>
      <trkpt lat="47.84925" lon="2.29045">
        <ele>243.36</ele>
        <time>2022-05-23T08:52:48Z</time>
      </trkpt>
      <trkpt lat="47.84918" lon="2.29036">
        <ele>243.26</ele>
        <time>2022-05-23T08:52:51Z</time>
      </trkpt>
      <trkpt lat="47.84911" lon="2.29026">
        <ele>242.91</ele>
        <time>2022-05-23T08:52:54Z</time>
      </trkpt>
      <trkpt lat="47.84903" lon="2.29015">
        <ele>242.75</ele>
        <time>2022-05-23T08:52:58Z</time>
      </trkpt>
      <trkpt lat="47.84895" lon="2.29003">
        <ele>242.95</ele>
        <time>2022-05-23T08:53:02Z</time>
      </trkpt>
      <trkpt lat="47.84889" lon="2.28993">
        <ele>242.97</ele>
        <time>2022-05-23T08:53:06Z</time>
      </trkpt>
      <trkpt lat="47.84881" lon="2.2898">
        <ele>242.67</ele>
        <time>2022-05-23T08:53:11Z</time>
      </trkpt>
      <trkpt lat="47.84873" lon="2.28968">
        <ele>242.65</ele>
        <time>2022-05-23T08:53:15Z</time>
      </trkpt>
      <trkpt lat="47.84865" lon="2.28954">
        <ele>242.8</ele>
        <time>2022-05-23T08:53:19Z</time>
      </trkpt>
      <trkpt lat="47.84857" lon="2.28943">
        <ele>242.95</ele>
        <time>2022-05-23T08:53:22Z</time>
      </trkpt>
      <trkpt lat="47.8485" lon="2.28931">
        <ele>242.91</ele>
        <time>2022-05-23T08:53:25Z</time>
      </trkpt>
      <trkpt lat="47.84842" lon="2.28919">
        <ele>242.91</ele>
        <time>2022-05-23T08:53:28Z</time>
      </trkpt>
      <trkpt lat="47.84835" lon="2.28908">
        <ele>243.33</ele>
        <time>2022-05-23T08:53:31Z</time>
      </trkpt>
      <trkpt lat="47.84827" lon="2.28897">
        <ele>243.24</ele>
        <time>2022-05-23T08:53:34Z</time>
      </trkpt>
      <trkpt lat="47.8482" lon="2.28886">
        <ele>243.13</ele>
        <time>2022-05-23T08:53:37Z</time>
      </trkpt>
      <trkpt lat="47.84814" lon="2.28875">
        <ele>242.69</ele>
        <time>2022-05-23T08:53:40Z</time>
      </trkpt>
      <trkpt lat="47.84806" lon="2.28863">
        <ele>242.29</ele>
        <time>2022-05-23T08:53:43Z</time>
      </trkpt>
      <trkpt lat="47.84799" lon="2.28851">
        <ele>241.77</ele>
        <time>2022-05-23T08:53:46Z</time>
      </trkpt>
      <trkpt lat="47.84792" lon="2.2884">
        <ele>242.01</ele>
        <time>2022-05-23T08:53:49Z</time>
      </trkpt>
      <trkpt lat="47.84786" lon="2.28829">
        <ele>241.95</ele>
        <time>2022-05-23T08:53:52Z</time>
      </trkpt>
      <trkpt lat="47.84779" lon="2.28817">
        <ele>242.4</ele>
        <time>2022-05-23T08:53:55Z</time>
      </trkpt>
      <trkpt lat="47.84773" lon="2.28805">
        <ele>242.21</ele>
        <time>2022-05-23T08:53:58Z</time>
      </trkpt>
      <trkpt lat="47.84765" lon="2.28793">
        <ele>241.95</ele>
        <time>2022-05-23T08:54:01Z</time>
      </trkpt>
      <trkpt lat="47.84758" lon="2.2878">
        <ele>241.52</ele>
        <time>2022-05-23T08:54:04Z</time>
      </trkpt>
      <trkpt lat="47.8475" lon="2.28768">
        <ele>241.26</ele>
        <time>2022-05-23T08:54:07Z</time>
      </trkpt>
      <trkpt lat="47.84742" lon="2.28756">
        <ele>241.03</ele>
        <time>2022-05-23T08:54:10Z</time>
      </trkpt>
      <trkpt lat="47.84735" lon="2.28743">
        <ele>240.95</ele>
        <time>2022-05-23T08:54:13Z</time>
      </trkpt>
      <trkpt lat="47.84728" lon="2.28731">
        <ele>240.44</ele>
        <time>2022-05-23T08:54:16Z</time>
      </trkpt>
      <trkpt lat="47.84721" lon="2.28719">
        <ele>240.48</ele>
        <time>2022-05-23T08:54:19Z</time>
      </trkpt>
      <trkpt lat="47.84713" lon="2.28706">
        <ele>240.13</ele>
        <time>2022-05-23T08:54:22Z</time>
      </trkpt>
      <trkpt lat="47.84706" lon="2.28693">
        <ele>239.71</ele>
        <time>2022-05-23T08:54:25Z</time>
      </trkpt>
      <trkpt lat="47.84699" lon="2.28682">
        <ele>239.51</ele>
        <time>2022-05-23T08:54:28Z</time>
      </trkpt>
      <trkpt lat="47.8469" lon="2.28666">
        <ele>239.38</ele>
        <time>2022-05-23T08:54:32Z</time>
      </trkpt>
      <trkpt lat="47.84682" lon="2.28653">
        <ele>239.28</ele>
        <time>2022-05-23T08:54:35Z</time>
      </trkpt>
      <trkpt lat="47.84676" lon="2.2864">
        <ele>239.13</ele>
        <time>2022-05-23T08:54:38Z</time>
      </trkpt>
      <trkpt lat="47.84669" lon="2.28628">
        <ele>238.93</ele>
        <time>2022-05-23T08:54:41Z</time>
      </trkpt>
      <trkpt lat="47.84661" lon="2.28616">
        <ele>239.05</ele>
        <time>2022-05-23T08:54:44Z</time>
      </trkpt>
      <trkpt lat="47.84652" lon="2.28605">
        <ele>239.25</ele>
        <time>2022-05-23T08:54:47Z</time>
      </trkpt>
      <trkpt lat="47.84641" lon="2.28599">
        <ele>239.45</ele>
        <time>2022-05-23T08:54:50Z</time>
      </trkpt>
      <trkpt lat="47.8463" lon="2.28596">
        <ele>239.41</ele>
        <time>2022-05-23T08:54:53Z</time>
      </trkpt>
      <trkpt lat="47.8462" lon="2.28594">
        <ele>239.42</ele>
        <time>2022-05-23T08:54:56Z</time>
      </trkpt>
      <trkpt lat="47.84609" lon="2.2859">
        <ele>239.69</ele>
        <time>2022-05-23T08:54:59Z</time>
      </trkpt>
      <trkpt lat="47.84596" lon="2.28591">
        <ele>239.88</ele>
        <time>2022-05-23T08:55:02Z</time>
      </trkpt>
      <trkpt lat="47.84585" lon="2.28597">
        <ele>240</ele>
        <time>2022-05-23T08:55:05Z</time>
      </trkpt>
      <trkpt lat="47.84576" lon="2.28603">
        <ele>240.28</ele>
        <time>2022-05-23T08:55:08Z</time>
      </trkpt>
      <trkpt lat="47.84569" lon="2.28611">
        <ele>240.51</ele>
        <time>2022-05-23T08:55:11Z</time>
      </trkpt>
      <trkpt lat="47.84561" lon="2.28621">
        <ele>240.5</ele>
        <time>2022-05-23T08:55:14Z</time>
      </trkpt>
      <trkpt lat="47.84553" lon="2.28632">
        <ele>239.98</ele>
        <time>2022-05-23T08:55:17Z</time>
      </trkpt>
      <trkpt lat="47.84544" lon="2.28643">
        <ele>239.65</ele>
        <time>2022-05-23T08:55:20Z</time>
      </trkpt>
      <trkpt lat="47.84534" lon="2.28653">
        <ele>239.64</ele>
        <time>2022-05-23T08:55:23Z</time>
      </trkpt>
      <trkpt lat="47.84522" lon="2.2866">
        <ele>239.21</ele>
        <time>2022-05-23T08:55:26Z</time>
      </trkpt>
      <trkpt lat="47.84511" lon="2.28666">
        <ele>239.56</ele>
        <time>2022-05-23T08:55:29Z</time>
      </trkpt>
      <trkpt lat="47.84499" lon="2.28668">
        <ele>239.81</ele>
        <time>2022-05-23T08:55:32Z</time>
      </trkpt>
      <trkpt lat="47.84486" lon="2.28669">
        <ele>240.08</ele>
        <time>2022-05-23T08:55:35Z</time>
      </trkpt>
      <trkpt lat="47.84474" lon="2.28665">
        <ele>240.19</ele>
        <time>2022-05-23T08:55:38Z</time>
      </trkpt>
      <trkpt lat="47.84463" lon="2.28659">
        <ele>239.99</ele>
        <time>2022-05-23T08:55:41Z</time>
      </trkpt>
      <trkpt lat="47.84453" lon="2.28653">
        <ele>240.41</ele>
        <time>2022-05-23T08:55:44Z</time>
      </trkpt>
      <trkpt lat="47.84442" lon="2.28646">
        <ele>240.48</ele>
        <time>2022-05-23T08:55:47Z</time>
      </trkpt>
      <trkpt lat="47.84432" lon="2.2864">
        <ele>240.37</ele>
        <time>2022-05-23T08:55:50Z</time>
      </trkpt>
      <trkpt lat="47.84421" lon="2.28634">
        <ele>240.25</ele>
        <time>2022-05-23T08:55:53Z</time>
      </trkpt>
      <trkpt lat="47.8441" lon="2.28629">
        <ele>240.26</ele>
        <time>2022-05-23T08:55:56Z</time>
      </trkpt>
      <trkpt lat="47.844" lon="2.28623">
        <ele>240.19</ele>
        <time>2022-05-23T08:55:59Z</time>
      </trkpt>
      <trkpt lat="47.8439" lon="2.28619">
        <ele>240.31</ele>
        <time>2022-05-23T08:56:02Z</time>
      </trkpt>
      <trkpt lat="47.84379" lon="2.28615">
        <ele>240.47</ele>
        <time>2022-05-23T08:56:05Z</time>
      </trkpt>
      <trkpt lat="47.84368" lon="2.28612">
        <ele>240.59</ele>
        <time>2022-05-23T08:56:08Z</time>
      </trkpt>
      <trkpt lat="47.84357" lon="2.28609">
        <ele>240.7</ele>
        <time>2022-05-23T08:56:11Z</time>
      </trkpt>
      <trkpt lat="47.84345" lon="2.28608">
        <ele>240.58</ele>
        <time>2022-05-23T08:56:14Z</time>
      </trkpt>
      <trkpt lat="47.84333" lon="2.28607">
        <ele>240.87</ele>
        <time>2022-05-23T08:56:17Z</time>
      </trkpt>
      <trkpt lat="47.84321" lon="2.28605">
        <ele>241.03</ele>
        <time>2022-05-23T08:56:20Z</time>
      </trkpt>
      <trkpt lat="47.84309" lon="2.28602">
        <ele>241.06</ele>
        <time>2022-05-23T08:56:23Z</time>
      </trkpt>
      <trkpt lat="47.84299" lon="2.28597">
        <ele>240.8</ele>
        <time>2022-05-23T08:56:26Z</time>
      </trkpt>
      <trkpt lat="47.8429" lon="2.2859">
        <ele>240.79</ele>
        <time>2022-05-23T08:56:29Z</time>
      </trkpt>
      <trkpt lat="47.8428" lon="2.28585">
        <ele>241.22</ele>
        <time>2022-05-23T08:56:32Z</time>
      </trkpt>
      <trkpt lat="47.84269" lon="2.28581">
        <ele>241.1</ele>
        <time>2022-05-23T08:56:35Z</time>
      </trkpt>
      <trkpt lat="47.84258" lon="2.28578">
        <ele>240.93</ele>
        <time>2022-05-23T08:56:38Z</time>
      </trkpt>
      <trkpt lat="47.84245" lon="2.28575">
        <ele>240.9</ele>
        <time>2022-05-23T08:56:41Z</time>
      </trkpt>
      <trkpt lat="47.84234" lon="2.28573">
        <ele>241.1</ele>
        <time>2022-05-23T08:56:44Z</time>
      </trkpt>
      <trkpt lat="47.84224" lon="2.28571">
        <ele>241.2</ele>
        <time>2022-05-23T08:56:47Z</time>
      </trkpt>
      <trkpt lat="47.84213" lon="2.28569">
        <ele>241.41</ele>
        <time>2022-05-23T08:56:50Z</time>
      </trkpt>
      <trkpt lat="47.84202" lon="2.28566">
        <ele>241.08</ele>
        <time>2022-05-23T08:56:53Z</time>
      </trkpt>
      <trkpt lat="47.84191" lon="2.28563">
        <ele>240.91</ele>
        <time>2022-05-23T08:56:56Z</time>
      </trkpt>
      <trkpt lat="47.8418" lon="2.2856">
        <ele>240.48</ele>
        <time>2022-05-23T08:56:59Z</time>
      </trkpt>
      <trkpt lat="47.84168" lon="2.28557">
        <ele>240.04</ele>
        <time>2022-05-23T08:57:02Z</time>
      </trkpt>
      <trkpt lat="47.84156" lon="2.28555">
        <ele>240.08</ele>
        <time>2022-05-23T08:57:05Z</time>
      </trkpt>
      <trkpt lat="47.84144" lon="2.28552">
        <ele>240.27</ele>
        <time>2022-05-23T08:57:08Z</time>
      </trkpt>
      <trkpt lat="47.84132" lon="2.28549">
        <ele>240.15</ele>
        <time>2022-05-23T08:57:11Z</time>
      </trkpt>
      <trkpt lat="47.8412" lon="2.28546">
        <ele>240.53</ele>
        <time>2022-05-23T08:57:14Z</time>
      </trkpt>
      <trkpt lat="47.84108" lon="2.28543">
        <ele>240.27</ele>
        <time>2022-05-23T08:57:17Z</time>
      </trkpt>
      <trkpt lat="47.84097" lon="2.28541">
        <ele>240.1</ele>
        <time>2022-05-23T08:57:20Z</time>
      </trkpt>
      <trkpt lat="47.84085" lon="2.28538">
        <ele>240.27</ele>
        <time>2022-05-23T08:57:23Z</time>
      </trkpt>
      <trkpt lat="47.84074" lon="2.28535">
        <ele>240.56</ele>
        <time>2022-05-23T08:57:26Z</time>
      </trkpt>
      <trkpt lat="47.84062" lon="2.28532">
        <ele>241.14</ele>
        <time>2022-05-23T08:57:29Z</time>
      </trkpt>
      <trkpt lat="47.84052" lon="2.2853">
        <ele>241.43</ele>
        <time>2022-05-23T08:57:32Z</time>
      </trkpt>
      <trkpt lat="47.84042" lon="2.28529">
        <ele>241.8</ele>
        <time>2022-05-23T08:57:35Z</time>
      </trkpt>
      <trkpt lat="47.84032" lon="2.28528">
        <ele>241.95</ele>
        <time>2022-05-23T08:57:38Z</time>
      </trkpt>
      <trkpt lat="47.84022" lon="2.28528">
        <ele>241.98</ele>
        <time>2022-05-23T08:57:41Z</time>
      </trkpt>
      <trkpt lat="47.84013" lon="2.28534">
        <ele>241.9</ele>
        <time>2022-05-23T08:57:44Z</time>
      </trkpt>
      <trkpt lat="47.84008" lon="2.28546">
        <ele>241.21</ele>
        <time>2022-05-23T08:57:47Z</time>
      </trkpt>
      <trkpt lat="47.84006" lon="2.28561">
        <ele>241.18</ele>
        <time>2022-05-23T08:57:50Z</time>
      </trkpt>
      <trkpt lat="47.84004" lon="2.28577">
        <ele>241.29</ele>
        <time>2022-05-23T08:57:53Z</time>
      </trkpt>
      <trkpt lat="47.84002" lon="2.28593">
        <ele>241.18</ele>
        <time>2022-05-23T08:57:56Z</time>
      </trkpt>
      <trkpt lat="47.83999" lon="2.2861">
        <ele>241.08</ele>
        <time>2022-05-23T08:57:59Z</time>
      </trkpt>
      <trkpt lat="47.83998" lon="2.28627">
        <ele>241.23</ele>
        <time>2022-05-23T08:58:02Z</time>
      </trkpt>
      <trkpt lat="47.83995" lon="2.28645">
        <ele>241.3</ele>
        <time>2022-05-23T08:58:05Z</time>
      </trkpt>
      <trkpt lat="47.83994" lon="2.28662">
        <ele>241.15</ele>
        <time>2022-05-23T08:58:08Z</time>
      </trkpt>
      <trkpt lat="47.83992" lon="2.28679">
        <ele>240.99</ele>
        <time>2022-05-23T08:58:11Z</time>
      </trkpt>
      <trkpt lat="47.8399" lon="2.28695">
        <ele>241.14</ele>
        <time>2022-05-23T08:58:14Z</time>
      </trkpt>
      <trkpt lat="47.83989" lon="2.28713">
        <ele>241.17</ele>
        <time>2022-05-23T08:58:17Z</time>
      </trkpt>
      <trkpt lat="47.83987" lon="2.28731">
        <ele>241.15</ele>
        <time>2022-05-23T08:58:20Z</time>
      </trkpt>
      <trkpt lat="47.83986" lon="2.28748">
        <ele>241.3</ele>
        <time>2022-05-23T08:58:23Z</time>
      </trkpt>
      <trkpt lat="47.83985" lon="2.28766">
        <ele>241.41</ele>
        <time>2022-05-23T08:58:26Z</time>
      </trkpt>
      <trkpt lat="47.83984" lon="2.28783">
        <ele>241.78</ele>
        <time>2022-05-23T08:58:29Z</time>
      </trkpt>
      <trkpt lat="47.83983" lon="2.288">
        <ele>241.48</ele>
        <time>2022-05-23T08:58:32Z</time>
      </trkpt>
      <trkpt lat="47.83982" lon="2.28817">
        <ele>241.35</ele>
        <time>2022-05-23T08:58:35Z</time>
      </trkpt>
      <trkpt lat="47.83981" lon="2.28835">
        <ele>241.45</ele>
        <time>2022-05-23T08:58:38Z</time>
      </trkpt>
      <trkpt lat="47.8398" lon="2.28853">
        <ele>241.48</ele>
        <time>2022-05-23T08:58:41Z</time>
      </trkpt>
      <trkpt lat="47.83979" lon="2.28871">
        <ele>241.74</ele>
        <time>2022-05-23T08:58:44Z</time>
      </trkpt>
      <trkpt lat="47.83977" lon="2.2889">
        <ele>241.53</ele>
        <time>2022-05-23T08:58:47Z</time>
      </trkpt>
      <trkpt lat="47.83976" lon="2.28908">
        <ele>241.42</ele>
        <time>2022-05-23T08:58:50Z</time>
      </trkpt>
      <trkpt lat="47.83976" lon="2.28927">
        <ele>241.53</ele>
        <time>2022-05-23T08:58:53Z</time>
      </trkpt>
      <trkpt lat="47.83978" lon="2.28945">
        <ele>241.64</ele>
        <time>2022-05-23T08:58:56Z</time>
      </trkpt>
      <trkpt lat="47.8398" lon="2.28963">
        <ele>241.74</ele>
        <time>2022-05-23T08:58:59Z</time>
      </trkpt>
      <trkpt lat="47.83983" lon="2.28982">
        <ele>241.75</ele>
        <time>2022-05-23T08:59:02Z</time>
      </trkpt>
      <trkpt lat="47.83984" lon="2.28996">
        <ele>241.83</ele>
        <time>2022-05-23T08:59:04Z</time>
      </trkpt>
      <trkpt lat="47.83985" lon="2.29009">
        <ele>241.64</ele>
        <time>2022-05-23T08:59:06Z</time>
      </trkpt>
      <trkpt lat="47.83985" lon="2.29022">
        <ele>241.94</ele>
        <time>2022-05-23T08:59:08Z</time>
      </trkpt>
      <trkpt lat="47.83985" lon="2.29036">
        <ele>241.87</ele>
        <time>2022-05-23T08:59:10Z</time>
      </trkpt>
      <trkpt lat="47.83983" lon="2.29056">
        <ele>241.97</ele>
        <time>2022-05-23T08:59:13Z</time>
      </trkpt>
      <trkpt lat="47.8398" lon="2.29069">
        <ele>242.01</ele>
        <time>2022-05-23T08:59:15Z</time>
      </trkpt>
      <trkpt lat="47.83978" lon="2.29082">
        <ele>242.15</ele>
        <time>2022-05-23T08:59:17Z</time>
      </trkpt>
      <trkpt lat="47.83976" lon="2.29096">
        <ele>242.09</ele>
        <time>2022-05-23T08:59:19Z</time>
      </trkpt>
      <trkpt lat="47.83974" lon="2.29109">
        <ele>242.21</ele>
        <time>2022-05-23T08:59:21Z</time>
      </trkpt>
      <trkpt lat="47.83971" lon="2.29129">
        <ele>241.86</ele>
        <time>2022-05-23T08:59:24Z</time>
      </trkpt>
      <trkpt lat="47.8397" lon="2.29142">
        <ele>242.05</ele>
        <time>2022-05-23T08:59:26Z</time>
      </trkpt>
      <trkpt lat="47.83968" lon="2.29155">
        <ele>241.96</ele>
        <time>2022-05-23T08:59:28Z</time>
      </trkpt>
      <trkpt lat="47.83966" lon="2.29168">
        <ele>242.08</ele>
        <time>2022-05-23T08:59:30Z</time>
      </trkpt>
      <trkpt lat="47.83964" lon="2.29182">
        <ele>242.24</ele>
        <time>2022-05-23T08:59:32Z</time>
      </trkpt>
      <trkpt lat="47.83962" lon="2.29195">
        <ele>241.94</ele>
        <time>2022-05-23T08:59:34Z</time>
      </trkpt>
      <trkpt lat="47.8396" lon="2.29208">
        <ele>242.02</ele>
        <time>2022-05-23T08:59:36Z</time>
      </trkpt>
      <trkpt lat="47.83958" lon="2.29222">
        <ele>241.6</ele>
        <time>2022-05-23T08:59:38Z</time>
      </trkpt>
      <trkpt lat="47.83955" lon="2.29235">
        <ele>241.62</ele>
        <time>2022-05-23T08:59:40Z</time>
      </trkpt>
      <trkpt lat="47.83953" lon="2.29249">
        <ele>241.66</ele>
        <time>2022-05-23T08:59:42Z</time>
      </trkpt>
      <trkpt lat="47.8395" lon="2.29262">
        <ele>241.32</ele>
        <time>2022-05-23T08:59:44Z</time>
      </trkpt>
      <trkpt lat="47.83947" lon="2.29275">
        <ele>241.15</ele>
        <time>2022-05-23T08:59:46Z</time>
      </trkpt>
      <trkpt lat="47.83943" lon="2.29288">
        <ele>241.23</ele>
        <time>2022-05-23T08:59:48Z</time>
      </trkpt>
      <trkpt lat="47.83938" lon="2.29305">
        <ele>241.15</ele>
        <time>2022-05-23T08:59:51Z</time>
      </trkpt>
      <trkpt lat="47.83934" lon="2.29321">
        <ele>241.34</ele>
        <time>2022-05-23T08:59:54Z</time>
      </trkpt>
      <trkpt lat="47.8393" lon="2.29339">
        <ele>241.32</ele>
        <time>2022-05-23T08:59:57Z</time>
      </trkpt>
      <trkpt lat="47.83926" lon="2.29358">
        <ele>240.99</ele>
        <time>2022-05-23T09:00:00Z</time>
      </trkpt>
      <trkpt lat="47.83923" lon="2.29372">
        <ele>241.02</ele>
        <time>2022-05-23T09:00:02Z</time>
      </trkpt>
      <trkpt lat="47.8392" lon="2.29384">
        <ele>241.19</ele>
        <time>2022-05-23T09:00:04Z</time>
      </trkpt>
      <trkpt lat="47.83916" lon="2.29402">
        <ele>241.02</ele>
        <time>2022-05-23T09:00:07Z</time>
      </trkpt>
      <trkpt lat="47.83912" lon="2.2942">
        <ele>241.26</ele>
        <time>2022-05-23T09:00:10Z</time>
      </trkpt>
      <trkpt lat="47.83907" lon="2.29438">
        <ele>241.69</ele>
        <time>2022-05-23T09:00:13Z</time>
      </trkpt>
      <trkpt lat="47.83903" lon="2.29456">
        <ele>241.66</ele>
        <time>2022-05-23T09:00:16Z</time>
      </trkpt>
      <trkpt lat="47.83898" lon="2.29474">
        <ele>241.88</ele>
        <time>2022-05-23T09:00:19Z</time>
      </trkpt>
      <trkpt lat="47.83893" lon="2.2949">
        <ele>241.68</ele>
        <time>2022-05-23T09:00:22Z</time>
      </trkpt>
      <trkpt lat="47.83887" lon="2.29507">
        <ele>241.75</ele>
        <time>2022-05-23T09:00:25Z</time>
      </trkpt>
      <trkpt lat="47.83882" lon="2.29524">
        <ele>241.94</ele>
        <time>2022-05-23T09:00:28Z</time>
      </trkpt>
      <trkpt lat="47.83875" lon="2.29541">
        <ele>241.88</ele>
        <time>2022-05-23T09:00:31Z</time>
      </trkpt>
      <trkpt lat="47.83868" lon="2.29551">
        <ele>241.68</ele>
        <time>2022-05-23T09:00:33Z</time>
      </trkpt>
      <trkpt lat="47.83856" lon="2.29557">
        <ele>241.9</ele>
        <time>2022-05-23T09:00:36Z</time>
      </trkpt>
      <trkpt lat="47.83843" lon="2.29558">
        <ele>242.27</ele>
        <time>2022-05-23T09:00:39Z</time>
      </trkpt>
      <trkpt lat="47.83831" lon="2.29559">
        <ele>242.19</ele>
        <time>2022-05-23T09:00:42Z</time>
      </trkpt>
      <trkpt lat="47.83819" lon="2.29563">
        <ele>242.09</ele>
        <time>2022-05-23T09:00:45Z</time>
      </trkpt>
      <trkpt lat="47.83808" lon="2.29572">
        <ele>241.91</ele>
        <time>2022-05-23T09:00:48Z</time>
      </trkpt>
      <trkpt lat="47.83799" lon="2.29585">
        <ele>241.6</ele>
        <time>2022-05-23T09:00:51Z</time>
      </trkpt>
      <trkpt lat="47.83792" lon="2.29598">
        <ele>241.44</ele>
        <time>2022-05-23T09:00:54Z</time>
      </trkpt>
      <trkpt lat="47.83786" lon="2.29611">
        <ele>241.66</ele>
        <time>2022-05-23T09:00:57Z</time>
      </trkpt>
      <trkpt lat="47.8378" lon="2.29624">
        <ele>241.22</ele>
        <time>2022-05-23T09:01:00Z</time>
      </trkpt>
      <trkpt lat="47.83774" lon="2.29638">
        <ele>241.42</ele>
        <time>2022-05-23T09:01:03Z</time>
      </trkpt>
      <trkpt lat="47.83768" lon="2.29653">
        <ele>241.63</ele>
        <time>2022-05-23T09:01:06Z</time>
      </trkpt>
      <trkpt lat="47.83762" lon="2.29669">
        <ele>241.92</ele>
        <time>2022-05-23T09:01:09Z</time>
      </trkpt>
      <trkpt lat="47.83755" lon="2.29684">
        <ele>242.09</ele>
        <time>2022-05-23T09:01:12Z</time>
      </trkpt>
      <trkpt lat="47.8375" lon="2.29698">
        <ele>242.22</ele>
        <time>2022-05-23T09:01:15Z</time>
      </trkpt>
      <trkpt lat="47.83743" lon="2.2971">
        <ele>242.17</ele>
        <time>2022-05-23T09:01:18Z</time>
      </trkpt>
      <trkpt lat="47.83731" lon="2.29711">
        <ele>242.23</ele>
        <time>2022-05-23T09:01:21Z</time>
      </trkpt>
      <trkpt lat="47.83719" lon="2.29706">
        <ele>242.25</ele>
        <time>2022-05-23T09:01:24Z</time>
      </trkpt>
      <trkpt lat="47.83707" lon="2.29699">
        <ele>242.28</ele>
        <time>2022-05-23T09:01:27Z</time>
      </trkpt>
      <trkpt lat="47.83694" lon="2.29692">
        <ele>242.52</ele>
        <time>2022-05-23T09:01:30Z</time>
      </trkpt>
      <trkpt lat="47.83685" lon="2.29688">
        <ele>242.62</ele>
        <time>2022-05-23T09:01:32Z</time>
      </trkpt>
      <trkpt lat="47.83673" lon="2.29681">
        <ele>242.22</ele>
        <time>2022-05-23T09:01:35Z</time>
      </trkpt>
      <trkpt lat="47.83661" lon="2.29676">
        <ele>241.91</ele>
        <time>2022-05-23T09:01:38Z</time>
      </trkpt>
      <trkpt lat="47.83649" lon="2.29671">
        <ele>241.74</ele>
        <time>2022-05-23T09:01:41Z</time>
      </trkpt>
      <trkpt lat="47.83638" lon="2.29665">
        <ele>241.59</ele>
        <time>2022-05-23T09:01:44Z</time>
      </trkpt>
      <trkpt lat="47.83626" lon="2.29659">
        <ele>241.24</ele>
        <time>2022-05-23T09:01:47Z</time>
      </trkpt>
      <trkpt lat="47.83612" lon="2.2966">
        <ele>241.93</ele>
        <time>2022-05-23T09:01:50Z</time>
      </trkpt>
      <trkpt lat="47.83599" lon="2.29664">
        <ele>242.31</ele>
        <time>2022-05-23T09:01:53Z</time>
      </trkpt>
      <trkpt lat="47.83588" lon="2.2967">
        <ele>242.37</ele>
        <time>2022-05-23T09:01:56Z</time>
      </trkpt>
      <trkpt lat="47.83578" lon="2.29678">
        <ele>242.42</ele>
        <time>2022-05-23T09:01:59Z</time>
      </trkpt>
      <trkpt lat="47.83568" lon="2.29687">
        <ele>242.11</ele>
        <time>2022-05-23T09:02:02Z</time>
      </trkpt>
      <trkpt lat="47.83558" lon="2.29696">
        <ele>241.87</ele>
        <time>2022-05-23T09:02:05Z</time>
      </trkpt>
      <trkpt lat="47.83547" lon="2.29706">
        <ele>241.39</ele>
        <time>2022-05-23T09:02:08Z</time>
      </trkpt>
      <trkpt lat="47.83536" lon="2.29715">
        <ele>241.12</ele>
        <time>2022-05-23T09:02:11Z</time>
      </trkpt>
      <trkpt lat="47.83526" lon="2.29723">
        <ele>241.17</ele>
        <time>2022-05-23T09:02:14Z</time>
      </trkpt>
      <trkpt lat="47.83515" lon="2.29729">
        <ele>241.26</ele>
        <time>2022-05-23T09:02:17Z</time>
      </trkpt>
      <trkpt lat="47.83503" lon="2.29732">
        <ele>241.49</ele>
        <time>2022-05-23T09:02:20Z</time>
      </trkpt>
      <trkpt lat="47.83491" lon="2.29734">
        <ele>241.59</ele>
        <time>2022-05-23T09:02:23Z</time>
      </trkpt>
      <trkpt lat="47.83478" lon="2.29735">
        <ele>241.76</ele>
        <time>2022-05-23T09:02:26Z</time>
      </trkpt>
      <trkpt lat="47.83466" lon="2.29733">
        <ele>241.86</ele>
        <time>2022-05-23T09:02:29Z</time>
      </trkpt>
      <trkpt lat="47.83454" lon="2.29729">
        <ele>241.84</ele>
        <time>2022-05-23T09:02:32Z</time>
      </trkpt>
      <trkpt lat="47.83443" lon="2.29722">
        <ele>241.92</ele>
        <time>2022-05-23T09:02:35Z</time>
      </trkpt>
      <trkpt lat="47.83433" lon="2.29715">
        <ele>241.73</ele>
        <time>2022-05-23T09:02:38Z</time>
      </trkpt>
      <trkpt lat="47.83424" lon="2.29709">
        <ele>241.6</ele>
        <time>2022-05-23T09:02:41Z</time>
      </trkpt>
      <trkpt lat="47.83413" lon="2.29703">
        <ele>241.54</ele>
        <time>2022-05-23T09:02:44Z</time>
      </trkpt>
      <trkpt lat="47.83402" lon="2.29698">
        <ele>241.38</ele>
        <time>2022-05-23T09:02:47Z</time>
      </trkpt>
      <trkpt lat="47.8339" lon="2.29692">
        <ele>241.47</ele>
        <time>2022-05-23T09:02:50Z</time>
      </trkpt>
      <trkpt lat="47.83377" lon="2.29686">
        <ele>241.64</ele>
        <time>2022-05-23T09:02:53Z</time>
      </trkpt>
      <trkpt lat="47.83366" lon="2.29682">
        <ele>241.55</ele>
        <time>2022-05-23T09:02:56Z</time>
      </trkpt>
      <trkpt lat="47.83355" lon="2.29676">
        <ele>241.37</ele>
        <time>2022-05-23T09:02:59Z</time>
      </trkpt>
      <trkpt lat="47.83343" lon="2.29675">
        <ele>241.37</ele>
        <time>2022-05-23T09:03:02Z</time>
      </trkpt>
      <trkpt lat="47.83333" lon="2.29684">
        <ele>241.15</ele>
        <time>2022-05-23T09:03:05Z</time>
      </trkpt>
      <trkpt lat="47.83327" lon="2.297">
        <ele>241.27</ele>
        <time>2022-05-23T09:03:08Z</time>
      </trkpt>
      <trkpt lat="47.83322" lon="2.29716">
        <ele>241.35</ele>
        <time>2022-05-23T09:03:11Z</time>
      </trkpt>
      <trkpt lat="47.83316" lon="2.29732">
        <ele>241.37</ele>
        <time>2022-05-23T09:03:14Z</time>
      </trkpt>
      <trkpt lat="47.83311" lon="2.29748">
        <ele>241.29</ele>
        <time>2022-05-23T09:03:17Z</time>
      </trkpt>
      <trkpt lat="47.83305" lon="2.29763">
        <ele>241.45</ele>
        <time>2022-05-23T09:03:20Z</time>
      </trkpt>
      <trkpt lat="47.83299" lon="2.29779">
        <ele>241.24</ele>
        <time>2022-05-23T09:03:23Z</time>
      </trkpt>
      <trkpt lat="47.83294" lon="2.29797">
        <ele>241.34</ele>
        <time>2022-05-23T09:03:26Z</time>
      </trkpt>
      <trkpt lat="47.83288" lon="2.29813">
        <ele>241.5</ele>
        <time>2022-05-23T09:03:29Z</time>
      </trkpt>
      <trkpt lat="47.83282" lon="2.29829">
        <ele>241.69</ele>
        <time>2022-05-23T09:03:32Z</time>
      </trkpt>
      <trkpt lat="47.83276" lon="2.29845">
        <ele>241.74</ele>
        <time>2022-05-23T09:03:35Z</time>
      </trkpt>
      <trkpt lat="47.8327" lon="2.29861">
        <ele>241.83</ele>
        <time>2022-05-23T09:03:38Z</time>
      </trkpt>
      <trkpt lat="47.83265" lon="2.29876">
        <ele>241.84</ele>
        <time>2022-05-23T09:03:41Z</time>
      </trkpt>
      <trkpt lat="47.83259" lon="2.2989">
        <ele>241.55</ele>
        <time>2022-05-23T09:03:44Z</time>
      </trkpt>
      <trkpt lat="47.83252" lon="2.29906">
        <ele>241.9</ele>
        <time>2022-05-23T09:03:47Z</time>
      </trkpt>
      <trkpt lat="47.83246" lon="2.29922">
        <ele>241.83</ele>
        <time>2022-05-23T09:03:50Z</time>
      </trkpt>
      <trkpt lat="47.83239" lon="2.29937">
        <ele>241.83</ele>
        <time>2022-05-23T09:03:53Z</time>
      </trkpt>
      <trkpt lat="47.83234" lon="2.29951">
        <ele>241.55</ele>
        <time>2022-05-23T09:03:56Z</time>
      </trkpt>
      <trkpt lat="47.83227" lon="2.29965">
        <ele>241.46</ele>
        <time>2022-05-23T09:03:59Z</time>
      </trkpt>
      <trkpt lat="47.83222" lon="2.29981">
        <ele>241.38</ele>
        <time>2022-05-23T09:04:02Z</time>
      </trkpt>
      <trkpt lat="47.83216" lon="2.29998">
        <ele>241.17</ele>
        <time>2022-05-23T09:04:05Z</time>
      </trkpt>
      <trkpt lat="47.83212" lon="2.30016">
        <ele>241.43</ele>
        <time>2022-05-23T09:04:08Z</time>
      </trkpt>
      <trkpt lat="47.83209" lon="2.30029">
        <ele>241.46</ele>
        <time>2022-05-23T09:04:10Z</time>
      </trkpt>
      <trkpt lat="47.83203" lon="2.30047">
        <ele>241.6</ele>
        <time>2022-05-23T09:04:13Z</time>
      </trkpt>
      <trkpt lat="47.83198" lon="2.30065">
        <ele>241.39</ele>
        <time>2022-05-23T09:04:16Z</time>
      </trkpt>
      <trkpt lat="47.83191" lon="2.3008">
        <ele>241.22</ele>
        <time>2022-05-23T09:04:19Z</time>
      </trkpt>
      <trkpt lat="47.83184" lon="2.30096">
        <ele>241.05</ele>
        <time>2022-05-23T09:04:22Z</time>
      </trkpt>
      <trkpt lat="47.83176" lon="2.30112">
        <ele>241.06</ele>
        <time>2022-05-23T09:04:25Z</time>
      </trkpt>
      <trkpt lat="47.83169" lon="2.30128">
        <ele>240.89</ele>
        <time>2022-05-23T09:04:28Z</time>
      </trkpt>
      <trkpt lat="47.83162" lon="2.30143">
        <ele>240.96</ele>
        <time>2022-05-23T09:04:31Z</time>
      </trkpt>
      <trkpt lat="47.83156" lon="2.30159">
        <ele>241.15</ele>
        <time>2022-05-23T09:04:34Z</time>
      </trkpt>
      <trkpt lat="47.83152" lon="2.30177">
        <ele>240.95</ele>
        <time>2022-05-23T09:04:37Z</time>
      </trkpt>
      <trkpt lat="47.8315" lon="2.3019">
        <ele>240.82</ele>
        <time>2022-05-23T09:04:39Z</time>
      </trkpt>
      <trkpt lat="47.83144" lon="2.30208">
        <ele>240.84</ele>
        <time>2022-05-23T09:04:42Z</time>
      </trkpt>
      <trkpt lat="47.83138" lon="2.30225">
        <ele>240.94</ele>
        <time>2022-05-23T09:04:45Z</time>
      </trkpt>
      <trkpt lat="47.83131" lon="2.30242">
        <ele>241.15</ele>
        <time>2022-05-23T09:04:48Z</time>
      </trkpt>
      <trkpt lat="47.83124" lon="2.30258">
        <ele>241.06</ele>
        <time>2022-05-23T09:04:51Z</time>
      </trkpt>
      <trkpt lat="47.83118" lon="2.30269">
        <ele>241.11</ele>
        <time>2022-05-23T09:04:53Z</time>
      </trkpt>
      <trkpt lat="47.83113" lon="2.30279">
        <ele>241.17</ele>
        <time>2022-05-23T09:04:55Z</time>
      </trkpt>
      <trkpt lat="47.83104" lon="2.30294">
        <ele>241.18</ele>
        <time>2022-05-23T09:04:58Z</time>
      </trkpt>
      <trkpt lat="47.83095" lon="2.30307">
        <ele>241.18</ele>
        <time>2022-05-23T09:05:01Z</time>
      </trkpt>
      <trkpt lat="47.83085" lon="2.30319">
        <ele>241.43</ele>
        <time>2022-05-23T09:05:04Z</time>
      </trkpt>
      <trkpt lat="47.83075" lon="2.30331">
        <ele>241.33</ele>
        <time>2022-05-23T09:05:07Z</time>
      </trkpt>
      <trkpt lat="47.83066" lon="2.30344">
        <ele>241.3</ele>
        <time>2022-05-23T09:05:10Z</time>
      </trkpt>
      <trkpt lat="47.83057" lon="2.30358">
        <ele>241.42</ele>
        <time>2022-05-23T09:05:13Z</time>
      </trkpt>
      <trkpt lat="47.8305" lon="2.30373">
        <ele>241.32</ele>
        <time>2022-05-23T09:05:16Z</time>
      </trkpt>
      <trkpt lat="47.83043" lon="2.30388">
        <ele>240.9</ele>
        <time>2022-05-23T09:05:19Z</time>
      </trkpt>
      <trkpt lat="47.83036" lon="2.30403">
        <ele>241.16</ele>
        <time>2022-05-23T09:05:22Z</time>
      </trkpt>
      <trkpt lat="47.83029" lon="2.30418">
        <ele>241.3</ele>
        <time>2022-05-23T09:05:25Z</time>
      </trkpt>
      <trkpt lat="47.83021" lon="2.30433">
        <ele>241.26</ele>
        <time>2022-05-23T09:05:28Z</time>
      </trkpt>
      <trkpt lat="47.83013" lon="2.30449">
        <ele>241.25</ele>
        <time>2022-05-23T09:05:31Z</time>
      </trkpt>
      <trkpt lat="47.83006" lon="2.30464">
        <ele>241.07</ele>
        <time>2022-05-23T09:05:34Z</time>
      </trkpt>
      <trkpt lat="47.83" lon="2.30479">
        <ele>241.12</ele>
        <time>2022-05-23T09:05:37Z</time>
      </trkpt>
      <trkpt lat="47.82993" lon="2.30495">
        <ele>241.31</ele>
        <time>2022-05-23T09:05:40Z</time>
      </trkpt>
      <trkpt lat="47.82986" lon="2.3051">
        <ele>241.27</ele>
        <time>2022-05-23T09:05:43Z</time>
      </trkpt>
      <trkpt lat="47.82979" lon="2.30524">
        <ele>241.38</ele>
        <time>2022-05-23T09:05:46Z</time>
      </trkpt>
      <trkpt lat="47.82972" lon="2.3054">
        <ele>241.24</ele>
        <time>2022-05-23T09:05:49Z</time>
      </trkpt>
      <trkpt lat="47.82965" lon="2.30555">
        <ele>241.35</ele>
        <time>2022-05-23T09:05:52Z</time>
      </trkpt>
      <trkpt lat="47.82959" lon="2.30568">
        <ele>241.22</ele>
        <time>2022-05-23T09:05:55Z</time>
      </trkpt>
      <trkpt lat="47.82953" lon="2.30581">
        <ele>241.48</ele>
        <time>2022-05-23T09:05:58Z</time>
      </trkpt>
      <trkpt lat="47.82946" lon="2.30593">
        <ele>241.52</ele>
        <time>2022-05-23T09:06:01Z</time>
      </trkpt>
      <trkpt lat="47.82939" lon="2.30605">
        <ele>241.64</ele>
        <time>2022-05-23T09:06:04Z</time>
      </trkpt>
      <trkpt lat="47.82931" lon="2.30617">
        <ele>241.55</ele>
        <time>2022-05-23T09:06:07Z</time>
      </trkpt>
      <trkpt lat="47.82919" lon="2.30624">
        <ele>241.45</ele>
        <time>2022-05-23T09:06:10Z</time>
      </trkpt>
      <trkpt lat="47.82908" lon="2.30617">
        <ele>241.65</ele>
        <time>2022-05-23T09:06:13Z</time>
      </trkpt>
      <trkpt lat="47.82898" lon="2.30606">
        <ele>241.78</ele>
        <time>2022-05-23T09:06:16Z</time>
      </trkpt>
      <trkpt lat="47.82888" lon="2.30594">
        <ele>241.5</ele>
        <time>2022-05-23T09:06:19Z</time>
      </trkpt>
      <trkpt lat="47.82877" lon="2.30584">
        <ele>241.56</ele>
        <time>2022-05-23T09:06:22Z</time>
      </trkpt>
      <trkpt lat="47.82866" lon="2.30574">
        <ele>241.24</ele>
        <time>2022-05-23T09:06:25Z</time>
      </trkpt>
      <trkpt lat="47.82855" lon="2.30565">
        <ele>241.48</ele>
        <time>2022-05-23T09:06:28Z</time>
      </trkpt>
      <trkpt lat="47.82844" lon="2.30559">
        <ele>241.55</ele>
        <time>2022-05-23T09:06:31Z</time>
      </trkpt>
      <trkpt lat="47.82831" lon="2.30555">
        <ele>241.36</ele>
        <time>2022-05-23T09:06:34Z</time>
      </trkpt>
      <trkpt lat="47.82819" lon="2.30557">
        <ele>241.58</ele>
        <time>2022-05-23T09:06:37Z</time>
      </trkpt>
      <trkpt lat="47.82807" lon="2.30564">
        <ele>241.46</ele>
        <time>2022-05-23T09:06:40Z</time>
      </trkpt>
      <trkpt lat="47.82797" lon="2.30572">
        <ele>241.31</ele>
        <time>2022-05-23T09:06:43Z</time>
      </trkpt>
      <trkpt lat="47.82787" lon="2.30582">
        <ele>241.12</ele>
        <time>2022-05-23T09:06:46Z</time>
      </trkpt>
      <trkpt lat="47.82777" lon="2.30593">
        <ele>241.04</ele>
        <time>2022-05-23T09:06:49Z</time>
      </trkpt>
      <trkpt lat="47.8277" lon="2.30601">
        <ele>241.06</ele>
        <time>2022-05-23T09:06:51Z</time>
      </trkpt>
      <trkpt lat="47.82759" lon="2.30612">
        <ele>240.9</ele>
        <time>2022-05-23T09:06:54Z</time>
      </trkpt>
      <trkpt lat="47.82751" lon="2.30617">
        <ele>240.89</ele>
        <time>2022-05-23T09:06:56Z</time>
      </trkpt>
      <trkpt lat="47.82742" lon="2.30623">
        <ele>240.73</ele>
        <time>2022-05-23T09:06:58Z</time>
      </trkpt>
      <trkpt lat="47.82732" lon="2.30626">
        <ele>241.21</ele>
        <time>2022-05-23T09:07:00Z</time>
      </trkpt>
      <trkpt lat="47.82723" lon="2.30627">
        <ele>241.48</ele>
        <time>2022-05-23T09:07:02Z</time>
      </trkpt>
      <trkpt lat="47.82714" lon="2.30624">
        <ele>241.75</ele>
        <time>2022-05-23T09:07:04Z</time>
      </trkpt>
      <trkpt lat="47.82704" lon="2.30619">
        <ele>241.84</ele>
        <time>2022-05-23T09:07:06Z</time>
      </trkpt>
      <trkpt lat="47.82696" lon="2.30612">
        <ele>242.06</ele>
        <time>2022-05-23T09:07:08Z</time>
      </trkpt>
      <trkpt lat="47.82689" lon="2.30605">
        <ele>241.85</ele>
        <time>2022-05-23T09:07:10Z</time>
      </trkpt>
      <trkpt lat="47.82681" lon="2.30597">
        <ele>242.19</ele>
        <time>2022-05-23T09:07:12Z</time>
      </trkpt>
      <trkpt lat="47.82674" lon="2.30589">
        <ele>242.33</ele>
        <time>2022-05-23T09:07:14Z</time>
      </trkpt>
      <trkpt lat="47.82667" lon="2.3058">
        <ele>242.41</ele>
        <time>2022-05-23T09:07:16Z</time>
      </trkpt>
      <trkpt lat="47.82658" lon="2.30567">
        <ele>242.56</ele>
        <time>2022-05-23T09:07:19Z</time>
      </trkpt>
      <trkpt lat="47.8265" lon="2.30555">
        <ele>242.29</ele>
        <time>2022-05-23T09:07:22Z</time>
      </trkpt>
      <trkpt lat="47.82642" lon="2.30544">
        <ele>241.91</ele>
        <time>2022-05-23T09:07:25Z</time>
      </trkpt>
      <trkpt lat="47.82631" lon="2.30539">
        <ele>242.01</ele>
        <time>2022-05-23T09:07:28Z</time>
      </trkpt>
      <trkpt lat="47.82619" lon="2.30544">
        <ele>242.31</ele>
        <time>2022-05-23T09:07:31Z</time>
      </trkpt>
      <trkpt lat="47.8261" lon="2.30553">
        <ele>242.27</ele>
        <time>2022-05-23T09:07:34Z</time>
      </trkpt>
      <trkpt lat="47.826" lon="2.30563">
        <ele>241.7</ele>
        <time>2022-05-23T09:07:37Z</time>
      </trkpt>
      <trkpt lat="47.82589" lon="2.30574">
        <ele>241.89</ele>
        <time>2022-05-23T09:07:40Z</time>
      </trkpt>
      <trkpt lat="47.82577" lon="2.30584">
        <ele>241.9</ele>
        <time>2022-05-23T09:07:43Z</time>
      </trkpt>
      <trkpt lat="47.82567" lon="2.30592">
        <ele>241.94</ele>
        <time>2022-05-23T09:07:46Z</time>
      </trkpt>
      <trkpt lat="47.82556" lon="2.30598">
        <ele>242.14</ele>
        <time>2022-05-23T09:07:49Z</time>
      </trkpt>
      <trkpt lat="47.82545" lon="2.30608">
        <ele>242.23</ele>
        <time>2022-05-23T09:07:52Z</time>
      </trkpt>
      <trkpt lat="47.82534" lon="2.30617">
        <ele>242.27</ele>
        <time>2022-05-23T09:07:55Z</time>
      </trkpt>
      <trkpt lat="47.82522" lon="2.30627">
        <ele>242.65</ele>
        <time>2022-05-23T09:07:58Z</time>
      </trkpt>
      <trkpt lat="47.82511" lon="2.30635">
        <ele>243.03</ele>
        <time>2022-05-23T09:08:01Z</time>
      </trkpt>
      <trkpt lat="47.82499" lon="2.30644">
        <ele>243.25</ele>
        <time>2022-05-23T09:08:04Z</time>
      </trkpt>
      <trkpt lat="47.82487" lon="2.30652">
        <ele>243.43</ele>
        <time>2022-05-23T09:08:07Z</time>
      </trkpt>
      <trkpt lat="47.82475" lon="2.30661">
        <ele>243.47</ele>
        <time>2022-05-23T09:08:10Z</time>
      </trkpt>
      <trkpt lat="47.82465" lon="2.30671">
        <ele>243.42</ele>
        <time>2022-05-23T09:08:13Z</time>
      </trkpt>
      <trkpt lat="47.82454" lon="2.30678">
        <ele>243.25</ele>
        <time>2022-05-23T09:08:16Z</time>
      </trkpt>
      <trkpt lat="47.82443" lon="2.30686">
        <ele>242.86</ele>
        <time>2022-05-23T09:08:19Z</time>
      </trkpt>
      <trkpt lat="47.82434" lon="2.3069">
        <ele>242.72</ele>
        <time>2022-05-23T09:08:21Z</time>
      </trkpt>
      <trkpt lat="47.82421" lon="2.30695">
        <ele>242.78</ele>
        <time>2022-05-23T09:08:24Z</time>
      </trkpt>
      <trkpt lat="47.82408" lon="2.30699">
        <ele>242.81</ele>
        <time>2022-05-23T09:08:27Z</time>
      </trkpt>
      <trkpt lat="47.82396" lon="2.30701">
        <ele>242.9</ele>
        <time>2022-05-23T09:08:30Z</time>
      </trkpt>
      <trkpt lat="47.82383" lon="2.30704">
        <ele>242.66</ele>
        <time>2022-05-23T09:08:33Z</time>
      </trkpt>
      <trkpt lat="47.82374" lon="2.30708">
        <ele>242.47</ele>
        <time>2022-05-23T09:08:35Z</time>
      </trkpt>
      <trkpt lat="47.82366" lon="2.30714">
        <ele>242.47</ele>
        <time>2022-05-23T09:08:37Z</time>
      </trkpt>
      <trkpt lat="47.82358" lon="2.30721">
        <ele>242.33</ele>
        <time>2022-05-23T09:08:39Z</time>
      </trkpt>
      <trkpt lat="47.8235" lon="2.30727">
        <ele>241.97</ele>
        <time>2022-05-23T09:08:41Z</time>
      </trkpt>
      <trkpt lat="47.82341" lon="2.30729">
        <ele>241.76</ele>
        <time>2022-05-23T09:08:43Z</time>
      </trkpt>
      <trkpt lat="47.82328" lon="2.30728">
        <ele>241.52</ele>
        <time>2022-05-23T09:08:46Z</time>
      </trkpt>
      <trkpt lat="47.82315" lon="2.30728">
        <ele>241.68</ele>
        <time>2022-05-23T09:08:49Z</time>
      </trkpt>
      <trkpt lat="47.82304" lon="2.30727">
        <ele>241.79</ele>
        <time>2022-05-23T09:08:52Z</time>
      </trkpt>
      <trkpt lat="47.82292" lon="2.30727">
        <ele>242.26</ele>
        <time>2022-05-23T09:08:55Z</time>
      </trkpt>
      <trkpt lat="47.8228" lon="2.30725">
        <ele>242.26</ele>
        <time>2022-05-23T09:08:58Z</time>
      </trkpt>
      <trkpt lat="47.82268" lon="2.30723">
        <ele>242.67</ele>
        <time>2022-05-23T09:09:01Z</time>
      </trkpt>
      <trkpt lat="47.82256" lon="2.30722">
        <ele>242.66</ele>
        <time>2022-05-23T09:09:04Z</time>
      </trkpt>
      <trkpt lat="47.82246" lon="2.30719">
        <ele>242.69</ele>
        <time>2022-05-23T09:09:07Z</time>
      </trkpt>
      <trkpt lat="47.82236" lon="2.30716">
        <ele>242.58</ele>
        <time>2022-05-23T09:09:10Z</time>
      </trkpt>
      <trkpt lat="47.82225" lon="2.30712">
        <ele>242.44</ele>
        <time>2022-05-23T09:09:13Z</time>
      </trkpt>
      <trkpt lat="47.82214" lon="2.30707">
        <ele>242.24</ele>
        <time>2022-05-23T09:09:16Z</time>
      </trkpt>
      <trkpt lat="47.82203" lon="2.30703">
        <ele>242.09</ele>
        <time>2022-05-23T09:09:19Z</time>
      </trkpt>
      <trkpt lat="47.82193" lon="2.30698">
        <ele>241.74</ele>
        <time>2022-05-23T09:09:22Z</time>
      </trkpt>
      <trkpt lat="47.82182" lon="2.30692">
        <ele>241.67</ele>
        <time>2022-05-23T09:09:25Z</time>
      </trkpt>
      <trkpt lat="47.8217" lon="2.30687">
        <ele>241.7</ele>
        <time>2022-05-23T09:09:28Z</time>
      </trkpt>
      <trkpt lat="47.82159" lon="2.30681">
        <ele>241.86</ele>
        <time>2022-05-23T09:09:31Z</time>
      </trkpt>
      <trkpt lat="47.82148" lon="2.30675">
        <ele>242.1</ele>
        <time>2022-05-23T09:09:34Z</time>
      </trkpt>
      <trkpt lat="47.82137" lon="2.30671">
        <ele>242.08</ele>
        <time>2022-05-23T09:09:37Z</time>
      </trkpt>
      <trkpt lat="47.82121" lon="2.30665">
        <ele>241.95</ele>
        <time>2022-05-23T09:09:41Z</time>
      </trkpt>
      <trkpt lat="47.82109" lon="2.30661">
        <ele>241.96</ele>
        <time>2022-05-23T09:09:44Z</time>
      </trkpt>
      <trkpt lat="47.82097" lon="2.30657">
        <ele>241.95</ele>
        <time>2022-05-23T09:09:47Z</time>
      </trkpt>
      <trkpt lat="47.82084" lon="2.30654">
        <ele>242.24</ele>
        <time>2022-05-23T09:09:50Z</time>
      </trkpt>
      <trkpt lat="47.82072" lon="2.3065">
        <ele>242.4</ele>
        <time>2022-05-23T09:09:53Z</time>
      </trkpt>
      <trkpt lat="47.8206" lon="2.30647">
        <ele>242.47</ele>
        <time>2022-05-23T09:09:56Z</time>
      </trkpt>
      <trkpt lat="47.82047" lon="2.30643">
        <ele>242.42</ele>
        <time>2022-05-23T09:09:59Z</time>
      </trkpt>
      <trkpt lat="47.82034" lon="2.30639">
        <ele>242.44</ele>
        <time>2022-05-23T09:10:02Z</time>
      </trkpt>
      <trkpt lat="47.82021" lon="2.30634">
        <ele>242.1</ele>
        <time>2022-05-23T09:10:05Z</time>
      </trkpt>
      <trkpt lat="47.82012" lon="2.30632">
        <ele>242.25</ele>
        <time>2022-05-23T09:10:07Z</time>
      </trkpt>
      <trkpt lat="47.82001" lon="2.30629">
        <ele>242.18</ele>
        <time>2022-05-23T09:10:09Z</time>
      </trkpt>
      <trkpt lat="47.81991" lon="2.30626">
        <ele>242.15</ele>
        <time>2022-05-23T09:10:11Z</time>
      </trkpt>
      <trkpt lat="47.81978" lon="2.30623">
        <ele>242.21</ele>
        <time>2022-05-23T09:10:14Z</time>
      </trkpt>
      <trkpt lat="47.81966" lon="2.30619">
        <ele>242.31</ele>
        <time>2022-05-23T09:10:17Z</time>
      </trkpt>
      <trkpt lat="47.81957" lon="2.30619">
        <ele>242.15</ele>
        <time>2022-05-23T09:10:19Z</time>
      </trkpt>
      <trkpt lat="47.81944" lon="2.30621">
        <ele>242.34</ele>
        <time>2022-05-23T09:10:22Z</time>
      </trkpt>
      <trkpt lat="47.81931" lon="2.30624">
        <ele>242.37</ele>
        <time>2022-05-23T09:10:25Z</time>
      </trkpt>
      <trkpt lat="47.81919" lon="2.30627">
        <ele>242.19</ele>
        <time>2022-05-23T09:10:28Z</time>
      </trkpt>
      <trkpt lat="47.81907" lon="2.3063">
        <ele>242.24</ele>
        <time>2022-05-23T09:10:31Z</time>
      </trkpt>
      <trkpt lat="47.81894" lon="2.30633">
        <ele>242.53</ele>
        <time>2022-05-23T09:10:34Z</time>
      </trkpt>
      <trkpt lat="47.81882" lon="2.30636">
        <ele>242.78</ele>
        <time>2022-05-23T09:10:37Z</time>
      </trkpt>
      <trkpt lat="47.8187" lon="2.30638">
        <ele>242.66</ele>
        <time>2022-05-23T09:10:40Z</time>
      </trkpt>
      <trkpt lat="47.81858" lon="2.3064">
        <ele>242.71</ele>
        <time>2022-05-23T09:10:43Z</time>
      </trkpt>
      <trkpt lat="47.81846" lon="2.30641">
        <ele>242.57</ele>
        <time>2022-05-23T09:10:46Z</time>
      </trkpt>
      <trkpt lat="47.81834" lon="2.30644">
        <ele>242.72</ele>
        <time>2022-05-23T09:10:49Z</time>
      </trkpt>
      <trkpt lat="47.81823" lon="2.30646">
        <ele>242.95</ele>
        <time>2022-05-23T09:10:52Z</time>
      </trkpt>
      <trkpt lat="47.81811" lon="2.30651">
        <ele>243.08</ele>
        <time>2022-05-23T09:10:55Z</time>
      </trkpt>
      <trkpt lat="47.818" lon="2.30656">
        <ele>243.19</ele>
        <time>2022-05-23T09:10:58Z</time>
      </trkpt>
      <trkpt lat="47.81789" lon="2.30661">
        <ele>243.44</ele>
        <time>2022-05-23T09:11:01Z</time>
      </trkpt>
      <trkpt lat="47.81778" lon="2.30665">
        <ele>243.54</ele>
        <time>2022-05-23T09:11:04Z</time>
      </trkpt>
      <trkpt lat="47.81767" lon="2.30671">
        <ele>243.61</ele>
        <time>2022-05-23T09:11:07Z</time>
      </trkpt>
      <trkpt lat="47.81756" lon="2.30677">
        <ele>243.51</ele>
        <time>2022-05-23T09:11:10Z</time>
      </trkpt>
      <trkpt lat="47.81744" lon="2.30683">
        <ele>243.64</ele>
        <time>2022-05-23T09:11:13Z</time>
      </trkpt>
      <trkpt lat="47.81733" lon="2.30689">
        <ele>243.92</ele>
        <time>2022-05-23T09:11:16Z</time>
      </trkpt>
      <trkpt lat="47.81721" lon="2.30695">
        <ele>243.95</ele>
        <time>2022-05-23T09:11:19Z</time>
      </trkpt>
      <trkpt lat="47.81709" lon="2.30701">
        <ele>244.06</ele>
        <time>2022-05-23T09:11:22Z</time>
      </trkpt>
      <trkpt lat="47.81698" lon="2.30706">
        <ele>244.13</ele>
        <time>2022-05-23T09:11:25Z</time>
      </trkpt>
      <trkpt lat="47.81689" lon="2.30709">
        <ele>244.01</ele>
        <time>2022-05-23T09:11:28Z</time>
      </trkpt>
      <trkpt lat="47.81678" lon="2.30713">
        <ele>244.65</ele>
        <time>2022-05-23T09:11:31Z</time>
      </trkpt>
      <trkpt lat="47.81666" lon="2.30717">
        <ele>244.71</ele>
        <time>2022-05-23T09:11:34Z</time>
      </trkpt>
      <trkpt lat="47.81653" lon="2.30718">
        <ele>244.55</ele>
        <time>2022-05-23T09:11:37Z</time>
      </trkpt>
      <trkpt lat="47.81641" lon="2.30718">
        <ele>244.75</ele>
        <time>2022-05-23T09:11:40Z</time>
      </trkpt>
      <trkpt lat="47.8163" lon="2.3072">
        <ele>244.15</ele>
        <time>2022-05-23T09:11:43Z</time>
      </trkpt>
      <trkpt lat="47.81618" lon="2.30726">
        <ele>244.16</ele>
        <time>2022-05-23T09:11:46Z</time>
      </trkpt>
      <trkpt lat="47.81606" lon="2.30734">
        <ele>244.3</ele>
        <time>2022-05-23T09:11:49Z</time>
      </trkpt>
      <trkpt lat="47.81594" lon="2.30742">
        <ele>244.52</ele>
        <time>2022-05-23T09:11:52Z</time>
      </trkpt>
      <trkpt lat="47.81582" lon="2.30749">
        <ele>244.69</ele>
        <time>2022-05-23T09:11:55Z</time>
      </trkpt>
      <trkpt lat="47.8157" lon="2.30755">
        <ele>244.91</ele>
        <time>2022-05-23T09:11:58Z</time>
      </trkpt>
      <trkpt lat="47.81558" lon="2.30762">
        <ele>245.22</ele>
        <time>2022-05-23T09:12:01Z</time>
      </trkpt>
      <trkpt lat="47.81546" lon="2.30768">
        <ele>245.13</ele>
        <time>2022-05-23T09:12:04Z</time>
      </trkpt>
      <trkpt lat="47.81535" lon="2.30775">
        <ele>245.46</ele>
        <time>2022-05-23T09:12:07Z</time>
      </trkpt>
      <trkpt lat="47.81524" lon="2.30784">
        <ele>245.51</ele>
        <time>2022-05-23T09:12:10Z</time>
      </trkpt>
      <trkpt lat="47.81513" lon="2.30791">
        <ele>245.34</ele>
        <time>2022-05-23T09:12:13Z</time>
      </trkpt>
      <trkpt lat="47.81503" lon="2.30798">
        <ele>245.48</ele>
        <time>2022-05-23T09:12:16Z</time>
      </trkpt>
      <trkpt lat="47.81493" lon="2.30806">
        <ele>245.24</ele>
        <time>2022-05-23T09:12:19Z</time>
      </trkpt>
      <trkpt lat="47.81485" lon="2.30813">
        <ele>244.82</ele>
        <time>2022-05-23T09:12:22Z</time>
      </trkpt>
      <trkpt lat="47.81477" lon="2.3082">
        <ele>244.79</ele>
        <time>2022-05-23T09:12:25Z</time>
      </trkpt>
      <trkpt lat="47.81468" lon="2.30827">
        <ele>244.68</ele>
        <time>2022-05-23T09:12:28Z</time>
      </trkpt>
      <trkpt lat="47.81459" lon="2.30834">
        <ele>244.85</ele>
        <time>2022-05-23T09:12:31Z</time>
      </trkpt>
      <trkpt lat="47.81451" lon="2.30842">
        <ele>244.63</ele>
        <time>2022-05-23T09:12:34Z</time>
      </trkpt>
      <trkpt lat="47.81441" lon="2.30848">
        <ele>244.71</ele>
        <time>2022-05-23T09:12:37Z</time>
      </trkpt>
      <trkpt lat="47.81431" lon="2.30851">
        <ele>244.8</ele>
        <time>2022-05-23T09:12:41Z</time>
      </trkpt>
      <trkpt lat="47.81422" lon="2.30853">
        <ele>244.8</ele>
        <time>2022-05-23T09:12:45Z</time>
      </trkpt>
      <trkpt lat="47.81412" lon="2.30858">
        <ele>245.2</ele>
        <time>2022-05-23T09:12:49Z</time>
      </trkpt>
      <trkpt lat="47.81407" lon="2.3087">
        <ele>245.01</ele>
        <time>2022-05-23T09:12:52Z</time>
      </trkpt>
      <trkpt lat="47.81403" lon="2.30887">
        <ele>245.04</ele>
        <time>2022-05-23T09:12:55Z</time>
      </trkpt>
      <trkpt lat="47.814" lon="2.30903">
        <ele>245.08</ele>
        <time>2022-05-23T09:12:58Z</time>
      </trkpt>
      <trkpt lat="47.81396" lon="2.30917">
        <ele>244.94</ele>
        <time>2022-05-23T09:13:01Z</time>
      </trkpt>
      <trkpt lat="47.81393" lon="2.30932">
        <ele>244.94</ele>
        <time>2022-05-23T09:13:04Z</time>
      </trkpt>
      <trkpt lat="47.81389" lon="2.30947">
        <ele>244.67</ele>
        <time>2022-05-23T09:13:07Z</time>
      </trkpt>
      <trkpt lat="47.81385" lon="2.30963">
        <ele>244.07</ele>
        <time>2022-05-23T09:13:10Z</time>
      </trkpt>
      <trkpt lat="47.8138" lon="2.3098">
        <ele>243.57</ele>
        <time>2022-05-23T09:13:13Z</time>
      </trkpt>
      <trkpt lat="47.81376" lon="2.30996">
        <ele>243.46</ele>
        <time>2022-05-23T09:13:16Z</time>
      </trkpt>
      <trkpt lat="47.81371" lon="2.31011">
        <ele>243.8</ele>
        <time>2022-05-23T09:13:19Z</time>
      </trkpt>
      <trkpt lat="47.81367" lon="2.31027">
        <ele>243.59</ele>
        <time>2022-05-23T09:13:22Z</time>
      </trkpt>
      <trkpt lat="47.81362" lon="2.31043">
        <ele>244.19</ele>
        <time>2022-05-23T09:13:25Z</time>
      </trkpt>
      <trkpt lat="47.81357" lon="2.31059">
        <ele>244.47</ele>
        <time>2022-05-23T09:13:28Z</time>
      </trkpt>
      <trkpt lat="47.81352" lon="2.31074">
        <ele>244.4</ele>
        <time>2022-05-23T09:13:31Z</time>
      </trkpt>
      <trkpt lat="47.81348" lon="2.3109">
        <ele>243.99</ele>
        <time>2022-05-23T09:13:34Z</time>
      </trkpt>
      <trkpt lat="47.81344" lon="2.31107">
        <ele>244.07</ele>
        <time>2022-05-23T09:13:37Z</time>
      </trkpt>
      <trkpt lat="47.8134" lon="2.31122">
        <ele>244.02</ele>
        <time>2022-05-23T09:13:40Z</time>
      </trkpt>
      <trkpt lat="47.81336" lon="2.31136">
        <ele>243.89</ele>
        <time>2022-05-23T09:13:43Z</time>
      </trkpt>
      <trkpt lat="47.81331" lon="2.31151">
        <ele>243.87</ele>
        <time>2022-05-23T09:13:47Z</time>
      </trkpt>
      <trkpt lat="47.81327" lon="2.31163">
        <ele>243.43</ele>
        <time>2022-05-23T09:14:07Z</time>
      </trkpt>
      <trkpt lat="47.81323" lon="2.31176">
        <ele>243.91</ele>
        <time>2022-05-23T09:14:19Z</time>
      </trkpt>
      <trkpt lat="47.81316" lon="2.3119">
        <ele>244.33</ele>
        <time>2022-05-23T09:14:24Z</time>
      </trkpt>
      <trkpt lat="47.81311" lon="2.31202">
        <ele>244.02</ele>
        <time>2022-05-23T09:14:27Z</time>
      </trkpt>
      <trkpt lat="47.81305" lon="2.31215">
        <ele>243.83</ele>
        <time>2022-05-23T09:14:30Z</time>
      </trkpt>
      <trkpt lat="47.81299" lon="2.31226">
        <ele>243.46</ele>
        <time>2022-05-23T09:14:33Z</time>
      </trkpt>
      <trkpt lat="47.81293" lon="2.31237">
        <ele>243.4</ele>
        <time>2022-05-23T09:14:36Z</time>
      </trkpt>
      <trkpt lat="47.81285" lon="2.31248">
        <ele>243.43</ele>
        <time>2022-05-23T09:14:39Z</time>
      </trkpt>
      <trkpt lat="47.81276" lon="2.31259">
        <ele>243.66</ele>
        <time>2022-05-23T09:14:42Z</time>
      </trkpt>
      <trkpt lat="47.81266" lon="2.31269">
        <ele>244.15</ele>
        <time>2022-05-23T09:14:45Z</time>
      </trkpt>
      <trkpt lat="47.81256" lon="2.31277">
        <ele>243.97</ele>
        <time>2022-05-23T09:14:48Z</time>
      </trkpt>
      <trkpt lat="47.81248" lon="2.31283">
        <ele>244.18</ele>
        <time>2022-05-23T09:14:51Z</time>
      </trkpt>
      <trkpt lat="47.81239" lon="2.3129">
        <ele>244.17</ele>
        <time>2022-05-23T09:14:55Z</time>
      </trkpt>
      <trkpt lat="47.81231" lon="2.31295">
        <ele>243.81</ele>
        <time>2022-05-23T09:15:00Z</time>
      </trkpt>
      <trkpt lat="47.81221" lon="2.31295">
        <ele>243.61</ele>
        <time>2022-05-23T09:15:10Z</time>
      </trkpt>
      <trkpt lat="47.81213" lon="2.31302">
        <ele>244.06</ele>
        <time>2022-05-23T09:16:44Z</time>
      </trkpt>
      <trkpt lat="47.81207" lon="2.31312">
        <ele>244.09</ele>
        <time>2022-05-23T09:16:48Z</time>
      </trkpt>
      <trkpt lat="47.81197" lon="2.3132">
        <ele>244.15</ele>
        <time>2022-05-23T09:16:52Z</time>
      </trkpt>
      <trkpt lat="47.81187" lon="2.31325">
        <ele>244.37</ele>
        <time>2022-05-23T09:16:56Z</time>
      </trkpt>
      <trkpt lat="47.81177" lon="2.31326">
        <ele>244.35</ele>
        <time>2022-05-23T09:16:59Z</time>
      </trkpt>
      <trkpt lat="47.81166" lon="2.31326">
        <ele>244.34</ele>
        <time>2022-05-23T09:17:02Z</time>
      </trkpt>
      <trkpt lat="47.81155" lon="2.31325">
        <ele>244.28</ele>
        <time>2022-05-23T09:17:05Z</time>
      </trkpt>
      <trkpt lat="47.81144" lon="2.31322">
        <ele>244.08</ele>
        <time>2022-05-23T09:17:08Z</time>
      </trkpt>
      <trkpt lat="47.81133" lon="2.31318">
        <ele>244.12</ele>
        <time>2022-05-23T09:17:11Z</time>
      </trkpt>
      <trkpt lat="47.81122" lon="2.31314">
        <ele>244.26</ele>
        <time>2022-05-23T09:17:14Z</time>
      </trkpt>
      <trkpt lat="47.81112" lon="2.3131">
        <ele>244.13</ele>
        <time>2022-05-23T09:17:17Z</time>
      </trkpt>
      <trkpt lat="47.81101" lon="2.31306">
        <ele>244.3</ele>
        <time>2022-05-23T09:17:20Z</time>
      </trkpt>
      <trkpt lat="47.81091" lon="2.31302">
        <ele>244.4</ele>
        <time>2022-05-23T09:17:23Z</time>
      </trkpt>
      <trkpt lat="47.8108" lon="2.31297">
        <ele>244.56</ele>
        <time>2022-05-23T09:17:26Z</time>
      </trkpt>
      <trkpt lat="47.81065" lon="2.31291">
        <ele>244.4</ele>
        <time>2022-05-23T09:17:30Z</time>
      </trkpt>
      <trkpt lat="47.81054" lon="2.31286">
        <ele>244.1</ele>
        <time>2022-05-23T09:17:33Z</time>
      </trkpt>
      <trkpt lat="47.81042" lon="2.31282">
        <ele>243.83</ele>
        <time>2022-05-23T09:17:36Z</time>
      </trkpt>
      <trkpt lat="47.81031" lon="2.31277">
        <ele>243.59</ele>
        <time>2022-05-23T09:17:39Z</time>
      </trkpt>
      <trkpt lat="47.8102" lon="2.31273">
        <ele>243.26</ele>
        <time>2022-05-23T09:17:42Z</time>
      </trkpt>
      <trkpt lat="47.81009" lon="2.31269">
        <ele>243.24</ele>
        <time>2022-05-23T09:17:45Z</time>
      </trkpt>
      <trkpt lat="47.80998" lon="2.31264">
        <ele>243.1</ele>
        <time>2022-05-23T09:17:48Z</time>
      </trkpt>
      <trkpt lat="47.80988" lon="2.31258">
        <ele>243.24</ele>
        <time>2022-05-23T09:17:51Z</time>
      </trkpt>
      <trkpt lat="47.80977" lon="2.31252">
        <ele>242.98</ele>
        <time>2022-05-23T09:17:54Z</time>
      </trkpt>
      <trkpt lat="47.80967" lon="2.31245">
        <ele>242.83</ele>
        <time>2022-05-23T09:17:57Z</time>
      </trkpt>
      <trkpt lat="47.80955" lon="2.31236">
        <ele>242.68</ele>
        <time>2022-05-23T09:18:00Z</time>
      </trkpt>
      <trkpt lat="47.80947" lon="2.31229">
        <ele>242.59</ele>
        <time>2022-05-23T09:18:02Z</time>
      </trkpt>
      <trkpt lat="47.80939" lon="2.31222">
        <ele>242.28</ele>
        <time>2022-05-23T09:18:04Z</time>
      </trkpt>
      <trkpt lat="47.80931" lon="2.31215">
        <ele>242.24</ele>
        <time>2022-05-23T09:18:06Z</time>
      </trkpt>
      <trkpt lat="47.80922" lon="2.31209">
        <ele>242.1</ele>
        <time>2022-05-23T09:18:08Z</time>
      </trkpt>
      <trkpt lat="47.80914" lon="2.31204">
        <ele>242.3</ele>
        <time>2022-05-23T09:18:10Z</time>
      </trkpt>
      <trkpt lat="47.80905" lon="2.312">
        <ele>242.4</ele>
        <time>2022-05-23T09:18:12Z</time>
      </trkpt>
      <trkpt lat="47.80896" lon="2.31195">
        <ele>242.33</ele>
        <time>2022-05-23T09:18:14Z</time>
      </trkpt>
      <trkpt lat="47.80887" lon="2.3119">
        <ele>242.34</ele>
        <time>2022-05-23T09:18:16Z</time>
      </trkpt>
      <trkpt lat="47.80877" lon="2.31186">
        <ele>241.98</ele>
        <time>2022-05-23T09:18:18Z</time>
      </trkpt>
      <trkpt lat="47.80868" lon="2.31183">
        <ele>242.19</ele>
        <time>2022-05-23T09:18:20Z</time>
      </trkpt>
      <trkpt lat="47.80859" lon="2.31179">
        <ele>242.37</ele>
        <time>2022-05-23T09:18:22Z</time>
      </trkpt>
      <trkpt lat="47.80846" lon="2.31173">
        <ele>242.56</ele>
        <time>2022-05-23T09:18:25Z</time>
      </trkpt>
      <trkpt lat="47.80833" lon="2.31168">
        <ele>243.04</ele>
        <time>2022-05-23T09:18:28Z</time>
      </trkpt>
      <trkpt lat="47.80821" lon="2.31162">
        <ele>243.33</ele>
        <time>2022-05-23T09:18:31Z</time>
      </trkpt>
      <trkpt lat="47.80807" lon="2.31156">
        <ele>243.18</ele>
        <time>2022-05-23T09:18:34Z</time>
      </trkpt>
      <trkpt lat="47.80798" lon="2.31152">
        <ele>243.42</ele>
        <time>2022-05-23T09:18:36Z</time>
      </trkpt>
      <trkpt lat="47.80789" lon="2.31147">
        <ele>243.28</ele>
        <time>2022-05-23T09:18:38Z</time>
      </trkpt>
      <trkpt lat="47.80781" lon="2.31141">
        <ele>243.25</ele>
        <time>2022-05-23T09:18:40Z</time>
      </trkpt>
      <trkpt lat="47.8077" lon="2.31132">
        <ele>243.47</ele>
        <time>2022-05-23T09:18:43Z</time>
      </trkpt>
      <trkpt lat="47.80761" lon="2.31123">
        <ele>243.6</ele>
        <time>2022-05-23T09:18:46Z</time>
      </trkpt>
      <trkpt lat="47.80753" lon="2.31115">
        <ele>244.22</ele>
        <time>2022-05-23T09:18:50Z</time>
      </trkpt>
      <trkpt lat="47.80744" lon="2.31106">
        <ele>244.84</ele>
        <time>2022-05-23T09:18:55Z</time>
      </trkpt>
      <trkpt lat="47.80733" lon="2.31109">
        <ele>245.26</ele>
        <time>2022-05-23T09:19:00Z</time>
      </trkpt>
      <trkpt lat="47.80724" lon="2.3112">
        <ele>245.22</ele>
        <time>2022-05-23T09:19:05Z</time>
      </trkpt>
      <trkpt lat="47.80719" lon="2.31134">
        <ele>244.77</ele>
        <time>2022-05-23T09:19:08Z</time>
      </trkpt>
      <trkpt lat="47.80714" lon="2.3115">
        <ele>244.39</ele>
        <time>2022-05-23T09:19:11Z</time>
      </trkpt>
      <trkpt lat="47.80708" lon="2.31165">
        <ele>244.35</ele>
        <time>2022-05-23T09:19:14Z</time>
      </trkpt>
      <trkpt lat="47.80701" lon="2.31179">
        <ele>244.06</ele>
        <time>2022-05-23T09:19:17Z</time>
      </trkpt>
      <trkpt lat="47.80695" lon="2.31192">
        <ele>243.86</ele>
        <time>2022-05-23T09:19:20Z</time>
      </trkpt>
      <trkpt lat="47.80688" lon="2.31205">
        <ele>243.25</ele>
        <time>2022-05-23T09:19:23Z</time>
      </trkpt>
      <trkpt lat="47.8068" lon="2.31219">
        <ele>243.26</ele>
        <time>2022-05-23T09:19:26Z</time>
      </trkpt>
      <trkpt lat="47.80673" lon="2.31234">
        <ele>243.08</ele>
        <time>2022-05-23T09:19:29Z</time>
      </trkpt>
      <trkpt lat="47.80667" lon="2.31251">
        <ele>243.2</ele>
        <time>2022-05-23T09:19:32Z</time>
      </trkpt>
      <trkpt lat="47.8066" lon="2.31267">
        <ele>243.49</ele>
        <time>2022-05-23T09:19:35Z</time>
      </trkpt>
      <trkpt lat="47.80655" lon="2.31283">
        <ele>243.73</ele>
        <time>2022-05-23T09:19:38Z</time>
      </trkpt>
      <trkpt lat="47.80651" lon="2.31298">
        <ele>243.58</ele>
        <time>2022-05-23T09:19:41Z</time>
      </trkpt>
      <trkpt lat="47.80647" lon="2.31312">
        <ele>242.82</ele>
        <time>2022-05-23T09:19:44Z</time>
      </trkpt>
      <trkpt lat="47.80644" lon="2.31328">
        <ele>242.8</ele>
        <time>2022-05-23T09:19:47Z</time>
      </trkpt>
      <trkpt lat="47.8064" lon="2.31344">
        <ele>243.25</ele>
        <time>2022-05-23T09:19:50Z</time>
      </trkpt>
      <trkpt lat="47.80635" lon="2.3136">
        <ele>243.76</ele>
        <time>2022-05-23T09:19:53Z</time>
      </trkpt>
      <trkpt lat="47.80631" lon="2.31377">
        <ele>244.12</ele>
        <time>2022-05-23T09:19:56Z</time>
      </trkpt>
      <trkpt lat="47.80627" lon="2.31395">
        <ele>244.32</ele>
        <time>2022-05-23T09:19:59Z</time>
      </trkpt>
      <trkpt lat="47.80623" lon="2.31412">
        <ele>244.9</ele>
        <time>2022-05-23T09:20:02Z</time>
      </trkpt>
      <trkpt lat="47.80619" lon="2.31429">
        <ele>244.71</ele>
        <time>2022-05-23T09:20:05Z</time>
      </trkpt>
      <trkpt lat="47.80615" lon="2.31447">
        <ele>245.23</ele>
        <time>2022-05-23T09:20:08Z</time>
      </trkpt>
      <trkpt lat="47.8061" lon="2.31465">
        <ele>245.46</ele>
        <time>2022-05-23T09:20:11Z</time>
      </trkpt>
      <trkpt lat="47.80606" lon="2.31483">
        <ele>245.25</ele>
        <time>2022-05-23T09:20:14Z</time>
      </trkpt>
      <trkpt lat="47.80603" lon="2.31501">
        <ele>244.38</ele>
        <time>2022-05-23T09:20:17Z</time>
      </trkpt>
      <trkpt lat="47.80604" lon="2.31522">
        <ele>243.99</ele>
        <time>2022-05-23T09:20:20Z</time>
      </trkpt>
      <trkpt lat="47.80605" lon="2.31535">
        <ele>243.94</ele>
        <time>2022-05-23T09:20:22Z</time>
      </trkpt>
      <trkpt lat="47.80609" lon="2.31554">
        <ele>244.11</ele>
        <time>2022-05-23T09:20:25Z</time>
      </trkpt>
      <trkpt lat="47.80613" lon="2.31574">
        <ele>243.96</ele>
        <time>2022-05-23T09:20:28Z</time>
      </trkpt>
      <trkpt lat="47.80614" lon="2.31588">
        <ele>244.1</ele>
        <time>2022-05-23T09:20:30Z</time>
      </trkpt>
      <trkpt lat="47.80617" lon="2.31602">
        <ele>244.16</ele>
        <time>2022-05-23T09:20:32Z</time>
      </trkpt>
      <trkpt lat="47.80619" lon="2.31616">
        <ele>243.98</ele>
        <time>2022-05-23T09:20:34Z</time>
      </trkpt>
      <trkpt lat="47.80622" lon="2.3163">
        <ele>243.52</ele>
        <time>2022-05-23T09:20:36Z</time>
      </trkpt>
      <trkpt lat="47.80623" lon="2.31644">
        <ele>243.79</ele>
        <time>2022-05-23T09:20:38Z</time>
      </trkpt>
      <trkpt lat="47.80624" lon="2.31663">
        <ele>243.58</ele>
        <time>2022-05-23T09:20:41Z</time>
      </trkpt>
      <trkpt lat="47.80623" lon="2.31683">
        <ele>243.51</ele>
        <time>2022-05-23T09:20:44Z</time>
      </trkpt>
      <trkpt lat="47.80621" lon="2.31697">
        <ele>243.83</ele>
        <time>2022-05-23T09:20:46Z</time>
      </trkpt>
      <trkpt lat="47.80619" lon="2.31715">
        <ele>243.76</ele>
        <time>2022-05-23T09:20:49Z</time>
      </trkpt>
      <trkpt lat="47.80616" lon="2.31733">
        <ele>243.97</ele>
        <time>2022-05-23T09:20:52Z</time>
      </trkpt>
      <trkpt lat="47.80612" lon="2.31753">
        <ele>243.69</ele>
        <time>2022-05-23T09:20:55Z</time>
      </trkpt>
      <trkpt lat="47.80609" lon="2.31771">
        <ele>243.49</ele>
        <time>2022-05-23T09:20:58Z</time>
      </trkpt>
      <trkpt lat="47.80606" lon="2.3179">
        <ele>243.51</ele>
        <time>2022-05-23T09:21:01Z</time>
      </trkpt>
      <trkpt lat="47.80603" lon="2.31809">
        <ele>243.16</ele>
        <time>2022-05-23T09:21:04Z</time>
      </trkpt>
      <trkpt lat="47.806" lon="2.31828">
        <ele>243.23</ele>
        <time>2022-05-23T09:21:07Z</time>
      </trkpt>
      <trkpt lat="47.80596" lon="2.31846">
        <ele>243.34</ele>
        <time>2022-05-23T09:21:10Z</time>
      </trkpt>
      <trkpt lat="47.80593" lon="2.31865">
        <ele>243.57</ele>
        <time>2022-05-23T09:21:13Z</time>
      </trkpt>
      <trkpt lat="47.8059" lon="2.31883">
        <ele>243.6</ele>
        <time>2022-05-23T09:21:16Z</time>
      </trkpt>
      <trkpt lat="47.80588" lon="2.31902">
        <ele>243.71</ele>
        <time>2022-05-23T09:21:19Z</time>
      </trkpt>
      <trkpt lat="47.80589" lon="2.31916">
        <ele>243.75</ele>
        <time>2022-05-23T09:21:21Z</time>
      </trkpt>
      <trkpt lat="47.8059" lon="2.3193">
        <ele>243.7</ele>
        <time>2022-05-23T09:21:23Z</time>
      </trkpt>
      <trkpt lat="47.80592" lon="2.31944">
        <ele>243.71</ele>
        <time>2022-05-23T09:21:25Z</time>
      </trkpt>
      <trkpt lat="47.80593" lon="2.31957">
        <ele>243.84</ele>
        <time>2022-05-23T09:21:27Z</time>
      </trkpt>
      <trkpt lat="47.80595" lon="2.31976">
        <ele>243.55</ele>
        <time>2022-05-23T09:21:30Z</time>
      </trkpt>
      <trkpt lat="47.80597" lon="2.31989">
        <ele>243.41</ele>
        <time>2022-05-23T09:21:32Z</time>
      </trkpt>
      <trkpt lat="47.80599" lon="2.32003">
        <ele>243.81</ele>
        <time>2022-05-23T09:21:34Z</time>
      </trkpt>
      <trkpt lat="47.80601" lon="2.32017">
        <ele>243.71</ele>
        <time>2022-05-23T09:21:36Z</time>
      </trkpt>
      <trkpt lat="47.80603" lon="2.32036">
        <ele>243.82</ele>
        <time>2022-05-23T09:21:39Z</time>
      </trkpt>
      <trkpt lat="47.80606" lon="2.32055">
        <ele>243.93</ele>
        <time>2022-05-23T09:21:42Z</time>
      </trkpt>
      <trkpt lat="47.80607" lon="2.32068">
        <ele>243.64</ele>
        <time>2022-05-23T09:21:44Z</time>
      </trkpt>
      <trkpt lat="47.80609" lon="2.32081">
        <ele>243.69</ele>
        <time>2022-05-23T09:21:46Z</time>
      </trkpt>
      <trkpt lat="47.80611" lon="2.32095">
        <ele>243.61</ele>
        <time>2022-05-23T09:21:48Z</time>
      </trkpt>
      <trkpt lat="47.80613" lon="2.32114">
        <ele>243.59</ele>
        <time>2022-05-23T09:21:51Z</time>
      </trkpt>
      <trkpt lat="47.80615" lon="2.32133">
        <ele>243.45</ele>
        <time>2022-05-23T09:21:54Z</time>
      </trkpt>
      <trkpt lat="47.80617" lon="2.32153">
        <ele>243.44</ele>
        <time>2022-05-23T09:21:57Z</time>
      </trkpt>
      <trkpt lat="47.80619" lon="2.32166">
        <ele>243.39</ele>
        <time>2022-05-23T09:21:59Z</time>
      </trkpt>
      <trkpt lat="47.8062" lon="2.3218">
        <ele>243.26</ele>
        <time>2022-05-23T09:22:01Z</time>
      </trkpt>
      <trkpt lat="47.80621" lon="2.32193">
        <ele>243.36</ele>
        <time>2022-05-23T09:22:03Z</time>
      </trkpt>
      <trkpt lat="47.80623" lon="2.32206">
        <ele>243.48</ele>
        <time>2022-05-23T09:22:05Z</time>
      </trkpt>
      <trkpt lat="47.80624" lon="2.32226">
        <ele>243.4</ele>
        <time>2022-05-23T09:22:08Z</time>
      </trkpt>
      <trkpt lat="47.80626" lon="2.32245">
        <ele>243.18</ele>
        <time>2022-05-23T09:22:11Z</time>
      </trkpt>
      <trkpt lat="47.80627" lon="2.32264">
        <ele>243.18</ele>
        <time>2022-05-23T09:22:14Z</time>
      </trkpt>
      <trkpt lat="47.80627" lon="2.32284">
        <ele>243.45</ele>
        <time>2022-05-23T09:22:17Z</time>
      </trkpt>
      <trkpt lat="47.80626" lon="2.32303">
        <ele>243.5</ele>
        <time>2022-05-23T09:22:20Z</time>
      </trkpt>
      <trkpt lat="47.80624" lon="2.32322">
        <ele>243.75</ele>
        <time>2022-05-23T09:22:23Z</time>
      </trkpt>
      <trkpt lat="47.80623" lon="2.32342">
        <ele>244.08</ele>
        <time>2022-05-23T09:22:26Z</time>
      </trkpt>
      <trkpt lat="47.80621" lon="2.3236">
        <ele>243.83</ele>
        <time>2022-05-23T09:22:29Z</time>
      </trkpt>
      <trkpt lat="47.80618" lon="2.32378">
        <ele>243.86</ele>
        <time>2022-05-23T09:22:32Z</time>
      </trkpt>
      <trkpt lat="47.80615" lon="2.32397">
        <ele>244.11</ele>
        <time>2022-05-23T09:22:35Z</time>
      </trkpt>
      <trkpt lat="47.80613" lon="2.32417">
        <ele>244.21</ele>
        <time>2022-05-23T09:22:38Z</time>
      </trkpt>
      <trkpt lat="47.8061" lon="2.32436">
        <ele>244.45</ele>
        <time>2022-05-23T09:22:41Z</time>
      </trkpt>
      <trkpt lat="47.80607" lon="2.32454">
        <ele>244.55</ele>
        <time>2022-05-23T09:22:44Z</time>
      </trkpt>
      <trkpt lat="47.80604" lon="2.32472">
        <ele>244.29</ele>
        <time>2022-05-23T09:22:47Z</time>
      </trkpt>
      <trkpt lat="47.80601" lon="2.3249">
        <ele>244.3</ele>
        <time>2022-05-23T09:22:50Z</time>
      </trkpt>
      <trkpt lat="47.80598" lon="2.32509">
        <ele>244.11</ele>
        <time>2022-05-23T09:22:53Z</time>
      </trkpt>
      <trkpt lat="47.80595" lon="2.32528">
        <ele>244.18</ele>
        <time>2022-05-23T09:22:56Z</time>
      </trkpt>
      <trkpt lat="47.80593" lon="2.32546">
        <ele>244.16</ele>
        <time>2022-05-23T09:22:59Z</time>
      </trkpt>
      <trkpt lat="47.8059" lon="2.32564">
        <ele>244.1</ele>
        <time>2022-05-23T09:23:02Z</time>
      </trkpt>
      <trkpt lat="47.80587" lon="2.32583">
        <ele>244.22</ele>
        <time>2022-05-23T09:23:05Z</time>
      </trkpt>
      <trkpt lat="47.80584" lon="2.32602">
        <ele>244.44</ele>
        <time>2022-05-23T09:23:08Z</time>
      </trkpt>
      <trkpt lat="47.8058" lon="2.3262">
        <ele>244.28</ele>
        <time>2022-05-23T09:23:11Z</time>
      </trkpt>
      <trkpt lat="47.80577" lon="2.3264">
        <ele>244.47</ele>
        <time>2022-05-23T09:23:14Z</time>
      </trkpt>
      <trkpt lat="47.80574" lon="2.32658">
        <ele>244.5</ele>
        <time>2022-05-23T09:23:17Z</time>
      </trkpt>
      <trkpt lat="47.80571" lon="2.32677">
        <ele>244.58</ele>
        <time>2022-05-23T09:23:20Z</time>
      </trkpt>
      <trkpt lat="47.80569" lon="2.32696">
        <ele>244.81</ele>
        <time>2022-05-23T09:23:23Z</time>
      </trkpt>
      <trkpt lat="47.80565" lon="2.32715">
        <ele>244.93</ele>
        <time>2022-05-23T09:23:26Z</time>
      </trkpt>
      <trkpt lat="47.80562" lon="2.32734">
        <ele>245.04</ele>
        <time>2022-05-23T09:23:29Z</time>
      </trkpt>
      <trkpt lat="47.8056" lon="2.32747">
        <ele>244.98</ele>
        <time>2022-05-23T09:23:31Z</time>
      </trkpt>
      <trkpt lat="47.80559" lon="2.3276">
        <ele>245.05</ele>
        <time>2022-05-23T09:23:33Z</time>
      </trkpt>
      <trkpt lat="47.80556" lon="2.32774">
        <ele>245</ele>
        <time>2022-05-23T09:23:35Z</time>
      </trkpt>
      <trkpt lat="47.80553" lon="2.32793">
        <ele>244.98</ele>
        <time>2022-05-23T09:23:38Z</time>
      </trkpt>
      <trkpt lat="47.80551" lon="2.32807">
        <ele>244.74</ele>
        <time>2022-05-23T09:23:40Z</time>
      </trkpt>
      <trkpt lat="47.80548" lon="2.3282">
        <ele>244.91</ele>
        <time>2022-05-23T09:23:42Z</time>
      </trkpt>
      <trkpt lat="47.80546" lon="2.32833">
        <ele>245.37</ele>
        <time>2022-05-23T09:23:44Z</time>
      </trkpt>
      <trkpt lat="47.80543" lon="2.32846">
        <ele>245.86</ele>
        <time>2022-05-23T09:23:46Z</time>
      </trkpt>
      <trkpt lat="47.8054" lon="2.32859">
        <ele>245.8</ele>
        <time>2022-05-23T09:23:48Z</time>
      </trkpt>
      <trkpt lat="47.80537" lon="2.32872">
        <ele>245.68</ele>
        <time>2022-05-23T09:23:50Z</time>
      </trkpt>
      <trkpt lat="47.80534" lon="2.32891">
        <ele>246.03</ele>
        <time>2022-05-23T09:23:53Z</time>
      </trkpt>
      <trkpt lat="47.8053" lon="2.32908">
        <ele>245.83</ele>
        <time>2022-05-23T09:23:56Z</time>
      </trkpt>
      <trkpt lat="47.80526" lon="2.32924">
        <ele>245.6</ele>
        <time>2022-05-23T09:23:59Z</time>
      </trkpt>
      <trkpt lat="47.80523" lon="2.32941">
        <ele>245.33</ele>
        <time>2022-05-23T09:24:02Z</time>
      </trkpt>
      <trkpt lat="47.80519" lon="2.32959">
        <ele>245.51</ele>
        <time>2022-05-23T09:24:05Z</time>
      </trkpt>
      <trkpt lat="47.80515" lon="2.32978">
        <ele>245.82</ele>
        <time>2022-05-23T09:24:08Z</time>
      </trkpt>
      <trkpt lat="47.80512" lon="2.32991">
        <ele>245.71</ele>
        <time>2022-05-23T09:24:10Z</time>
      </trkpt>
      <trkpt lat="47.80509" lon="2.33005">
        <ele>245.64</ele>
        <time>2022-05-23T09:24:12Z</time>
      </trkpt>
      <trkpt lat="47.80505" lon="2.33022">
        <ele>245.61</ele>
        <time>2022-05-23T09:24:15Z</time>
      </trkpt>
      <trkpt lat="47.80501" lon="2.33041">
        <ele>245.57</ele>
        <time>2022-05-23T09:24:18Z</time>
      </trkpt>
      <trkpt lat="47.80497" lon="2.33059">
        <ele>245.66</ele>
        <time>2022-05-23T09:24:21Z</time>
      </trkpt>
      <trkpt lat="47.80493" lon="2.33078">
        <ele>246</ele>
        <time>2022-05-23T09:24:24Z</time>
      </trkpt>
      <trkpt lat="47.80489" lon="2.33096">
        <ele>245.49</ele>
        <time>2022-05-23T09:24:27Z</time>
      </trkpt>
      <trkpt lat="47.80486" lon="2.33116">
        <ele>245.9</ele>
        <time>2022-05-23T09:24:30Z</time>
      </trkpt>
      <trkpt lat="47.80482" lon="2.33135">
        <ele>245.36</ele>
        <time>2022-05-23T09:24:33Z</time>
      </trkpt>
      <trkpt lat="47.80479" lon="2.33147">
        <ele>245.3</ele>
        <time>2022-05-23T09:24:35Z</time>
      </trkpt>
      <trkpt lat="47.80476" lon="2.33167">
        <ele>245.6</ele>
        <time>2022-05-23T09:24:38Z</time>
      </trkpt>
      <trkpt lat="47.80473" lon="2.33179">
        <ele>245.82</ele>
        <time>2022-05-23T09:24:40Z</time>
      </trkpt>
      <trkpt lat="47.8047" lon="2.33193">
        <ele>245.82</ele>
        <time>2022-05-23T09:24:42Z</time>
      </trkpt>
      <trkpt lat="47.80468" lon="2.33206">
        <ele>245.83</ele>
        <time>2022-05-23T09:24:44Z</time>
      </trkpt>
      <trkpt lat="47.80465" lon="2.33224">
        <ele>245.63</ele>
        <time>2022-05-23T09:24:47Z</time>
      </trkpt>
      <trkpt lat="47.80462" lon="2.33238">
        <ele>245.43</ele>
        <time>2022-05-23T09:24:50Z</time>
      </trkpt>
      <trkpt lat="47.8046" lon="2.33254">
        <ele>245.75</ele>
        <time>2022-05-23T09:24:54Z</time>
      </trkpt>
      <trkpt lat="47.80459" lon="2.33268">
        <ele>245.55</ele>
        <time>2022-05-23T09:24:58Z</time>
      </trkpt>
      <trkpt lat="47.80457" lon="2.33283">
        <ele>245.94</ele>
        <time>2022-05-23T09:25:19Z</time>
      </trkpt>
      <trkpt lat="47.80453" lon="2.33295">
        <ele>246.96</ele>
        <time>2022-05-23T09:25:36Z</time>
      </trkpt>
      <trkpt lat="47.80452" lon="2.33301">
        <ele>248.04</ele>
        <time>2022-05-23T09:27:37Z</time>
      </trkpt>
      <trkpt lat="47.80452" lon="2.33301">
        <ele>248.02</ele>
        <time>2022-05-23T09:29:38Z</time>
      </trkpt>
      <trkpt lat="47.80452" lon="2.33301">
        <ele>247.99</ele>
        <time>2022-05-23T09:31:39Z</time>
      </trkpt>
      <trkpt lat="47.80457" lon="2.33313">
        <ele>246.84</ele>
        <time>2022-05-23T09:33:35Z</time>
      </trkpt>
      <trkpt lat="47.80456" lon="2.33328">
        <ele>246.2</ele>
        <time>2022-05-23T09:33:41Z</time>
      </trkpt>
      <trkpt lat="47.80454" lon="2.33343">
        <ele>246.1</ele>
        <time>2022-05-23T09:33:45Z</time>
      </trkpt>
      <trkpt lat="47.80452" lon="2.33358">
        <ele>246.44</ele>
        <time>2022-05-23T09:33:49Z</time>
      </trkpt>
      <trkpt lat="47.8045" lon="2.33373">
        <ele>246.25</ele>
        <time>2022-05-23T09:33:53Z</time>
      </trkpt>
      <trkpt lat="47.80446" lon="2.33388">
        <ele>246.14</ele>
        <time>2022-05-23T09:33:57Z</time>
      </trkpt>
      <trkpt lat="47.80442" lon="2.33404">
        <ele>246.01</ele>
        <time>2022-05-23T09:34:01Z</time>
      </trkpt>
      <trkpt lat="47.80438" lon="2.33418">
        <ele>245.88</ele>
        <time>2022-05-23T09:34:04Z</time>
      </trkpt>
      <trkpt lat="47.80434" lon="2.33432">
        <ele>245.91</ele>
        <time>2022-05-23T09:34:07Z</time>
      </trkpt>
      <trkpt lat="47.8043" lon="2.33448">
        <ele>246.09</ele>
        <time>2022-05-23T09:34:10Z</time>
      </trkpt>
      <trkpt lat="47.80427" lon="2.33462">
        <ele>245.54</ele>
        <time>2022-05-23T09:34:13Z</time>
      </trkpt>
      <trkpt lat="47.80423" lon="2.33475">
        <ele>245.64</ele>
        <time>2022-05-23T09:34:16Z</time>
      </trkpt>
      <trkpt lat="47.8042" lon="2.33489">
        <ele>245.62</ele>
        <time>2022-05-23T09:34:19Z</time>
      </trkpt>
      <trkpt lat="47.80415" lon="2.33505">
        <ele>245.3</ele>
        <time>2022-05-23T09:34:22Z</time>
      </trkpt>
      <trkpt lat="47.8041" lon="2.33523">
        <ele>245.35</ele>
        <time>2022-05-23T09:34:25Z</time>
      </trkpt>
      <trkpt lat="47.80407" lon="2.33541">
        <ele>245.79</ele>
        <time>2022-05-23T09:34:28Z</time>
      </trkpt>
      <trkpt lat="47.80403" lon="2.33556">
        <ele>246</ele>
        <time>2022-05-23T09:34:31Z</time>
      </trkpt>
      <trkpt lat="47.804" lon="2.33573">
        <ele>245.8</ele>
        <time>2022-05-23T09:34:34Z</time>
      </trkpt>
      <trkpt lat="47.80397" lon="2.3359">
        <ele>245.91</ele>
        <time>2022-05-23T09:34:37Z</time>
      </trkpt>
      <trkpt lat="47.80396" lon="2.33607">
        <ele>246.33</ele>
        <time>2022-05-23T09:34:40Z</time>
      </trkpt>
      <trkpt lat="47.80395" lon="2.33624">
        <ele>246.21</ele>
        <time>2022-05-23T09:34:43Z</time>
      </trkpt>
      <trkpt lat="47.80394" lon="2.33642">
        <ele>246.7</ele>
        <time>2022-05-23T09:34:46Z</time>
      </trkpt>
      <trkpt lat="47.80393" lon="2.33662">
        <ele>246.94</ele>
        <time>2022-05-23T09:34:49Z</time>
      </trkpt>
      <trkpt lat="47.80393" lon="2.33676">
        <ele>246.98</ele>
        <time>2022-05-23T09:34:51Z</time>
      </trkpt>
      <trkpt lat="47.80392" lon="2.3369">
        <ele>246.99</ele>
        <time>2022-05-23T09:34:53Z</time>
      </trkpt>
      <trkpt lat="47.80392" lon="2.33704">
        <ele>247.04</ele>
        <time>2022-05-23T09:34:55Z</time>
      </trkpt>
      <trkpt lat="47.80391" lon="2.33718">
        <ele>247.27</ele>
        <time>2022-05-23T09:34:57Z</time>
      </trkpt>
      <trkpt lat="47.8039" lon="2.33733">
        <ele>247.34</ele>
        <time>2022-05-23T09:34:59Z</time>
      </trkpt>
      <trkpt lat="47.80388" lon="2.33747">
        <ele>247.2</ele>
        <time>2022-05-23T09:35:01Z</time>
      </trkpt>
      <trkpt lat="47.80386" lon="2.3376">
        <ele>246.84</ele>
        <time>2022-05-23T09:35:03Z</time>
      </trkpt>
      <trkpt lat="47.80383" lon="2.3378">
        <ele>246.62</ele>
        <time>2022-05-23T09:35:06Z</time>
      </trkpt>
      <trkpt lat="47.8038" lon="2.33799">
        <ele>246.92</ele>
        <time>2022-05-23T09:35:09Z</time>
      </trkpt>
      <trkpt lat="47.80376" lon="2.33816">
        <ele>246.49</ele>
        <time>2022-05-23T09:35:12Z</time>
      </trkpt>
      <trkpt lat="47.80373" lon="2.33832">
        <ele>246.29</ele>
        <time>2022-05-23T09:35:15Z</time>
      </trkpt>
      <trkpt lat="47.80369" lon="2.33847">
        <ele>246</ele>
        <time>2022-05-23T09:35:18Z</time>
      </trkpt>
      <trkpt lat="47.80365" lon="2.33863">
        <ele>246.27</ele>
        <time>2022-05-23T09:35:21Z</time>
      </trkpt>
      <trkpt lat="47.80359" lon="2.33876">
        <ele>246.18</ele>
        <time>2022-05-23T09:35:24Z</time>
      </trkpt>
      <trkpt lat="47.80351" lon="2.33888">
        <ele>246.41</ele>
        <time>2022-05-23T09:35:27Z</time>
      </trkpt>
      <trkpt lat="47.80343" lon="2.33901">
        <ele>246.44</ele>
        <time>2022-05-23T09:35:30Z</time>
      </trkpt>
      <trkpt lat="47.80336" lon="2.33913">
        <ele>246.38</ele>
        <time>2022-05-23T09:35:33Z</time>
      </trkpt>
      <trkpt lat="47.8033" lon="2.33924">
        <ele>246.3</ele>
        <time>2022-05-23T09:35:36Z</time>
      </trkpt>
      <trkpt lat="47.80325" lon="2.33936">
        <ele>246.62</ele>
        <time>2022-05-23T09:35:39Z</time>
      </trkpt>
      <trkpt lat="47.80319" lon="2.33949">
        <ele>246.72</ele>
        <time>2022-05-23T09:35:42Z</time>
      </trkpt>
      <trkpt lat="47.80315" lon="2.33962">
        <ele>246.74</ele>
        <time>2022-05-23T09:35:45Z</time>
      </trkpt>
      <trkpt lat="47.8031" lon="2.33976">
        <ele>246.82</ele>
        <time>2022-05-23T09:35:48Z</time>
      </trkpt>
      <trkpt lat="47.80308" lon="2.33991">
        <ele>246.65</ele>
        <time>2022-05-23T09:35:51Z</time>
      </trkpt>
      <trkpt lat="47.80308" lon="2.34006">
        <ele>246.53</ele>
        <time>2022-05-23T09:35:54Z</time>
      </trkpt>
      <trkpt lat="47.8031" lon="2.34022">
        <ele>246.37</ele>
        <time>2022-05-23T09:35:57Z</time>
      </trkpt>
      <trkpt lat="47.80316" lon="2.34038">
        <ele>246.09</ele>
        <time>2022-05-23T09:36:00Z</time>
      </trkpt>
      <trkpt lat="47.80322" lon="2.34054">
        <ele>245.83</ele>
        <time>2022-05-23T09:36:03Z</time>
      </trkpt>
      <trkpt lat="47.80329" lon="2.3407">
        <ele>245.66</ele>
        <time>2022-05-23T09:36:06Z</time>
      </trkpt>
      <trkpt lat="47.80334" lon="2.34082">
        <ele>245.24</ele>
        <time>2022-05-23T09:36:08Z</time>
      </trkpt>
      <trkpt lat="47.80339" lon="2.34093">
        <ele>244.74</ele>
        <time>2022-05-23T09:36:10Z</time>
      </trkpt>
      <trkpt lat="47.80345" lon="2.34105">
        <ele>244.55</ele>
        <time>2022-05-23T09:36:12Z</time>
      </trkpt>
      <trkpt lat="47.80352" lon="2.34121">
        <ele>244.27</ele>
        <time>2022-05-23T09:36:15Z</time>
      </trkpt>
      <trkpt lat="47.80357" lon="2.34132">
        <ele>244.31</ele>
        <time>2022-05-23T09:36:17Z</time>
      </trkpt>
      <trkpt lat="47.80362" lon="2.34145">
        <ele>244.31</ele>
        <time>2022-05-23T09:36:19Z</time>
      </trkpt>
      <trkpt lat="47.80368" lon="2.34157">
        <ele>244.37</ele>
        <time>2022-05-23T09:36:21Z</time>
      </trkpt>
      <trkpt lat="47.80373" lon="2.34169">
        <ele>244.52</ele>
        <time>2022-05-23T09:36:23Z</time>
      </trkpt>
      <trkpt lat="47.80378" lon="2.34181">
        <ele>244.54</ele>
        <time>2022-05-23T09:36:25Z</time>
      </trkpt>
      <trkpt lat="47.80383" lon="2.34192">
        <ele>244.77</ele>
        <time>2022-05-23T09:36:27Z</time>
      </trkpt>
      <trkpt lat="47.80388" lon="2.34204">
        <ele>244.73</ele>
        <time>2022-05-23T09:36:29Z</time>
      </trkpt>
      <trkpt lat="47.80394" lon="2.34221">
        <ele>245.38</ele>
        <time>2022-05-23T09:36:32Z</time>
      </trkpt>
      <trkpt lat="47.80399" lon="2.34238">
        <ele>245.26</ele>
        <time>2022-05-23T09:36:35Z</time>
      </trkpt>
      <trkpt lat="47.80403" lon="2.34256">
        <ele>245.1</ele>
        <time>2022-05-23T09:36:38Z</time>
      </trkpt>
      <trkpt lat="47.80405" lon="2.34275">
        <ele>245.07</ele>
        <time>2022-05-23T09:36:41Z</time>
      </trkpt>
      <trkpt lat="47.80406" lon="2.34288">
        <ele>244.89</ele>
        <time>2022-05-23T09:36:43Z</time>
      </trkpt>
      <trkpt lat="47.80406" lon="2.34302">
        <ele>244.9</ele>
        <time>2022-05-23T09:36:45Z</time>
      </trkpt>
      <trkpt lat="47.80407" lon="2.34315">
        <ele>244.83</ele>
        <time>2022-05-23T09:36:47Z</time>
      </trkpt>
      <trkpt lat="47.80408" lon="2.34334">
        <ele>245.15</ele>
        <time>2022-05-23T09:36:50Z</time>
      </trkpt>
      <trkpt lat="47.80408" lon="2.34353">
        <ele>244.89</ele>
        <time>2022-05-23T09:36:53Z</time>
      </trkpt>
      <trkpt lat="47.80409" lon="2.3437">
        <ele>244.59</ele>
        <time>2022-05-23T09:36:56Z</time>
      </trkpt>
      <trkpt lat="47.8041" lon="2.34388">
        <ele>244.45</ele>
        <time>2022-05-23T09:36:59Z</time>
      </trkpt>
      <trkpt lat="47.80412" lon="2.34406">
        <ele>244.46</ele>
        <time>2022-05-23T09:37:02Z</time>
      </trkpt>
      <trkpt lat="47.80412" lon="2.34424">
        <ele>244.56</ele>
        <time>2022-05-23T09:37:05Z</time>
      </trkpt>
      <trkpt lat="47.80414" lon="2.3444">
        <ele>244.46</ele>
        <time>2022-05-23T09:37:08Z</time>
      </trkpt>
      <trkpt lat="47.80414" lon="2.34456">
        <ele>244.44</ele>
        <time>2022-05-23T09:37:11Z</time>
      </trkpt>
      <trkpt lat="47.80414" lon="2.34473">
        <ele>244.39</ele>
        <time>2022-05-23T09:37:14Z</time>
      </trkpt>
      <trkpt lat="47.80412" lon="2.34492">
        <ele>244.02</ele>
        <time>2022-05-23T09:37:17Z</time>
      </trkpt>
      <trkpt lat="47.80409" lon="2.34511">
        <ele>243.98</ele>
        <time>2022-05-23T09:37:20Z</time>
      </trkpt>
      <trkpt lat="47.80404" lon="2.34529">
        <ele>244.13</ele>
        <time>2022-05-23T09:37:23Z</time>
      </trkpt>
      <trkpt lat="47.80399" lon="2.34544">
        <ele>244.36</ele>
        <time>2022-05-23T09:37:26Z</time>
      </trkpt>
      <trkpt lat="47.80394" lon="2.34559">
        <ele>244.44</ele>
        <time>2022-05-23T09:37:29Z</time>
      </trkpt>
      <trkpt lat="47.80389" lon="2.34572">
        <ele>244.43</ele>
        <time>2022-05-23T09:37:32Z</time>
      </trkpt>
      <trkpt lat="47.80384" lon="2.34585">
        <ele>244.44</ele>
        <time>2022-05-23T09:37:35Z</time>
      </trkpt>
      <trkpt lat="47.80379" lon="2.34597">
        <ele>244.44</ele>
        <time>2022-05-23T09:37:38Z</time>
      </trkpt>
      <trkpt lat="47.80373" lon="2.34611">
        <ele>244.6</ele>
        <time>2022-05-23T09:37:41Z</time>
      </trkpt>
      <trkpt lat="47.80367" lon="2.34626">
        <ele>244.8</ele>
        <time>2022-05-23T09:37:44Z</time>
      </trkpt>
      <trkpt lat="47.8036" lon="2.34641">
        <ele>244.99</ele>
        <time>2022-05-23T09:37:47Z</time>
      </trkpt>
      <trkpt lat="47.80354" lon="2.34657">
        <ele>245.12</ele>
        <time>2022-05-23T09:37:50Z</time>
      </trkpt>
      <trkpt lat="47.80348" lon="2.34672">
        <ele>245.46</ele>
        <time>2022-05-23T09:37:53Z</time>
      </trkpt>
      <trkpt lat="47.80342" lon="2.34687">
        <ele>245.74</ele>
        <time>2022-05-23T09:37:56Z</time>
      </trkpt>
      <trkpt lat="47.80336" lon="2.347">
        <ele>245.32</ele>
        <time>2022-05-23T09:37:59Z</time>
      </trkpt>
      <trkpt lat="47.8033" lon="2.34715">
        <ele>245.19</ele>
        <time>2022-05-23T09:38:02Z</time>
      </trkpt>
      <trkpt lat="47.80324" lon="2.3473">
        <ele>245.18</ele>
        <time>2022-05-23T09:38:05Z</time>
      </trkpt>
      <trkpt lat="47.80319" lon="2.34744">
        <ele>245.26</ele>
        <time>2022-05-23T09:38:08Z</time>
      </trkpt>
      <trkpt lat="47.80313" lon="2.34759">
        <ele>245.41</ele>
        <time>2022-05-23T09:38:11Z</time>
      </trkpt>
      <trkpt lat="47.80307" lon="2.34773">
        <ele>245.38</ele>
        <time>2022-05-23T09:38:14Z</time>
      </trkpt>
      <trkpt lat="47.80302" lon="2.34789">
        <ele>244.99</ele>
        <time>2022-05-23T09:38:17Z</time>
      </trkpt>
      <trkpt lat="47.80298" lon="2.34805">
        <ele>245.14</ele>
        <time>2022-05-23T09:38:20Z</time>
      </trkpt>
      <trkpt lat="47.80294" lon="2.34822">
        <ele>244.97</ele>
        <time>2022-05-23T09:38:23Z</time>
      </trkpt>
      <trkpt lat="47.80291" lon="2.34839">
        <ele>245.21</ele>
        <time>2022-05-23T09:38:26Z</time>
      </trkpt>
      <trkpt lat="47.80289" lon="2.34857">
        <ele>245.08</ele>
        <time>2022-05-23T09:38:29Z</time>
      </trkpt>
      <trkpt lat="47.80287" lon="2.34875">
        <ele>244.78</ele>
        <time>2022-05-23T09:38:32Z</time>
      </trkpt>
      <trkpt lat="47.80285" lon="2.34893">
        <ele>244.66</ele>
        <time>2022-05-23T09:38:35Z</time>
      </trkpt>
      <trkpt lat="47.80283" lon="2.34911">
        <ele>244.65</ele>
        <time>2022-05-23T09:38:38Z</time>
      </trkpt>
      <trkpt lat="47.80282" lon="2.34928">
        <ele>244.95</ele>
        <time>2022-05-23T09:38:41Z</time>
      </trkpt>
      <trkpt lat="47.8028" lon="2.34946">
        <ele>245.32</ele>
        <time>2022-05-23T09:38:44Z</time>
      </trkpt>
      <trkpt lat="47.80278" lon="2.34965">
        <ele>245.74</ele>
        <time>2022-05-23T09:38:47Z</time>
      </trkpt>
      <trkpt lat="47.80276" lon="2.34984">
        <ele>245.82</ele>
        <time>2022-05-23T09:38:50Z</time>
      </trkpt>
      <trkpt lat="47.80274" lon="2.35003">
        <ele>245.74</ele>
        <time>2022-05-23T09:38:53Z</time>
      </trkpt>
      <trkpt lat="47.80272" lon="2.35023">
        <ele>246.05</ele>
        <time>2022-05-23T09:38:56Z</time>
      </trkpt>
      <trkpt lat="47.80271" lon="2.35037">
        <ele>245.85</ele>
        <time>2022-05-23T09:38:58Z</time>
      </trkpt>
      <trkpt lat="47.8027" lon="2.35056">
        <ele>246.26</ele>
        <time>2022-05-23T09:39:01Z</time>
      </trkpt>
      <trkpt lat="47.80268" lon="2.35075">
        <ele>246.32</ele>
        <time>2022-05-23T09:39:04Z</time>
      </trkpt>
      <trkpt lat="47.80266" lon="2.35092">
        <ele>246.06</ele>
        <time>2022-05-23T09:39:07Z</time>
      </trkpt>
      <trkpt lat="47.80265" lon="2.35109">
        <ele>246.26</ele>
        <time>2022-05-23T09:39:10Z</time>
      </trkpt>
      <trkpt lat="47.80265" lon="2.35129">
        <ele>246.67</ele>
        <time>2022-05-23T09:39:13Z</time>
      </trkpt>
      <trkpt lat="47.80264" lon="2.35143">
        <ele>246.72</ele>
        <time>2022-05-23T09:39:15Z</time>
      </trkpt>
      <trkpt lat="47.80262" lon="2.35157">
        <ele>246.83</ele>
        <time>2022-05-23T09:39:17Z</time>
      </trkpt>
      <trkpt lat="47.8026" lon="2.35172">
        <ele>246.88</ele>
        <time>2022-05-23T09:39:19Z</time>
      </trkpt>
      <trkpt lat="47.80259" lon="2.35187">
        <ele>246.86</ele>
        <time>2022-05-23T09:39:21Z</time>
      </trkpt>
      <trkpt lat="47.80258" lon="2.35202">
        <ele>246.62</ele>
        <time>2022-05-23T09:39:23Z</time>
      </trkpt>
      <trkpt lat="47.80256" lon="2.35218">
        <ele>246.48</ele>
        <time>2022-05-23T09:39:25Z</time>
      </trkpt>
      <trkpt lat="47.80255" lon="2.35234">
        <ele>246.53</ele>
        <time>2022-05-23T09:39:27Z</time>
      </trkpt>
      <trkpt lat="47.80254" lon="2.35251">
        <ele>246.27</ele>
        <time>2022-05-23T09:39:29Z</time>
      </trkpt>
      <trkpt lat="47.80252" lon="2.35267">
        <ele>246.78</ele>
        <time>2022-05-23T09:39:31Z</time>
      </trkpt>
      <trkpt lat="47.8025" lon="2.35283">
        <ele>246.68</ele>
        <time>2022-05-23T09:39:33Z</time>
      </trkpt>
      <trkpt lat="47.80248" lon="2.35299">
        <ele>246.89</ele>
        <time>2022-05-23T09:39:35Z</time>
      </trkpt>
      <trkpt lat="47.80248" lon="2.35317">
        <ele>246.88</ele>
        <time>2022-05-23T09:39:37Z</time>
      </trkpt>
      <trkpt lat="47.80247" lon="2.35334">
        <ele>246.87</ele>
        <time>2022-05-23T09:39:39Z</time>
      </trkpt>
      <trkpt lat="47.80246" lon="2.35351">
        <ele>247.38</ele>
        <time>2022-05-23T09:39:41Z</time>
      </trkpt>
      <trkpt lat="47.80244" lon="2.35369">
        <ele>247.29</ele>
        <time>2022-05-23T09:39:43Z</time>
      </trkpt>
      <trkpt lat="47.80242" lon="2.35387">
        <ele>247.13</ele>
        <time>2022-05-23T09:39:45Z</time>
      </trkpt>
      <trkpt lat="47.8024" lon="2.35405">
        <ele>247.04</ele>
        <time>2022-05-23T09:39:47Z</time>
      </trkpt>
      <trkpt lat="47.80238" lon="2.35425">
        <ele>246.69</ele>
        <time>2022-05-23T09:39:49Z</time>
      </trkpt>
      <trkpt lat="47.80236" lon="2.35442">
        <ele>246.49</ele>
        <time>2022-05-23T09:39:51Z</time>
      </trkpt>
      <trkpt lat="47.80234" lon="2.35461">
        <ele>246.57</ele>
        <time>2022-05-23T09:39:53Z</time>
      </trkpt>
      <trkpt lat="47.80231" lon="2.35479">
        <ele>246.61</ele>
        <time>2022-05-23T09:39:55Z</time>
      </trkpt>
      <trkpt lat="47.80228" lon="2.35497">
        <ele>246.73</ele>
        <time>2022-05-23T09:39:57Z</time>
      </trkpt>
      <trkpt lat="47.80224" lon="2.35515">
        <ele>246.72</ele>
        <time>2022-05-23T09:39:59Z</time>
      </trkpt>
      <trkpt lat="47.8022" lon="2.35533">
        <ele>246.38</ele>
        <time>2022-05-23T09:40:01Z</time>
      </trkpt>
      <trkpt lat="47.80217" lon="2.35549">
        <ele>246.64</ele>
        <time>2022-05-23T09:40:03Z</time>
      </trkpt>
      <trkpt lat="47.80214" lon="2.35565">
        <ele>246.95</ele>
        <time>2022-05-23T09:40:05Z</time>
      </trkpt>
      <trkpt lat="47.8021" lon="2.35581">
        <ele>247.22</ele>
        <time>2022-05-23T09:40:07Z</time>
      </trkpt>
      <trkpt lat="47.80207" lon="2.35596">
        <ele>246.97</ele>
        <time>2022-05-23T09:40:09Z</time>
      </trkpt>
      <trkpt lat="47.80204" lon="2.3561">
        <ele>246.72</ele>
        <time>2022-05-23T09:40:11Z</time>
      </trkpt>
      <trkpt lat="47.80201" lon="2.35623">
        <ele>246.94</ele>
        <time>2022-05-23T09:40:13Z</time>
      </trkpt>
      <trkpt lat="47.80198" lon="2.35636">
        <ele>246.91</ele>
        <time>2022-05-23T09:40:15Z</time>
      </trkpt>
      <trkpt lat="47.80193" lon="2.35655">
        <ele>247.02</ele>
        <time>2022-05-23T09:40:18Z</time>
      </trkpt>
      <trkpt lat="47.80189" lon="2.35674">
        <ele>246.85</ele>
        <time>2022-05-23T09:40:21Z</time>
      </trkpt>
      <trkpt lat="47.80187" lon="2.35686">
        <ele>247.04</ele>
        <time>2022-05-23T09:40:23Z</time>
      </trkpt>
      <trkpt lat="47.80184" lon="2.357">
        <ele>246.84</ele>
        <time>2022-05-23T09:40:25Z</time>
      </trkpt>
      <trkpt lat="47.80181" lon="2.35713">
        <ele>246.47</ele>
        <time>2022-05-23T09:40:27Z</time>
      </trkpt>
      <trkpt lat="47.80177" lon="2.35733">
        <ele>245.93</ele>
        <time>2022-05-23T09:40:30Z</time>
      </trkpt>
      <trkpt lat="47.80174" lon="2.35746">
        <ele>246.3</ele>
        <time>2022-05-23T09:40:32Z</time>
      </trkpt>
      <trkpt lat="47.8017" lon="2.35759">
        <ele>246.21</ele>
        <time>2022-05-23T09:40:34Z</time>
      </trkpt>
      <trkpt lat="47.80167" lon="2.35777">
        <ele>246.28</ele>
        <time>2022-05-23T09:40:37Z</time>
      </trkpt>
      <trkpt lat="47.80161" lon="2.35795">
        <ele>246.3</ele>
        <time>2022-05-23T09:40:40Z</time>
      </trkpt>
      <trkpt lat="47.80156" lon="2.35812">
        <ele>246.52</ele>
        <time>2022-05-23T09:40:43Z</time>
      </trkpt>
      <trkpt lat="47.80152" lon="2.35825">
        <ele>246.02</ele>
        <time>2022-05-23T09:40:45Z</time>
      </trkpt>
      <trkpt lat="47.80148" lon="2.35838">
        <ele>245.9</ele>
        <time>2022-05-23T09:40:47Z</time>
      </trkpt>
      <trkpt lat="47.80141" lon="2.35856">
        <ele>245.8</ele>
        <time>2022-05-23T09:40:50Z</time>
      </trkpt>
      <trkpt lat="47.80136" lon="2.35868">
        <ele>245.56</ele>
        <time>2022-05-23T09:40:52Z</time>
      </trkpt>
      <trkpt lat="47.80131" lon="2.35879">
        <ele>245.31</ele>
        <time>2022-05-23T09:40:54Z</time>
      </trkpt>
      <trkpt lat="47.80126" lon="2.35891">
        <ele>245.58</ele>
        <time>2022-05-23T09:40:56Z</time>
      </trkpt>
      <trkpt lat="47.80121" lon="2.35903">
        <ele>245.83</ele>
        <time>2022-05-23T09:40:58Z</time>
      </trkpt>
      <trkpt lat="47.80116" lon="2.35914">
        <ele>245.88</ele>
        <time>2022-05-23T09:41:00Z</time>
      </trkpt>
      <trkpt lat="47.80111" lon="2.35925">
        <ele>246.25</ele>
        <time>2022-05-23T09:41:02Z</time>
      </trkpt>
      <trkpt lat="47.80106" lon="2.35937">
        <ele>246.39</ele>
        <time>2022-05-23T09:41:04Z</time>
      </trkpt>
      <trkpt lat="47.801" lon="2.35949">
        <ele>246.4</ele>
        <time>2022-05-23T09:41:06Z</time>
      </trkpt>
      <trkpt lat="47.80096" lon="2.3596">
        <ele>246.47</ele>
        <time>2022-05-23T09:41:08Z</time>
      </trkpt>
      <trkpt lat="47.80091" lon="2.35972">
        <ele>246.7</ele>
        <time>2022-05-23T09:41:10Z</time>
      </trkpt>
      <trkpt lat="47.80085" lon="2.35983">
        <ele>246.85</ele>
        <time>2022-05-23T09:41:12Z</time>
      </trkpt>
      <trkpt lat="47.8008" lon="2.35995">
        <ele>247.18</ele>
        <time>2022-05-23T09:41:14Z</time>
      </trkpt>
      <trkpt lat="47.80073" lon="2.3601">
        <ele>246.67</ele>
        <time>2022-05-23T09:41:17Z</time>
      </trkpt>
      <trkpt lat="47.80066" lon="2.36027">
        <ele>246.97</ele>
        <time>2022-05-23T09:41:20Z</time>
      </trkpt>
      <trkpt lat="47.8006" lon="2.36038">
        <ele>247.2</ele>
        <time>2022-05-23T09:41:22Z</time>
      </trkpt>
      <trkpt lat="47.80053" lon="2.36054">
        <ele>247.18</ele>
        <time>2022-05-23T09:41:25Z</time>
      </trkpt>
      <trkpt lat="47.80046" lon="2.3607">
        <ele>247.25</ele>
        <time>2022-05-23T09:41:28Z</time>
      </trkpt>
      <trkpt lat="47.80039" lon="2.36085">
        <ele>247.49</ele>
        <time>2022-05-23T09:41:31Z</time>
      </trkpt>
      <trkpt lat="47.80033" lon="2.36101">
        <ele>247.08</ele>
        <time>2022-05-23T09:41:34Z</time>
      </trkpt>
      <trkpt lat="47.80027" lon="2.36117">
        <ele>247.21</ele>
        <time>2022-05-23T09:41:37Z</time>
      </trkpt>
      <trkpt lat="47.80022" lon="2.36134">
        <ele>247.22</ele>
        <time>2022-05-23T09:41:40Z</time>
      </trkpt>
      <trkpt lat="47.80018" lon="2.36152">
        <ele>247.39</ele>
        <time>2022-05-23T09:41:43Z</time>
      </trkpt>
      <trkpt lat="47.80014" lon="2.3617">
        <ele>247.45</ele>
        <time>2022-05-23T09:41:46Z</time>
      </trkpt>
      <trkpt lat="47.80012" lon="2.36189">
        <ele>247.28</ele>
        <time>2022-05-23T09:41:49Z</time>
      </trkpt>
      <trkpt lat="47.8001" lon="2.36203">
        <ele>247.16</ele>
        <time>2022-05-23T09:41:51Z</time>
      </trkpt>
      <trkpt lat="47.80009" lon="2.36217">
        <ele>247.11</ele>
        <time>2022-05-23T09:41:53Z</time>
      </trkpt>
      <trkpt lat="47.80008" lon="2.36235">
        <ele>246.98</ele>
        <time>2022-05-23T09:41:56Z</time>
      </trkpt>
      <trkpt lat="47.80007" lon="2.36249">
        <ele>246.98</ele>
        <time>2022-05-23T09:41:58Z</time>
      </trkpt>
      <trkpt lat="47.80005" lon="2.36263">
        <ele>246.94</ele>
        <time>2022-05-23T09:42:00Z</time>
      </trkpt>
      <trkpt lat="47.80005" lon="2.36277">
        <ele>247</ele>
        <time>2022-05-23T09:42:02Z</time>
      </trkpt>
      <trkpt lat="47.80004" lon="2.36291">
        <ele>247.4</ele>
        <time>2022-05-23T09:42:04Z</time>
      </trkpt>
      <trkpt lat="47.80004" lon="2.36306">
        <ele>247.52</ele>
        <time>2022-05-23T09:42:06Z</time>
      </trkpt>
      <trkpt lat="47.80003" lon="2.36321">
        <ele>247.68</ele>
        <time>2022-05-23T09:42:08Z</time>
      </trkpt>
      <trkpt lat="47.80002" lon="2.36334">
        <ele>247.75</ele>
        <time>2022-05-23T09:42:10Z</time>
      </trkpt>
      <trkpt lat="47.80001" lon="2.36354">
        <ele>247.31</ele>
        <time>2022-05-23T09:42:13Z</time>
      </trkpt>
      <trkpt lat="47.8" lon="2.36372">
        <ele>247.18</ele>
        <time>2022-05-23T09:42:16Z</time>
      </trkpt>
      <trkpt lat="47.79999" lon="2.36386">
        <ele>247.24</ele>
        <time>2022-05-23T09:42:18Z</time>
      </trkpt>
      <trkpt lat="47.79998" lon="2.364">
        <ele>247.39</ele>
        <time>2022-05-23T09:42:20Z</time>
      </trkpt>
      <trkpt lat="47.79996" lon="2.36414">
        <ele>247.28</ele>
        <time>2022-05-23T09:42:22Z</time>
      </trkpt>
      <trkpt lat="47.79994" lon="2.36428">
        <ele>246.78</ele>
        <time>2022-05-23T09:42:24Z</time>
      </trkpt>
      <trkpt lat="47.79993" lon="2.36442">
        <ele>246.48</ele>
        <time>2022-05-23T09:42:26Z</time>
      </trkpt>
      <trkpt lat="47.79991" lon="2.36461">
        <ele>246.45</ele>
        <time>2022-05-23T09:42:29Z</time>
      </trkpt>
      <trkpt lat="47.79989" lon="2.3648">
        <ele>246.45</ele>
        <time>2022-05-23T09:42:32Z</time>
      </trkpt>
      <trkpt lat="47.79987" lon="2.365">
        <ele>246.21</ele>
        <time>2022-05-23T09:42:35Z</time>
      </trkpt>
      <trkpt lat="47.79986" lon="2.36514">
        <ele>246.23</ele>
        <time>2022-05-23T09:42:37Z</time>
      </trkpt>
      <trkpt lat="47.79984" lon="2.36532">
        <ele>246.54</ele>
        <time>2022-05-23T09:42:40Z</time>
      </trkpt>
      <trkpt lat="47.79982" lon="2.36551">
        <ele>247.41</ele>
        <time>2022-05-23T09:42:43Z</time>
      </trkpt>
      <trkpt lat="47.7998" lon="2.3657">
        <ele>247.49</ele>
        <time>2022-05-23T09:42:46Z</time>
      </trkpt>
      <trkpt lat="47.79978" lon="2.36589">
        <ele>247.37</ele>
        <time>2022-05-23T09:42:49Z</time>
      </trkpt>
      <trkpt lat="47.79976" lon="2.36608">
        <ele>247.37</ele>
        <time>2022-05-23T09:42:52Z</time>
      </trkpt>
      <trkpt lat="47.79974" lon="2.36627">
        <ele>247.95</ele>
        <time>2022-05-23T09:42:55Z</time>
      </trkpt>
      <trkpt lat="47.79972" lon="2.36646">
        <ele>248.14</ele>
        <time>2022-05-23T09:42:58Z</time>
      </trkpt>
      <trkpt lat="47.79968" lon="2.36664">
        <ele>248.08</ele>
        <time>2022-05-23T09:43:01Z</time>
      </trkpt>
      <trkpt lat="47.79965" lon="2.36677">
        <ele>247.77</ele>
        <time>2022-05-23T09:43:03Z</time>
      </trkpt>
      <trkpt lat="47.79961" lon="2.3669">
        <ele>247.85</ele>
        <time>2022-05-23T09:43:05Z</time>
      </trkpt>
      <trkpt lat="47.79958" lon="2.36703">
        <ele>248</ele>
        <time>2022-05-23T09:43:07Z</time>
      </trkpt>
      <trkpt lat="47.79952" lon="2.36714">
        <ele>248.01</ele>
        <time>2022-05-23T09:43:09Z</time>
      </trkpt>
      <trkpt lat="47.79944" lon="2.3673">
        <ele>247.72</ele>
        <time>2022-05-23T09:43:12Z</time>
      </trkpt>
      <trkpt lat="47.79936" lon="2.36744">
        <ele>247.97</ele>
        <time>2022-05-23T09:43:15Z</time>
      </trkpt>
      <trkpt lat="47.79927" lon="2.36756">
        <ele>248.05</ele>
        <time>2022-05-23T09:43:18Z</time>
      </trkpt>
      <trkpt lat="47.79917" lon="2.36771">
        <ele>248.28</ele>
        <time>2022-05-23T09:43:21Z</time>
      </trkpt>
      <trkpt lat="47.79907" lon="2.36785">
        <ele>248.28</ele>
        <time>2022-05-23T09:43:24Z</time>
      </trkpt>
      <trkpt lat="47.79898" lon="2.36797">
        <ele>248.2</ele>
        <time>2022-05-23T09:43:27Z</time>
      </trkpt>
      <trkpt lat="47.79889" lon="2.36809">
        <ele>248.3</ele>
        <time>2022-05-23T09:43:30Z</time>
      </trkpt>
      <trkpt lat="47.7988" lon="2.36822">
        <ele>248.21</ele>
        <time>2022-05-23T09:43:33Z</time>
      </trkpt>
      <trkpt lat="47.79871" lon="2.36836">
        <ele>248.34</ele>
        <time>2022-05-23T09:43:36Z</time>
      </trkpt>
      <trkpt lat="47.79864" lon="2.36845">
        <ele>248.42</ele>
        <time>2022-05-23T09:43:38Z</time>
      </trkpt>
      <trkpt lat="47.79857" lon="2.36854">
        <ele>248.38</ele>
        <time>2022-05-23T09:43:40Z</time>
      </trkpt>
      <trkpt lat="47.7985" lon="2.36864">
        <ele>248.61</ele>
        <time>2022-05-23T09:43:42Z</time>
      </trkpt>
      <trkpt lat="47.79842" lon="2.36874">
        <ele>248.48</ele>
        <time>2022-05-23T09:43:44Z</time>
      </trkpt>
      <trkpt lat="47.79835" lon="2.36883">
        <ele>247.98</ele>
        <time>2022-05-23T09:43:46Z</time>
      </trkpt>
      <trkpt lat="47.79825" lon="2.36896">
        <ele>248.03</ele>
        <time>2022-05-23T09:43:49Z</time>
      </trkpt>
      <trkpt lat="47.79816" lon="2.36909">
        <ele>248.22</ele>
        <time>2022-05-23T09:43:52Z</time>
      </trkpt>
      <trkpt lat="47.79808" lon="2.36918">
        <ele>248.23</ele>
        <time>2022-05-23T09:43:54Z</time>
      </trkpt>
      <trkpt lat="47.79801" lon="2.36928">
        <ele>248.37</ele>
        <time>2022-05-23T09:43:56Z</time>
      </trkpt>
      <trkpt lat="47.79794" lon="2.36938">
        <ele>248.22</ele>
        <time>2022-05-23T09:43:58Z</time>
      </trkpt>
      <trkpt lat="47.79786" lon="2.36948">
        <ele>248.38</ele>
        <time>2022-05-23T09:44:00Z</time>
      </trkpt>
      <trkpt lat="47.79779" lon="2.36958">
        <ele>248.75</ele>
        <time>2022-05-23T09:44:02Z</time>
      </trkpt>
      <trkpt lat="47.79772" lon="2.36968">
        <ele>248.92</ele>
        <time>2022-05-23T09:44:04Z</time>
      </trkpt>
      <trkpt lat="47.79765" lon="2.36977">
        <ele>249.04</ele>
        <time>2022-05-23T09:44:06Z</time>
      </trkpt>
      <trkpt lat="47.79756" lon="2.36989">
        <ele>248.93</ele>
        <time>2022-05-23T09:44:09Z</time>
      </trkpt>
      <trkpt lat="47.79747" lon="2.37002">
        <ele>248.86</ele>
        <time>2022-05-23T09:44:12Z</time>
      </trkpt>
      <trkpt lat="47.79737" lon="2.37015">
        <ele>248.87</ele>
        <time>2022-05-23T09:44:15Z</time>
      </trkpt>
      <trkpt lat="47.79728" lon="2.37027">
        <ele>248.4</ele>
        <time>2022-05-23T09:44:18Z</time>
      </trkpt>
      <trkpt lat="47.79719" lon="2.3704">
        <ele>248.61</ele>
        <time>2022-05-23T09:44:21Z</time>
      </trkpt>
      <trkpt lat="47.7971" lon="2.37051">
        <ele>248.45</ele>
        <time>2022-05-23T09:44:24Z</time>
      </trkpt>
      <trkpt lat="47.79702" lon="2.37061">
        <ele>248.34</ele>
        <time>2022-05-23T09:44:27Z</time>
      </trkpt>
      <trkpt lat="47.79694" lon="2.37072">
        <ele>248.13</ele>
        <time>2022-05-23T09:44:30Z</time>
      </trkpt>
      <trkpt lat="47.79685" lon="2.37084">
        <ele>248.12</ele>
        <time>2022-05-23T09:44:33Z</time>
      </trkpt>
      <trkpt lat="47.79676" lon="2.37096">
        <ele>247.96</ele>
        <time>2022-05-23T09:44:36Z</time>
      </trkpt>
      <trkpt lat="47.79668" lon="2.37107">
        <ele>247.82</ele>
        <time>2022-05-23T09:44:39Z</time>
      </trkpt>
      <trkpt lat="47.7966" lon="2.3712">
        <ele>247.76</ele>
        <time>2022-05-23T09:44:42Z</time>
      </trkpt>
      <trkpt lat="47.79651" lon="2.37133">
        <ele>248.29</ele>
        <time>2022-05-23T09:44:45Z</time>
      </trkpt>
      <trkpt lat="47.79644" lon="2.37147">
        <ele>248.52</ele>
        <time>2022-05-23T09:44:48Z</time>
      </trkpt>
      <trkpt lat="47.79636" lon="2.37161">
        <ele>248.89</ele>
        <time>2022-05-23T09:44:51Z</time>
      </trkpt>
      <trkpt lat="47.7963" lon="2.37176">
        <ele>249.31</ele>
        <time>2022-05-23T09:44:54Z</time>
      </trkpt>
      <trkpt lat="47.79626" lon="2.37191">
        <ele>249.11</ele>
        <time>2022-05-23T09:44:57Z</time>
      </trkpt>
      <trkpt lat="47.79621" lon="2.37205">
        <ele>248.9</ele>
        <time>2022-05-23T09:45:00Z</time>
      </trkpt>
      <trkpt lat="47.79612" lon="2.37214">
        <ele>249.01</ele>
        <time>2022-05-23T09:45:03Z</time>
      </trkpt>
      <trkpt lat="47.79601" lon="2.37211">
        <ele>249.09</ele>
        <time>2022-05-23T09:45:06Z</time>
      </trkpt>
      <trkpt lat="47.7959" lon="2.37208">
        <ele>249.31</ele>
        <time>2022-05-23T09:45:09Z</time>
      </trkpt>
      <trkpt lat="47.79578" lon="2.37205">
        <ele>249.59</ele>
        <time>2022-05-23T09:45:12Z</time>
      </trkpt>
      <trkpt lat="47.79565" lon="2.37201">
        <ele>249.93</ele>
        <time>2022-05-23T09:45:15Z</time>
      </trkpt>
      <trkpt lat="47.79553" lon="2.37199">
        <ele>250.55</ele>
        <time>2022-05-23T09:45:18Z</time>
      </trkpt>
      <trkpt lat="47.7954" lon="2.37196">
        <ele>250.87</ele>
        <time>2022-05-23T09:45:21Z</time>
      </trkpt>
      <trkpt lat="47.79527" lon="2.37194">
        <ele>250.93</ele>
        <time>2022-05-23T09:45:24Z</time>
      </trkpt>
      <trkpt lat="47.79517" lon="2.37193">
        <ele>250.92</ele>
        <time>2022-05-23T09:45:26Z</time>
      </trkpt>
      <trkpt lat="47.79508" lon="2.37191">
        <ele>250.83</ele>
        <time>2022-05-23T09:45:28Z</time>
      </trkpt>
      <trkpt lat="47.79498" lon="2.37189">
        <ele>250.39</ele>
        <time>2022-05-23T09:45:30Z</time>
      </trkpt>
      <trkpt lat="47.7949" lon="2.37187">
        <ele>250.03</ele>
        <time>2022-05-23T09:45:32Z</time>
      </trkpt>
      <trkpt lat="47.79481" lon="2.37186">
        <ele>249.51</ele>
        <time>2022-05-23T09:45:34Z</time>
      </trkpt>
      <trkpt lat="47.79468" lon="2.37184">
        <ele>249.43</ele>
        <time>2022-05-23T09:45:37Z</time>
      </trkpt>
      <trkpt lat="47.79455" lon="2.37182">
        <ele>249.02</ele>
        <time>2022-05-23T09:45:40Z</time>
      </trkpt>
      <trkpt lat="47.79446" lon="2.3718">
        <ele>248.82</ele>
        <time>2022-05-23T09:45:42Z</time>
      </trkpt>
      <trkpt lat="47.79437" lon="2.37179">
        <ele>248.47</ele>
        <time>2022-05-23T09:45:44Z</time>
      </trkpt>
      <trkpt lat="47.79428" lon="2.37177">
        <ele>248.45</ele>
        <time>2022-05-23T09:45:46Z</time>
      </trkpt>
      <trkpt lat="47.79415" lon="2.37174">
        <ele>248.52</ele>
        <time>2022-05-23T09:45:49Z</time>
      </trkpt>
      <trkpt lat="47.79403" lon="2.37172">
        <ele>248.58</ele>
        <time>2022-05-23T09:45:52Z</time>
      </trkpt>
      <trkpt lat="47.79392" lon="2.37169">
        <ele>248.3</ele>
        <time>2022-05-23T09:45:55Z</time>
      </trkpt>
      <trkpt lat="47.79379" lon="2.37167">
        <ele>248.08</ele>
        <time>2022-05-23T09:45:58Z</time>
      </trkpt>
      <trkpt lat="47.79366" lon="2.37165">
        <ele>247.86</ele>
        <time>2022-05-23T09:46:01Z</time>
      </trkpt>
      <trkpt lat="47.79354" lon="2.37163">
        <ele>247.69</ele>
        <time>2022-05-23T09:46:04Z</time>
      </trkpt>
      <trkpt lat="47.79343" lon="2.37161">
        <ele>247.62</ele>
        <time>2022-05-23T09:46:07Z</time>
      </trkpt>
      <trkpt lat="47.79331" lon="2.37159">
        <ele>247.67</ele>
        <time>2022-05-23T09:46:10Z</time>
      </trkpt>
      <trkpt lat="47.79319" lon="2.37158">
        <ele>247.66</ele>
        <time>2022-05-23T09:46:13Z</time>
      </trkpt>
      <trkpt lat="47.79306" lon="2.37158">
        <ele>247.46</ele>
        <time>2022-05-23T09:46:16Z</time>
      </trkpt>
      <trkpt lat="47.79297" lon="2.37158">
        <ele>247.43</ele>
        <time>2022-05-23T09:46:18Z</time>
      </trkpt>
      <trkpt lat="47.79288" lon="2.37158">
        <ele>247.29</ele>
        <time>2022-05-23T09:46:20Z</time>
      </trkpt>
      <trkpt lat="47.79275" lon="2.37158">
        <ele>247.63</ele>
        <time>2022-05-23T09:46:23Z</time>
      </trkpt>
      <trkpt lat="47.79264" lon="2.37158">
        <ele>248.16</ele>
        <time>2022-05-23T09:46:26Z</time>
      </trkpt>
      <trkpt lat="47.79254" lon="2.3716">
        <ele>249.08</ele>
        <time>2022-05-23T09:46:29Z</time>
      </trkpt>
      <trkpt lat="47.79243" lon="2.37163">
        <ele>249.5</ele>
        <time>2022-05-23T09:46:32Z</time>
      </trkpt>
      <trkpt lat="47.79231" lon="2.37165">
        <ele>249.47</ele>
        <time>2022-05-23T09:46:35Z</time>
      </trkpt>
      <trkpt lat="47.79218" lon="2.37168">
        <ele>249.28</ele>
        <time>2022-05-23T09:46:38Z</time>
      </trkpt>
      <trkpt lat="47.79205" lon="2.37172">
        <ele>249.05</ele>
        <time>2022-05-23T09:46:41Z</time>
      </trkpt>
      <trkpt lat="47.79196" lon="2.37174">
        <ele>249.2</ele>
        <time>2022-05-23T09:46:43Z</time>
      </trkpt>
      <trkpt lat="47.79187" lon="2.37177">
        <ele>248.93</ele>
        <time>2022-05-23T09:46:45Z</time>
      </trkpt>
      <trkpt lat="47.79177" lon="2.37179">
        <ele>249.24</ele>
        <time>2022-05-23T09:46:47Z</time>
      </trkpt>
      <trkpt lat="47.79167" lon="2.3718">
        <ele>249.04</ele>
        <time>2022-05-23T09:46:49Z</time>
      </trkpt>
      <trkpt lat="47.79156" lon="2.37182">
        <ele>248.81</ele>
        <time>2022-05-23T09:46:51Z</time>
      </trkpt>
      <trkpt lat="47.79146" lon="2.37184">
        <ele>248.61</ele>
        <time>2022-05-23T09:46:53Z</time>
      </trkpt>
      <trkpt lat="47.79137" lon="2.37185">
        <ele>249.07</ele>
        <time>2022-05-23T09:46:55Z</time>
      </trkpt>
      <trkpt lat="47.79124" lon="2.37187">
        <ele>248.93</ele>
        <time>2022-05-23T09:46:58Z</time>
      </trkpt>
      <trkpt lat="47.79113" lon="2.37187">
        <ele>248.83</ele>
        <time>2022-05-23T09:47:01Z</time>
      </trkpt>
      <trkpt lat="47.79102" lon="2.37189">
        <ele>248.97</ele>
        <time>2022-05-23T09:47:04Z</time>
      </trkpt>
      <trkpt lat="47.79089" lon="2.3719">
        <ele>248.99</ele>
        <time>2022-05-23T09:47:07Z</time>
      </trkpt>
      <trkpt lat="47.7908" lon="2.37192">
        <ele>249.06</ele>
        <time>2022-05-23T09:47:09Z</time>
      </trkpt>
      <trkpt lat="47.79071" lon="2.37193">
        <ele>249.25</ele>
        <time>2022-05-23T09:47:11Z</time>
      </trkpt>
      <trkpt lat="47.79062" lon="2.37195">
        <ele>249.03</ele>
        <time>2022-05-23T09:47:13Z</time>
      </trkpt>
      <trkpt lat="47.79052" lon="2.37197">
        <ele>248.93</ele>
        <time>2022-05-23T09:47:15Z</time>
      </trkpt>
      <trkpt lat="47.7904" lon="2.37199">
        <ele>248.91</ele>
        <time>2022-05-23T09:47:18Z</time>
      </trkpt>
      <trkpt lat="47.79027" lon="2.37201">
        <ele>248.89</ele>
        <time>2022-05-23T09:47:21Z</time>
      </trkpt>
      <trkpt lat="47.79014" lon="2.37202">
        <ele>249.31</ele>
        <time>2022-05-23T09:47:24Z</time>
      </trkpt>
      <trkpt lat="47.79003" lon="2.37205">
        <ele>249.18</ele>
        <time>2022-05-23T09:47:27Z</time>
      </trkpt>
      <trkpt lat="47.78991" lon="2.37207">
        <ele>249.35</ele>
        <time>2022-05-23T09:47:30Z</time>
      </trkpt>
      <trkpt lat="47.78979" lon="2.37209">
        <ele>249.16</ele>
        <time>2022-05-23T09:47:33Z</time>
      </trkpt>
      <trkpt lat="47.78968" lon="2.37211">
        <ele>249.54</ele>
        <time>2022-05-23T09:47:36Z</time>
      </trkpt>
      <trkpt lat="47.78956" lon="2.37213">
        <ele>249.2</ele>
        <time>2022-05-23T09:47:39Z</time>
      </trkpt>
      <trkpt lat="47.78945" lon="2.37216">
        <ele>249.07</ele>
        <time>2022-05-23T09:47:42Z</time>
      </trkpt>
      <trkpt lat="47.78934" lon="2.37218">
        <ele>248.87</ele>
        <time>2022-05-23T09:47:45Z</time>
      </trkpt>
      <trkpt lat="47.78923" lon="2.37219">
        <ele>248.71</ele>
        <time>2022-05-23T09:47:48Z</time>
      </trkpt>
      <trkpt lat="47.78913" lon="2.37219">
        <ele>248.91</ele>
        <time>2022-05-23T09:47:51Z</time>
      </trkpt>
      <trkpt lat="47.78902" lon="2.37221">
        <ele>249.29</ele>
        <time>2022-05-23T09:47:54Z</time>
      </trkpt>
      <trkpt lat="47.78891" lon="2.37223">
        <ele>249.47</ele>
        <time>2022-05-23T09:47:57Z</time>
      </trkpt>
      <trkpt lat="47.7888" lon="2.37225">
        <ele>249.29</ele>
        <time>2022-05-23T09:48:00Z</time>
      </trkpt>
      <trkpt lat="47.78868" lon="2.37225">
        <ele>249.14</ele>
        <time>2022-05-23T09:48:03Z</time>
      </trkpt>
      <trkpt lat="47.7885" lon="2.37226">
        <ele>248.75</ele>
        <time>2022-05-23T09:48:07Z</time>
      </trkpt>
      <trkpt lat="47.7884" lon="2.37226">
        <ele>248.62</ele>
        <time>2022-05-23T09:48:09Z</time>
      </trkpt>
      <trkpt lat="47.78831" lon="2.37225">
        <ele>248.55</ele>
        <time>2022-05-23T09:48:11Z</time>
      </trkpt>
      <trkpt lat="47.78821" lon="2.37226">
        <ele>248.67</ele>
        <time>2022-05-23T09:48:13Z</time>
      </trkpt>
      <trkpt lat="47.78811" lon="2.37226">
        <ele>248.24</ele>
        <time>2022-05-23T09:48:15Z</time>
      </trkpt>
      <trkpt lat="47.78801" lon="2.37227">
        <ele>247.85</ele>
        <time>2022-05-23T09:48:17Z</time>
      </trkpt>
      <trkpt lat="47.78791" lon="2.37226">
        <ele>248.02</ele>
        <time>2022-05-23T09:48:19Z</time>
      </trkpt>
      <trkpt lat="47.78778" lon="2.37225">
        <ele>248</ele>
        <time>2022-05-23T09:48:22Z</time>
      </trkpt>
      <trkpt lat="47.78765" lon="2.37225">
        <ele>248.58</ele>
        <time>2022-05-23T09:48:25Z</time>
      </trkpt>
      <trkpt lat="47.78754" lon="2.37225">
        <ele>248.6</ele>
        <time>2022-05-23T09:48:28Z</time>
      </trkpt>
      <trkpt lat="47.78745" lon="2.37224">
        <ele>248.74</ele>
        <time>2022-05-23T09:48:31Z</time>
      </trkpt>
      <trkpt lat="47.78733" lon="2.37223">
        <ele>248.67</ele>
        <time>2022-05-23T09:48:35Z</time>
      </trkpt>
      <trkpt lat="47.78722" lon="2.37224">
        <ele>248.61</ele>
        <time>2022-05-23T09:48:38Z</time>
      </trkpt>
      <trkpt lat="47.7871" lon="2.37223">
        <ele>248.99</ele>
        <time>2022-05-23T09:48:41Z</time>
      </trkpt>
      <trkpt lat="47.787" lon="2.37223">
        <ele>248.73</ele>
        <time>2022-05-23T09:48:43Z</time>
      </trkpt>
      <trkpt lat="47.78691" lon="2.37222">
        <ele>248.39</ele>
        <time>2022-05-23T09:48:45Z</time>
      </trkpt>
      <trkpt lat="47.7868" lon="2.37223">
        <ele>248.07</ele>
        <time>2022-05-23T09:48:47Z</time>
      </trkpt>
      <trkpt lat="47.78671" lon="2.37222">
        <ele>248.11</ele>
        <time>2022-05-23T09:48:49Z</time>
      </trkpt>
      <trkpt lat="47.78662" lon="2.37222">
        <ele>248.05</ele>
        <time>2022-05-23T09:48:51Z</time>
      </trkpt>
      <trkpt lat="47.78649" lon="2.37222">
        <ele>247.93</ele>
        <time>2022-05-23T09:48:54Z</time>
      </trkpt>
      <trkpt lat="47.78635" lon="2.37222">
        <ele>247.91</ele>
        <time>2022-05-23T09:48:57Z</time>
      </trkpt>
      <trkpt lat="47.78622" lon="2.37223">
        <ele>247.76</ele>
        <time>2022-05-23T09:49:00Z</time>
      </trkpt>
      <trkpt lat="47.78611" lon="2.37224">
        <ele>247.9</ele>
        <time>2022-05-23T09:49:03Z</time>
      </trkpt>
      <trkpt lat="47.78602" lon="2.37223">
        <ele>247.57</ele>
        <time>2022-05-23T09:49:06Z</time>
      </trkpt>
      <trkpt lat="47.78591" lon="2.37222">
        <ele>247.61</ele>
        <time>2022-05-23T09:49:09Z</time>
      </trkpt>
      <trkpt lat="47.7858" lon="2.37221">
        <ele>247.71</ele>
        <time>2022-05-23T09:49:12Z</time>
      </trkpt>
      <trkpt lat="47.78569" lon="2.37221">
        <ele>247.71</ele>
        <time>2022-05-23T09:49:15Z</time>
      </trkpt>
      <trkpt lat="47.78558" lon="2.37221">
        <ele>247.88</ele>
        <time>2022-05-23T09:49:18Z</time>
      </trkpt>
      <trkpt lat="47.78546" lon="2.3722">
        <ele>247.63</ele>
        <time>2022-05-23T09:49:21Z</time>
      </trkpt>
      <trkpt lat="47.78534" lon="2.3722">
        <ele>247.86</ele>
        <time>2022-05-23T09:49:24Z</time>
      </trkpt>
      <trkpt lat="47.78521" lon="2.37218">
        <ele>247.5</ele>
        <time>2022-05-23T09:49:27Z</time>
      </trkpt>
      <trkpt lat="47.78512" lon="2.37218">
        <ele>247.62</ele>
        <time>2022-05-23T09:49:29Z</time>
      </trkpt>
      <trkpt lat="47.78503" lon="2.37217">
        <ele>247.85</ele>
        <time>2022-05-23T09:49:31Z</time>
      </trkpt>
      <trkpt lat="47.78494" lon="2.37216">
        <ele>248.06</ele>
        <time>2022-05-23T09:49:33Z</time>
      </trkpt>
      <trkpt lat="47.78484" lon="2.37214">
        <ele>248</ele>
        <time>2022-05-23T09:49:35Z</time>
      </trkpt>
      <trkpt lat="47.78475" lon="2.37211">
        <ele>248.05</ele>
        <time>2022-05-23T09:49:37Z</time>
      </trkpt>
      <trkpt lat="47.78465" lon="2.3721">
        <ele>247.9</ele>
        <time>2022-05-23T09:49:39Z</time>
      </trkpt>
      <trkpt lat="47.78455" lon="2.37206">
        <ele>247.93</ele>
        <time>2022-05-23T09:49:41Z</time>
      </trkpt>
      <trkpt lat="47.78446" lon="2.37201">
        <ele>247.87</ele>
        <time>2022-05-23T09:49:43Z</time>
      </trkpt>
      <trkpt lat="47.78436" lon="2.37197">
        <ele>247.93</ele>
        <time>2022-05-23T09:49:45Z</time>
      </trkpt>
      <trkpt lat="47.78427" lon="2.37193">
        <ele>247.87</ele>
        <time>2022-05-23T09:49:47Z</time>
      </trkpt>
      <trkpt lat="47.78417" lon="2.37188">
        <ele>247.94</ele>
        <time>2022-05-23T09:49:49Z</time>
      </trkpt>
      <trkpt lat="47.78408" lon="2.37182">
        <ele>247.87</ele>
        <time>2022-05-23T09:49:51Z</time>
      </trkpt>
      <trkpt lat="47.78398" lon="2.37176">
        <ele>247.56</ele>
        <time>2022-05-23T09:49:53Z</time>
      </trkpt>
      <trkpt lat="47.78389" lon="2.37171">
        <ele>247.58</ele>
        <time>2022-05-23T09:49:55Z</time>
      </trkpt>
      <trkpt lat="47.78379" lon="2.37166">
        <ele>247.8</ele>
        <time>2022-05-23T09:49:57Z</time>
      </trkpt>
      <trkpt lat="47.7837" lon="2.37161">
        <ele>248.02</ele>
        <time>2022-05-23T09:49:59Z</time>
      </trkpt>
      <trkpt lat="47.78361" lon="2.37156">
        <ele>248.07</ele>
        <time>2022-05-23T09:50:01Z</time>
      </trkpt>
      <trkpt lat="47.78351" lon="2.3715">
        <ele>248.27</ele>
        <time>2022-05-23T09:50:03Z</time>
      </trkpt>
      <trkpt lat="47.78342" lon="2.37145">
        <ele>248.14</ele>
        <time>2022-05-23T09:50:05Z</time>
      </trkpt>
      <trkpt lat="47.78332" lon="2.3714">
        <ele>248.12</ele>
        <time>2022-05-23T09:50:07Z</time>
      </trkpt>
      <trkpt lat="47.78322" lon="2.37135">
        <ele>247.97</ele>
        <time>2022-05-23T09:50:09Z</time>
      </trkpt>
      <trkpt lat="47.78311" lon="2.37129">
        <ele>247.84</ele>
        <time>2022-05-23T09:50:11Z</time>
      </trkpt>
      <trkpt lat="47.78302" lon="2.37123">
        <ele>247.72</ele>
        <time>2022-05-23T09:50:13Z</time>
      </trkpt>
      <trkpt lat="47.78292" lon="2.37118">
        <ele>247.79</ele>
        <time>2022-05-23T09:50:15Z</time>
      </trkpt>
      <trkpt lat="47.78281" lon="2.37112">
        <ele>247.77</ele>
        <time>2022-05-23T09:50:17Z</time>
      </trkpt>
      <trkpt lat="47.7827" lon="2.37108">
        <ele>247.63</ele>
        <time>2022-05-23T09:50:19Z</time>
      </trkpt>
      <trkpt lat="47.7826" lon="2.37102">
        <ele>247.81</ele>
        <time>2022-05-23T09:50:21Z</time>
      </trkpt>
      <trkpt lat="47.78249" lon="2.37097">
        <ele>248.08</ele>
        <time>2022-05-23T09:50:23Z</time>
      </trkpt>
      <trkpt lat="47.78239" lon="2.37093">
        <ele>247.93</ele>
        <time>2022-05-23T09:50:25Z</time>
      </trkpt>
      <trkpt lat="47.78229" lon="2.37088">
        <ele>247.73</ele>
        <time>2022-05-23T09:50:27Z</time>
      </trkpt>
      <trkpt lat="47.78219" lon="2.37085">
        <ele>247.5</ele>
        <time>2022-05-23T09:50:29Z</time>
      </trkpt>
      <trkpt lat="47.78209" lon="2.37082">
        <ele>247.23</ele>
        <time>2022-05-23T09:50:31Z</time>
      </trkpt>
      <trkpt lat="47.78199" lon="2.37078">
        <ele>247.47</ele>
        <time>2022-05-23T09:50:33Z</time>
      </trkpt>
      <trkpt lat="47.78189" lon="2.37074">
        <ele>247.82</ele>
        <time>2022-05-23T09:50:35Z</time>
      </trkpt>
      <trkpt lat="47.78179" lon="2.37072">
        <ele>247.88</ele>
        <time>2022-05-23T09:50:37Z</time>
      </trkpt>
      <trkpt lat="47.78169" lon="2.37073">
        <ele>247.81</ele>
        <time>2022-05-23T09:50:39Z</time>
      </trkpt>
      <trkpt lat="47.78158" lon="2.37075">
        <ele>247.21</ele>
        <time>2022-05-23T09:50:41Z</time>
      </trkpt>
      <trkpt lat="47.78148" lon="2.37078">
        <ele>247.62</ele>
        <time>2022-05-23T09:50:43Z</time>
      </trkpt>
      <trkpt lat="47.78138" lon="2.37082">
        <ele>247.5</ele>
        <time>2022-05-23T09:50:45Z</time>
      </trkpt>
      <trkpt lat="47.78128" lon="2.37085">
        <ele>247.54</ele>
        <time>2022-05-23T09:50:47Z</time>
      </trkpt>
      <trkpt lat="47.78119" lon="2.37087">
        <ele>247.82</ele>
        <time>2022-05-23T09:50:49Z</time>
      </trkpt>
      <trkpt lat="47.7811" lon="2.37089">
        <ele>247.91</ele>
        <time>2022-05-23T09:50:51Z</time>
      </trkpt>
      <trkpt lat="47.78097" lon="2.37092">
        <ele>247.73</ele>
        <time>2022-05-23T09:50:54Z</time>
      </trkpt>
      <trkpt lat="47.78084" lon="2.37092">
        <ele>247.23</ele>
        <time>2022-05-23T09:50:57Z</time>
      </trkpt>
      <trkpt lat="47.78071" lon="2.37094">
        <ele>246.7</ele>
        <time>2022-05-23T09:51:00Z</time>
      </trkpt>
      <trkpt lat="47.78058" lon="2.37096">
        <ele>247.28</ele>
        <time>2022-05-23T09:51:03Z</time>
      </trkpt>
      <trkpt lat="47.78044" lon="2.37096">
        <ele>247.74</ele>
        <time>2022-05-23T09:51:06Z</time>
      </trkpt>
      <trkpt lat="47.78031" lon="2.37096">
        <ele>248.1</ele>
        <time>2022-05-23T09:51:09Z</time>
      </trkpt>
      <trkpt lat="47.78018" lon="2.37096">
        <ele>248.54</ele>
        <time>2022-05-23T09:51:12Z</time>
      </trkpt>
      <trkpt lat="47.78005" lon="2.37095">
        <ele>248.84</ele>
        <time>2022-05-23T09:51:15Z</time>
      </trkpt>
      <trkpt lat="47.77992" lon="2.37095">
        <ele>248.48</ele>
        <time>2022-05-23T09:51:18Z</time>
      </trkpt>
      <trkpt lat="47.77979" lon="2.37095">
        <ele>248.31</ele>
        <time>2022-05-23T09:51:21Z</time>
      </trkpt>
      <trkpt lat="47.77969" lon="2.37096">
        <ele>248.4</ele>
        <time>2022-05-23T09:51:23Z</time>
      </trkpt>
      <trkpt lat="47.77959" lon="2.37097">
        <ele>248.17</ele>
        <time>2022-05-23T09:51:25Z</time>
      </trkpt>
      <trkpt lat="47.77949" lon="2.37099">
        <ele>248.19</ele>
        <time>2022-05-23T09:51:27Z</time>
      </trkpt>
      <trkpt lat="47.7794" lon="2.371">
        <ele>248.11</ele>
        <time>2022-05-23T09:51:29Z</time>
      </trkpt>
      <trkpt lat="47.77926" lon="2.37103">
        <ele>247.77</ele>
        <time>2022-05-23T09:51:32Z</time>
      </trkpt>
      <trkpt lat="47.77917" lon="2.37104">
        <ele>247.6</ele>
        <time>2022-05-23T09:51:34Z</time>
      </trkpt>
      <trkpt lat="47.77908" lon="2.37107">
        <ele>247.26</ele>
        <time>2022-05-23T09:51:36Z</time>
      </trkpt>
      <trkpt lat="47.77898" lon="2.3711">
        <ele>247.55</ele>
        <time>2022-05-23T09:51:38Z</time>
      </trkpt>
      <trkpt lat="47.77888" lon="2.37112">
        <ele>247.5</ele>
        <time>2022-05-23T09:51:40Z</time>
      </trkpt>
      <trkpt lat="47.77878" lon="2.37114">
        <ele>247.59</ele>
        <time>2022-05-23T09:51:42Z</time>
      </trkpt>
      <trkpt lat="47.77868" lon="2.37116">
        <ele>247.62</ele>
        <time>2022-05-23T09:51:44Z</time>
      </trkpt>
      <trkpt lat="47.77858" lon="2.37118">
        <ele>247.79</ele>
        <time>2022-05-23T09:51:46Z</time>
      </trkpt>
      <trkpt lat="47.77848" lon="2.37118">
        <ele>247.64</ele>
        <time>2022-05-23T09:51:48Z</time>
      </trkpt>
      <trkpt lat="47.77838" lon="2.37119">
        <ele>247.63</ele>
        <time>2022-05-23T09:51:50Z</time>
      </trkpt>
      <trkpt lat="47.77829" lon="2.37118">
        <ele>247.81</ele>
        <time>2022-05-23T09:51:52Z</time>
      </trkpt>
      <trkpt lat="47.7782" lon="2.37119">
        <ele>248.03</ele>
        <time>2022-05-23T09:51:54Z</time>
      </trkpt>
      <trkpt lat="47.7781" lon="2.37119">
        <ele>248.03</ele>
        <time>2022-05-23T09:51:56Z</time>
      </trkpt>
      <trkpt lat="47.77801" lon="2.3712">
        <ele>248.12</ele>
        <time>2022-05-23T09:51:58Z</time>
      </trkpt>
      <trkpt lat="47.77792" lon="2.3712">
        <ele>247.93</ele>
        <time>2022-05-23T09:52:00Z</time>
      </trkpt>
      <trkpt lat="47.77783" lon="2.3712">
        <ele>247.78</ele>
        <time>2022-05-23T09:52:02Z</time>
      </trkpt>
      <trkpt lat="47.77773" lon="2.3712">
        <ele>247.65</ele>
        <time>2022-05-23T09:52:04Z</time>
      </trkpt>
      <trkpt lat="47.77763" lon="2.3712">
        <ele>247.48</ele>
        <time>2022-05-23T09:52:06Z</time>
      </trkpt>
      <trkpt lat="47.77754" lon="2.3712">
        <ele>247.47</ele>
        <time>2022-05-23T09:52:08Z</time>
      </trkpt>
      <trkpt lat="47.77742" lon="2.3712">
        <ele>247.08</ele>
        <time>2022-05-23T09:52:11Z</time>
      </trkpt>
      <trkpt lat="47.77733" lon="2.3712">
        <ele>247.31</ele>
        <time>2022-05-23T09:52:13Z</time>
      </trkpt>
      <trkpt lat="47.77723" lon="2.3712">
        <ele>246.85</ele>
        <time>2022-05-23T09:52:15Z</time>
      </trkpt>
      <trkpt lat="47.77714" lon="2.37119">
        <ele>247.01</ele>
        <time>2022-05-23T09:52:17Z</time>
      </trkpt>
      <trkpt lat="47.77703" lon="2.37118">
        <ele>247.01</ele>
        <time>2022-05-23T09:52:19Z</time>
      </trkpt>
      <trkpt lat="47.77692" lon="2.37117">
        <ele>246.99</ele>
        <time>2022-05-23T09:52:21Z</time>
      </trkpt>
      <trkpt lat="47.77681" lon="2.37116">
        <ele>247.07</ele>
        <time>2022-05-23T09:52:23Z</time>
      </trkpt>
      <trkpt lat="47.77672" lon="2.37115">
        <ele>247.25</ele>
        <time>2022-05-23T09:52:25Z</time>
      </trkpt>
      <trkpt lat="47.77662" lon="2.37113">
        <ele>247.44</ele>
        <time>2022-05-23T09:52:27Z</time>
      </trkpt>
      <trkpt lat="47.77652" lon="2.37112">
        <ele>247.21</ele>
        <time>2022-05-23T09:52:29Z</time>
      </trkpt>
      <trkpt lat="47.77642" lon="2.37111">
        <ele>247.3</ele>
        <time>2022-05-23T09:52:31Z</time>
      </trkpt>
      <trkpt lat="47.77632" lon="2.3711">
        <ele>247.58</ele>
        <time>2022-05-23T09:52:33Z</time>
      </trkpt>
      <trkpt lat="47.77622" lon="2.3711">
        <ele>247.73</ele>
        <time>2022-05-23T09:52:35Z</time>
      </trkpt>
      <trkpt lat="47.77613" lon="2.37108">
        <ele>247.75</ele>
        <time>2022-05-23T09:52:37Z</time>
      </trkpt>
      <trkpt lat="47.77603" lon="2.37108">
        <ele>247.57</ele>
        <time>2022-05-23T09:52:39Z</time>
      </trkpt>
      <trkpt lat="47.77594" lon="2.37109">
        <ele>248</ele>
        <time>2022-05-23T09:52:41Z</time>
      </trkpt>
      <trkpt lat="47.77582" lon="2.37107">
        <ele>248.43</ele>
        <time>2022-05-23T09:52:44Z</time>
      </trkpt>
      <trkpt lat="47.7757" lon="2.37106">
        <ele>247.86</ele>
        <time>2022-05-23T09:52:47Z</time>
      </trkpt>
      <trkpt lat="47.7756" lon="2.37103">
        <ele>247.98</ele>
        <time>2022-05-23T09:52:51Z</time>
      </trkpt>
      <trkpt lat="47.77551" lon="2.37099">
        <ele>247.78</ele>
        <time>2022-05-23T09:52:56Z</time>
      </trkpt>
      <trkpt lat="47.77541" lon="2.37095">
        <ele>247.9</ele>
        <time>2022-05-23T09:53:01Z</time>
      </trkpt>
      <trkpt lat="47.77537" lon="2.37107">
        <ele>248.11</ele>
        <time>2022-05-23T09:53:14Z</time>
      </trkpt>
      <trkpt lat="47.7753" lon="2.37117">
        <ele>248.05</ele>
        <time>2022-05-23T09:53:22Z</time>
      </trkpt>
      <trkpt lat="47.77528" lon="2.37119">
        <ele>245.8</ele>
        <time>2022-05-23T09:55:23Z</time>
      </trkpt>
      <trkpt lat="47.77535" lon="2.3711">
        <ele>247.09</ele>
        <time>2022-05-23T09:56:36Z</time>
      </trkpt>
      <trkpt lat="47.77537" lon="2.37096">
        <ele>247.03</ele>
        <time>2022-05-23T09:56:51Z</time>
      </trkpt>
      <trkpt lat="47.7753" lon="2.37085">
        <ele>247.95</ele>
        <time>2022-05-23T09:57:13Z</time>
      </trkpt>
      <trkpt lat="47.77521" lon="2.3708">
        <ele>248.07</ele>
        <time>2022-05-23T09:57:17Z</time>
      </trkpt>
      <trkpt lat="47.77512" lon="2.37074">
        <ele>247.97</ele>
        <time>2022-05-23T09:57:21Z</time>
      </trkpt>
      <trkpt lat="47.77502" lon="2.37068">
        <ele>248.21</ele>
        <time>2022-05-23T09:57:26Z</time>
      </trkpt>
      <trkpt lat="47.77493" lon="2.37062">
        <ele>248.5</ele>
        <time>2022-05-23T09:57:31Z</time>
      </trkpt>
      <trkpt lat="47.77485" lon="2.37056">
        <ele>247.66</ele>
        <time>2022-05-23T09:57:49Z</time>
      </trkpt>
      <trkpt lat="47.77481" lon="2.37044">
        <ele>247.65</ele>
        <time>2022-05-23T09:57:53Z</time>
      </trkpt>
      <trkpt lat="47.77481" lon="2.37029">
        <ele>247.51</ele>
        <time>2022-05-23T09:57:56Z</time>
      </trkpt>
      <trkpt lat="47.77481" lon="2.37013">
        <ele>247.64</ele>
        <time>2022-05-23T09:57:59Z</time>
      </trkpt>
      <trkpt lat="47.7748" lon="2.36997">
        <ele>247.71</ele>
        <time>2022-05-23T09:58:02Z</time>
      </trkpt>
      <trkpt lat="47.7748" lon="2.36979">
        <ele>247.92</ele>
        <time>2022-05-23T09:58:05Z</time>
      </trkpt>
      <trkpt lat="47.77479" lon="2.36961">
        <ele>247.89</ele>
        <time>2022-05-23T09:58:08Z</time>
      </trkpt>
      <trkpt lat="47.77479" lon="2.36942">
        <ele>248.07</ele>
        <time>2022-05-23T09:58:11Z</time>
      </trkpt>
      <trkpt lat="47.77478" lon="2.36923">
        <ele>248.21</ele>
        <time>2022-05-23T09:58:14Z</time>
      </trkpt>
      <trkpt lat="47.77478" lon="2.36906">
        <ele>248.11</ele>
        <time>2022-05-23T09:58:17Z</time>
      </trkpt>
      <trkpt lat="47.77478" lon="2.36887">
        <ele>248.24</ele>
        <time>2022-05-23T09:58:20Z</time>
      </trkpt>
      <trkpt lat="47.77476" lon="2.3687">
        <ele>248.49</ele>
        <time>2022-05-23T09:58:23Z</time>
      </trkpt>
      <trkpt lat="47.77476" lon="2.36853">
        <ele>248.69</ele>
        <time>2022-05-23T09:58:26Z</time>
      </trkpt>
      <trkpt lat="47.77475" lon="2.36836">
        <ele>248.21</ele>
        <time>2022-05-23T09:58:29Z</time>
      </trkpt>
      <trkpt lat="47.77475" lon="2.36819">
        <ele>248.07</ele>
        <time>2022-05-23T09:58:32Z</time>
      </trkpt>
      <trkpt lat="47.77475" lon="2.368">
        <ele>247.87</ele>
        <time>2022-05-23T09:58:35Z</time>
      </trkpt>
      <trkpt lat="47.77475" lon="2.36784">
        <ele>248.2</ele>
        <time>2022-05-23T09:58:38Z</time>
      </trkpt>
      <trkpt lat="47.77474" lon="2.3677">
        <ele>248.29</ele>
        <time>2022-05-23T09:58:41Z</time>
      </trkpt>
      <trkpt lat="47.77473" lon="2.36756">
        <ele>248.38</ele>
        <time>2022-05-23T09:58:44Z</time>
      </trkpt>
      <trkpt lat="47.77472" lon="2.36742">
        <ele>248.68</ele>
        <time>2022-05-23T09:58:48Z</time>
      </trkpt>
      <trkpt lat="47.77467" lon="2.36729">
        <ele>248.47</ele>
        <time>2022-05-23T09:58:53Z</time>
      </trkpt>
      <trkpt lat="47.77455" lon="2.3673">
        <ele>248.15</ele>
        <time>2022-05-23T09:58:56Z</time>
      </trkpt>
      <trkpt lat="47.77442" lon="2.36735">
        <ele>247.94</ele>
        <time>2022-05-23T09:58:59Z</time>
      </trkpt>
      <trkpt lat="47.77429" lon="2.36739">
        <ele>248.1</ele>
        <time>2022-05-23T09:59:02Z</time>
      </trkpt>
      <trkpt lat="47.77418" lon="2.36741">
        <ele>248.17</ele>
        <time>2022-05-23T09:59:05Z</time>
      </trkpt>
      <trkpt lat="47.77405" lon="2.36744">
        <ele>248.31</ele>
        <time>2022-05-23T09:59:08Z</time>
      </trkpt>
      <trkpt lat="47.77394" lon="2.36746">
        <ele>248.06</ele>
        <time>2022-05-23T09:59:11Z</time>
      </trkpt>
      <trkpt lat="47.77384" lon="2.36748">
        <ele>248.22</ele>
        <time>2022-05-23T09:59:14Z</time>
      </trkpt>
      <trkpt lat="47.77373" lon="2.3675">
        <ele>248.12</ele>
        <time>2022-05-23T09:59:17Z</time>
      </trkpt>
      <trkpt lat="47.77362" lon="2.36752">
        <ele>247.82</ele>
        <time>2022-05-23T09:59:20Z</time>
      </trkpt>
      <trkpt lat="47.7735" lon="2.36753">
        <ele>247.91</ele>
        <time>2022-05-23T09:59:23Z</time>
      </trkpt>
      <trkpt lat="47.77338" lon="2.36755">
        <ele>247.39</ele>
        <time>2022-05-23T09:59:26Z</time>
      </trkpt>
      <trkpt lat="47.77327" lon="2.36758">
        <ele>247.69</ele>
        <time>2022-05-23T09:59:29Z</time>
      </trkpt>
      <trkpt lat="47.77316" lon="2.36758">
        <ele>247.35</ele>
        <time>2022-05-23T09:59:32Z</time>
      </trkpt>
      <trkpt lat="47.77307" lon="2.36749">
        <ele>247.67</ele>
        <time>2022-05-23T09:59:35Z</time>
      </trkpt>
      <trkpt lat="47.77303" lon="2.36732">
        <ele>247.65</ele>
        <time>2022-05-23T09:59:38Z</time>
      </trkpt>
      <trkpt lat="47.773" lon="2.36713">
        <ele>247.39</ele>
        <time>2022-05-23T09:59:41Z</time>
      </trkpt>
      <trkpt lat="47.77297" lon="2.367">
        <ele>247.32</ele>
        <time>2022-05-23T09:59:43Z</time>
      </trkpt>
      <trkpt lat="47.77294" lon="2.36681">
        <ele>247.33</ele>
        <time>2022-05-23T09:59:46Z</time>
      </trkpt>
      <trkpt lat="47.77292" lon="2.36664">
        <ele>247.17</ele>
        <time>2022-05-23T09:59:49Z</time>
      </trkpt>
      <trkpt lat="47.77289" lon="2.36646">
        <ele>247.29</ele>
        <time>2022-05-23T09:59:52Z</time>
      </trkpt>
      <trkpt lat="47.77287" lon="2.36628">
        <ele>247.42</ele>
        <time>2022-05-23T09:59:55Z</time>
      </trkpt>
      <trkpt lat="47.77285" lon="2.3661">
        <ele>247.29</ele>
        <time>2022-05-23T09:59:58Z</time>
      </trkpt>
      <trkpt lat="47.77284" lon="2.36592">
        <ele>247.21</ele>
        <time>2022-05-23T10:00:01Z</time>
      </trkpt>
      <trkpt lat="47.77281" lon="2.36576">
        <ele>247.15</ele>
        <time>2022-05-23T10:00:04Z</time>
      </trkpt>
      <trkpt lat="47.7728" lon="2.36558">
        <ele>247.3</ele>
        <time>2022-05-23T10:00:07Z</time>
      </trkpt>
      <trkpt lat="47.77278" lon="2.36539">
        <ele>247.44</ele>
        <time>2022-05-23T10:00:10Z</time>
      </trkpt>
      <trkpt lat="47.77276" lon="2.3652">
        <ele>247.67</ele>
        <time>2022-05-23T10:00:13Z</time>
      </trkpt>
      <trkpt lat="47.77275" lon="2.36502">
        <ele>247.7</ele>
        <time>2022-05-23T10:00:16Z</time>
      </trkpt>
      <trkpt lat="47.77273" lon="2.36486">
        <ele>247.68</ele>
        <time>2022-05-23T10:00:19Z</time>
      </trkpt>
      <trkpt lat="47.77272" lon="2.36469">
        <ele>247.73</ele>
        <time>2022-05-23T10:00:22Z</time>
      </trkpt>
      <trkpt lat="47.7727" lon="2.36452">
        <ele>247.79</ele>
        <time>2022-05-23T10:00:25Z</time>
      </trkpt>
      <trkpt lat="47.77268" lon="2.36433">
        <ele>248</ele>
        <time>2022-05-23T10:00:28Z</time>
      </trkpt>
      <trkpt lat="47.77266" lon="2.36415">
        <ele>248.04</ele>
        <time>2022-05-23T10:00:31Z</time>
      </trkpt>
      <trkpt lat="47.77265" lon="2.36398">
        <ele>248.18</ele>
        <time>2022-05-23T10:00:34Z</time>
      </trkpt>
      <trkpt lat="47.77264" lon="2.36383">
        <ele>248.58</ele>
        <time>2022-05-23T10:00:37Z</time>
      </trkpt>
      <trkpt lat="47.77262" lon="2.36368">
        <ele>248.85</ele>
        <time>2022-05-23T10:00:40Z</time>
      </trkpt>
      <trkpt lat="47.77259" lon="2.36355">
        <ele>249.22</ele>
        <time>2022-05-23T10:00:43Z</time>
      </trkpt>
      <trkpt lat="47.77252" lon="2.36342">
        <ele>249.45</ele>
        <time>2022-05-23T10:00:46Z</time>
      </trkpt>
      <trkpt lat="47.77243" lon="2.3633">
        <ele>249.71</ele>
        <time>2022-05-23T10:00:49Z</time>
      </trkpt>
      <trkpt lat="47.77234" lon="2.36319">
        <ele>249.94</ele>
        <time>2022-05-23T10:00:52Z</time>
      </trkpt>
      <trkpt lat="47.77226" lon="2.36309">
        <ele>250.06</ele>
        <time>2022-05-23T10:00:55Z</time>
      </trkpt>
      <trkpt lat="47.77218" lon="2.36299">
        <ele>250.1</ele>
        <time>2022-05-23T10:00:58Z</time>
      </trkpt>
      <trkpt lat="47.7721" lon="2.36289">
        <ele>250.25</ele>
        <time>2022-05-23T10:01:01Z</time>
      </trkpt>
      <trkpt lat="47.77203" lon="2.36279">
        <ele>250.52</ele>
        <time>2022-05-23T10:01:05Z</time>
      </trkpt>
      <trkpt lat="47.77198" lon="2.36266">
        <ele>250.19</ele>
        <time>2022-05-23T10:01:11Z</time>
      </trkpt>
      <trkpt lat="47.772" lon="2.36252">
        <ele>249.38</ele>
        <time>2022-05-23T10:01:15Z</time>
      </trkpt>
      <trkpt lat="47.77203" lon="2.36233">
        <ele>247.85</ele>
        <time>2022-05-23T10:01:18Z</time>
      </trkpt>
      <trkpt lat="47.77205" lon="2.36217">
        <ele>247.42</ele>
        <time>2022-05-23T10:01:20Z</time>
      </trkpt>
      <trkpt lat="47.77207" lon="2.36201">
        <ele>247.32</ele>
        <time>2022-05-23T10:01:22Z</time>
      </trkpt>
      <trkpt lat="47.77209" lon="2.36188">
        <ele>247.27</ele>
        <time>2022-05-23T10:01:24Z</time>
      </trkpt>
      <trkpt lat="47.77211" lon="2.36169">
        <ele>247.51</ele>
        <time>2022-05-23T10:01:27Z</time>
      </trkpt>
      <trkpt lat="47.77214" lon="2.36153">
        <ele>247.57</ele>
        <time>2022-05-23T10:01:30Z</time>
      </trkpt>
      <trkpt lat="47.77215" lon="2.36136">
        <ele>247.76</ele>
        <time>2022-05-23T10:01:33Z</time>
      </trkpt>
      <trkpt lat="47.77217" lon="2.36118">
        <ele>248.04</ele>
        <time>2022-05-23T10:01:36Z</time>
      </trkpt>
      <trkpt lat="47.77219" lon="2.361">
        <ele>247.67</ele>
        <time>2022-05-23T10:01:39Z</time>
      </trkpt>
      <trkpt lat="47.7722" lon="2.36083">
        <ele>247.77</ele>
        <time>2022-05-23T10:01:42Z</time>
      </trkpt>
      <trkpt lat="47.77222" lon="2.3607">
        <ele>247.76</ele>
        <time>2022-05-23T10:01:45Z</time>
      </trkpt>
      <trkpt lat="47.77223" lon="2.36052">
        <ele>247.97</ele>
        <time>2022-05-23T10:01:49Z</time>
      </trkpt>
      <trkpt lat="47.77224" lon="2.36036">
        <ele>248.23</ele>
        <time>2022-05-23T10:01:53Z</time>
      </trkpt>
      <trkpt lat="47.77226" lon="2.36019">
        <ele>248.15</ele>
        <time>2022-05-23T10:01:56Z</time>
      </trkpt>
      <trkpt lat="47.77229" lon="2.36001">
        <ele>247.85</ele>
        <time>2022-05-23T10:01:59Z</time>
      </trkpt>
      <trkpt lat="47.77233" lon="2.35982">
        <ele>247.78</ele>
        <time>2022-05-23T10:02:02Z</time>
      </trkpt>
      <trkpt lat="47.77235" lon="2.35962">
        <ele>247.92</ele>
        <time>2022-05-23T10:02:05Z</time>
      </trkpt>
      <trkpt lat="47.77237" lon="2.35949">
        <ele>247.7</ele>
        <time>2022-05-23T10:02:07Z</time>
      </trkpt>
      <trkpt lat="47.77239" lon="2.35935">
        <ele>247.8</ele>
        <time>2022-05-23T10:02:09Z</time>
      </trkpt>
      <trkpt lat="47.77241" lon="2.3592">
        <ele>247.79</ele>
        <time>2022-05-23T10:02:11Z</time>
      </trkpt>
      <trkpt lat="47.77243" lon="2.35907">
        <ele>247.72</ele>
        <time>2022-05-23T10:02:13Z</time>
      </trkpt>
      <trkpt lat="47.77244" lon="2.35893">
        <ele>247.86</ele>
        <time>2022-05-23T10:02:15Z</time>
      </trkpt>
      <trkpt lat="47.77247" lon="2.35873">
        <ele>247.47</ele>
        <time>2022-05-23T10:02:18Z</time>
      </trkpt>
      <trkpt lat="47.77249" lon="2.35859">
        <ele>247.45</ele>
        <time>2022-05-23T10:02:20Z</time>
      </trkpt>
      <trkpt lat="47.77251" lon="2.35846">
        <ele>247.29</ele>
        <time>2022-05-23T10:02:22Z</time>
      </trkpt>
      <trkpt lat="47.77253" lon="2.35833">
        <ele>247.32</ele>
        <time>2022-05-23T10:02:24Z</time>
      </trkpt>
      <trkpt lat="47.77255" lon="2.35819">
        <ele>247.33</ele>
        <time>2022-05-23T10:02:26Z</time>
      </trkpt>
      <trkpt lat="47.77257" lon="2.35806">
        <ele>247.31</ele>
        <time>2022-05-23T10:02:28Z</time>
      </trkpt>
      <trkpt lat="47.77261" lon="2.35787">
        <ele>247.37</ele>
        <time>2022-05-23T10:02:31Z</time>
      </trkpt>
      <trkpt lat="47.77265" lon="2.35769">
        <ele>247.69</ele>
        <time>2022-05-23T10:02:34Z</time>
      </trkpt>
      <trkpt lat="47.77268" lon="2.35756">
        <ele>247.83</ele>
        <time>2022-05-23T10:02:36Z</time>
      </trkpt>
      <trkpt lat="47.77271" lon="2.35743">
        <ele>247.98</ele>
        <time>2022-05-23T10:02:38Z</time>
      </trkpt>
      <trkpt lat="47.77274" lon="2.35731">
        <ele>247.94</ele>
        <time>2022-05-23T10:02:40Z</time>
      </trkpt>
      <trkpt lat="47.7728" lon="2.35713">
        <ele>247.82</ele>
        <time>2022-05-23T10:02:43Z</time>
      </trkpt>
      <trkpt lat="47.77285" lon="2.35696">
        <ele>247.66</ele>
        <time>2022-05-23T10:02:46Z</time>
      </trkpt>
      <trkpt lat="47.7729" lon="2.35679">
        <ele>247.35</ele>
        <time>2022-05-23T10:02:49Z</time>
      </trkpt>
      <trkpt lat="47.77295" lon="2.35662">
        <ele>247.13</ele>
        <time>2022-05-23T10:02:52Z</time>
      </trkpt>
      <trkpt lat="47.77301" lon="2.35643">
        <ele>247.22</ele>
        <time>2022-05-23T10:02:55Z</time>
      </trkpt>
      <trkpt lat="47.77305" lon="2.35631">
        <ele>247.07</ele>
        <time>2022-05-23T10:02:57Z</time>
      </trkpt>
      <trkpt lat="47.77309" lon="2.35619">
        <ele>247.07</ele>
        <time>2022-05-23T10:02:59Z</time>
      </trkpt>
      <trkpt lat="47.77314" lon="2.35601">
        <ele>246.59</ele>
        <time>2022-05-23T10:03:02Z</time>
      </trkpt>
      <trkpt lat="47.77321" lon="2.35584">
        <ele>246.83</ele>
        <time>2022-05-23T10:03:05Z</time>
      </trkpt>
      <trkpt lat="47.77326" lon="2.35567">
        <ele>246.84</ele>
        <time>2022-05-23T10:03:08Z</time>
      </trkpt>
      <trkpt lat="47.77332" lon="2.35549">
        <ele>246.85</ele>
        <time>2022-05-23T10:03:11Z</time>
      </trkpt>
      <trkpt lat="47.77336" lon="2.35536">
        <ele>246.94</ele>
        <time>2022-05-23T10:03:13Z</time>
      </trkpt>
      <trkpt lat="47.77339" lon="2.35524">
        <ele>246.87</ele>
        <time>2022-05-23T10:03:15Z</time>
      </trkpt>
      <trkpt lat="47.77345" lon="2.35506">
        <ele>246.58</ele>
        <time>2022-05-23T10:03:18Z</time>
      </trkpt>
      <trkpt lat="47.77349" lon="2.35494">
        <ele>246.65</ele>
        <time>2022-05-23T10:03:20Z</time>
      </trkpt>
      <trkpt lat="47.77353" lon="2.35481">
        <ele>246.78</ele>
        <time>2022-05-23T10:03:22Z</time>
      </trkpt>
      <trkpt lat="47.77358" lon="2.35469">
        <ele>246.76</ele>
        <time>2022-05-23T10:03:24Z</time>
      </trkpt>
      <trkpt lat="47.77363" lon="2.3545">
        <ele>247.17</ele>
        <time>2022-05-23T10:03:27Z</time>
      </trkpt>
      <trkpt lat="47.77368" lon="2.35432">
        <ele>247.53</ele>
        <time>2022-05-23T10:03:30Z</time>
      </trkpt>
      <trkpt lat="47.77373" lon="2.35415">
        <ele>247.98</ele>
        <time>2022-05-23T10:03:33Z</time>
      </trkpt>
      <trkpt lat="47.77378" lon="2.35397">
        <ele>247.9</ele>
        <time>2022-05-23T10:03:36Z</time>
      </trkpt>
      <trkpt lat="47.77383" lon="2.35379">
        <ele>247.84</ele>
        <time>2022-05-23T10:03:39Z</time>
      </trkpt>
      <trkpt lat="47.77386" lon="2.35367">
        <ele>247.9</ele>
        <time>2022-05-23T10:03:41Z</time>
      </trkpt>
      <trkpt lat="47.77392" lon="2.35348">
        <ele>247.96</ele>
        <time>2022-05-23T10:03:44Z</time>
      </trkpt>
      <trkpt lat="47.77397" lon="2.3533">
        <ele>247.77</ele>
        <time>2022-05-23T10:03:47Z</time>
      </trkpt>
      <trkpt lat="47.774" lon="2.35317">
        <ele>247.65</ele>
        <time>2022-05-23T10:03:49Z</time>
      </trkpt>
      <trkpt lat="47.77405" lon="2.35299">
        <ele>247.45</ele>
        <time>2022-05-23T10:03:52Z</time>
      </trkpt>
      <trkpt lat="47.7741" lon="2.35283">
        <ele>247.72</ele>
        <time>2022-05-23T10:03:55Z</time>
      </trkpt>
      <trkpt lat="47.77416" lon="2.35265">
        <ele>247.87</ele>
        <time>2022-05-23T10:03:58Z</time>
      </trkpt>
      <trkpt lat="47.77421" lon="2.35253">
        <ele>247.87</ele>
        <time>2022-05-23T10:04:00Z</time>
      </trkpt>
      <trkpt lat="47.77428" lon="2.3524">
        <ele>247.81</ele>
        <time>2022-05-23T10:04:02Z</time>
      </trkpt>
      <trkpt lat="47.77434" lon="2.35227">
        <ele>247.82</ele>
        <time>2022-05-23T10:04:04Z</time>
      </trkpt>
      <trkpt lat="47.77442" lon="2.35215">
        <ele>247.91</ele>
        <time>2022-05-23T10:04:06Z</time>
      </trkpt>
      <trkpt lat="47.7745" lon="2.35204">
        <ele>247.94</ele>
        <time>2022-05-23T10:04:08Z</time>
      </trkpt>
      <trkpt lat="47.77457" lon="2.35192">
        <ele>248.1</ele>
        <time>2022-05-23T10:04:10Z</time>
      </trkpt>
      <trkpt lat="47.77465" lon="2.35181">
        <ele>248.25</ele>
        <time>2022-05-23T10:04:12Z</time>
      </trkpt>
      <trkpt lat="47.77471" lon="2.3517">
        <ele>248.54</ele>
        <time>2022-05-23T10:04:14Z</time>
      </trkpt>
      <trkpt lat="47.77478" lon="2.35161">
        <ele>248.34</ele>
        <time>2022-05-23T10:04:16Z</time>
      </trkpt>
      <trkpt lat="47.77485" lon="2.35152">
        <ele>248.79</ele>
        <time>2022-05-23T10:04:18Z</time>
      </trkpt>
      <trkpt lat="47.77491" lon="2.35141">
        <ele>248.79</ele>
        <time>2022-05-23T10:04:20Z</time>
      </trkpt>
      <trkpt lat="47.77498" lon="2.35132">
        <ele>248.69</ele>
        <time>2022-05-23T10:04:22Z</time>
      </trkpt>
      <trkpt lat="47.77504" lon="2.35122">
        <ele>248.75</ele>
        <time>2022-05-23T10:04:24Z</time>
      </trkpt>
      <trkpt lat="47.77511" lon="2.35111">
        <ele>248.63</ele>
        <time>2022-05-23T10:04:26Z</time>
      </trkpt>
      <trkpt lat="47.77518" lon="2.35101">
        <ele>248.76</ele>
        <time>2022-05-23T10:04:28Z</time>
      </trkpt>
      <trkpt lat="47.77525" lon="2.3509">
        <ele>248.57</ele>
        <time>2022-05-23T10:04:30Z</time>
      </trkpt>
      <trkpt lat="47.77532" lon="2.3508">
        <ele>248.59</ele>
        <time>2022-05-23T10:04:32Z</time>
      </trkpt>
      <trkpt lat="47.77539" lon="2.35069">
        <ele>248.97</ele>
        <time>2022-05-23T10:04:34Z</time>
      </trkpt>
      <trkpt lat="47.77545" lon="2.35059">
        <ele>249.13</ele>
        <time>2022-05-23T10:04:36Z</time>
      </trkpt>
      <trkpt lat="47.77551" lon="2.35049">
        <ele>249.52</ele>
        <time>2022-05-23T10:04:38Z</time>
      </trkpt>
      <trkpt lat="47.77561" lon="2.35035">
        <ele>249.44</ele>
        <time>2022-05-23T10:04:41Z</time>
      </trkpt>
      <trkpt lat="47.7757" lon="2.35023">
        <ele>249.93</ele>
        <time>2022-05-23T10:04:44Z</time>
      </trkpt>
      <trkpt lat="47.7758" lon="2.3501">
        <ele>250.11</ele>
        <time>2022-05-23T10:04:47Z</time>
      </trkpt>
      <trkpt lat="47.7759" lon="2.34997">
        <ele>250.15</ele>
        <time>2022-05-23T10:04:50Z</time>
      </trkpt>
      <trkpt lat="47.776" lon="2.34984">
        <ele>250.52</ele>
        <time>2022-05-23T10:04:53Z</time>
      </trkpt>
      <trkpt lat="47.77609" lon="2.34973">
        <ele>250.89</ele>
        <time>2022-05-23T10:04:56Z</time>
      </trkpt>
      <trkpt lat="47.77619" lon="2.3496">
        <ele>250.99</ele>
        <time>2022-05-23T10:04:59Z</time>
      </trkpt>
      <trkpt lat="47.77626" lon="2.34951">
        <ele>251.07</ele>
        <time>2022-05-23T10:05:01Z</time>
      </trkpt>
      <trkpt lat="47.77633" lon="2.34941">
        <ele>251.06</ele>
        <time>2022-05-23T10:05:03Z</time>
      </trkpt>
      <trkpt lat="47.7764" lon="2.34932">
        <ele>251.05</ele>
        <time>2022-05-23T10:05:05Z</time>
      </trkpt>
      <trkpt lat="47.77647" lon="2.34924">
        <ele>250.83</ele>
        <time>2022-05-23T10:05:07Z</time>
      </trkpt>
      <trkpt lat="47.77654" lon="2.34914">
        <ele>250.66</ele>
        <time>2022-05-23T10:05:09Z</time>
      </trkpt>
      <trkpt lat="47.77661" lon="2.34905">
        <ele>250.72</ele>
        <time>2022-05-23T10:05:11Z</time>
      </trkpt>
      <trkpt lat="47.77668" lon="2.34896">
        <ele>250.82</ele>
        <time>2022-05-23T10:05:13Z</time>
      </trkpt>
      <trkpt lat="47.77676" lon="2.34886">
        <ele>250.86</ele>
        <time>2022-05-23T10:05:15Z</time>
      </trkpt>
      <trkpt lat="47.77683" lon="2.34876">
        <ele>251.22</ele>
        <time>2022-05-23T10:05:17Z</time>
      </trkpt>
      <trkpt lat="47.77691" lon="2.34866">
        <ele>251.26</ele>
        <time>2022-05-23T10:05:19Z</time>
      </trkpt>
      <trkpt lat="47.77698" lon="2.34856">
        <ele>251.19</ele>
        <time>2022-05-23T10:05:21Z</time>
      </trkpt>
      <trkpt lat="47.77705" lon="2.34847">
        <ele>251.04</ele>
        <time>2022-05-23T10:05:23Z</time>
      </trkpt>
      <trkpt lat="47.77712" lon="2.34838">
        <ele>250.97</ele>
        <time>2022-05-23T10:05:25Z</time>
      </trkpt>
      <trkpt lat="47.77719" lon="2.34829">
        <ele>250.57</ele>
        <time>2022-05-23T10:05:27Z</time>
      </trkpt>
      <trkpt lat="47.77727" lon="2.34818">
        <ele>250.36</ele>
        <time>2022-05-23T10:05:29Z</time>
      </trkpt>
      <trkpt lat="47.77734" lon="2.34809">
        <ele>250.27</ele>
        <time>2022-05-23T10:05:31Z</time>
      </trkpt>
      <trkpt lat="47.77741" lon="2.34799">
        <ele>250.29</ele>
        <time>2022-05-23T10:05:33Z</time>
      </trkpt>
      <trkpt lat="47.77748" lon="2.3479">
        <ele>250.25</ele>
        <time>2022-05-23T10:05:35Z</time>
      </trkpt>
      <trkpt lat="47.77756" lon="2.3478">
        <ele>250.36</ele>
        <time>2022-05-23T10:05:37Z</time>
      </trkpt>
      <trkpt lat="47.77764" lon="2.3477">
        <ele>250.17</ele>
        <time>2022-05-23T10:05:39Z</time>
      </trkpt>
      <trkpt lat="47.77771" lon="2.3476">
        <ele>249.94</ele>
        <time>2022-05-23T10:05:41Z</time>
      </trkpt>
      <trkpt lat="47.77779" lon="2.3475">
        <ele>249.82</ele>
        <time>2022-05-23T10:05:43Z</time>
      </trkpt>
      <trkpt lat="47.77786" lon="2.3474">
        <ele>249.63</ele>
        <time>2022-05-23T10:05:45Z</time>
      </trkpt>
      <trkpt lat="47.77794" lon="2.3473">
        <ele>249.32</ele>
        <time>2022-05-23T10:05:47Z</time>
      </trkpt>
      <trkpt lat="47.77801" lon="2.3472">
        <ele>249.1</ele>
        <time>2022-05-23T10:05:49Z</time>
      </trkpt>
      <trkpt lat="47.77808" lon="2.34711">
        <ele>249.15</ele>
        <time>2022-05-23T10:05:51Z</time>
      </trkpt>
      <trkpt lat="47.77815" lon="2.34702">
        <ele>249.25</ele>
        <time>2022-05-23T10:05:53Z</time>
      </trkpt>
      <trkpt lat="47.77822" lon="2.34692">
        <ele>248.97</ele>
        <time>2022-05-23T10:05:55Z</time>
      </trkpt>
      <trkpt lat="47.77833" lon="2.34679">
        <ele>249.21</ele>
        <time>2022-05-23T10:05:58Z</time>
      </trkpt>
      <trkpt lat="47.7784" lon="2.3467">
        <ele>249.29</ele>
        <time>2022-05-23T10:06:00Z</time>
      </trkpt>
      <trkpt lat="47.77848" lon="2.3466">
        <ele>249.28</ele>
        <time>2022-05-23T10:06:02Z</time>
      </trkpt>
      <trkpt lat="47.77855" lon="2.3465">
        <ele>249.41</ele>
        <time>2022-05-23T10:06:04Z</time>
      </trkpt>
      <trkpt lat="47.77863" lon="2.34641">
        <ele>249.28</ele>
        <time>2022-05-23T10:06:06Z</time>
      </trkpt>
      <trkpt lat="47.77871" lon="2.34633">
        <ele>248.98</ele>
        <time>2022-05-23T10:06:08Z</time>
      </trkpt>
      <trkpt lat="47.77882" lon="2.34621">
        <ele>248.42</ele>
        <time>2022-05-23T10:06:11Z</time>
      </trkpt>
      <trkpt lat="47.77889" lon="2.34614">
        <ele>248.29</ele>
        <time>2022-05-23T10:06:13Z</time>
      </trkpt>
      <trkpt lat="47.77897" lon="2.34607">
        <ele>248.4</ele>
        <time>2022-05-23T10:06:15Z</time>
      </trkpt>
      <trkpt lat="47.77905" lon="2.346">
        <ele>248.28</ele>
        <time>2022-05-23T10:06:17Z</time>
      </trkpt>
      <trkpt lat="47.77913" lon="2.34592">
        <ele>248.05</ele>
        <time>2022-05-23T10:06:19Z</time>
      </trkpt>
      <trkpt lat="47.77922" lon="2.34583">
        <ele>247.81</ele>
        <time>2022-05-23T10:06:21Z</time>
      </trkpt>
      <trkpt lat="47.77931" lon="2.34575">
        <ele>247.88</ele>
        <time>2022-05-23T10:06:23Z</time>
      </trkpt>
      <trkpt lat="47.77939" lon="2.34567">
        <ele>248.12</ele>
        <time>2022-05-23T10:06:25Z</time>
      </trkpt>
      <trkpt lat="47.77947" lon="2.34559">
        <ele>248.27</ele>
        <time>2022-05-23T10:06:27Z</time>
      </trkpt>
      <trkpt lat="47.77956" lon="2.3455">
        <ele>248.18</ele>
        <time>2022-05-23T10:06:29Z</time>
      </trkpt>
      <trkpt lat="47.77965" lon="2.34541">
        <ele>247.89</ele>
        <time>2022-05-23T10:06:31Z</time>
      </trkpt>
      <trkpt lat="47.77973" lon="2.34532">
        <ele>248.13</ele>
        <time>2022-05-23T10:06:33Z</time>
      </trkpt>
      <trkpt lat="47.77982" lon="2.34524">
        <ele>248.11</ele>
        <time>2022-05-23T10:06:35Z</time>
      </trkpt>
      <trkpt lat="47.77989" lon="2.34517">
        <ele>247.8</ele>
        <time>2022-05-23T10:06:37Z</time>
      </trkpt>
      <trkpt lat="47.77997" lon="2.34509">
        <ele>247.45</ele>
        <time>2022-05-23T10:06:39Z</time>
      </trkpt>
      <trkpt lat="47.78005" lon="2.34501">
        <ele>247.28</ele>
        <time>2022-05-23T10:06:41Z</time>
      </trkpt>
      <trkpt lat="47.78013" lon="2.34493">
        <ele>247.33</ele>
        <time>2022-05-23T10:06:43Z</time>
      </trkpt>
      <trkpt lat="47.78021" lon="2.34484">
        <ele>247.47</ele>
        <time>2022-05-23T10:06:45Z</time>
      </trkpt>
      <trkpt lat="47.78029" lon="2.34476">
        <ele>247.47</ele>
        <time>2022-05-23T10:06:47Z</time>
      </trkpt>
      <trkpt lat="47.78038" lon="2.34467">
        <ele>247.54</ele>
        <time>2022-05-23T10:06:49Z</time>
      </trkpt>
      <trkpt lat="47.78046" lon="2.34459">
        <ele>247.65</ele>
        <time>2022-05-23T10:06:51Z</time>
      </trkpt>
      <trkpt lat="47.78054" lon="2.34451">
        <ele>247.49</ele>
        <time>2022-05-23T10:06:53Z</time>
      </trkpt>
      <trkpt lat="47.78062" lon="2.34442">
        <ele>247.69</ele>
        <time>2022-05-23T10:06:55Z</time>
      </trkpt>
      <trkpt lat="47.7807" lon="2.34434">
        <ele>247.74</ele>
        <time>2022-05-23T10:06:57Z</time>
      </trkpt>
      <trkpt lat="47.78079" lon="2.34426">
        <ele>247.55</ele>
        <time>2022-05-23T10:06:59Z</time>
      </trkpt>
      <trkpt lat="47.78087" lon="2.34417">
        <ele>247.35</ele>
        <time>2022-05-23T10:07:01Z</time>
      </trkpt>
      <trkpt lat="47.78095" lon="2.34408">
        <ele>247.69</ele>
        <time>2022-05-23T10:07:03Z</time>
      </trkpt>
      <trkpt lat="47.78104" lon="2.34399">
        <ele>247.52</ele>
        <time>2022-05-23T10:07:05Z</time>
      </trkpt>
      <trkpt lat="47.78113" lon="2.3439">
        <ele>247.44</ele>
        <time>2022-05-23T10:07:07Z</time>
      </trkpt>
      <trkpt lat="47.78122" lon="2.34383">
        <ele>247.31</ele>
        <time>2022-05-23T10:07:09Z</time>
      </trkpt>
      <trkpt lat="47.78129" lon="2.34375">
        <ele>247.5</ele>
        <time>2022-05-23T10:07:11Z</time>
      </trkpt>
      <trkpt lat="47.78138" lon="2.34367">
        <ele>247.28</ele>
        <time>2022-05-23T10:07:13Z</time>
      </trkpt>
      <trkpt lat="47.78146" lon="2.34358">
        <ele>247.48</ele>
        <time>2022-05-23T10:07:15Z</time>
      </trkpt>
      <trkpt lat="47.78154" lon="2.3435">
        <ele>247.74</ele>
        <time>2022-05-23T10:07:17Z</time>
      </trkpt>
      <trkpt lat="47.78162" lon="2.34342">
        <ele>247.74</ele>
        <time>2022-05-23T10:07:19Z</time>
      </trkpt>
      <trkpt lat="47.78169" lon="2.34334">
        <ele>247.69</ele>
        <time>2022-05-23T10:07:21Z</time>
      </trkpt>
      <trkpt lat="47.78177" lon="2.34326">
        <ele>247.74</ele>
        <time>2022-05-23T10:07:23Z</time>
      </trkpt>
      <trkpt lat="47.78184" lon="2.34317">
        <ele>247.58</ele>
        <time>2022-05-23T10:07:25Z</time>
      </trkpt>
      <trkpt lat="47.78192" lon="2.34308">
        <ele>247.52</ele>
        <time>2022-05-23T10:07:27Z</time>
      </trkpt>
      <trkpt lat="47.782" lon="2.34298">
        <ele>247.31</ele>
        <time>2022-05-23T10:07:29Z</time>
      </trkpt>
      <trkpt lat="47.78208" lon="2.34289">
        <ele>247.18</ele>
        <time>2022-05-23T10:07:31Z</time>
      </trkpt>
      <trkpt lat="47.78216" lon="2.34279">
        <ele>247.43</ele>
        <time>2022-05-23T10:07:33Z</time>
      </trkpt>
      <trkpt lat="47.78224" lon="2.3427">
        <ele>247.61</ele>
        <time>2022-05-23T10:07:35Z</time>
      </trkpt>
      <trkpt lat="47.78231" lon="2.34261">
        <ele>247.48</ele>
        <time>2022-05-23T10:07:37Z</time>
      </trkpt>
      <trkpt lat="47.78239" lon="2.34251">
        <ele>247.58</ele>
        <time>2022-05-23T10:07:39Z</time>
      </trkpt>
      <trkpt lat="47.78246" lon="2.3424">
        <ele>247.47</ele>
        <time>2022-05-23T10:07:41Z</time>
      </trkpt>
      <trkpt lat="47.78254" lon="2.3423">
        <ele>247.46</ele>
        <time>2022-05-23T10:07:43Z</time>
      </trkpt>
      <trkpt lat="47.78262" lon="2.34221">
        <ele>247.48</ele>
        <time>2022-05-23T10:07:45Z</time>
      </trkpt>
      <trkpt lat="47.7827" lon="2.3421">
        <ele>247.43</ele>
        <time>2022-05-23T10:07:47Z</time>
      </trkpt>
      <trkpt lat="47.78277" lon="2.34201">
        <ele>247.56</ele>
        <time>2022-05-23T10:07:49Z</time>
      </trkpt>
      <trkpt lat="47.78285" lon="2.3419">
        <ele>247.76</ele>
        <time>2022-05-23T10:07:51Z</time>
      </trkpt>
      <trkpt lat="47.78292" lon="2.3418">
        <ele>247.79</ele>
        <time>2022-05-23T10:07:53Z</time>
      </trkpt>
      <trkpt lat="47.783" lon="2.3417">
        <ele>247.84</ele>
        <time>2022-05-23T10:07:55Z</time>
      </trkpt>
      <trkpt lat="47.78307" lon="2.3416">
        <ele>248.1</ele>
        <time>2022-05-23T10:07:57Z</time>
      </trkpt>
      <trkpt lat="47.78315" lon="2.34151">
        <ele>248.25</ele>
        <time>2022-05-23T10:07:59Z</time>
      </trkpt>
      <trkpt lat="47.78321" lon="2.34142">
        <ele>248.27</ele>
        <time>2022-05-23T10:08:01Z</time>
      </trkpt>
      <trkpt lat="47.78328" lon="2.34133">
        <ele>248.38</ele>
        <time>2022-05-23T10:08:03Z</time>
      </trkpt>
      <trkpt lat="47.78335" lon="2.34124">
        <ele>248.58</ele>
        <time>2022-05-23T10:08:05Z</time>
      </trkpt>
      <trkpt lat="47.78346" lon="2.34111">
        <ele>248.1</ele>
        <time>2022-05-23T10:08:08Z</time>
      </trkpt>
      <trkpt lat="47.78354" lon="2.341">
        <ele>247.86</ele>
        <time>2022-05-23T10:08:10Z</time>
      </trkpt>
      <trkpt lat="47.78361" lon="2.34089">
        <ele>247.95</ele>
        <time>2022-05-23T10:08:12Z</time>
      </trkpt>
      <trkpt lat="47.78369" lon="2.34078">
        <ele>247.86</ele>
        <time>2022-05-23T10:08:14Z</time>
      </trkpt>
      <trkpt lat="47.78376" lon="2.34067">
        <ele>247.75</ele>
        <time>2022-05-23T10:08:16Z</time>
      </trkpt>
      <trkpt lat="47.78383" lon="2.34057">
        <ele>247.86</ele>
        <time>2022-05-23T10:08:18Z</time>
      </trkpt>
      <trkpt lat="47.78389" lon="2.34046">
        <ele>247.73</ele>
        <time>2022-05-23T10:08:20Z</time>
      </trkpt>
      <trkpt lat="47.78396" lon="2.34035">
        <ele>247.89</ele>
        <time>2022-05-23T10:08:22Z</time>
      </trkpt>
      <trkpt lat="47.78403" lon="2.34024">
        <ele>247.94</ele>
        <time>2022-05-23T10:08:24Z</time>
      </trkpt>
      <trkpt lat="47.78412" lon="2.3401">
        <ele>247.39</ele>
        <time>2022-05-23T10:08:27Z</time>
      </trkpt>
      <trkpt lat="47.78421" lon="2.33995">
        <ele>247.45</ele>
        <time>2022-05-23T10:08:30Z</time>
      </trkpt>
      <trkpt lat="47.78427" lon="2.33985">
        <ele>247.31</ele>
        <time>2022-05-23T10:08:32Z</time>
      </trkpt>
      <trkpt lat="47.78433" lon="2.33975">
        <ele>247.02</ele>
        <time>2022-05-23T10:08:34Z</time>
      </trkpt>
      <trkpt lat="47.7844" lon="2.33964">
        <ele>246.83</ele>
        <time>2022-05-23T10:08:36Z</time>
      </trkpt>
      <trkpt lat="47.78446" lon="2.33954">
        <ele>246.8</ele>
        <time>2022-05-23T10:08:38Z</time>
      </trkpt>
      <trkpt lat="47.78453" lon="2.33942">
        <ele>246.78</ele>
        <time>2022-05-23T10:08:40Z</time>
      </trkpt>
      <trkpt lat="47.78459" lon="2.33932">
        <ele>246.64</ele>
        <time>2022-05-23T10:08:42Z</time>
      </trkpt>
      <trkpt lat="47.78466" lon="2.3392">
        <ele>246.63</ele>
        <time>2022-05-23T10:08:44Z</time>
      </trkpt>
      <trkpt lat="47.78473" lon="2.33909">
        <ele>246.62</ele>
        <time>2022-05-23T10:08:46Z</time>
      </trkpt>
      <trkpt lat="47.78477" lon="2.33896">
        <ele>246.43</ele>
        <time>2022-05-23T10:08:48Z</time>
      </trkpt>
      <trkpt lat="47.78482" lon="2.33885">
        <ele>246.37</ele>
        <time>2022-05-23T10:08:50Z</time>
      </trkpt>
      <trkpt lat="47.78488" lon="2.33874">
        <ele>246.59</ele>
        <time>2022-05-23T10:08:52Z</time>
      </trkpt>
      <trkpt lat="47.78494" lon="2.33864">
        <ele>246.7</ele>
        <time>2022-05-23T10:08:54Z</time>
      </trkpt>
      <trkpt lat="47.785" lon="2.33853">
        <ele>247.11</ele>
        <time>2022-05-23T10:08:56Z</time>
      </trkpt>
      <trkpt lat="47.78506" lon="2.33843">
        <ele>246.91</ele>
        <time>2022-05-23T10:08:58Z</time>
      </trkpt>
      <trkpt lat="47.78512" lon="2.33832">
        <ele>246.91</ele>
        <time>2022-05-23T10:09:00Z</time>
      </trkpt>
      <trkpt lat="47.78518" lon="2.33822">
        <ele>246.86</ele>
        <time>2022-05-23T10:09:02Z</time>
      </trkpt>
      <trkpt lat="47.78525" lon="2.3381">
        <ele>246.67</ele>
        <time>2022-05-23T10:09:04Z</time>
      </trkpt>
      <trkpt lat="47.78531" lon="2.33797">
        <ele>246.63</ele>
        <time>2022-05-23T10:09:06Z</time>
      </trkpt>
      <trkpt lat="47.78538" lon="2.33785">
        <ele>246.47</ele>
        <time>2022-05-23T10:09:08Z</time>
      </trkpt>
      <trkpt lat="47.78544" lon="2.33775">
        <ele>246.55</ele>
        <time>2022-05-23T10:09:10Z</time>
      </trkpt>
      <trkpt lat="47.7855" lon="2.33764">
        <ele>246.49</ele>
        <time>2022-05-23T10:09:12Z</time>
      </trkpt>
      <trkpt lat="47.78556" lon="2.33754">
        <ele>246.42</ele>
        <time>2022-05-23T10:09:14Z</time>
      </trkpt>
      <trkpt lat="47.78562" lon="2.33743">
        <ele>246.31</ele>
        <time>2022-05-23T10:09:16Z</time>
      </trkpt>
      <trkpt lat="47.78568" lon="2.33732">
        <ele>246.43</ele>
        <time>2022-05-23T10:09:18Z</time>
      </trkpt>
      <trkpt lat="47.78574" lon="2.33721">
        <ele>246.58</ele>
        <time>2022-05-23T10:09:20Z</time>
      </trkpt>
      <trkpt lat="47.7858" lon="2.3371">
        <ele>246.91</ele>
        <time>2022-05-23T10:09:22Z</time>
      </trkpt>
      <trkpt lat="47.78586" lon="2.33699">
        <ele>247.09</ele>
        <time>2022-05-23T10:09:24Z</time>
      </trkpt>
      <trkpt lat="47.78592" lon="2.33688">
        <ele>246.96</ele>
        <time>2022-05-23T10:09:26Z</time>
      </trkpt>
      <trkpt lat="47.78599" lon="2.33677">
        <ele>246.81</ele>
        <time>2022-05-23T10:09:28Z</time>
      </trkpt>
      <trkpt lat="47.78607" lon="2.33667">
        <ele>246.71</ele>
        <time>2022-05-23T10:09:30Z</time>
      </trkpt>
      <trkpt lat="47.78613" lon="2.33657">
        <ele>246.14</ele>
        <time>2022-05-23T10:09:32Z</time>
      </trkpt>
      <trkpt lat="47.7862" lon="2.33645">
        <ele>245.98</ele>
        <time>2022-05-23T10:09:34Z</time>
      </trkpt>
      <trkpt lat="47.78626" lon="2.33633">
        <ele>246.15</ele>
        <time>2022-05-23T10:09:36Z</time>
      </trkpt>
      <trkpt lat="47.78632" lon="2.33623">
        <ele>246.24</ele>
        <time>2022-05-23T10:09:38Z</time>
      </trkpt>
      <trkpt lat="47.78641" lon="2.33607">
        <ele>246.29</ele>
        <time>2022-05-23T10:09:41Z</time>
      </trkpt>
      <trkpt lat="47.78646" lon="2.33597">
        <ele>246.66</ele>
        <time>2022-05-23T10:09:43Z</time>
      </trkpt>
      <trkpt lat="47.78654" lon="2.33582">
        <ele>247.05</ele>
        <time>2022-05-23T10:09:46Z</time>
      </trkpt>
      <trkpt lat="47.78662" lon="2.33568">
        <ele>247.08</ele>
        <time>2022-05-23T10:09:49Z</time>
      </trkpt>
      <trkpt lat="47.78668" lon="2.33555">
        <ele>247.1</ele>
        <time>2022-05-23T10:09:52Z</time>
      </trkpt>
      <trkpt lat="47.78675" lon="2.33542">
        <ele>246.95</ele>
        <time>2022-05-23T10:09:55Z</time>
      </trkpt>
      <trkpt lat="47.78681" lon="2.33529">
        <ele>247.02</ele>
        <time>2022-05-23T10:09:58Z</time>
      </trkpt>
      <trkpt lat="47.78688" lon="2.33518">
        <ele>247.22</ele>
        <time>2022-05-23T10:10:01Z</time>
      </trkpt>
      <trkpt lat="47.78694" lon="2.33506">
        <ele>247.02</ele>
        <time>2022-05-23T10:10:04Z</time>
      </trkpt>
      <trkpt lat="47.787" lon="2.33494">
        <ele>246.89</ele>
        <time>2022-05-23T10:10:07Z</time>
      </trkpt>
      <trkpt lat="47.78706" lon="2.33482">
        <ele>246.82</ele>
        <time>2022-05-23T10:10:10Z</time>
      </trkpt>
      <trkpt lat="47.78712" lon="2.33468">
        <ele>247.05</ele>
        <time>2022-05-23T10:10:13Z</time>
      </trkpt>
      <trkpt lat="47.7872" lon="2.33453">
        <ele>247.7</ele>
        <time>2022-05-23T10:10:16Z</time>
      </trkpt>
      <trkpt lat="47.78726" lon="2.33438">
        <ele>248.51</ele>
        <time>2022-05-23T10:10:19Z</time>
      </trkpt>
      <trkpt lat="47.78731" lon="2.33425">
        <ele>249.11</ele>
        <time>2022-05-23T10:10:23Z</time>
      </trkpt>
      <trkpt lat="47.78722" lon="2.33427">
        <ele>249.36</ele>
        <time>2022-05-23T10:10:30Z</time>
      </trkpt>
      <trkpt lat="47.78714" lon="2.33435">
        <ele>249.77</ele>
        <time>2022-05-23T10:10:37Z</time>
      </trkpt>
      <trkpt lat="47.78705" lon="2.33428">
        <ele>250.11</ele>
        <time>2022-05-23T10:11:02Z</time>
      </trkpt>
      <trkpt lat="47.78704" lon="2.33408">
        <ele>249.82</ele>
        <time>2022-05-23T10:11:07Z</time>
      </trkpt>
      <trkpt lat="47.78709" lon="2.33393">
        <ele>249.39</ele>
        <time>2022-05-23T10:11:11Z</time>
      </trkpt>
      <trkpt lat="47.78712" lon="2.33378">
        <ele>249.32</ele>
        <time>2022-05-23T10:11:15Z</time>
      </trkpt>
      <trkpt lat="47.78716" lon="2.33364">
        <ele>249.48</ele>
        <time>2022-05-23T10:11:18Z</time>
      </trkpt>
      <trkpt lat="47.78721" lon="2.33351">
        <ele>249.58</ele>
        <time>2022-05-23T10:11:21Z</time>
      </trkpt>
      <trkpt lat="47.78725" lon="2.33338">
        <ele>249.36</ele>
        <time>2022-05-23T10:11:24Z</time>
      </trkpt>
      <trkpt lat="47.7873" lon="2.33323">
        <ele>249.39</ele>
        <time>2022-05-23T10:11:27Z</time>
      </trkpt>
      <trkpt lat="47.78735" lon="2.33307">
        <ele>249.27</ele>
        <time>2022-05-23T10:11:30Z</time>
      </trkpt>
      <trkpt lat="47.78741" lon="2.33291">
        <ele>249.18</ele>
        <time>2022-05-23T10:11:33Z</time>
      </trkpt>
      <trkpt lat="47.78747" lon="2.33276">
        <ele>249.29</ele>
        <time>2022-05-23T10:11:36Z</time>
      </trkpt>
      <trkpt lat="47.78753" lon="2.33262">
        <ele>249.21</ele>
        <time>2022-05-23T10:11:39Z</time>
      </trkpt>
      <trkpt lat="47.78759" lon="2.33248">
        <ele>249.14</ele>
        <time>2022-05-23T10:11:42Z</time>
      </trkpt>
      <trkpt lat="47.78764" lon="2.33233">
        <ele>249.02</ele>
        <time>2022-05-23T10:11:45Z</time>
      </trkpt>
      <trkpt lat="47.78771" lon="2.33217">
        <ele>248.61</ele>
        <time>2022-05-23T10:11:48Z</time>
      </trkpt>
      <trkpt lat="47.78778" lon="2.33201">
        <ele>248.72</ele>
        <time>2022-05-23T10:11:51Z</time>
      </trkpt>
      <trkpt lat="47.78785" lon="2.33184">
        <ele>248.9</ele>
        <time>2022-05-23T10:11:54Z</time>
      </trkpt>
      <trkpt lat="47.7879" lon="2.33172">
        <ele>248.79</ele>
        <time>2022-05-23T10:11:56Z</time>
      </trkpt>
      <trkpt lat="47.78797" lon="2.33155">
        <ele>248.79</ele>
        <time>2022-05-23T10:11:59Z</time>
      </trkpt>
      <trkpt lat="47.78803" lon="2.3314">
        <ele>248.93</ele>
        <time>2022-05-23T10:12:02Z</time>
      </trkpt>
      <trkpt lat="47.7881" lon="2.33125">
        <ele>248.76</ele>
        <time>2022-05-23T10:12:05Z</time>
      </trkpt>
      <trkpt lat="47.78817" lon="2.33109">
        <ele>249.11</ele>
        <time>2022-05-23T10:12:08Z</time>
      </trkpt>
      <trkpt lat="47.78824" lon="2.33093">
        <ele>249.39</ele>
        <time>2022-05-23T10:12:11Z</time>
      </trkpt>
      <trkpt lat="47.78831" lon="2.33077">
        <ele>249.57</ele>
        <time>2022-05-23T10:12:14Z</time>
      </trkpt>
      <trkpt lat="47.78837" lon="2.33063">
        <ele>249.22</ele>
        <time>2022-05-23T10:12:17Z</time>
      </trkpt>
      <trkpt lat="47.78843" lon="2.33048">
        <ele>248.92</ele>
        <time>2022-05-23T10:12:20Z</time>
      </trkpt>
      <trkpt lat="47.7885" lon="2.33034">
        <ele>248.92</ele>
        <time>2022-05-23T10:12:23Z</time>
      </trkpt>
      <trkpt lat="47.78856" lon="2.33018">
        <ele>249.24</ele>
        <time>2022-05-23T10:12:26Z</time>
      </trkpt>
      <trkpt lat="47.78863" lon="2.33002">
        <ele>249.44</ele>
        <time>2022-05-23T10:12:29Z</time>
      </trkpt>
      <trkpt lat="47.7887" lon="2.32987">
        <ele>249.14</ele>
        <time>2022-05-23T10:12:32Z</time>
      </trkpt>
      <trkpt lat="47.78876" lon="2.32971">
        <ele>248.73</ele>
        <time>2022-05-23T10:12:35Z</time>
      </trkpt>
      <trkpt lat="47.78883" lon="2.32955">
        <ele>248.73</ele>
        <time>2022-05-23T10:12:38Z</time>
      </trkpt>
      <trkpt lat="47.78889" lon="2.3294">
        <ele>248.22</ele>
        <time>2022-05-23T10:12:41Z</time>
      </trkpt>
      <trkpt lat="47.78896" lon="2.32925">
        <ele>247.81</ele>
        <time>2022-05-23T10:12:44Z</time>
      </trkpt>
      <trkpt lat="47.78903" lon="2.32909">
        <ele>247.63</ele>
        <time>2022-05-23T10:12:47Z</time>
      </trkpt>
      <trkpt lat="47.7891" lon="2.32894">
        <ele>247.49</ele>
        <time>2022-05-23T10:12:50Z</time>
      </trkpt>
      <trkpt lat="47.78917" lon="2.32879">
        <ele>247.61</ele>
        <time>2022-05-23T10:12:53Z</time>
      </trkpt>
      <trkpt lat="47.78923" lon="2.32865">
        <ele>247.55</ele>
        <time>2022-05-23T10:12:56Z</time>
      </trkpt>
      <trkpt lat="47.78929" lon="2.32849">
        <ele>247.45</ele>
        <time>2022-05-23T10:12:59Z</time>
      </trkpt>
      <trkpt lat="47.78936" lon="2.32835">
        <ele>247.29</ele>
        <time>2022-05-23T10:13:02Z</time>
      </trkpt>
      <trkpt lat="47.78943" lon="2.32819">
        <ele>247.21</ele>
        <time>2022-05-23T10:13:05Z</time>
      </trkpt>
      <trkpt lat="47.7895" lon="2.32803">
        <ele>247.45</ele>
        <time>2022-05-23T10:13:08Z</time>
      </trkpt>
      <trkpt lat="47.78957" lon="2.32787">
        <ele>247.68</ele>
        <time>2022-05-23T10:13:11Z</time>
      </trkpt>
      <trkpt lat="47.78963" lon="2.32772">
        <ele>248.07</ele>
        <time>2022-05-23T10:13:14Z</time>
      </trkpt>
      <trkpt lat="47.7897" lon="2.32757">
        <ele>248.64</ele>
        <time>2022-05-23T10:13:17Z</time>
      </trkpt>
      <trkpt lat="47.78976" lon="2.32742">
        <ele>249.12</ele>
        <time>2022-05-23T10:13:20Z</time>
      </trkpt>
      <trkpt lat="47.78981" lon="2.32727">
        <ele>249.53</ele>
        <time>2022-05-23T10:13:23Z</time>
      </trkpt>
      <trkpt lat="47.78987" lon="2.32711">
        <ele>249.94</ele>
        <time>2022-05-23T10:13:26Z</time>
      </trkpt>
      <trkpt lat="47.78992" lon="2.32694">
        <ele>249.86</ele>
        <time>2022-05-23T10:13:29Z</time>
      </trkpt>
      <trkpt lat="47.78996" lon="2.32678">
        <ele>249.97</ele>
        <time>2022-05-23T10:13:32Z</time>
      </trkpt>
      <trkpt lat="47.78999" lon="2.32661">
        <ele>250.11</ele>
        <time>2022-05-23T10:13:35Z</time>
      </trkpt>
      <trkpt lat="47.79002" lon="2.32644">
        <ele>250</ele>
        <time>2022-05-23T10:13:38Z</time>
      </trkpt>
      <trkpt lat="47.79005" lon="2.32627">
        <ele>249.57</ele>
        <time>2022-05-23T10:13:41Z</time>
      </trkpt>
      <trkpt lat="47.79008" lon="2.3261">
        <ele>249.29</ele>
        <time>2022-05-23T10:13:44Z</time>
      </trkpt>
      <trkpt lat="47.79012" lon="2.32594">
        <ele>249.04</ele>
        <time>2022-05-23T10:13:47Z</time>
      </trkpt>
      <trkpt lat="47.79015" lon="2.32577">
        <ele>248.97</ele>
        <time>2022-05-23T10:13:50Z</time>
      </trkpt>
      <trkpt lat="47.79019" lon="2.3256">
        <ele>249.07</ele>
        <time>2022-05-23T10:13:53Z</time>
      </trkpt>
      <trkpt lat="47.79022" lon="2.32543">
        <ele>248.87</ele>
        <time>2022-05-23T10:13:56Z</time>
      </trkpt>
      <trkpt lat="47.79026" lon="2.32524">
        <ele>248.57</ele>
        <time>2022-05-23T10:13:59Z</time>
      </trkpt>
      <trkpt lat="47.79029" lon="2.32506">
        <ele>248.37</ele>
        <time>2022-05-23T10:14:02Z</time>
      </trkpt>
      <trkpt lat="47.79033" lon="2.32487">
        <ele>248.36</ele>
        <time>2022-05-23T10:14:05Z</time>
      </trkpt>
      <trkpt lat="47.79037" lon="2.32469">
        <ele>248.23</ele>
        <time>2022-05-23T10:14:08Z</time>
      </trkpt>
      <trkpt lat="47.7904" lon="2.32452">
        <ele>248.26</ele>
        <time>2022-05-23T10:14:11Z</time>
      </trkpt>
      <trkpt lat="47.79044" lon="2.32435">
        <ele>248.4</ele>
        <time>2022-05-23T10:14:14Z</time>
      </trkpt>
      <trkpt lat="47.79048" lon="2.32419">
        <ele>248.32</ele>
        <time>2022-05-23T10:14:17Z</time>
      </trkpt>
      <trkpt lat="47.79052" lon="2.324">
        <ele>248.18</ele>
        <time>2022-05-23T10:14:20Z</time>
      </trkpt>
      <trkpt lat="47.79056" lon="2.32382">
        <ele>248.12</ele>
        <time>2022-05-23T10:14:23Z</time>
      </trkpt>
      <trkpt lat="47.79059" lon="2.32364">
        <ele>247.62</ele>
        <time>2022-05-23T10:14:26Z</time>
      </trkpt>
      <trkpt lat="47.79062" lon="2.32345">
        <ele>247.63</ele>
        <time>2022-05-23T10:14:29Z</time>
      </trkpt>
      <trkpt lat="47.79064" lon="2.32326">
        <ele>248.13</ele>
        <time>2022-05-23T10:14:32Z</time>
      </trkpt>
      <trkpt lat="47.79067" lon="2.32306">
        <ele>248.52</ele>
        <time>2022-05-23T10:14:35Z</time>
      </trkpt>
      <trkpt lat="47.79068" lon="2.32293">
        <ele>248.71</ele>
        <time>2022-05-23T10:14:37Z</time>
      </trkpt>
      <trkpt lat="47.7907" lon="2.32279">
        <ele>249.03</ele>
        <time>2022-05-23T10:14:39Z</time>
      </trkpt>
      <trkpt lat="47.79073" lon="2.32259">
        <ele>249.44</ele>
        <time>2022-05-23T10:14:42Z</time>
      </trkpt>
      <trkpt lat="47.79074" lon="2.32246">
        <ele>249.5</ele>
        <time>2022-05-23T10:14:44Z</time>
      </trkpt>
      <trkpt lat="47.79075" lon="2.32232">
        <ele>249.26</ele>
        <time>2022-05-23T10:14:46Z</time>
      </trkpt>
      <trkpt lat="47.79077" lon="2.32219">
        <ele>249.36</ele>
        <time>2022-05-23T10:14:48Z</time>
      </trkpt>
      <trkpt lat="47.79079" lon="2.32199">
        <ele>249.35</ele>
        <time>2022-05-23T10:14:51Z</time>
      </trkpt>
      <trkpt lat="47.7908" lon="2.3218">
        <ele>249.44</ele>
        <time>2022-05-23T10:14:54Z</time>
      </trkpt>
      <trkpt lat="47.79082" lon="2.32161">
        <ele>249.52</ele>
        <time>2022-05-23T10:14:57Z</time>
      </trkpt>
      <trkpt lat="47.79083" lon="2.32143">
        <ele>249.43</ele>
        <time>2022-05-23T10:15:00Z</time>
      </trkpt>
      <trkpt lat="47.79084" lon="2.32125">
        <ele>249.72</ele>
        <time>2022-05-23T10:15:03Z</time>
      </trkpt>
      <trkpt lat="47.79084" lon="2.32107">
        <ele>249.73</ele>
        <time>2022-05-23T10:15:06Z</time>
      </trkpt>
      <trkpt lat="47.79084" lon="2.32088">
        <ele>249.71</ele>
        <time>2022-05-23T10:15:09Z</time>
      </trkpt>
      <trkpt lat="47.79084" lon="2.3207">
        <ele>249.75</ele>
        <time>2022-05-23T10:15:12Z</time>
      </trkpt>
      <trkpt lat="47.79084" lon="2.32052">
        <ele>249.23</ele>
        <time>2022-05-23T10:15:15Z</time>
      </trkpt>
      <trkpt lat="47.79083" lon="2.32035">
        <ele>248.83</ele>
        <time>2022-05-23T10:15:18Z</time>
      </trkpt>
      <trkpt lat="47.79083" lon="2.32016">
        <ele>248.79</ele>
        <time>2022-05-23T10:15:21Z</time>
      </trkpt>
      <trkpt lat="47.79083" lon="2.31998">
        <ele>248.62</ele>
        <time>2022-05-23T10:15:24Z</time>
      </trkpt>
      <trkpt lat="47.79082" lon="2.31979">
        <ele>248.29</ele>
        <time>2022-05-23T10:15:27Z</time>
      </trkpt>
      <trkpt lat="47.79082" lon="2.3196">
        <ele>248.1</ele>
        <time>2022-05-23T10:15:30Z</time>
      </trkpt>
      <trkpt lat="47.79082" lon="2.31941">
        <ele>248.11</ele>
        <time>2022-05-23T10:15:33Z</time>
      </trkpt>
      <trkpt lat="47.79081" lon="2.31924">
        <ele>248.08</ele>
        <time>2022-05-23T10:15:36Z</time>
      </trkpt>
      <trkpt lat="47.79081" lon="2.31907">
        <ele>248.21</ele>
        <time>2022-05-23T10:15:39Z</time>
      </trkpt>
      <trkpt lat="47.7908" lon="2.31892">
        <ele>248.37</ele>
        <time>2022-05-23T10:15:42Z</time>
      </trkpt>
      <trkpt lat="47.79081" lon="2.31876">
        <ele>248.24</ele>
        <time>2022-05-23T10:15:46Z</time>
      </trkpt>
      <trkpt lat="47.79082" lon="2.31869">
        <ele>248.61</ele>
        <time>2022-05-23T10:17:47Z</time>
      </trkpt>
      <trkpt lat="47.7908" lon="2.31855">
        <ele>248.58</ele>
        <time>2022-05-23T10:17:57Z</time>
      </trkpt>
      <trkpt lat="47.79079" lon="2.31841">
        <ele>248.67</ele>
        <time>2022-05-23T10:18:00Z</time>
      </trkpt>
      <trkpt lat="47.79079" lon="2.31824">
        <ele>248.7</ele>
        <time>2022-05-23T10:18:03Z</time>
      </trkpt>
      <trkpt lat="47.79079" lon="2.31805">
        <ele>248.62</ele>
        <time>2022-05-23T10:18:06Z</time>
      </trkpt>
      <trkpt lat="47.79079" lon="2.31787">
        <ele>248.65</ele>
        <time>2022-05-23T10:18:09Z</time>
      </trkpt>
      <trkpt lat="47.7908" lon="2.31769">
        <ele>248.45</ele>
        <time>2022-05-23T10:18:12Z</time>
      </trkpt>
      <trkpt lat="47.7908" lon="2.3175">
        <ele>248.48</ele>
        <time>2022-05-23T10:18:15Z</time>
      </trkpt>
      <trkpt lat="47.79079" lon="2.31736">
        <ele>248.45</ele>
        <time>2022-05-23T10:18:17Z</time>
      </trkpt>
      <trkpt lat="47.79081" lon="2.31722">
        <ele>248.34</ele>
        <time>2022-05-23T10:18:19Z</time>
      </trkpt>
      <trkpt lat="47.79082" lon="2.31707">
        <ele>248.47</ele>
        <time>2022-05-23T10:18:21Z</time>
      </trkpt>
      <trkpt lat="47.79083" lon="2.31693">
        <ele>248.93</ele>
        <time>2022-05-23T10:18:23Z</time>
      </trkpt>
      <trkpt lat="47.79083" lon="2.31678">
        <ele>249.03</ele>
        <time>2022-05-23T10:18:25Z</time>
      </trkpt>
      <trkpt lat="47.79083" lon="2.31662">
        <ele>249.1</ele>
        <time>2022-05-23T10:18:27Z</time>
      </trkpt>
      <trkpt lat="47.79082" lon="2.31647">
        <ele>248.82</ele>
        <time>2022-05-23T10:18:29Z</time>
      </trkpt>
      <trkpt lat="47.79081" lon="2.31633">
        <ele>248.55</ele>
        <time>2022-05-23T10:18:31Z</time>
      </trkpt>
      <trkpt lat="47.7908" lon="2.31618">
        <ele>248.54</ele>
        <time>2022-05-23T10:18:33Z</time>
      </trkpt>
      <trkpt lat="47.79078" lon="2.31604">
        <ele>248.3</ele>
        <time>2022-05-23T10:18:35Z</time>
      </trkpt>
      <trkpt lat="47.79076" lon="2.31591">
        <ele>248.23</ele>
        <time>2022-05-23T10:18:37Z</time>
      </trkpt>
      <trkpt lat="47.79075" lon="2.31577">
        <ele>248.27</ele>
        <time>2022-05-23T10:18:39Z</time>
      </trkpt>
      <trkpt lat="47.79074" lon="2.31564">
        <ele>248.26</ele>
        <time>2022-05-23T10:18:41Z</time>
      </trkpt>
      <trkpt lat="47.79072" lon="2.3155">
        <ele>248.22</ele>
        <time>2022-05-23T10:18:43Z</time>
      </trkpt>
      <trkpt lat="47.79071" lon="2.31537">
        <ele>248.29</ele>
        <time>2022-05-23T10:18:45Z</time>
      </trkpt>
      <trkpt lat="47.79069" lon="2.31522">
        <ele>248.3</ele>
        <time>2022-05-23T10:18:47Z</time>
      </trkpt>
      <trkpt lat="47.79067" lon="2.31507">
        <ele>248.46</ele>
        <time>2022-05-23T10:18:49Z</time>
      </trkpt>
      <trkpt lat="47.79065" lon="2.31491">
        <ele>248.63</ele>
        <time>2022-05-23T10:18:51Z</time>
      </trkpt>
      <trkpt lat="47.79064" lon="2.31476">
        <ele>248.54</ele>
        <time>2022-05-23T10:18:53Z</time>
      </trkpt>
      <trkpt lat="47.79062" lon="2.31454">
        <ele>248.18</ele>
        <time>2022-05-23T10:18:56Z</time>
      </trkpt>
      <trkpt lat="47.7906" lon="2.31439">
        <ele>248.28</ele>
        <time>2022-05-23T10:18:58Z</time>
      </trkpt>
      <trkpt lat="47.79059" lon="2.31424">
        <ele>248.02</ele>
        <time>2022-05-23T10:19:00Z</time>
      </trkpt>
      <trkpt lat="47.79058" lon="2.3141">
        <ele>248.13</ele>
        <time>2022-05-23T10:19:02Z</time>
      </trkpt>
      <trkpt lat="47.79057" lon="2.31395">
        <ele>248.08</ele>
        <time>2022-05-23T10:19:04Z</time>
      </trkpt>
      <trkpt lat="47.79056" lon="2.3138">
        <ele>248.03</ele>
        <time>2022-05-23T10:19:06Z</time>
      </trkpt>
      <trkpt lat="47.79056" lon="2.31367">
        <ele>247.98</ele>
        <time>2022-05-23T10:19:08Z</time>
      </trkpt>
      <trkpt lat="47.79055" lon="2.31353">
        <ele>247.83</ele>
        <time>2022-05-23T10:19:10Z</time>
      </trkpt>
      <trkpt lat="47.79054" lon="2.3134">
        <ele>247.85</ele>
        <time>2022-05-23T10:19:12Z</time>
      </trkpt>
      <trkpt lat="47.79053" lon="2.31326">
        <ele>247.72</ele>
        <time>2022-05-23T10:19:14Z</time>
      </trkpt>
      <trkpt lat="47.79052" lon="2.31313">
        <ele>247.53</ele>
        <time>2022-05-23T10:19:16Z</time>
      </trkpt>
      <trkpt lat="47.79051" lon="2.31299">
        <ele>247.68</ele>
        <time>2022-05-23T10:19:18Z</time>
      </trkpt>
      <trkpt lat="47.7905" lon="2.31286">
        <ele>247.69</ele>
        <time>2022-05-23T10:19:20Z</time>
      </trkpt>
      <trkpt lat="47.79049" lon="2.31267">
        <ele>247.95</ele>
        <time>2022-05-23T10:19:23Z</time>
      </trkpt>
      <trkpt lat="47.79048" lon="2.31247">
        <ele>248.22</ele>
        <time>2022-05-23T10:19:26Z</time>
      </trkpt>
      <trkpt lat="47.79046" lon="2.31228">
        <ele>248.25</ele>
        <time>2022-05-23T10:19:29Z</time>
      </trkpt>
      <trkpt lat="47.79045" lon="2.31207">
        <ele>248.07</ele>
        <time>2022-05-23T10:19:32Z</time>
      </trkpt>
      <trkpt lat="47.79044" lon="2.31194">
        <ele>248.02</ele>
        <time>2022-05-23T10:19:34Z</time>
      </trkpt>
      <trkpt lat="47.79043" lon="2.31181">
        <ele>247.94</ele>
        <time>2022-05-23T10:19:36Z</time>
      </trkpt>
      <trkpt lat="47.79042" lon="2.31167">
        <ele>247.84</ele>
        <time>2022-05-23T10:19:38Z</time>
      </trkpt>
      <trkpt lat="47.7904" lon="2.31148">
        <ele>247.83</ele>
        <time>2022-05-23T10:19:41Z</time>
      </trkpt>
      <trkpt lat="47.79039" lon="2.31129">
        <ele>247.8</ele>
        <time>2022-05-23T10:19:44Z</time>
      </trkpt>
      <trkpt lat="47.79037" lon="2.31109">
        <ele>247.63</ele>
        <time>2022-05-23T10:19:47Z</time>
      </trkpt>
      <trkpt lat="47.79036" lon="2.31096">
        <ele>247.7</ele>
        <time>2022-05-23T10:19:49Z</time>
      </trkpt>
      <trkpt lat="47.79035" lon="2.31082">
        <ele>247.74</ele>
        <time>2022-05-23T10:19:51Z</time>
      </trkpt>
      <trkpt lat="47.79033" lon="2.31062">
        <ele>247.3</ele>
        <time>2022-05-23T10:19:54Z</time>
      </trkpt>
      <trkpt lat="47.79032" lon="2.31048">
        <ele>247.13</ele>
        <time>2022-05-23T10:19:56Z</time>
      </trkpt>
      <trkpt lat="47.79032" lon="2.31034">
        <ele>247.25</ele>
        <time>2022-05-23T10:19:58Z</time>
      </trkpt>
      <trkpt lat="47.79031" lon="2.3102">
        <ele>247.41</ele>
        <time>2022-05-23T10:20:00Z</time>
      </trkpt>
      <trkpt lat="47.7903" lon="2.31006">
        <ele>247.6</ele>
        <time>2022-05-23T10:20:02Z</time>
      </trkpt>
      <trkpt lat="47.79029" lon="2.30992">
        <ele>247.62</ele>
        <time>2022-05-23T10:20:04Z</time>
      </trkpt>
      <trkpt lat="47.79028" lon="2.30972">
        <ele>247.32</ele>
        <time>2022-05-23T10:20:07Z</time>
      </trkpt>
      <trkpt lat="47.79027" lon="2.30954">
        <ele>247.4</ele>
        <time>2022-05-23T10:20:10Z</time>
      </trkpt>
      <trkpt lat="47.79026" lon="2.30935">
        <ele>247.6</ele>
        <time>2022-05-23T10:20:13Z</time>
      </trkpt>
      <trkpt lat="47.79025" lon="2.30917">
        <ele>247.91</ele>
        <time>2022-05-23T10:20:16Z</time>
      </trkpt>
      <trkpt lat="47.79024" lon="2.30898">
        <ele>247.7</ele>
        <time>2022-05-23T10:20:19Z</time>
      </trkpt>
      <trkpt lat="47.79023" lon="2.30884">
        <ele>247.73</ele>
        <time>2022-05-23T10:20:21Z</time>
      </trkpt>
      <trkpt lat="47.79022" lon="2.30871">
        <ele>247.73</ele>
        <time>2022-05-23T10:20:23Z</time>
      </trkpt>
      <trkpt lat="47.79022" lon="2.30857">
        <ele>247.75</ele>
        <time>2022-05-23T10:20:25Z</time>
      </trkpt>
      <trkpt lat="47.79021" lon="2.30843">
        <ele>247.69</ele>
        <time>2022-05-23T10:20:27Z</time>
      </trkpt>
      <trkpt lat="47.7902" lon="2.30829">
        <ele>247.69</ele>
        <time>2022-05-23T10:20:29Z</time>
      </trkpt>
      <trkpt lat="47.7902" lon="2.30815">
        <ele>247.32</ele>
        <time>2022-05-23T10:20:31Z</time>
      </trkpt>
      <trkpt lat="47.7902" lon="2.30801">
        <ele>247.23</ele>
        <time>2022-05-23T10:20:33Z</time>
      </trkpt>
      <trkpt lat="47.79019" lon="2.30788">
        <ele>247.29</ele>
        <time>2022-05-23T10:20:35Z</time>
      </trkpt>
      <trkpt lat="47.79018" lon="2.30774">
        <ele>247.35</ele>
        <time>2022-05-23T10:20:37Z</time>
      </trkpt>
      <trkpt lat="47.79016" lon="2.30754">
        <ele>247.45</ele>
        <time>2022-05-23T10:20:40Z</time>
      </trkpt>
      <trkpt lat="47.79014" lon="2.30741">
        <ele>247.26</ele>
        <time>2022-05-23T10:20:42Z</time>
      </trkpt>
      <trkpt lat="47.79013" lon="2.30726">
        <ele>247.1</ele>
        <time>2022-05-23T10:20:44Z</time>
      </trkpt>
      <trkpt lat="47.79011" lon="2.30712">
        <ele>246.99</ele>
        <time>2022-05-23T10:20:46Z</time>
      </trkpt>
      <trkpt lat="47.7901" lon="2.30698">
        <ele>246.91</ele>
        <time>2022-05-23T10:20:48Z</time>
      </trkpt>
      <trkpt lat="47.7901" lon="2.30683">
        <ele>246.71</ele>
        <time>2022-05-23T10:20:50Z</time>
      </trkpt>
      <trkpt lat="47.79011" lon="2.30669">
        <ele>246.83</ele>
        <time>2022-05-23T10:20:52Z</time>
      </trkpt>
      <trkpt lat="47.79012" lon="2.30654">
        <ele>247.01</ele>
        <time>2022-05-23T10:20:54Z</time>
      </trkpt>
      <trkpt lat="47.79013" lon="2.30639">
        <ele>247.1</ele>
        <time>2022-05-23T10:20:56Z</time>
      </trkpt>
      <trkpt lat="47.79014" lon="2.30623">
        <ele>246.89</ele>
        <time>2022-05-23T10:20:58Z</time>
      </trkpt>
      <trkpt lat="47.79016" lon="2.30608">
        <ele>246.69</ele>
        <time>2022-05-23T10:21:00Z</time>
      </trkpt>
      <trkpt lat="47.79018" lon="2.30592">
        <ele>246.77</ele>
        <time>2022-05-23T10:21:02Z</time>
      </trkpt>
      <trkpt lat="47.7902" lon="2.30577">
        <ele>246.75</ele>
        <time>2022-05-23T10:21:04Z</time>
      </trkpt>
      <trkpt lat="47.7902" lon="2.30563">
        <ele>246.88</ele>
        <time>2022-05-23T10:21:06Z</time>
      </trkpt>
      <trkpt lat="47.79021" lon="2.30548">
        <ele>246.86</ele>
        <time>2022-05-23T10:21:08Z</time>
      </trkpt>
      <trkpt lat="47.79022" lon="2.30532">
        <ele>246.92</ele>
        <time>2022-05-23T10:21:10Z</time>
      </trkpt>
      <trkpt lat="47.79022" lon="2.30518">
        <ele>246.79</ele>
        <time>2022-05-23T10:21:12Z</time>
      </trkpt>
      <trkpt lat="47.79022" lon="2.30499">
        <ele>246.84</ele>
        <time>2022-05-23T10:21:15Z</time>
      </trkpt>
      <trkpt lat="47.79022" lon="2.30479">
        <ele>246.66</ele>
        <time>2022-05-23T10:21:18Z</time>
      </trkpt>
      <trkpt lat="47.79022" lon="2.30465">
        <ele>246.7</ele>
        <time>2022-05-23T10:21:20Z</time>
      </trkpt>
      <trkpt lat="47.79022" lon="2.30446">
        <ele>246.78</ele>
        <time>2022-05-23T10:21:23Z</time>
      </trkpt>
      <trkpt lat="47.79022" lon="2.30428">
        <ele>246.61</ele>
        <time>2022-05-23T10:21:26Z</time>
      </trkpt>
      <trkpt lat="47.79021" lon="2.30409">
        <ele>246.29</ele>
        <time>2022-05-23T10:21:29Z</time>
      </trkpt>
      <trkpt lat="47.79019" lon="2.30389">
        <ele>246.31</ele>
        <time>2022-05-23T10:21:32Z</time>
      </trkpt>
      <trkpt lat="47.79017" lon="2.3037">
        <ele>246.02</ele>
        <time>2022-05-23T10:21:35Z</time>
      </trkpt>
      <trkpt lat="47.79016" lon="2.30352">
        <ele>246.17</ele>
        <time>2022-05-23T10:21:38Z</time>
      </trkpt>
      <trkpt lat="47.79014" lon="2.30334">
        <ele>246.35</ele>
        <time>2022-05-23T10:21:41Z</time>
      </trkpt>
      <trkpt lat="47.79011" lon="2.30315">
        <ele>246.72</ele>
        <time>2022-05-23T10:21:44Z</time>
      </trkpt>
      <trkpt lat="47.79009" lon="2.30297">
        <ele>246.58</ele>
        <time>2022-05-23T10:21:47Z</time>
      </trkpt>
      <trkpt lat="47.79007" lon="2.30278">
        <ele>246.92</ele>
        <time>2022-05-23T10:21:50Z</time>
      </trkpt>
      <trkpt lat="47.79005" lon="2.3026">
        <ele>247.23</ele>
        <time>2022-05-23T10:21:53Z</time>
      </trkpt>
      <trkpt lat="47.79003" lon="2.30242">
        <ele>247.27</ele>
        <time>2022-05-23T10:21:56Z</time>
      </trkpt>
      <trkpt lat="47.79001" lon="2.30224">
        <ele>247.04</ele>
        <time>2022-05-23T10:21:59Z</time>
      </trkpt>
      <trkpt lat="47.79" lon="2.30206">
        <ele>247.1</ele>
        <time>2022-05-23T10:22:02Z</time>
      </trkpt>
      <trkpt lat="47.78998" lon="2.30188">
        <ele>247.14</ele>
        <time>2022-05-23T10:22:05Z</time>
      </trkpt>
      <trkpt lat="47.78996" lon="2.30169">
        <ele>247.4</ele>
        <time>2022-05-23T10:22:08Z</time>
      </trkpt>
      <trkpt lat="47.78995" lon="2.3015">
        <ele>247.59</ele>
        <time>2022-05-23T10:22:11Z</time>
      </trkpt>
      <trkpt lat="47.78993" lon="2.30131">
        <ele>247.84</ele>
        <time>2022-05-23T10:22:14Z</time>
      </trkpt>
      <trkpt lat="47.78992" lon="2.30112">
        <ele>248.23</ele>
        <time>2022-05-23T10:22:17Z</time>
      </trkpt>
      <trkpt lat="47.78993" lon="2.30093">
        <ele>247.76</ele>
        <time>2022-05-23T10:22:20Z</time>
      </trkpt>
      <trkpt lat="47.78993" lon="2.30079">
        <ele>247.68</ele>
        <time>2022-05-23T10:22:22Z</time>
      </trkpt>
      <trkpt lat="47.78994" lon="2.30065">
        <ele>247.71</ele>
        <time>2022-05-23T10:22:24Z</time>
      </trkpt>
      <trkpt lat="47.78997" lon="2.30046">
        <ele>247.72</ele>
        <time>2022-05-23T10:22:27Z</time>
      </trkpt>
      <trkpt lat="47.79001" lon="2.30028">
        <ele>247.9</ele>
        <time>2022-05-23T10:22:30Z</time>
      </trkpt>
      <trkpt lat="47.79005" lon="2.30009">
        <ele>247.97</ele>
        <time>2022-05-23T10:22:33Z</time>
      </trkpt>
      <trkpt lat="47.79009" lon="2.29997">
        <ele>247.75</ele>
        <time>2022-05-23T10:22:35Z</time>
      </trkpt>
      <trkpt lat="47.79014" lon="2.29979">
        <ele>247.8</ele>
        <time>2022-05-23T10:22:38Z</time>
      </trkpt>
      <trkpt lat="47.79019" lon="2.29961">
        <ele>248.07</ele>
        <time>2022-05-23T10:22:41Z</time>
      </trkpt>
      <trkpt lat="47.79022" lon="2.29948">
        <ele>248.11</ele>
        <time>2022-05-23T10:22:43Z</time>
      </trkpt>
      <trkpt lat="47.79026" lon="2.29935">
        <ele>248.37</ele>
        <time>2022-05-23T10:22:45Z</time>
      </trkpt>
      <trkpt lat="47.7903" lon="2.29922">
        <ele>248.1</ele>
        <time>2022-05-23T10:22:47Z</time>
      </trkpt>
      <trkpt lat="47.79034" lon="2.29909">
        <ele>248.09</ele>
        <time>2022-05-23T10:22:49Z</time>
      </trkpt>
      <trkpt lat="47.7904" lon="2.29891">
        <ele>248.26</ele>
        <time>2022-05-23T10:22:52Z</time>
      </trkpt>
      <trkpt lat="47.79044" lon="2.29879">
        <ele>248.3</ele>
        <time>2022-05-23T10:22:54Z</time>
      </trkpt>
      <trkpt lat="47.79048" lon="2.29866">
        <ele>248.51</ele>
        <time>2022-05-23T10:22:56Z</time>
      </trkpt>
      <trkpt lat="47.79052" lon="2.29854">
        <ele>248.75</ele>
        <time>2022-05-23T10:22:58Z</time>
      </trkpt>
      <trkpt lat="47.79056" lon="2.29841">
        <ele>248.65</ele>
        <time>2022-05-23T10:23:00Z</time>
      </trkpt>
      <trkpt lat="47.79059" lon="2.29829">
        <ele>248.43</ele>
        <time>2022-05-23T10:23:02Z</time>
      </trkpt>
      <trkpt lat="47.79065" lon="2.29813">
        <ele>248.6</ele>
        <time>2022-05-23T10:23:05Z</time>
      </trkpt>
      <trkpt lat="47.79071" lon="2.29796">
        <ele>248.41</ele>
        <time>2022-05-23T10:23:08Z</time>
      </trkpt>
      <trkpt lat="47.79078" lon="2.2978">
        <ele>248.44</ele>
        <time>2022-05-23T10:23:11Z</time>
      </trkpt>
      <trkpt lat="47.79084" lon="2.29764">
        <ele>248.13</ele>
        <time>2022-05-23T10:23:14Z</time>
      </trkpt>
      <trkpt lat="47.79091" lon="2.29747">
        <ele>247.99</ele>
        <time>2022-05-23T10:23:17Z</time>
      </trkpt>
      <trkpt lat="47.79096" lon="2.29736">
        <ele>247.66</ele>
        <time>2022-05-23T10:23:19Z</time>
      </trkpt>
      <trkpt lat="47.79102" lon="2.29724">
        <ele>247.71</ele>
        <time>2022-05-23T10:23:21Z</time>
      </trkpt>
      <trkpt lat="47.79108" lon="2.29713">
        <ele>247.89</ele>
        <time>2022-05-23T10:23:23Z</time>
      </trkpt>
      <trkpt lat="47.79114" lon="2.29702">
        <ele>248.06</ele>
        <time>2022-05-23T10:23:25Z</time>
      </trkpt>
      <trkpt lat="47.79121" lon="2.29691">
        <ele>247.94</ele>
        <time>2022-05-23T10:23:27Z</time>
      </trkpt>
      <trkpt lat="47.7913" lon="2.29678">
        <ele>248.11</ele>
        <time>2022-05-23T10:23:30Z</time>
      </trkpt>
      <trkpt lat="47.79139" lon="2.29664">
        <ele>248.3</ele>
        <time>2022-05-23T10:23:33Z</time>
      </trkpt>
      <trkpt lat="47.79148" lon="2.2965">
        <ele>248.38</ele>
        <time>2022-05-23T10:23:36Z</time>
      </trkpt>
      <trkpt lat="47.79154" lon="2.2964">
        <ele>248.86</ele>
        <time>2022-05-23T10:23:38Z</time>
      </trkpt>
      <trkpt lat="47.7916" lon="2.29629">
        <ele>249.12</ele>
        <time>2022-05-23T10:23:40Z</time>
      </trkpt>
      <trkpt lat="47.79166" lon="2.29619">
        <ele>248.77</ele>
        <time>2022-05-23T10:23:42Z</time>
      </trkpt>
      <trkpt lat="47.79173" lon="2.2961">
        <ele>248.75</ele>
        <time>2022-05-23T10:23:44Z</time>
      </trkpt>
      <trkpt lat="47.79179" lon="2.296">
        <ele>248.88</ele>
        <time>2022-05-23T10:23:46Z</time>
      </trkpt>
      <trkpt lat="47.79186" lon="2.29591">
        <ele>248.9</ele>
        <time>2022-05-23T10:23:48Z</time>
      </trkpt>
      <trkpt lat="47.79196" lon="2.29579">
        <ele>248.66</ele>
        <time>2022-05-23T10:23:51Z</time>
      </trkpt>
      <trkpt lat="47.79203" lon="2.2957">
        <ele>248.35</ele>
        <time>2022-05-23T10:23:53Z</time>
      </trkpt>
      <trkpt lat="47.79214" lon="2.29558">
        <ele>248.35</ele>
        <time>2022-05-23T10:23:56Z</time>
      </trkpt>
      <trkpt lat="47.79221" lon="2.2955">
        <ele>248.36</ele>
        <time>2022-05-23T10:23:58Z</time>
      </trkpt>
      <trkpt lat="47.79232" lon="2.29539">
        <ele>248.58</ele>
        <time>2022-05-23T10:24:01Z</time>
      </trkpt>
      <trkpt lat="47.79243" lon="2.29528">
        <ele>248.69</ele>
        <time>2022-05-23T10:24:04Z</time>
      </trkpt>
      <trkpt lat="47.79255" lon="2.29518">
        <ele>248.71</ele>
        <time>2022-05-23T10:24:07Z</time>
      </trkpt>
      <trkpt lat="47.79263" lon="2.29512">
        <ele>248.68</ele>
        <time>2022-05-23T10:24:09Z</time>
      </trkpt>
      <trkpt lat="47.79271" lon="2.29505">
        <ele>248.59</ele>
        <time>2022-05-23T10:24:11Z</time>
      </trkpt>
      <trkpt lat="47.7928" lon="2.29499">
        <ele>248.68</ele>
        <time>2022-05-23T10:24:13Z</time>
      </trkpt>
      <trkpt lat="47.79289" lon="2.29493">
        <ele>248.79</ele>
        <time>2022-05-23T10:24:15Z</time>
      </trkpt>
      <trkpt lat="47.793" lon="2.29486">
        <ele>248.88</ele>
        <time>2022-05-23T10:24:18Z</time>
      </trkpt>
      <trkpt lat="47.79311" lon="2.29479">
        <ele>248.91</ele>
        <time>2022-05-23T10:24:21Z</time>
      </trkpt>
      <trkpt lat="47.79323" lon="2.29472">
        <ele>248.85</ele>
        <time>2022-05-23T10:24:24Z</time>
      </trkpt>
      <trkpt lat="47.79334" lon="2.29466">
        <ele>248.67</ele>
        <time>2022-05-23T10:24:27Z</time>
      </trkpt>
      <trkpt lat="47.79345" lon="2.29459">
        <ele>249.01</ele>
        <time>2022-05-23T10:24:30Z</time>
      </trkpt>
      <trkpt lat="47.79357" lon="2.29452">
        <ele>249.01</ele>
        <time>2022-05-23T10:24:33Z</time>
      </trkpt>
      <trkpt lat="47.79369" lon="2.29445">
        <ele>248.98</ele>
        <time>2022-05-23T10:24:36Z</time>
      </trkpt>
      <trkpt lat="47.7938" lon="2.29438">
        <ele>248.71</ele>
        <time>2022-05-23T10:24:39Z</time>
      </trkpt>
      <trkpt lat="47.79393" lon="2.2943">
        <ele>248.61</ele>
        <time>2022-05-23T10:24:42Z</time>
      </trkpt>
      <trkpt lat="47.79405" lon="2.29423">
        <ele>248.39</ele>
        <time>2022-05-23T10:24:45Z</time>
      </trkpt>
      <trkpt lat="47.79416" lon="2.29415">
        <ele>248.67</ele>
        <time>2022-05-23T10:24:48Z</time>
      </trkpt>
      <trkpt lat="47.79427" lon="2.29408">
        <ele>248.49</ele>
        <time>2022-05-23T10:24:51Z</time>
      </trkpt>
      <trkpt lat="47.79438" lon="2.29402">
        <ele>248.36</ele>
        <time>2022-05-23T10:24:54Z</time>
      </trkpt>
      <trkpt lat="47.79449" lon="2.29395">
        <ele>248.46</ele>
        <time>2022-05-23T10:24:57Z</time>
      </trkpt>
      <trkpt lat="47.79462" lon="2.29387">
        <ele>248.42</ele>
        <time>2022-05-23T10:25:00Z</time>
      </trkpt>
      <trkpt lat="47.7947" lon="2.29382">
        <ele>248.46</ele>
        <time>2022-05-23T10:25:02Z</time>
      </trkpt>
      <trkpt lat="47.79482" lon="2.29374">
        <ele>248.38</ele>
        <time>2022-05-23T10:25:05Z</time>
      </trkpt>
      <trkpt lat="47.79493" lon="2.29367">
        <ele>248.46</ele>
        <time>2022-05-23T10:25:08Z</time>
      </trkpt>
      <trkpt lat="47.79505" lon="2.2936">
        <ele>248.22</ele>
        <time>2022-05-23T10:25:11Z</time>
      </trkpt>
      <trkpt lat="47.79517" lon="2.29353">
        <ele>248.55</ele>
        <time>2022-05-23T10:25:14Z</time>
      </trkpt>
      <trkpt lat="47.79526" lon="2.29348">
        <ele>248.65</ele>
        <time>2022-05-23T10:25:16Z</time>
      </trkpt>
      <trkpt lat="47.79535" lon="2.29343">
        <ele>248.99</ele>
        <time>2022-05-23T10:25:18Z</time>
      </trkpt>
      <trkpt lat="47.79543" lon="2.29338">
        <ele>249.45</ele>
        <time>2022-05-23T10:25:20Z</time>
      </trkpt>
      <trkpt lat="47.79556" lon="2.29332">
        <ele>249.39</ele>
        <time>2022-05-23T10:25:23Z</time>
      </trkpt>
      <trkpt lat="47.79568" lon="2.29326">
        <ele>249.25</ele>
        <time>2022-05-23T10:25:26Z</time>
      </trkpt>
      <trkpt lat="47.79577" lon="2.29322">
        <ele>249.47</ele>
        <time>2022-05-23T10:25:28Z</time>
      </trkpt>
      <trkpt lat="47.79586" lon="2.29318">
        <ele>249.7</ele>
        <time>2022-05-23T10:25:30Z</time>
      </trkpt>
      <trkpt lat="47.79595" lon="2.29315">
        <ele>249.76</ele>
        <time>2022-05-23T10:25:32Z</time>
      </trkpt>
      <trkpt lat="47.79608" lon="2.2931">
        <ele>249.27</ele>
        <time>2022-05-23T10:25:35Z</time>
      </trkpt>
      <trkpt lat="47.79618" lon="2.29308">
        <ele>249.01</ele>
        <time>2022-05-23T10:25:37Z</time>
      </trkpt>
      <trkpt lat="47.79627" lon="2.29305">
        <ele>248.57</ele>
        <time>2022-05-23T10:25:39Z</time>
      </trkpt>
      <trkpt lat="47.79636" lon="2.29303">
        <ele>248.29</ele>
        <time>2022-05-23T10:25:41Z</time>
      </trkpt>
      <trkpt lat="47.79648" lon="2.293">
        <ele>247.97</ele>
        <time>2022-05-23T10:25:44Z</time>
      </trkpt>
      <trkpt lat="47.79661" lon="2.29297">
        <ele>247.98</ele>
        <time>2022-05-23T10:25:47Z</time>
      </trkpt>
      <trkpt lat="47.79673" lon="2.29295">
        <ele>247.42</ele>
        <time>2022-05-23T10:25:50Z</time>
      </trkpt>
      <trkpt lat="47.79686" lon="2.29291">
        <ele>247.55</ele>
        <time>2022-05-23T10:25:53Z</time>
      </trkpt>
      <trkpt lat="47.79699" lon="2.29289">
        <ele>247.56</ele>
        <time>2022-05-23T10:25:56Z</time>
      </trkpt>
      <trkpt lat="47.79712" lon="2.29287">
        <ele>247.7</ele>
        <time>2022-05-23T10:25:59Z</time>
      </trkpt>
      <trkpt lat="47.79725" lon="2.29285">
        <ele>247.34</ele>
        <time>2022-05-23T10:26:02Z</time>
      </trkpt>
      <trkpt lat="47.79738" lon="2.29282">
        <ele>247.33</ele>
        <time>2022-05-23T10:26:05Z</time>
      </trkpt>
      <trkpt lat="47.79747" lon="2.2928">
        <ele>247.28</ele>
        <time>2022-05-23T10:26:07Z</time>
      </trkpt>
      <trkpt lat="47.7976" lon="2.29279">
        <ele>247.49</ele>
        <time>2022-05-23T10:26:10Z</time>
      </trkpt>
      <trkpt lat="47.79773" lon="2.29279">
        <ele>247.37</ele>
        <time>2022-05-23T10:26:13Z</time>
      </trkpt>
      <trkpt lat="47.79783" lon="2.29278">
        <ele>247.4</ele>
        <time>2022-05-23T10:26:15Z</time>
      </trkpt>
      <trkpt lat="47.79796" lon="2.29278">
        <ele>247.3</ele>
        <time>2022-05-23T10:26:18Z</time>
      </trkpt>
      <trkpt lat="47.7981" lon="2.29279">
        <ele>246.65</ele>
        <time>2022-05-23T10:26:21Z</time>
      </trkpt>
      <trkpt lat="47.79819" lon="2.29281">
        <ele>246.55</ele>
        <time>2022-05-23T10:26:23Z</time>
      </trkpt>
      <trkpt lat="47.79829" lon="2.29284">
        <ele>246.14</ele>
        <time>2022-05-23T10:26:25Z</time>
      </trkpt>
      <trkpt lat="47.79838" lon="2.29287">
        <ele>245.89</ele>
        <time>2022-05-23T10:26:27Z</time>
      </trkpt>
      <trkpt lat="47.79851" lon="2.29292">
        <ele>246.1</ele>
        <time>2022-05-23T10:26:30Z</time>
      </trkpt>
      <trkpt lat="47.79861" lon="2.29295">
        <ele>246.28</ele>
        <time>2022-05-23T10:26:32Z</time>
      </trkpt>
      <trkpt lat="47.7987" lon="2.29298">
        <ele>246.79</ele>
        <time>2022-05-23T10:26:34Z</time>
      </trkpt>
      <trkpt lat="47.7988" lon="2.29301">
        <ele>246.8</ele>
        <time>2022-05-23T10:26:36Z</time>
      </trkpt>
      <trkpt lat="47.79893" lon="2.29307">
        <ele>247.08</ele>
        <time>2022-05-23T10:26:39Z</time>
      </trkpt>
      <trkpt lat="47.79905" lon="2.29311">
        <ele>247.74</ele>
        <time>2022-05-23T10:26:42Z</time>
      </trkpt>
      <trkpt lat="47.79918" lon="2.29316">
        <ele>247.89</ele>
        <time>2022-05-23T10:26:45Z</time>
      </trkpt>
      <trkpt lat="47.79932" lon="2.29322">
        <ele>248.11</ele>
        <time>2022-05-23T10:26:48Z</time>
      </trkpt>
      <trkpt lat="47.79941" lon="2.29325">
        <ele>248.23</ele>
        <time>2022-05-23T10:26:50Z</time>
      </trkpt>
      <trkpt lat="47.7995" lon="2.29328">
        <ele>248.19</ele>
        <time>2022-05-23T10:26:52Z</time>
      </trkpt>
      <trkpt lat="47.7996" lon="2.29331">
        <ele>247.65</ele>
        <time>2022-05-23T10:26:54Z</time>
      </trkpt>
      <trkpt lat="47.7997" lon="2.29334">
        <ele>247.74</ele>
        <time>2022-05-23T10:26:56Z</time>
      </trkpt>
      <trkpt lat="47.79979" lon="2.29336">
        <ele>247.64</ele>
        <time>2022-05-23T10:26:58Z</time>
      </trkpt>
      <trkpt lat="47.79989" lon="2.29338">
        <ele>247.58</ele>
        <time>2022-05-23T10:27:00Z</time>
      </trkpt>
      <trkpt lat="47.79998" lon="2.29339">
        <ele>247.74</ele>
        <time>2022-05-23T10:27:02Z</time>
      </trkpt>
      <trkpt lat="47.80011" lon="2.29342">
        <ele>247.52</ele>
        <time>2022-05-23T10:27:05Z</time>
      </trkpt>
      <trkpt lat="47.80024" lon="2.29343">
        <ele>247.58</ele>
        <time>2022-05-23T10:27:08Z</time>
      </trkpt>
      <trkpt lat="47.80037" lon="2.29345">
        <ele>247.56</ele>
        <time>2022-05-23T10:27:11Z</time>
      </trkpt>
      <trkpt lat="47.8005" lon="2.29347">
        <ele>247.42</ele>
        <time>2022-05-23T10:27:14Z</time>
      </trkpt>
      <trkpt lat="47.8006" lon="2.29348">
        <ele>247.2</ele>
        <time>2022-05-23T10:27:16Z</time>
      </trkpt>
      <trkpt lat="47.80069" lon="2.29349">
        <ele>247.32</ele>
        <time>2022-05-23T10:27:18Z</time>
      </trkpt>
      <trkpt lat="47.80081" lon="2.29351">
        <ele>247.24</ele>
        <time>2022-05-23T10:27:21Z</time>
      </trkpt>
      <trkpt lat="47.80093" lon="2.29353">
        <ele>247.39</ele>
        <time>2022-05-23T10:27:24Z</time>
      </trkpt>
      <trkpt lat="47.80105" lon="2.29357">
        <ele>247.26</ele>
        <time>2022-05-23T10:27:27Z</time>
      </trkpt>
      <trkpt lat="47.80117" lon="2.29363">
        <ele>247.05</ele>
        <time>2022-05-23T10:27:30Z</time>
      </trkpt>
      <trkpt lat="47.80127" lon="2.29372">
        <ele>247.12</ele>
        <time>2022-05-23T10:27:33Z</time>
      </trkpt>
      <trkpt lat="47.80136" lon="2.29383">
        <ele>247.3</ele>
        <time>2022-05-23T10:27:36Z</time>
      </trkpt>
      <trkpt lat="47.80143" lon="2.29394">
        <ele>247.47</ele>
        <time>2022-05-23T10:27:39Z</time>
      </trkpt>
      <trkpt lat="47.80149" lon="2.29406">
        <ele>247.83</ele>
        <time>2022-05-23T10:27:42Z</time>
      </trkpt>
      <trkpt lat="47.80155" lon="2.29419">
        <ele>248.43</ele>
        <time>2022-05-23T10:27:45Z</time>
      </trkpt>
      <trkpt lat="47.80159" lon="2.29432">
        <ele>248.55</ele>
        <time>2022-05-23T10:27:48Z</time>
      </trkpt>
      <trkpt lat="47.80164" lon="2.29444">
        <ele>248.64</ele>
        <time>2022-05-23T10:27:51Z</time>
      </trkpt>
      <trkpt lat="47.80168" lon="2.29457">
        <ele>248.6</ele>
        <time>2022-05-23T10:27:54Z</time>
      </trkpt>
      <trkpt lat="47.80173" lon="2.29468">
        <ele>248.4</ele>
        <time>2022-05-23T10:27:57Z</time>
      </trkpt>
      <trkpt lat="47.80182" lon="2.29473">
        <ele>247.89</ele>
        <time>2022-05-23T10:28:03Z</time>
      </trkpt>
      <trkpt lat="47.80192" lon="2.29471">
        <ele>247.1</ele>
        <time>2022-05-23T10:28:07Z</time>
      </trkpt>
      <trkpt lat="47.80203" lon="2.2947">
        <ele>246.69</ele>
        <time>2022-05-23T10:28:10Z</time>
      </trkpt>
      <trkpt lat="47.80214" lon="2.29466">
        <ele>245.16</ele>
        <time>2022-05-23T10:28:13Z</time>
      </trkpt>
      <trkpt lat="47.80224" lon="2.29464">
        <ele>245.94</ele>
        <time>2022-05-23T10:28:16Z</time>
      </trkpt>
      <trkpt lat="47.80235" lon="2.29465">
        <ele>247.58</ele>
        <time>2022-05-23T10:28:19Z</time>
      </trkpt>
      <trkpt lat="47.80246" lon="2.29466">
        <ele>246.71</ele>
        <time>2022-05-23T10:28:23Z</time>
      </trkpt>
      <trkpt lat="47.80255" lon="2.29467">
        <ele>247.45</ele>
        <time>2022-05-23T10:28:26Z</time>
      </trkpt>
      <trkpt lat="47.80268" lon="2.29473">
        <ele>248.31</ele>
        <time>2022-05-23T10:28:29Z</time>
      </trkpt>
      <trkpt lat="47.80279" lon="2.29475">
        <ele>248.05</ele>
        <time>2022-05-23T10:28:32Z</time>
      </trkpt>
      <trkpt lat="47.8029" lon="2.29479">
        <ele>249.22</ele>
        <time>2022-05-23T10:28:35Z</time>
      </trkpt>
      <trkpt lat="47.80301" lon="2.29482">
        <ele>250.2</ele>
        <time>2022-05-23T10:28:38Z</time>
      </trkpt>
      <trkpt lat="47.80311" lon="2.29486">
        <ele>250.59</ele>
        <time>2022-05-23T10:28:41Z</time>
      </trkpt>
      <trkpt lat="47.80319" lon="2.29491">
        <ele>250.55</ele>
        <time>2022-05-23T10:28:44Z</time>
      </trkpt>
      <trkpt lat="47.80331" lon="2.29495">
        <ele>251</ele>
        <time>2022-05-23T10:28:47Z</time>
      </trkpt>
      <trkpt lat="47.80341" lon="2.295">
        <ele>250.08</ele>
        <time>2022-05-23T10:28:50Z</time>
      </trkpt>
      <trkpt lat="47.8035" lon="2.29503">
        <ele>249.3</ele>
        <time>2022-05-23T10:28:52Z</time>
      </trkpt>
      <trkpt lat="47.80363" lon="2.29505">
        <ele>248.68</ele>
        <time>2022-05-23T10:28:54Z</time>
      </trkpt>
      <trkpt lat="47.80373" lon="2.29511">
        <ele>248.65</ele>
        <time>2022-05-23T10:28:56Z</time>
      </trkpt>
      <trkpt lat="47.80385" lon="2.29516">
        <ele>249.67</ele>
        <time>2022-05-23T10:28:58Z</time>
      </trkpt>
      <trkpt lat="47.80397" lon="2.29524">
        <ele>249.36</ele>
        <time>2022-05-23T10:29:01Z</time>
      </trkpt>
      <trkpt lat="47.80406" lon="2.29531">
        <ele>251.39</ele>
        <time>2022-05-23T10:29:03Z</time>
      </trkpt>
      <trkpt lat="47.80415" lon="2.29536">
        <ele>251.16</ele>
        <time>2022-05-23T10:29:05Z</time>
      </trkpt>
      <trkpt lat="47.80427" lon="2.29542">
        <ele>250.27</ele>
        <time>2022-05-23T10:29:08Z</time>
      </trkpt>
      <trkpt lat="47.8044" lon="2.29547">
        <ele>250.94</ele>
        <time>2022-05-23T10:29:11Z</time>
      </trkpt>
      <trkpt lat="47.80451" lon="2.29553">
        <ele>250.59</ele>
        <time>2022-05-23T10:29:14Z</time>
      </trkpt>
      <trkpt lat="47.80463" lon="2.29563">
        <ele>250.06</ele>
        <time>2022-05-23T10:29:17Z</time>
      </trkpt>
      <trkpt lat="47.80475" lon="2.29574">
        <ele>249.65</ele>
        <time>2022-05-23T10:29:20Z</time>
      </trkpt>
      <trkpt lat="47.80484" lon="2.29581">
        <ele>249.07</ele>
        <time>2022-05-23T10:29:22Z</time>
      </trkpt>
      <trkpt lat="47.80493" lon="2.29586">
        <ele>248.75</ele>
        <time>2022-05-23T10:29:24Z</time>
      </trkpt>
      <trkpt lat="47.80502" lon="2.29591">
        <ele>247.98</ele>
        <time>2022-05-23T10:29:26Z</time>
      </trkpt>
      <trkpt lat="47.80512" lon="2.29596">
        <ele>248.8</ele>
        <time>2022-05-23T10:29:28Z</time>
      </trkpt>
      <trkpt lat="47.80523" lon="2.29599">
        <ele>246.93</ele>
        <time>2022-05-23T10:29:30Z</time>
      </trkpt>
      <trkpt lat="47.80533" lon="2.29601">
        <ele>247.54</ele>
        <time>2022-05-23T10:29:32Z</time>
      </trkpt>
      <trkpt lat="47.80544" lon="2.29598">
        <ele>248.07</ele>
        <time>2022-05-23T10:29:34Z</time>
      </trkpt>
      <trkpt lat="47.80555" lon="2.29596">
        <ele>247.62</ele>
        <time>2022-05-23T10:29:37Z</time>
      </trkpt>
      <trkpt lat="47.80565" lon="2.29594">
        <ele>248.68</ele>
        <time>2022-05-23T10:29:39Z</time>
      </trkpt>
      <trkpt lat="47.80576" lon="2.2959">
        <ele>249.96</ele>
        <time>2022-05-23T10:29:42Z</time>
      </trkpt>
      <trkpt lat="47.80588" lon="2.29584">
        <ele>250.05</ele>
        <time>2022-05-23T10:29:45Z</time>
      </trkpt>
      <trkpt lat="47.806" lon="2.29575">
        <ele>250.4</ele>
        <time>2022-05-23T10:29:48Z</time>
      </trkpt>
      <trkpt lat="47.80608" lon="2.29568">
        <ele>249.35</ele>
        <time>2022-05-23T10:29:50Z</time>
      </trkpt>
      <trkpt lat="47.80617" lon="2.29562">
        <ele>249.53</ele>
        <time>2022-05-23T10:29:52Z</time>
      </trkpt>
      <trkpt lat="47.80626" lon="2.29558">
        <ele>249.61</ele>
        <time>2022-05-23T10:29:54Z</time>
      </trkpt>
      <trkpt lat="47.80635" lon="2.29553">
        <ele>248.37</ele>
        <time>2022-05-23T10:29:57Z</time>
      </trkpt>
      <trkpt lat="47.8064" lon="2.29535">
        <ele>246.58</ele>
        <time>2022-05-23T10:30:00Z</time>
      </trkpt>
      <trkpt lat="47.80643" lon="2.2952">
        <ele>246.01</ele>
        <time>2022-05-23T10:30:02Z</time>
      </trkpt>
      <trkpt lat="47.80646" lon="2.29506">
        <ele>247.14</ele>
        <time>2022-05-23T10:30:04Z</time>
      </trkpt>
      <trkpt lat="47.80649" lon="2.29492">
        <ele>247.12</ele>
        <time>2022-05-23T10:30:07Z</time>
      </trkpt>
      <trkpt lat="47.80652" lon="2.29479">
        <ele>246.08</ele>
        <time>2022-05-23T10:30:10Z</time>
      </trkpt>
      <trkpt lat="47.80662" lon="2.29478">
        <ele>245.37</ele>
        <time>2022-05-23T10:30:15Z</time>
      </trkpt>
      <trkpt lat="47.8067" lon="2.29486">
        <ele>244.36</ele>
        <time>2022-05-23T10:30:18Z</time>
      </trkpt>
      <trkpt lat="47.80681" lon="2.29496">
        <ele>244.79</ele>
        <time>2022-05-23T10:30:21Z</time>
      </trkpt>
      <trkpt lat="47.80692" lon="2.29506">
        <ele>244.44</ele>
        <time>2022-05-23T10:30:24Z</time>
      </trkpt>
      <trkpt lat="47.80703" lon="2.29516">
        <ele>243.95</ele>
        <time>2022-05-23T10:30:27Z</time>
      </trkpt>
      <trkpt lat="47.80707" lon="2.29533">
        <ele>243.87</ele>
        <time>2022-05-23T10:30:30Z</time>
      </trkpt>
      <trkpt lat="47.80705" lon="2.29548">
        <ele>244.2</ele>
        <time>2022-05-23T10:30:33Z</time>
      </trkpt>
      <trkpt lat="47.80703" lon="2.29563">
        <ele>244.52</ele>
        <time>2022-05-23T10:30:36Z</time>
      </trkpt>
      <trkpt lat="47.80702" lon="2.29578">
        <ele>244.86</ele>
        <time>2022-05-23T10:30:39Z</time>
      </trkpt>
      <trkpt lat="47.80702" lon="2.29591">
        <ele>245.03</ele>
        <time>2022-05-23T10:30:42Z</time>
      </trkpt>
      <trkpt lat="47.80705" lon="2.29605">
        <ele>244.53</ele>
        <time>2022-05-23T10:30:45Z</time>
      </trkpt>
      <trkpt lat="47.80712" lon="2.29618">
        <ele>244.55</ele>
        <time>2022-05-23T10:30:48Z</time>
      </trkpt>
      <trkpt lat="47.80722" lon="2.29626">
        <ele>244.71</ele>
        <time>2022-05-23T10:30:51Z</time>
      </trkpt>
      <trkpt lat="47.80733" lon="2.29636">
        <ele>244.19</ele>
        <time>2022-05-23T10:30:54Z</time>
      </trkpt>
      <trkpt lat="47.80744" lon="2.29646">
        <ele>244.1</ele>
        <time>2022-05-23T10:30:57Z</time>
      </trkpt>
      <trkpt lat="47.80753" lon="2.29652">
        <ele>244.52</ele>
        <time>2022-05-23T10:30:59Z</time>
      </trkpt>
      <trkpt lat="47.80761" lon="2.29658">
        <ele>244.67</ele>
        <time>2022-05-23T10:31:01Z</time>
      </trkpt>
      <trkpt lat="47.80772" lon="2.29665">
        <ele>246.24</ele>
        <time>2022-05-23T10:31:04Z</time>
      </trkpt>
      <trkpt lat="47.80782" lon="2.29672">
        <ele>246.29</ele>
        <time>2022-05-23T10:31:07Z</time>
      </trkpt>
      <trkpt lat="47.80791" lon="2.2968">
        <ele>246.55</ele>
        <time>2022-05-23T10:31:10Z</time>
      </trkpt>
      <trkpt lat="47.808" lon="2.29689">
        <ele>246.14</ele>
        <time>2022-05-23T10:31:13Z</time>
      </trkpt>
      <trkpt lat="47.80808" lon="2.29697">
        <ele>246.36</ele>
        <time>2022-05-23T10:31:16Z</time>
      </trkpt>
      <trkpt lat="47.80815" lon="2.29707">
        <ele>246.97</ele>
        <time>2022-05-23T10:31:19Z</time>
      </trkpt>
      <trkpt lat="47.80823" lon="2.29714">
        <ele>246.69</ele>
        <time>2022-05-23T10:31:22Z</time>
      </trkpt>
      <trkpt lat="47.80832" lon="2.29722">
        <ele>246.36</ele>
        <time>2022-05-23T10:31:25Z</time>
      </trkpt>
      <trkpt lat="47.80842" lon="2.29728">
        <ele>245.28</ele>
        <time>2022-05-23T10:31:28Z</time>
      </trkpt>
      <trkpt lat="47.80852" lon="2.29734">
        <ele>244.17</ele>
        <time>2022-05-23T10:31:31Z</time>
      </trkpt>
      <trkpt lat="47.80861" lon="2.2974">
        <ele>243.14</ele>
        <time>2022-05-23T10:31:34Z</time>
      </trkpt>
      <trkpt lat="47.80866" lon="2.29756">
        <ele>242.48</ele>
        <time>2022-05-23T10:31:37Z</time>
      </trkpt>
      <trkpt lat="47.80871" lon="2.29772">
        <ele>242.97</ele>
        <time>2022-05-23T10:31:40Z</time>
      </trkpt>
      <trkpt lat="47.80876" lon="2.29789">
        <ele>242.94</ele>
        <time>2022-05-23T10:31:43Z</time>
      </trkpt>
      <trkpt lat="47.80882" lon="2.29808">
        <ele>243.14</ele>
        <time>2022-05-23T10:31:46Z</time>
      </trkpt>
      <trkpt lat="47.80886" lon="2.29821">
        <ele>243.26</ele>
        <time>2022-05-23T10:31:48Z</time>
      </trkpt>
      <trkpt lat="47.8089" lon="2.29834">
        <ele>243.26</ele>
        <time>2022-05-23T10:31:50Z</time>
      </trkpt>
      <trkpt lat="47.80894" lon="2.29847">
        <ele>243.26</ele>
        <time>2022-05-23T10:31:52Z</time>
      </trkpt>
      <trkpt lat="47.80899" lon="2.29862">
        <ele>243.01</ele>
        <time>2022-05-23T10:31:54Z</time>
      </trkpt>
      <trkpt lat="47.80903" lon="2.29876">
        <ele>243.41</ele>
        <time>2022-05-23T10:31:56Z</time>
      </trkpt>
      <trkpt lat="47.80907" lon="2.29889">
        <ele>243.66</ele>
        <time>2022-05-23T10:31:58Z</time>
      </trkpt>
      <trkpt lat="47.80911" lon="2.29903">
        <ele>243.68</ele>
        <time>2022-05-23T10:32:00Z</time>
      </trkpt>
      <trkpt lat="47.80914" lon="2.29915">
        <ele>243.69</ele>
        <time>2022-05-23T10:32:02Z</time>
      </trkpt>
      <trkpt lat="47.8092" lon="2.29933">
        <ele>243.6</ele>
        <time>2022-05-23T10:32:05Z</time>
      </trkpt>
      <trkpt lat="47.80924" lon="2.29945">
        <ele>243.32</ele>
        <time>2022-05-23T10:32:07Z</time>
      </trkpt>
      <trkpt lat="47.80929" lon="2.29959">
        <ele>243.28</ele>
        <time>2022-05-23T10:32:09Z</time>
      </trkpt>
      <trkpt lat="47.80933" lon="2.29972">
        <ele>243.44</ele>
        <time>2022-05-23T10:32:11Z</time>
      </trkpt>
      <trkpt lat="47.80937" lon="2.29986">
        <ele>242.83</ele>
        <time>2022-05-23T10:32:13Z</time>
      </trkpt>
      <trkpt lat="47.8094" lon="2.29998">
        <ele>242.49</ele>
        <time>2022-05-23T10:32:15Z</time>
      </trkpt>
      <trkpt lat="47.80946" lon="2.30016">
        <ele>242.54</ele>
        <time>2022-05-23T10:32:18Z</time>
      </trkpt>
      <trkpt lat="47.80951" lon="2.30034">
        <ele>242.54</ele>
        <time>2022-05-23T10:32:21Z</time>
      </trkpt>
      <trkpt lat="47.80958" lon="2.3005">
        <ele>242.76</ele>
        <time>2022-05-23T10:32:24Z</time>
      </trkpt>
      <trkpt lat="47.80969" lon="2.3006">
        <ele>242.38</ele>
        <time>2022-05-23T10:32:27Z</time>
      </trkpt>
      <trkpt lat="47.80978" lon="2.30065">
        <ele>242.37</ele>
        <time>2022-05-23T10:32:29Z</time>
      </trkpt>
      <trkpt lat="47.80986" lon="2.30071">
        <ele>242.55</ele>
        <time>2022-05-23T10:32:31Z</time>
      </trkpt>
      <trkpt lat="47.80995" lon="2.30077">
        <ele>242.43</ele>
        <time>2022-05-23T10:32:33Z</time>
      </trkpt>
      <trkpt lat="47.81004" lon="2.30084">
        <ele>242.33</ele>
        <time>2022-05-23T10:32:35Z</time>
      </trkpt>
      <trkpt lat="47.81014" lon="2.3009">
        <ele>242.16</ele>
        <time>2022-05-23T10:32:37Z</time>
      </trkpt>
      <trkpt lat="47.81024" lon="2.30096">
        <ele>242.06</ele>
        <time>2022-05-23T10:32:39Z</time>
      </trkpt>
      <trkpt lat="47.81033" lon="2.30102">
        <ele>241.93</ele>
        <time>2022-05-23T10:32:41Z</time>
      </trkpt>
      <trkpt lat="47.81041" lon="2.30108">
        <ele>241.89</ele>
        <time>2022-05-23T10:32:43Z</time>
      </trkpt>
      <trkpt lat="47.81052" lon="2.30115">
        <ele>242.24</ele>
        <time>2022-05-23T10:32:46Z</time>
      </trkpt>
      <trkpt lat="47.81063" lon="2.30122">
        <ele>242.19</ele>
        <time>2022-05-23T10:32:49Z</time>
      </trkpt>
      <trkpt lat="47.81073" lon="2.30129">
        <ele>242.85</ele>
        <time>2022-05-23T10:32:52Z</time>
      </trkpt>
      <trkpt lat="47.81082" lon="2.30138">
        <ele>242.6</ele>
        <time>2022-05-23T10:32:55Z</time>
      </trkpt>
      <trkpt lat="47.81081" lon="2.30153">
        <ele>243.24</ele>
        <time>2022-05-23T10:32:58Z</time>
      </trkpt>
      <trkpt lat="47.8108" lon="2.30169">
        <ele>242.92</ele>
        <time>2022-05-23T10:33:01Z</time>
      </trkpt>
      <trkpt lat="47.81085" lon="2.30185">
        <ele>243.16</ele>
        <time>2022-05-23T10:33:04Z</time>
      </trkpt>
      <trkpt lat="47.81091" lon="2.30203">
        <ele>243.2</ele>
        <time>2022-05-23T10:33:07Z</time>
      </trkpt>
      <trkpt lat="47.81095" lon="2.30215">
        <ele>243.03</ele>
        <time>2022-05-23T10:33:09Z</time>
      </trkpt>
      <trkpt lat="47.811" lon="2.30232">
        <ele>242.75</ele>
        <time>2022-05-23T10:33:12Z</time>
      </trkpt>
      <trkpt lat="47.81105" lon="2.30248">
        <ele>242.63</ele>
        <time>2022-05-23T10:33:15Z</time>
      </trkpt>
      <trkpt lat="47.81108" lon="2.30264">
        <ele>243.16</ele>
        <time>2022-05-23T10:33:18Z</time>
      </trkpt>
      <trkpt lat="47.811" lon="2.30275">
        <ele>243.26</ele>
        <time>2022-05-23T10:33:21Z</time>
      </trkpt>
      <trkpt lat="47.81089" lon="2.30283">
        <ele>243.38</ele>
        <time>2022-05-23T10:33:24Z</time>
      </trkpt>
      <trkpt lat="47.8108" lon="2.30292">
        <ele>243.42</ele>
        <time>2022-05-23T10:33:27Z</time>
      </trkpt>
      <trkpt lat="47.81071" lon="2.30301">
        <ele>243.71</ele>
        <time>2022-05-23T10:33:30Z</time>
      </trkpt>
      <trkpt lat="47.81062" lon="2.30312">
        <ele>240.67</ele>
        <time>2022-05-23T10:33:34Z</time>
      </trkpt>
      <trkpt lat="47.81054" lon="2.30324">
        <ele>240.72</ele>
        <time>2022-05-23T10:33:37Z</time>
      </trkpt>
      <trkpt lat="47.81047" lon="2.30333">
        <ele>242.1</ele>
        <time>2022-05-23T10:33:40Z</time>
      </trkpt>
      <trkpt lat="47.81039" lon="2.30343">
        <ele>241.39</ele>
        <time>2022-05-23T10:33:44Z</time>
      </trkpt>
      <trkpt lat="47.81031" lon="2.30355">
        <ele>242.72</ele>
        <time>2022-05-23T10:33:48Z</time>
      </trkpt>
      <trkpt lat="47.81024" lon="2.30367">
        <ele>243.14</ele>
        <time>2022-05-23T10:33:51Z</time>
      </trkpt>
      <trkpt lat="47.81016" lon="2.3038">
        <ele>243.91</ele>
        <time>2022-05-23T10:33:54Z</time>
      </trkpt>
      <trkpt lat="47.8101" lon="2.30392">
        <ele>244.57</ele>
        <time>2022-05-23T10:33:57Z</time>
      </trkpt>
      <trkpt lat="47.81006" lon="2.30406">
        <ele>244.59</ele>
        <time>2022-05-23T10:34:00Z</time>
      </trkpt>
      <trkpt lat="47.81002" lon="2.3042">
        <ele>244.52</ele>
        <time>2022-05-23T10:34:03Z</time>
      </trkpt>
      <trkpt lat="47.80999" lon="2.30434">
        <ele>244.27</ele>
        <time>2022-05-23T10:34:06Z</time>
      </trkpt>
      <trkpt lat="47.80996" lon="2.3045">
        <ele>245.43</ele>
        <time>2022-05-23T10:34:10Z</time>
      </trkpt>
      <trkpt lat="47.80994" lon="2.30464">
        <ele>245.17</ele>
        <time>2022-05-23T10:34:41Z</time>
      </trkpt>
      <trkpt lat="47.80987" lon="2.30476">
        <ele>245.79</ele>
        <time>2022-05-23T10:34:47Z</time>
      </trkpt>
      <trkpt lat="47.8098" lon="2.30488">
        <ele>245.63</ele>
        <time>2022-05-23T10:34:52Z</time>
      </trkpt>
      <trkpt lat="47.80974" lon="2.30499">
        <ele>245.81</ele>
        <time>2022-05-23T10:34:56Z</time>
      </trkpt>
      <trkpt lat="47.80972" lon="2.30513">
        <ele>246.26</ele>
        <time>2022-05-23T10:35:01Z</time>
      </trkpt>
      <trkpt lat="47.80967" lon="2.30525">
        <ele>242.01</ele>
        <time>2022-05-23T10:35:21Z</time>
      </trkpt>
      <trkpt lat="47.80968" lon="2.30527">
        <ele>239.23</ele>
        <time>2022-05-23T10:37:22Z</time>
      </trkpt>
      <trkpt lat="47.80968" lon="2.30527">
        <ele>238.92</ele>
        <time>2022-05-23T10:39:23Z</time>
      </trkpt>
      <trkpt lat="47.80968" lon="2.30527">
        <ele>238.88</ele>
        <time>2022-05-23T10:41:24Z</time>
      </trkpt>
      <trkpt lat="47.80968" lon="2.30526">
        <ele>229.35</ele>
        <time>2022-05-23T10:43:25Z</time>
      </trkpt>
      <trkpt lat="47.80967" lon="2.30526">
        <ele>228.22</ele>
        <time>2022-05-23T10:45:26Z</time>
      </trkpt>
      <trkpt lat="47.80967" lon="2.30526">
        <ele>227.51</ele>
        <time>2022-05-23T10:47:27Z</time>
      </trkpt>
      <trkpt lat="47.80967" lon="2.30526">
        <ele>227.48</ele>
        <time>2022-05-23T10:49:28Z</time>
      </trkpt>
      <trkpt lat="47.80966" lon="2.30528">
        <ele>230.94</ele>
        <time>2022-05-23T10:51:29Z</time>
      </trkpt>
      <trkpt lat="47.80966" lon="2.30528">
        <ele>231.17</ele>
        <time>2022-05-23T10:53:30Z</time>
      </trkpt>
      <trkpt lat="47.80966" lon="2.30528">
        <ele>231.11</ele>
        <time>2022-05-23T10:55:31Z</time>
      </trkpt>
      <trkpt lat="47.80966" lon="2.30528">
        <ele>230.97</ele>
        <time>2022-05-23T10:57:32Z</time>
      </trkpt>
      <trkpt lat="47.80966" lon="2.30528">
        <ele>231.08</ele>
        <time>2022-05-23T10:59:33Z</time>
      </trkpt>
      <trkpt lat="47.80966" lon="2.30528">
        <ele>231.3</ele>
        <time>2022-05-23T11:01:34Z</time>
      </trkpt>
      <trkpt lat="47.80966" lon="2.30528">
        <ele>231.35</ele>
        <time>2022-05-23T11:03:35Z</time>
      </trkpt>
      <trkpt lat="47.80968" lon="2.30525">
        <ele>241.37</ele>
        <time>2022-05-23T11:05:36Z</time>
      </trkpt>
      <trkpt lat="47.80965" lon="2.30528">
        <ele>244.43</ele>
        <time>2022-05-23T11:07:37Z</time>
      </trkpt>
      <trkpt lat="47.80965" lon="2.30528">
        <ele>244.35</ele>
        <time>2022-05-23T11:09:38Z</time>
      </trkpt>
      <trkpt lat="47.80965" lon="2.30528">
        <ele>244.17</ele>
        <time>2022-05-23T11:11:39Z</time>
      </trkpt>
      <trkpt lat="47.80965" lon="2.30528">
        <ele>244.1</ele>
        <time>2022-05-23T11:13:40Z</time>
      </trkpt>
      <trkpt lat="47.80965" lon="2.30528">
        <ele>243.94</ele>
        <time>2022-05-23T11:15:41Z</time>
      </trkpt>
      <trkpt lat="47.80965" lon="2.30528">
        <ele>243.77</ele>
        <time>2022-05-23T11:17:42Z</time>
      </trkpt>
      <trkpt lat="47.80965" lon="2.30528">
        <ele>243.6</ele>
        <time>2022-05-23T11:19:43Z</time>
      </trkpt>
      <trkpt lat="47.80965" lon="2.30528">
        <ele>243.43</ele>
        <time>2022-05-23T11:21:44Z</time>
      </trkpt>
      <trkpt lat="47.80965" lon="2.30528">
        <ele>243.31</ele>
        <time>2022-05-23T11:23:45Z</time>
      </trkpt>
      <trkpt lat="47.80965" lon="2.30528">
        <ele>243.24</ele>
        <time>2022-05-23T11:25:46Z</time>
      </trkpt>
      <trkpt lat="47.80965" lon="2.30528">
        <ele>243.13</ele>
        <time>2022-05-23T11:27:47Z</time>
      </trkpt>
      <trkpt lat="47.80965" lon="2.30528">
        <ele>243.19</ele>
        <time>2022-05-23T11:29:48Z</time>
      </trkpt>
      <trkpt lat="47.80965" lon="2.30528">
        <ele>243.32</ele>
        <time>2022-05-23T11:31:49Z</time>
      </trkpt>
      <trkpt lat="47.80964" lon="2.30529">
        <ele>243.8</ele>
        <time>2022-05-23T11:33:50Z</time>
      </trkpt>
      <trkpt lat="47.80964" lon="2.30528">
        <ele>244.09</ele>
        <time>2022-05-23T11:35:51Z</time>
      </trkpt>
      <trkpt lat="47.80964" lon="2.30528">
        <ele>244.52</ele>
        <time>2022-05-23T11:37:52Z</time>
      </trkpt>
      <trkpt lat="47.80964" lon="2.30528">
        <ele>244.74</ele>
        <time>2022-05-23T11:39:53Z</time>
      </trkpt>
      <trkpt lat="47.80964" lon="2.30529">
        <ele>244.98</ele>
        <time>2022-05-23T11:41:54Z</time>
      </trkpt>
      <trkpt lat="47.80964" lon="2.30529">
        <ele>245.15</ele>
        <time>2022-05-23T11:43:55Z</time>
      </trkpt>
      <trkpt lat="47.80964" lon="2.30529">
        <ele>244.86</ele>
        <time>2022-05-23T11:45:56Z</time>
      </trkpt>
      <trkpt lat="47.80964" lon="2.30529">
        <ele>244.5</ele>
        <time>2022-05-23T11:47:57Z</time>
      </trkpt>
      <trkpt lat="47.80968" lon="2.30517">
        <ele>246.2</ele>
        <time>2022-05-23T11:49:56Z</time>
      </trkpt>
      <trkpt lat="47.80974" lon="2.30505">
        <ele>241.24</ele>
        <time>2022-05-23T11:50:39Z</time>
      </trkpt>
      <trkpt lat="47.80978" lon="2.30492">
        <ele>243.7</ele>
        <time>2022-05-23T11:50:54Z</time>
      </trkpt>
      <trkpt lat="47.80986" lon="2.30484">
        <ele>244.89</ele>
        <time>2022-05-23T11:51:28Z</time>
      </trkpt>
      <trkpt lat="47.80989" lon="2.30479">
        <ele>245.94</ele>
        <time>2022-05-23T11:53:29Z</time>
      </trkpt>
      <trkpt lat="47.80992" lon="2.30466">
        <ele>245.62</ele>
        <time>2022-05-23T11:54:02Z</time>
      </trkpt>
      <trkpt lat="47.80997" lon="2.3045">
        <ele>247.16</ele>
        <time>2022-05-23T11:54:06Z</time>
      </trkpt>
      <trkpt lat="47.81001" lon="2.30433">
        <ele>246.24</ele>
        <time>2022-05-23T11:54:10Z</time>
      </trkpt>
      <trkpt lat="47.81005" lon="2.30418">
        <ele>245.36</ele>
        <time>2022-05-23T11:54:13Z</time>
      </trkpt>
      <trkpt lat="47.81009" lon="2.30402">
        <ele>244.94</ele>
        <time>2022-05-23T11:54:16Z</time>
      </trkpt>
      <trkpt lat="47.81015" lon="2.30389">
        <ele>244.69</ele>
        <time>2022-05-23T11:54:19Z</time>
      </trkpt>
      <trkpt lat="47.8102" lon="2.30377">
        <ele>244.27</ele>
        <time>2022-05-23T11:54:22Z</time>
      </trkpt>
      <trkpt lat="47.81026" lon="2.30367">
        <ele>244.12</ele>
        <time>2022-05-23T11:54:25Z</time>
      </trkpt>
      <trkpt lat="47.81032" lon="2.30357">
        <ele>243.97</ele>
        <time>2022-05-23T11:54:28Z</time>
      </trkpt>
      <trkpt lat="47.81038" lon="2.30347">
        <ele>243.2</ele>
        <time>2022-05-23T11:54:31Z</time>
      </trkpt>
      <trkpt lat="47.81046" lon="2.30336">
        <ele>242.46</ele>
        <time>2022-05-23T11:54:34Z</time>
      </trkpt>
      <trkpt lat="47.81055" lon="2.30325">
        <ele>241.37</ele>
        <time>2022-05-23T11:54:37Z</time>
      </trkpt>
      <trkpt lat="47.81063" lon="2.30313">
        <ele>241.26</ele>
        <time>2022-05-23T11:54:40Z</time>
      </trkpt>
      <trkpt lat="47.81071" lon="2.30303">
        <ele>242.05</ele>
        <time>2022-05-23T11:54:43Z</time>
      </trkpt>
      <trkpt lat="47.81079" lon="2.30295">
        <ele>242.02</ele>
        <time>2022-05-23T11:54:46Z</time>
      </trkpt>
      <trkpt lat="47.81088" lon="2.30285">
        <ele>241.67</ele>
        <time>2022-05-23T11:54:49Z</time>
      </trkpt>
      <trkpt lat="47.81099" lon="2.30277">
        <ele>241.46</ele>
        <time>2022-05-23T11:54:52Z</time>
      </trkpt>
      <trkpt lat="47.81108" lon="2.30267">
        <ele>241.21</ele>
        <time>2022-05-23T11:54:55Z</time>
      </trkpt>
      <trkpt lat="47.81117" lon="2.30258">
        <ele>241.42</ele>
        <time>2022-05-23T11:54:58Z</time>
      </trkpt>
      <trkpt lat="47.81127" lon="2.30251">
        <ele>241.33</ele>
        <time>2022-05-23T11:55:01Z</time>
      </trkpt>
      <trkpt lat="47.81136" lon="2.30243">
        <ele>241.3</ele>
        <time>2022-05-23T11:55:04Z</time>
      </trkpt>
      <trkpt lat="47.81146" lon="2.30235">
        <ele>241.12</ele>
        <time>2022-05-23T11:55:07Z</time>
      </trkpt>
      <trkpt lat="47.81155" lon="2.30227">
        <ele>241.16</ele>
        <time>2022-05-23T11:55:10Z</time>
      </trkpt>
      <trkpt lat="47.81164" lon="2.30218">
        <ele>241.23</ele>
        <time>2022-05-23T11:55:13Z</time>
      </trkpt>
      <trkpt lat="47.81174" lon="2.3021">
        <ele>241.46</ele>
        <time>2022-05-23T11:55:16Z</time>
      </trkpt>
      <trkpt lat="47.81183" lon="2.30202">
        <ele>241.37</ele>
        <time>2022-05-23T11:55:19Z</time>
      </trkpt>
      <trkpt lat="47.81192" lon="2.30194">
        <ele>241.62</ele>
        <time>2022-05-23T11:55:22Z</time>
      </trkpt>
      <trkpt lat="47.81201" lon="2.30186">
        <ele>241.45</ele>
        <time>2022-05-23T11:55:25Z</time>
      </trkpt>
      <trkpt lat="47.8121" lon="2.30176">
        <ele>241.86</ele>
        <time>2022-05-23T11:55:28Z</time>
      </trkpt>
      <trkpt lat="47.81219" lon="2.30167">
        <ele>242.31</ele>
        <time>2022-05-23T11:55:31Z</time>
      </trkpt>
      <trkpt lat="47.81229" lon="2.30158">
        <ele>242.42</ele>
        <time>2022-05-23T11:55:34Z</time>
      </trkpt>
      <trkpt lat="47.81237" lon="2.3015">
        <ele>242.46</ele>
        <time>2022-05-23T11:55:37Z</time>
      </trkpt>
      <trkpt lat="47.81246" lon="2.30142">
        <ele>242.58</ele>
        <time>2022-05-23T11:55:40Z</time>
      </trkpt>
      <trkpt lat="47.81256" lon="2.30134">
        <ele>242.7</ele>
        <time>2022-05-23T11:55:44Z</time>
      </trkpt>
      <trkpt lat="47.81265" lon="2.30127">
        <ele>242.58</ele>
        <time>2022-05-23T11:55:48Z</time>
      </trkpt>
      <trkpt lat="47.81273" lon="2.30118">
        <ele>242.06</ele>
        <time>2022-05-23T11:55:53Z</time>
      </trkpt>
      <trkpt lat="47.81272" lon="2.30102">
        <ele>241.28</ele>
        <time>2022-05-23T11:55:59Z</time>
      </trkpt>
      <trkpt lat="47.81269" lon="2.3009">
        <ele>241.24</ele>
        <time>2022-05-23T11:56:03Z</time>
      </trkpt>
      <trkpt lat="47.81263" lon="2.30078">
        <ele>241.07</ele>
        <time>2022-05-23T11:56:07Z</time>
      </trkpt>
      <trkpt lat="47.81257" lon="2.30068">
        <ele>240.86</ele>
        <time>2022-05-23T11:56:11Z</time>
      </trkpt>
      <trkpt lat="47.81251" lon="2.30057">
        <ele>240.99</ele>
        <time>2022-05-23T11:56:17Z</time>
      </trkpt>
      <trkpt lat="47.81246" lon="2.30044">
        <ele>240.61</ele>
        <time>2022-05-23T11:56:25Z</time>
      </trkpt>
      <trkpt lat="47.81239" lon="2.30031">
        <ele>240.45</ele>
        <time>2022-05-23T11:56:30Z</time>
      </trkpt>
      <trkpt lat="47.81232" lon="2.30017">
        <ele>240.18</ele>
        <time>2022-05-23T11:56:34Z</time>
      </trkpt>
      <trkpt lat="47.81226" lon="2.30006">
        <ele>240.45</ele>
        <time>2022-05-23T11:56:38Z</time>
      </trkpt>
      <trkpt lat="47.81219" lon="2.29992">
        <ele>240.43</ele>
        <time>2022-05-23T11:56:42Z</time>
      </trkpt>
      <trkpt lat="47.81212" lon="2.2998">
        <ele>240.58</ele>
        <time>2022-05-23T11:56:45Z</time>
      </trkpt>
      <trkpt lat="47.81205" lon="2.29967">
        <ele>240.26</ele>
        <time>2022-05-23T11:56:48Z</time>
      </trkpt>
      <trkpt lat="47.81199" lon="2.29954">
        <ele>240.43</ele>
        <time>2022-05-23T11:56:51Z</time>
      </trkpt>
      <trkpt lat="47.81193" lon="2.29941">
        <ele>240.5</ele>
        <time>2022-05-23T11:56:54Z</time>
      </trkpt>
      <trkpt lat="47.81188" lon="2.29927">
        <ele>240.52</ele>
        <time>2022-05-23T11:56:57Z</time>
      </trkpt>
      <trkpt lat="47.81184" lon="2.29913">
        <ele>240.67</ele>
        <time>2022-05-23T11:57:00Z</time>
      </trkpt>
      <trkpt lat="47.8118" lon="2.29899">
        <ele>241.03</ele>
        <time>2022-05-23T11:57:03Z</time>
      </trkpt>
      <trkpt lat="47.81176" lon="2.29886">
        <ele>241.26</ele>
        <time>2022-05-23T11:57:06Z</time>
      </trkpt>
      <trkpt lat="47.81174" lon="2.29873">
        <ele>240.86</ele>
        <time>2022-05-23T11:57:09Z</time>
      </trkpt>
      <trkpt lat="47.81171" lon="2.2986">
        <ele>241.27</ele>
        <time>2022-05-23T11:57:12Z</time>
      </trkpt>
      <trkpt lat="47.8117" lon="2.29846">
        <ele>241.98</ele>
        <time>2022-05-23T11:57:15Z</time>
      </trkpt>
      <trkpt lat="47.81167" lon="2.29831">
        <ele>242.41</ele>
        <time>2022-05-23T11:57:18Z</time>
      </trkpt>
      <trkpt lat="47.81165" lon="2.29815">
        <ele>243.01</ele>
        <time>2022-05-23T11:57:21Z</time>
      </trkpt>
      <trkpt lat="47.81167" lon="2.29801">
        <ele>243.95</ele>
        <time>2022-05-23T11:57:25Z</time>
      </trkpt>
      <trkpt lat="47.81177" lon="2.29803">
        <ele>243.83</ele>
        <time>2022-05-23T11:57:29Z</time>
      </trkpt>
      <trkpt lat="47.81187" lon="2.29806">
        <ele>243.81</ele>
        <time>2022-05-23T11:57:32Z</time>
      </trkpt>
      <trkpt lat="47.81196" lon="2.2981">
        <ele>243.69</ele>
        <time>2022-05-23T11:57:35Z</time>
      </trkpt>
      <trkpt lat="47.81206" lon="2.29815">
        <ele>243.47</ele>
        <time>2022-05-23T11:57:39Z</time>
      </trkpt>
      <trkpt lat="47.81217" lon="2.29819">
        <ele>243.19</ele>
        <time>2022-05-23T11:57:43Z</time>
      </trkpt>
      <trkpt lat="47.81227" lon="2.29822">
        <ele>243.08</ele>
        <time>2022-05-23T11:57:46Z</time>
      </trkpt>
      <trkpt lat="47.81236" lon="2.29826">
        <ele>243.15</ele>
        <time>2022-05-23T11:57:49Z</time>
      </trkpt>
      <trkpt lat="47.81246" lon="2.29829">
        <ele>243.27</ele>
        <time>2022-05-23T11:57:52Z</time>
      </trkpt>
      <trkpt lat="47.81255" lon="2.29833">
        <ele>243.39</ele>
        <time>2022-05-23T11:57:55Z</time>
      </trkpt>
      <trkpt lat="47.81264" lon="2.29836">
        <ele>243.64</ele>
        <time>2022-05-23T11:57:58Z</time>
      </trkpt>
      <trkpt lat="47.81273" lon="2.29839">
        <ele>243.8</ele>
        <time>2022-05-23T11:58:01Z</time>
      </trkpt>
      <trkpt lat="47.81284" lon="2.29842">
        <ele>243.73</ele>
        <time>2022-05-23T11:58:04Z</time>
      </trkpt>
      <trkpt lat="47.81294" lon="2.29846">
        <ele>243.86</ele>
        <time>2022-05-23T11:58:07Z</time>
      </trkpt>
      <trkpt lat="47.81306" lon="2.2985">
        <ele>243.78</ele>
        <time>2022-05-23T11:58:10Z</time>
      </trkpt>
      <trkpt lat="47.81316" lon="2.29854">
        <ele>243.8</ele>
        <time>2022-05-23T11:58:13Z</time>
      </trkpt>
      <trkpt lat="47.81328" lon="2.29858">
        <ele>243.91</ele>
        <time>2022-05-23T11:58:16Z</time>
      </trkpt>
      <trkpt lat="47.8134" lon="2.29861">
        <ele>243.89</ele>
        <time>2022-05-23T11:58:19Z</time>
      </trkpt>
      <trkpt lat="47.81353" lon="2.29864">
        <ele>243.53</ele>
        <time>2022-05-23T11:58:22Z</time>
      </trkpt>
      <trkpt lat="47.81365" lon="2.29869">
        <ele>243.39</ele>
        <time>2022-05-23T11:58:25Z</time>
      </trkpt>
      <trkpt lat="47.81376" lon="2.29873">
        <ele>243.68</ele>
        <time>2022-05-23T11:58:28Z</time>
      </trkpt>
      <trkpt lat="47.81387" lon="2.29877">
        <ele>243.97</ele>
        <time>2022-05-23T11:58:31Z</time>
      </trkpt>
      <trkpt lat="47.81398" lon="2.29882">
        <ele>243.73</ele>
        <time>2022-05-23T11:58:34Z</time>
      </trkpt>
      <trkpt lat="47.81409" lon="2.29887">
        <ele>243.89</ele>
        <time>2022-05-23T11:58:37Z</time>
      </trkpt>
      <trkpt lat="47.8142" lon="2.29894">
        <ele>243.77</ele>
        <time>2022-05-23T11:58:40Z</time>
      </trkpt>
      <trkpt lat="47.81432" lon="2.29901">
        <ele>243.99</ele>
        <time>2022-05-23T11:58:43Z</time>
      </trkpt>
      <trkpt lat="47.81445" lon="2.29908">
        <ele>244</ele>
        <time>2022-05-23T11:58:46Z</time>
      </trkpt>
      <trkpt lat="47.81456" lon="2.29916">
        <ele>244.02</ele>
        <time>2022-05-23T11:58:49Z</time>
      </trkpt>
      <trkpt lat="47.81466" lon="2.29924">
        <ele>244</ele>
        <time>2022-05-23T11:58:52Z</time>
      </trkpt>
      <trkpt lat="47.81477" lon="2.29933">
        <ele>244.29</ele>
        <time>2022-05-23T11:58:56Z</time>
      </trkpt>
      <trkpt lat="47.81486" lon="2.29939">
        <ele>244.38</ele>
        <time>2022-05-23T11:58:59Z</time>
      </trkpt>
      <trkpt lat="47.81497" lon="2.29944">
        <ele>244.46</ele>
        <time>2022-05-23T11:59:02Z</time>
      </trkpt>
      <trkpt lat="47.81508" lon="2.29949">
        <ele>244.78</ele>
        <time>2022-05-23T11:59:05Z</time>
      </trkpt>
      <trkpt lat="47.81518" lon="2.29955">
        <ele>244.46</ele>
        <time>2022-05-23T11:59:08Z</time>
      </trkpt>
      <trkpt lat="47.81529" lon="2.29959">
        <ele>244.47</ele>
        <time>2022-05-23T11:59:11Z</time>
      </trkpt>
      <trkpt lat="47.81538" lon="2.29964">
        <ele>244.51</ele>
        <time>2022-05-23T11:59:14Z</time>
      </trkpt>
      <trkpt lat="47.81545" lon="2.29971">
        <ele>244.49</ele>
        <time>2022-05-23T11:59:17Z</time>
      </trkpt>
      <trkpt lat="47.81555" lon="2.2998">
        <ele>244.76</ele>
        <time>2022-05-23T11:59:21Z</time>
      </trkpt>
      <trkpt lat="47.81564" lon="2.29985">
        <ele>244.65</ele>
        <time>2022-05-23T11:59:24Z</time>
      </trkpt>
      <trkpt lat="47.81573" lon="2.29991">
        <ele>244.29</ele>
        <time>2022-05-23T11:59:27Z</time>
      </trkpt>
      <trkpt lat="47.81582" lon="2.29997">
        <ele>243.58</ele>
        <time>2022-05-23T11:59:30Z</time>
      </trkpt>
      <trkpt lat="47.81591" lon="2.30003">
        <ele>243.09</ele>
        <time>2022-05-23T11:59:33Z</time>
      </trkpt>
      <trkpt lat="47.81599" lon="2.30011">
        <ele>243.07</ele>
        <time>2022-05-23T11:59:37Z</time>
      </trkpt>
      <trkpt lat="47.81601" lon="2.30027">
        <ele>243.6</ele>
        <time>2022-05-23T11:59:42Z</time>
      </trkpt>
      <trkpt lat="47.81609" lon="2.30035">
        <ele>242.94</ele>
        <time>2022-05-23T11:59:46Z</time>
      </trkpt>
      <trkpt lat="47.81621" lon="2.30036">
        <ele>242.47</ele>
        <time>2022-05-23T11:59:49Z</time>
      </trkpt>
      <trkpt lat="47.81634" lon="2.30036">
        <ele>242.03</ele>
        <time>2022-05-23T11:59:52Z</time>
      </trkpt>
      <trkpt lat="47.81643" lon="2.30036">
        <ele>242.26</ele>
        <time>2022-05-23T11:59:54Z</time>
      </trkpt>
      <trkpt lat="47.81653" lon="2.30039">
        <ele>242.01</ele>
        <time>2022-05-23T11:59:56Z</time>
      </trkpt>
      <trkpt lat="47.81665" lon="2.3004">
        <ele>242.31</ele>
        <time>2022-05-23T11:59:59Z</time>
      </trkpt>
      <trkpt lat="47.81678" lon="2.30042">
        <ele>242.28</ele>
        <time>2022-05-23T12:00:02Z</time>
      </trkpt>
      <trkpt lat="47.81691" lon="2.30042">
        <ele>242.29</ele>
        <time>2022-05-23T12:00:05Z</time>
      </trkpt>
      <trkpt lat="47.81703" lon="2.30043">
        <ele>241.8</ele>
        <time>2022-05-23T12:00:08Z</time>
      </trkpt>
      <trkpt lat="47.81715" lon="2.30043">
        <ele>242.12</ele>
        <time>2022-05-23T12:00:11Z</time>
      </trkpt>
      <trkpt lat="47.81726" lon="2.30043">
        <ele>241.93</ele>
        <time>2022-05-23T12:00:14Z</time>
      </trkpt>
      <trkpt lat="47.81736" lon="2.30043">
        <ele>241.74</ele>
        <time>2022-05-23T12:00:17Z</time>
      </trkpt>
      <trkpt lat="47.81745" lon="2.30043">
        <ele>241.8</ele>
        <time>2022-05-23T12:00:20Z</time>
      </trkpt>
      <trkpt lat="47.81754" lon="2.30048">
        <ele>241.64</ele>
        <time>2022-05-23T12:00:23Z</time>
      </trkpt>
      <trkpt lat="47.81765" lon="2.30049">
        <ele>241.67</ele>
        <time>2022-05-23T12:00:26Z</time>
      </trkpt>
      <trkpt lat="47.81775" lon="2.30048">
        <ele>241.27</ele>
        <time>2022-05-23T12:00:29Z</time>
      </trkpt>
      <trkpt lat="47.81786" lon="2.30047">
        <ele>241.28</ele>
        <time>2022-05-23T12:00:32Z</time>
      </trkpt>
      <trkpt lat="47.81796" lon="2.30045">
        <ele>241.09</ele>
        <time>2022-05-23T12:00:35Z</time>
      </trkpt>
      <trkpt lat="47.81807" lon="2.30043">
        <ele>241.22</ele>
        <time>2022-05-23T12:00:38Z</time>
      </trkpt>
      <trkpt lat="47.8182" lon="2.3004">
        <ele>241.52</ele>
        <time>2022-05-23T12:00:41Z</time>
      </trkpt>
      <trkpt lat="47.81833" lon="2.30035">
        <ele>241.28</ele>
        <time>2022-05-23T12:00:44Z</time>
      </trkpt>
      <trkpt lat="47.81844" lon="2.30029">
        <ele>241.29</ele>
        <time>2022-05-23T12:00:47Z</time>
      </trkpt>
      <trkpt lat="47.81855" lon="2.30023">
        <ele>241.59</ele>
        <time>2022-05-23T12:00:50Z</time>
      </trkpt>
      <trkpt lat="47.81865" lon="2.30018">
        <ele>241.43</ele>
        <time>2022-05-23T12:00:53Z</time>
      </trkpt>
      <trkpt lat="47.81876" lon="2.30011">
        <ele>241.24</ele>
        <time>2022-05-23T12:00:56Z</time>
      </trkpt>
      <trkpt lat="47.81888" lon="2.30005">
        <ele>241.36</ele>
        <time>2022-05-23T12:00:59Z</time>
      </trkpt>
      <trkpt lat="47.81899" lon="2.29999">
        <ele>240.97</ele>
        <time>2022-05-23T12:01:02Z</time>
      </trkpt>
      <trkpt lat="47.81911" lon="2.29993">
        <ele>240.98</ele>
        <time>2022-05-23T12:01:05Z</time>
      </trkpt>
      <trkpt lat="47.81921" lon="2.29987">
        <ele>241.15</ele>
        <time>2022-05-23T12:01:08Z</time>
      </trkpt>
      <trkpt lat="47.81932" lon="2.29981">
        <ele>240.81</ele>
        <time>2022-05-23T12:01:11Z</time>
      </trkpt>
      <trkpt lat="47.81944" lon="2.29975">
        <ele>240.74</ele>
        <time>2022-05-23T12:01:14Z</time>
      </trkpt>
      <trkpt lat="47.81955" lon="2.29969">
        <ele>241.26</ele>
        <time>2022-05-23T12:01:17Z</time>
      </trkpt>
      <trkpt lat="47.81967" lon="2.29963">
        <ele>241.22</ele>
        <time>2022-05-23T12:01:20Z</time>
      </trkpt>
      <trkpt lat="47.81979" lon="2.29958">
        <ele>240.93</ele>
        <time>2022-05-23T12:01:23Z</time>
      </trkpt>
      <trkpt lat="47.8199" lon="2.29952">
        <ele>240.83</ele>
        <time>2022-05-23T12:01:26Z</time>
      </trkpt>
      <trkpt lat="47.82002" lon="2.29946">
        <ele>240.7</ele>
        <time>2022-05-23T12:01:29Z</time>
      </trkpt>
      <trkpt lat="47.82013" lon="2.2994">
        <ele>240.93</ele>
        <time>2022-05-23T12:01:32Z</time>
      </trkpt>
      <trkpt lat="47.82025" lon="2.29935">
        <ele>240.83</ele>
        <time>2022-05-23T12:01:35Z</time>
      </trkpt>
      <trkpt lat="47.82037" lon="2.2993">
        <ele>241.03</ele>
        <time>2022-05-23T12:01:38Z</time>
      </trkpt>
      <trkpt lat="47.82048" lon="2.29924">
        <ele>240.92</ele>
        <time>2022-05-23T12:01:41Z</time>
      </trkpt>
      <trkpt lat="47.8206" lon="2.29919">
        <ele>241.08</ele>
        <time>2022-05-23T12:01:44Z</time>
      </trkpt>
      <trkpt lat="47.82071" lon="2.29913">
        <ele>241.4</ele>
        <time>2022-05-23T12:01:47Z</time>
      </trkpt>
      <trkpt lat="47.82083" lon="2.29907">
        <ele>241.28</ele>
        <time>2022-05-23T12:01:50Z</time>
      </trkpt>
      <trkpt lat="47.82094" lon="2.29903">
        <ele>241.52</ele>
        <time>2022-05-23T12:01:53Z</time>
      </trkpt>
      <trkpt lat="47.82106" lon="2.29897">
        <ele>241.56</ele>
        <time>2022-05-23T12:01:56Z</time>
      </trkpt>
      <trkpt lat="47.82117" lon="2.29892">
        <ele>241.59</ele>
        <time>2022-05-23T12:01:59Z</time>
      </trkpt>
      <trkpt lat="47.82128" lon="2.29887">
        <ele>241.34</ele>
        <time>2022-05-23T12:02:02Z</time>
      </trkpt>
      <trkpt lat="47.82138" lon="2.29884">
        <ele>241.59</ele>
        <time>2022-05-23T12:02:05Z</time>
      </trkpt>
      <trkpt lat="47.82148" lon="2.29879">
        <ele>241.79</ele>
        <time>2022-05-23T12:02:08Z</time>
      </trkpt>
      <trkpt lat="47.82158" lon="2.29871">
        <ele>241.57</ele>
        <time>2022-05-23T12:02:11Z</time>
      </trkpt>
      <trkpt lat="47.8217" lon="2.29866">
        <ele>241.37</ele>
        <time>2022-05-23T12:02:14Z</time>
      </trkpt>
      <trkpt lat="47.82179" lon="2.29861">
        <ele>241.31</ele>
        <time>2022-05-23T12:02:16Z</time>
      </trkpt>
      <trkpt lat="47.82191" lon="2.29856">
        <ele>240.84</ele>
        <time>2022-05-23T12:02:19Z</time>
      </trkpt>
      <trkpt lat="47.82202" lon="2.29852">
        <ele>240.61</ele>
        <time>2022-05-23T12:02:22Z</time>
      </trkpt>
      <trkpt lat="47.82212" lon="2.29847">
        <ele>240.96</ele>
        <time>2022-05-23T12:02:25Z</time>
      </trkpt>
      <trkpt lat="47.82223" lon="2.29842">
        <ele>241.2</ele>
        <time>2022-05-23T12:02:28Z</time>
      </trkpt>
      <trkpt lat="47.82234" lon="2.29836">
        <ele>241.19</ele>
        <time>2022-05-23T12:02:31Z</time>
      </trkpt>
      <trkpt lat="47.82244" lon="2.29833">
        <ele>241.53</ele>
        <time>2022-05-23T12:02:34Z</time>
      </trkpt>
      <trkpt lat="47.82254" lon="2.29831">
        <ele>241.63</ele>
        <time>2022-05-23T12:02:37Z</time>
      </trkpt>
      <trkpt lat="47.82264" lon="2.29829">
        <ele>241.45</ele>
        <time>2022-05-23T12:02:40Z</time>
      </trkpt>
      <trkpt lat="47.82277" lon="2.29827">
        <ele>241.6</ele>
        <time>2022-05-23T12:02:43Z</time>
      </trkpt>
      <trkpt lat="47.82288" lon="2.29826">
        <ele>241.54</ele>
        <time>2022-05-23T12:02:46Z</time>
      </trkpt>
      <trkpt lat="47.82299" lon="2.29824">
        <ele>241.79</ele>
        <time>2022-05-23T12:02:49Z</time>
      </trkpt>
      <trkpt lat="47.82308" lon="2.29821">
        <ele>241.77</ele>
        <time>2022-05-23T12:02:52Z</time>
      </trkpt>
      <trkpt lat="47.82318" lon="2.29817">
        <ele>241.6</ele>
        <time>2022-05-23T12:02:55Z</time>
      </trkpt>
      <trkpt lat="47.82329" lon="2.29813">
        <ele>241.91</ele>
        <time>2022-05-23T12:02:58Z</time>
      </trkpt>
      <trkpt lat="47.82338" lon="2.29808">
        <ele>242.33</ele>
        <time>2022-05-23T12:03:01Z</time>
      </trkpt>
      <trkpt lat="47.82348" lon="2.29803">
        <ele>242.75</ele>
        <time>2022-05-23T12:03:04Z</time>
      </trkpt>
      <trkpt lat="47.82359" lon="2.29799">
        <ele>242.79</ele>
        <time>2022-05-23T12:03:07Z</time>
      </trkpt>
      <trkpt lat="47.8237" lon="2.29798">
        <ele>242.84</ele>
        <time>2022-05-23T12:03:10Z</time>
      </trkpt>
      <trkpt lat="47.82381" lon="2.29798">
        <ele>242.55</ele>
        <time>2022-05-23T12:03:13Z</time>
      </trkpt>
      <trkpt lat="47.82392" lon="2.298">
        <ele>242.56</ele>
        <time>2022-05-23T12:03:16Z</time>
      </trkpt>
      <trkpt lat="47.82403" lon="2.29803">
        <ele>242.48</ele>
        <time>2022-05-23T12:03:19Z</time>
      </trkpt>
      <trkpt lat="47.82415" lon="2.29805">
        <ele>242.41</ele>
        <time>2022-05-23T12:03:22Z</time>
      </trkpt>
      <trkpt lat="47.82427" lon="2.29807">
        <ele>242.45</ele>
        <time>2022-05-23T12:03:25Z</time>
      </trkpt>
      <trkpt lat="47.82438" lon="2.2981">
        <ele>242.3</ele>
        <time>2022-05-23T12:03:28Z</time>
      </trkpt>
      <trkpt lat="47.8245" lon="2.29811">
        <ele>242.37</ele>
        <time>2022-05-23T12:03:31Z</time>
      </trkpt>
      <trkpt lat="47.82461" lon="2.29812">
        <ele>242.27</ele>
        <time>2022-05-23T12:03:34Z</time>
      </trkpt>
      <trkpt lat="47.82473" lon="2.29811">
        <ele>242.33</ele>
        <time>2022-05-23T12:03:37Z</time>
      </trkpt>
      <trkpt lat="47.82484" lon="2.2981">
        <ele>242.16</ele>
        <time>2022-05-23T12:03:40Z</time>
      </trkpt>
      <trkpt lat="47.82496" lon="2.29807">
        <ele>241.78</ele>
        <time>2022-05-23T12:03:43Z</time>
      </trkpt>
      <trkpt lat="47.82508" lon="2.29803">
        <ele>241.85</ele>
        <time>2022-05-23T12:03:46Z</time>
      </trkpt>
      <trkpt lat="47.82519" lon="2.298">
        <ele>241.56</ele>
        <time>2022-05-23T12:03:49Z</time>
      </trkpt>
      <trkpt lat="47.8253" lon="2.29796">
        <ele>241.82</ele>
        <time>2022-05-23T12:03:52Z</time>
      </trkpt>
      <trkpt lat="47.82541" lon="2.29792">
        <ele>241.68</ele>
        <time>2022-05-23T12:03:55Z</time>
      </trkpt>
      <trkpt lat="47.82552" lon="2.29787">
        <ele>241.84</ele>
        <time>2022-05-23T12:03:58Z</time>
      </trkpt>
      <trkpt lat="47.82564" lon="2.29781">
        <ele>241.73</ele>
        <time>2022-05-23T12:04:01Z</time>
      </trkpt>
      <trkpt lat="47.82576" lon="2.29776">
        <ele>241.56</ele>
        <time>2022-05-23T12:04:04Z</time>
      </trkpt>
      <trkpt lat="47.82587" lon="2.2977">
        <ele>242.01</ele>
        <time>2022-05-23T12:04:07Z</time>
      </trkpt>
      <trkpt lat="47.82597" lon="2.29763">
        <ele>242.76</ele>
        <time>2022-05-23T12:04:10Z</time>
      </trkpt>
      <trkpt lat="47.82608" lon="2.29757">
        <ele>242.75</ele>
        <time>2022-05-23T12:04:13Z</time>
      </trkpt>
      <trkpt lat="47.82619" lon="2.2975">
        <ele>242.73</ele>
        <time>2022-05-23T12:04:16Z</time>
      </trkpt>
      <trkpt lat="47.8263" lon="2.29744">
        <ele>242.43</ele>
        <time>2022-05-23T12:04:19Z</time>
      </trkpt>
      <trkpt lat="47.8264" lon="2.29736">
        <ele>242.47</ele>
        <time>2022-05-23T12:04:22Z</time>
      </trkpt>
      <trkpt lat="47.8265" lon="2.29728">
        <ele>242.34</ele>
        <time>2022-05-23T12:04:25Z</time>
      </trkpt>
      <trkpt lat="47.82661" lon="2.29719">
        <ele>242.53</ele>
        <time>2022-05-23T12:04:28Z</time>
      </trkpt>
      <trkpt lat="47.8267" lon="2.29709">
        <ele>242.45</ele>
        <time>2022-05-23T12:04:31Z</time>
      </trkpt>
      <trkpt lat="47.82679" lon="2.29699">
        <ele>242.63</ele>
        <time>2022-05-23T12:04:34Z</time>
      </trkpt>
      <trkpt lat="47.82687" lon="2.29689">
        <ele>242.58</ele>
        <time>2022-05-23T12:04:37Z</time>
      </trkpt>
      <trkpt lat="47.82695" lon="2.29679">
        <ele>242.64</ele>
        <time>2022-05-23T12:04:40Z</time>
      </trkpt>
      <trkpt lat="47.82704" lon="2.29668">
        <ele>242.8</ele>
        <time>2022-05-23T12:04:43Z</time>
      </trkpt>
      <trkpt lat="47.82712" lon="2.29657">
        <ele>242.84</ele>
        <time>2022-05-23T12:04:46Z</time>
      </trkpt>
      <trkpt lat="47.8272" lon="2.29645">
        <ele>242.72</ele>
        <time>2022-05-23T12:04:49Z</time>
      </trkpt>
      <trkpt lat="47.82728" lon="2.29632">
        <ele>242.87</ele>
        <time>2022-05-23T12:04:52Z</time>
      </trkpt>
      <trkpt lat="47.82736" lon="2.29619">
        <ele>243.25</ele>
        <time>2022-05-23T12:04:55Z</time>
      </trkpt>
      <trkpt lat="47.82744" lon="2.29605">
        <ele>243.13</ele>
        <time>2022-05-23T12:04:58Z</time>
      </trkpt>
      <trkpt lat="47.82751" lon="2.2959">
        <ele>242.89</ele>
        <time>2022-05-23T12:05:01Z</time>
      </trkpt>
      <trkpt lat="47.82759" lon="2.29577">
        <ele>242.78</ele>
        <time>2022-05-23T12:05:04Z</time>
      </trkpt>
      <trkpt lat="47.82767" lon="2.29562">
        <ele>242.55</ele>
        <time>2022-05-23T12:05:07Z</time>
      </trkpt>
      <trkpt lat="47.82775" lon="2.29548">
        <ele>242.39</ele>
        <time>2022-05-23T12:05:10Z</time>
      </trkpt>
      <trkpt lat="47.82784" lon="2.29535">
        <ele>242.44</ele>
        <time>2022-05-23T12:05:13Z</time>
      </trkpt>
      <trkpt lat="47.82793" lon="2.29521">
        <ele>242.27</ele>
        <time>2022-05-23T12:05:16Z</time>
      </trkpt>
      <trkpt lat="47.82801" lon="2.29508">
        <ele>241.99</ele>
        <time>2022-05-23T12:05:19Z</time>
      </trkpt>
      <trkpt lat="47.82809" lon="2.29493">
        <ele>242.01</ele>
        <time>2022-05-23T12:05:22Z</time>
      </trkpt>
      <trkpt lat="47.82817" lon="2.2948">
        <ele>242.32</ele>
        <time>2022-05-23T12:05:25Z</time>
      </trkpt>
      <trkpt lat="47.82827" lon="2.29466">
        <ele>242.08</ele>
        <time>2022-05-23T12:05:28Z</time>
      </trkpt>
      <trkpt lat="47.82833" lon="2.29457">
        <ele>241.94</ele>
        <time>2022-05-23T12:05:30Z</time>
      </trkpt>
      <trkpt lat="47.82842" lon="2.29444">
        <ele>241.69</ele>
        <time>2022-05-23T12:05:33Z</time>
      </trkpt>
      <trkpt lat="47.82849" lon="2.29434">
        <ele>242.01</ele>
        <time>2022-05-23T12:05:35Z</time>
      </trkpt>
      <trkpt lat="47.82856" lon="2.29425">
        <ele>242.01</ele>
        <time>2022-05-23T12:05:37Z</time>
      </trkpt>
      <trkpt lat="47.82863" lon="2.29416">
        <ele>242.15</ele>
        <time>2022-05-23T12:05:39Z</time>
      </trkpt>
      <trkpt lat="47.82869" lon="2.29407">
        <ele>242.56</ele>
        <time>2022-05-23T12:05:41Z</time>
      </trkpt>
      <trkpt lat="47.82879" lon="2.29393">
        <ele>242.34</ele>
        <time>2022-05-23T12:05:44Z</time>
      </trkpt>
      <trkpt lat="47.82888" lon="2.29379">
        <ele>242.27</ele>
        <time>2022-05-23T12:05:47Z</time>
      </trkpt>
      <trkpt lat="47.82897" lon="2.29366">
        <ele>242.4</ele>
        <time>2022-05-23T12:05:50Z</time>
      </trkpt>
      <trkpt lat="47.82906" lon="2.29351">
        <ele>242.31</ele>
        <time>2022-05-23T12:05:53Z</time>
      </trkpt>
      <trkpt lat="47.82915" lon="2.29337">
        <ele>242.02</ele>
        <time>2022-05-23T12:05:56Z</time>
      </trkpt>
      <trkpt lat="47.82923" lon="2.29321">
        <ele>242.19</ele>
        <time>2022-05-23T12:05:59Z</time>
      </trkpt>
      <trkpt lat="47.8293" lon="2.29305">
        <ele>242.02</ele>
        <time>2022-05-23T12:06:02Z</time>
      </trkpt>
      <trkpt lat="47.82938" lon="2.29289">
        <ele>241.95</ele>
        <time>2022-05-23T12:06:05Z</time>
      </trkpt>
      <trkpt lat="47.82948" lon="2.29276">
        <ele>241.58</ele>
        <time>2022-05-23T12:06:08Z</time>
      </trkpt>
      <trkpt lat="47.82958" lon="2.29262">
        <ele>241.82</ele>
        <time>2022-05-23T12:06:11Z</time>
      </trkpt>
      <trkpt lat="47.82967" lon="2.29249">
        <ele>241.87</ele>
        <time>2022-05-23T12:06:14Z</time>
      </trkpt>
      <trkpt lat="47.82976" lon="2.29236">
        <ele>241.76</ele>
        <time>2022-05-23T12:06:17Z</time>
      </trkpt>
      <trkpt lat="47.82985" lon="2.29222">
        <ele>241.72</ele>
        <time>2022-05-23T12:06:20Z</time>
      </trkpt>
      <trkpt lat="47.82992" lon="2.29207">
        <ele>241.94</ele>
        <time>2022-05-23T12:06:23Z</time>
      </trkpt>
      <trkpt lat="47.83" lon="2.29191">
        <ele>242.13</ele>
        <time>2022-05-23T12:06:26Z</time>
      </trkpt>
      <trkpt lat="47.83006" lon="2.29178">
        <ele>242.08</ele>
        <time>2022-05-23T12:06:29Z</time>
      </trkpt>
      <trkpt lat="47.83013" lon="2.29163">
        <ele>242.48</ele>
        <time>2022-05-23T12:06:33Z</time>
      </trkpt>
      <trkpt lat="47.8302" lon="2.29147">
        <ele>242.06</ele>
        <time>2022-05-23T12:06:36Z</time>
      </trkpt>
      <trkpt lat="47.83024" lon="2.29135">
        <ele>241.77</ele>
        <time>2022-05-23T12:06:38Z</time>
      </trkpt>
      <trkpt lat="47.83029" lon="2.29124">
        <ele>241.52</ele>
        <time>2022-05-23T12:06:40Z</time>
      </trkpt>
      <trkpt lat="47.83036" lon="2.29106">
        <ele>241.94</ele>
        <time>2022-05-23T12:06:43Z</time>
      </trkpt>
      <trkpt lat="47.8304" lon="2.29095">
        <ele>241.8</ele>
        <time>2022-05-23T12:06:45Z</time>
      </trkpt>
      <trkpt lat="47.83048" lon="2.29078">
        <ele>242.19</ele>
        <time>2022-05-23T12:06:48Z</time>
      </trkpt>
      <trkpt lat="47.83054" lon="2.29062">
        <ele>242.12</ele>
        <time>2022-05-23T12:06:51Z</time>
      </trkpt>
      <trkpt lat="47.83061" lon="2.29044">
        <ele>242.04</ele>
        <time>2022-05-23T12:06:54Z</time>
      </trkpt>
      <trkpt lat="47.83066" lon="2.29032">
        <ele>241.79</ele>
        <time>2022-05-23T12:06:56Z</time>
      </trkpt>
      <trkpt lat="47.83072" lon="2.29016">
        <ele>241.85</ele>
        <time>2022-05-23T12:06:59Z</time>
      </trkpt>
      <trkpt lat="47.83077" lon="2.29">
        <ele>242.06</ele>
        <time>2022-05-23T12:07:02Z</time>
      </trkpt>
      <trkpt lat="47.83082" lon="2.28983">
        <ele>241.82</ele>
        <time>2022-05-23T12:07:05Z</time>
      </trkpt>
      <trkpt lat="47.83087" lon="2.28968">
        <ele>241.97</ele>
        <time>2022-05-23T12:07:08Z</time>
      </trkpt>
      <trkpt lat="47.83091" lon="2.28952">
        <ele>241.71</ele>
        <time>2022-05-23T12:07:11Z</time>
      </trkpt>
      <trkpt lat="47.83095" lon="2.28936">
        <ele>241.57</ele>
        <time>2022-05-23T12:07:14Z</time>
      </trkpt>
      <trkpt lat="47.83099" lon="2.28919">
        <ele>241.47</ele>
        <time>2022-05-23T12:07:17Z</time>
      </trkpt>
      <trkpt lat="47.83103" lon="2.28902">
        <ele>241.35</ele>
        <time>2022-05-23T12:07:20Z</time>
      </trkpt>
      <trkpt lat="47.83107" lon="2.28883">
        <ele>241</ele>
        <time>2022-05-23T12:07:23Z</time>
      </trkpt>
      <trkpt lat="47.8311" lon="2.28864">
        <ele>240.72</ele>
        <time>2022-05-23T12:07:26Z</time>
      </trkpt>
      <trkpt lat="47.83112" lon="2.2885">
        <ele>240.83</ele>
        <time>2022-05-23T12:07:28Z</time>
      </trkpt>
      <trkpt lat="47.83113" lon="2.28836">
        <ele>240.76</ele>
        <time>2022-05-23T12:07:30Z</time>
      </trkpt>
      <trkpt lat="47.83113" lon="2.28823">
        <ele>241.02</ele>
        <time>2022-05-23T12:07:32Z</time>
      </trkpt>
      <trkpt lat="47.8311" lon="2.28804">
        <ele>240.97</ele>
        <time>2022-05-23T12:07:35Z</time>
      </trkpt>
      <trkpt lat="47.83103" lon="2.28788">
        <ele>241.01</ele>
        <time>2022-05-23T12:07:38Z</time>
      </trkpt>
      <trkpt lat="47.83095" lon="2.28774">
        <ele>241.02</ele>
        <time>2022-05-23T12:07:41Z</time>
      </trkpt>
      <trkpt lat="47.8309" lon="2.28763">
        <ele>240.99</ele>
        <time>2022-05-23T12:07:43Z</time>
      </trkpt>
      <trkpt lat="47.83085" lon="2.2875">
        <ele>240.91</ele>
        <time>2022-05-23T12:07:45Z</time>
      </trkpt>
      <trkpt lat="47.83081" lon="2.28738">
        <ele>240.55</ele>
        <time>2022-05-23T12:07:47Z</time>
      </trkpt>
      <trkpt lat="47.83079" lon="2.28724">
        <ele>240.2</ele>
        <time>2022-05-23T12:07:49Z</time>
      </trkpt>
      <trkpt lat="47.83079" lon="2.28709">
        <ele>240.04</ele>
        <time>2022-05-23T12:07:51Z</time>
      </trkpt>
      <trkpt lat="47.83082" lon="2.28696">
        <ele>239.96</ele>
        <time>2022-05-23T12:07:53Z</time>
      </trkpt>
      <trkpt lat="47.83089" lon="2.28681">
        <ele>239.8</ele>
        <time>2022-05-23T12:07:56Z</time>
      </trkpt>
      <trkpt lat="47.83095" lon="2.28664">
        <ele>240.01</ele>
        <time>2022-05-23T12:07:59Z</time>
      </trkpt>
      <trkpt lat="47.83099" lon="2.28651">
        <ele>240.06</ele>
        <time>2022-05-23T12:08:01Z</time>
      </trkpt>
      <trkpt lat="47.83102" lon="2.28637">
        <ele>240.31</ele>
        <time>2022-05-23T12:08:03Z</time>
      </trkpt>
      <trkpt lat="47.83105" lon="2.28623">
        <ele>240.59</ele>
        <time>2022-05-23T12:08:05Z</time>
      </trkpt>
      <trkpt lat="47.83107" lon="2.2861">
        <ele>240.53</ele>
        <time>2022-05-23T12:08:07Z</time>
      </trkpt>
      <trkpt lat="47.83109" lon="2.28596">
        <ele>241.07</ele>
        <time>2022-05-23T12:08:09Z</time>
      </trkpt>
      <trkpt lat="47.83112" lon="2.28578">
        <ele>241.19</ele>
        <time>2022-05-23T12:08:12Z</time>
      </trkpt>
      <trkpt lat="47.83112" lon="2.28559">
        <ele>240.95</ele>
        <time>2022-05-23T12:08:15Z</time>
      </trkpt>
      <trkpt lat="47.83109" lon="2.2854">
        <ele>240.83</ele>
        <time>2022-05-23T12:08:18Z</time>
      </trkpt>
      <trkpt lat="47.83105" lon="2.28523">
        <ele>240.96</ele>
        <time>2022-05-23T12:08:21Z</time>
      </trkpt>
      <trkpt lat="47.83105" lon="2.28507">
        <ele>240.69</ele>
        <time>2022-05-23T12:08:24Z</time>
      </trkpt>
      <trkpt lat="47.83111" lon="2.28489">
        <ele>239.92</ele>
        <time>2022-05-23T12:08:27Z</time>
      </trkpt>
      <trkpt lat="47.83114" lon="2.28473">
        <ele>239.73</ele>
        <time>2022-05-23T12:08:29Z</time>
      </trkpt>
      <trkpt lat="47.83117" lon="2.28459">
        <ele>239.54</ele>
        <time>2022-05-23T12:08:31Z</time>
      </trkpt>
      <trkpt lat="47.8312" lon="2.28445">
        <ele>239.61</ele>
        <time>2022-05-23T12:08:33Z</time>
      </trkpt>
      <trkpt lat="47.83123" lon="2.28428">
        <ele>239.82</ele>
        <time>2022-05-23T12:08:36Z</time>
      </trkpt>
      <trkpt lat="47.83127" lon="2.28409">
        <ele>240.02</ele>
        <time>2022-05-23T12:08:39Z</time>
      </trkpt>
      <trkpt lat="47.8313" lon="2.28392">
        <ele>240.27</ele>
        <time>2022-05-23T12:08:42Z</time>
      </trkpt>
      <trkpt lat="47.83133" lon="2.28374">
        <ele>240.11</ele>
        <time>2022-05-23T12:08:45Z</time>
      </trkpt>
      <trkpt lat="47.83135" lon="2.28357">
        <ele>239.87</ele>
        <time>2022-05-23T12:08:48Z</time>
      </trkpt>
      <trkpt lat="47.83139" lon="2.28338">
        <ele>239.61</ele>
        <time>2022-05-23T12:08:51Z</time>
      </trkpt>
      <trkpt lat="47.83142" lon="2.28321">
        <ele>239.16</ele>
        <time>2022-05-23T12:08:54Z</time>
      </trkpt>
      <trkpt lat="47.83145" lon="2.28304">
        <ele>239.15</ele>
        <time>2022-05-23T12:08:57Z</time>
      </trkpt>
      <trkpt lat="47.83148" lon="2.28288">
        <ele>239.6</ele>
        <time>2022-05-23T12:09:00Z</time>
      </trkpt>
      <trkpt lat="47.8315" lon="2.28271">
        <ele>239.73</ele>
        <time>2022-05-23T12:09:03Z</time>
      </trkpt>
      <trkpt lat="47.83152" lon="2.28254">
        <ele>239.68</ele>
        <time>2022-05-23T12:09:06Z</time>
      </trkpt>
      <trkpt lat="47.83156" lon="2.28239">
        <ele>240.19</ele>
        <time>2022-05-23T12:09:09Z</time>
      </trkpt>
      <trkpt lat="47.83162" lon="2.28226">
        <ele>240.84</ele>
        <time>2022-05-23T12:09:13Z</time>
      </trkpt>
      <trkpt lat="47.83152" lon="2.28228">
        <ele>242.48</ele>
        <time>2022-05-23T12:09:23Z</time>
      </trkpt>
      <trkpt lat="47.83146" lon="2.2824">
        <ele>242.68</ele>
        <time>2022-05-23T12:09:41Z</time>
      </trkpt>
      <trkpt lat="47.83147" lon="2.28223">
        <ele>242.07</ele>
        <time>2022-05-23T12:09:52Z</time>
      </trkpt>
      <trkpt lat="47.83155" lon="2.28209">
        <ele>241.6</ele>
        <time>2022-05-23T12:09:56Z</time>
      </trkpt>
      <trkpt lat="47.83163" lon="2.28193">
        <ele>241.4</ele>
        <time>2022-05-23T12:09:59Z</time>
      </trkpt>
      <trkpt lat="47.83168" lon="2.28182">
        <ele>241.32</ele>
        <time>2022-05-23T12:10:01Z</time>
      </trkpt>
      <trkpt lat="47.83175" lon="2.28168">
        <ele>241.33</ele>
        <time>2022-05-23T12:10:04Z</time>
      </trkpt>
      <trkpt lat="47.83182" lon="2.28152">
        <ele>241.25</ele>
        <time>2022-05-23T12:10:07Z</time>
      </trkpt>
      <trkpt lat="47.83185" lon="2.28139">
        <ele>241.09</ele>
        <time>2022-05-23T12:10:09Z</time>
      </trkpt>
      <trkpt lat="47.8319" lon="2.28126">
        <ele>241.23</ele>
        <time>2022-05-23T12:10:11Z</time>
      </trkpt>
      <trkpt lat="47.83192" lon="2.28113">
        <ele>241.27</ele>
        <time>2022-05-23T12:10:13Z</time>
      </trkpt>
      <trkpt lat="47.83195" lon="2.28095">
        <ele>241.32</ele>
        <time>2022-05-23T12:10:16Z</time>
      </trkpt>
      <trkpt lat="47.83197" lon="2.28075">
        <ele>241.26</ele>
        <time>2022-05-23T12:10:19Z</time>
      </trkpt>
      <trkpt lat="47.83198" lon="2.28062">
        <ele>241.07</ele>
        <time>2022-05-23T12:10:21Z</time>
      </trkpt>
      <trkpt lat="47.83199" lon="2.28047">
        <ele>240.99</ele>
        <time>2022-05-23T12:10:23Z</time>
      </trkpt>
      <trkpt lat="47.83199" lon="2.28032">
        <ele>240.98</ele>
        <time>2022-05-23T12:10:25Z</time>
      </trkpt>
      <trkpt lat="47.832" lon="2.28017">
        <ele>240.83</ele>
        <time>2022-05-23T12:10:27Z</time>
      </trkpt>
      <trkpt lat="47.832" lon="2.28002">
        <ele>240.76</ele>
        <time>2022-05-23T12:10:29Z</time>
      </trkpt>
      <trkpt lat="47.832" lon="2.27986">
        <ele>240.67</ele>
        <time>2022-05-23T12:10:31Z</time>
      </trkpt>
      <trkpt lat="47.83201" lon="2.27971">
        <ele>240.9</ele>
        <time>2022-05-23T12:10:33Z</time>
      </trkpt>
      <trkpt lat="47.83201" lon="2.27955">
        <ele>241.24</ele>
        <time>2022-05-23T12:10:35Z</time>
      </trkpt>
      <trkpt lat="47.83201" lon="2.27938">
        <ele>241.03</ele>
        <time>2022-05-23T12:10:37Z</time>
      </trkpt>
      <trkpt lat="47.83201" lon="2.27923">
        <ele>240.86</ele>
        <time>2022-05-23T12:10:39Z</time>
      </trkpt>
      <trkpt lat="47.83202" lon="2.27909">
        <ele>240.73</ele>
        <time>2022-05-23T12:10:41Z</time>
      </trkpt>
      <trkpt lat="47.83202" lon="2.27889">
        <ele>240.56</ele>
        <time>2022-05-23T12:10:44Z</time>
      </trkpt>
      <trkpt lat="47.83202" lon="2.2787">
        <ele>240.49</ele>
        <time>2022-05-23T12:10:47Z</time>
      </trkpt>
      <trkpt lat="47.83202" lon="2.27852">
        <ele>240.3</ele>
        <time>2022-05-23T12:10:50Z</time>
      </trkpt>
      <trkpt lat="47.83203" lon="2.27834">
        <ele>240.03</ele>
        <time>2022-05-23T12:10:53Z</time>
      </trkpt>
      <trkpt lat="47.83203" lon="2.27816">
        <ele>240.33</ele>
        <time>2022-05-23T12:10:56Z</time>
      </trkpt>
      <trkpt lat="47.83204" lon="2.27798">
        <ele>240.51</ele>
        <time>2022-05-23T12:10:59Z</time>
      </trkpt>
      <trkpt lat="47.83206" lon="2.2778">
        <ele>240.57</ele>
        <time>2022-05-23T12:11:02Z</time>
      </trkpt>
      <trkpt lat="47.83208" lon="2.27762">
        <ele>240.46</ele>
        <time>2022-05-23T12:11:05Z</time>
      </trkpt>
      <trkpt lat="47.83211" lon="2.27745">
        <ele>240.6</ele>
        <time>2022-05-23T12:11:08Z</time>
      </trkpt>
      <trkpt lat="47.83215" lon="2.27729">
        <ele>240.59</ele>
        <time>2022-05-23T12:11:11Z</time>
      </trkpt>
      <trkpt lat="47.83219" lon="2.2771">
        <ele>240.78</ele>
        <time>2022-05-23T12:11:14Z</time>
      </trkpt>
      <trkpt lat="47.83221" lon="2.27697">
        <ele>240.78</ele>
        <time>2022-05-23T12:11:16Z</time>
      </trkpt>
      <trkpt lat="47.83225" lon="2.27684">
        <ele>240.52</ele>
        <time>2022-05-23T12:11:18Z</time>
      </trkpt>
      <trkpt lat="47.83228" lon="2.2767">
        <ele>240.32</ele>
        <time>2022-05-23T12:11:20Z</time>
      </trkpt>
      <trkpt lat="47.83232" lon="2.27657">
        <ele>240.35</ele>
        <time>2022-05-23T12:11:22Z</time>
      </trkpt>
      <trkpt lat="47.83236" lon="2.27643">
        <ele>240.18</ele>
        <time>2022-05-23T12:11:24Z</time>
      </trkpt>
      <trkpt lat="47.83241" lon="2.27629">
        <ele>240.06</ele>
        <time>2022-05-23T12:11:26Z</time>
      </trkpt>
      <trkpt lat="47.83245" lon="2.27616">
        <ele>240.2</ele>
        <time>2022-05-23T12:11:28Z</time>
      </trkpt>
      <trkpt lat="47.8325" lon="2.27604">
        <ele>240.28</ele>
        <time>2022-05-23T12:11:30Z</time>
      </trkpt>
      <trkpt lat="47.83258" lon="2.27588">
        <ele>240.27</ele>
        <time>2022-05-23T12:11:33Z</time>
      </trkpt>
      <trkpt lat="47.83267" lon="2.27572">
        <ele>240.45</ele>
        <time>2022-05-23T12:11:36Z</time>
      </trkpt>
      <trkpt lat="47.83275" lon="2.27557">
        <ele>240.45</ele>
        <time>2022-05-23T12:11:39Z</time>
      </trkpt>
      <trkpt lat="47.8328" lon="2.27546">
        <ele>240.57</ele>
        <time>2022-05-23T12:11:41Z</time>
      </trkpt>
      <trkpt lat="47.83289" lon="2.27531">
        <ele>240.71</ele>
        <time>2022-05-23T12:11:44Z</time>
      </trkpt>
      <trkpt lat="47.83298" lon="2.27517">
        <ele>240.61</ele>
        <time>2022-05-23T12:11:47Z</time>
      </trkpt>
      <trkpt lat="47.83304" lon="2.27507">
        <ele>240.62</ele>
        <time>2022-05-23T12:11:49Z</time>
      </trkpt>
      <trkpt lat="47.8331" lon="2.27497">
        <ele>240.56</ele>
        <time>2022-05-23T12:11:51Z</time>
      </trkpt>
      <trkpt lat="47.83317" lon="2.27487">
        <ele>240.89</ele>
        <time>2022-05-23T12:11:53Z</time>
      </trkpt>
      <trkpt lat="47.83324" lon="2.27477">
        <ele>241.16</ele>
        <time>2022-05-23T12:11:55Z</time>
      </trkpt>
      <trkpt lat="47.83335" lon="2.27466">
        <ele>241.25</ele>
        <time>2022-05-23T12:11:58Z</time>
      </trkpt>
      <trkpt lat="47.83346" lon="2.27456">
        <ele>240.99</ele>
        <time>2022-05-23T12:12:01Z</time>
      </trkpt>
      <trkpt lat="47.83358" lon="2.27448">
        <ele>240.67</ele>
        <time>2022-05-23T12:12:04Z</time>
      </trkpt>
      <trkpt lat="47.83371" lon="2.27441">
        <ele>240.35</ele>
        <time>2022-05-23T12:12:07Z</time>
      </trkpt>
      <trkpt lat="47.83383" lon="2.27435">
        <ele>239.98</ele>
        <time>2022-05-23T12:12:10Z</time>
      </trkpt>
      <trkpt lat="47.83392" lon="2.27431">
        <ele>239.99</ele>
        <time>2022-05-23T12:12:12Z</time>
      </trkpt>
      <trkpt lat="47.83404" lon="2.27425">
        <ele>240.18</ele>
        <time>2022-05-23T12:12:15Z</time>
      </trkpt>
      <trkpt lat="47.83416" lon="2.27419">
        <ele>240.47</ele>
        <time>2022-05-23T12:12:18Z</time>
      </trkpt>
      <trkpt lat="47.83428" lon="2.27413">
        <ele>240.22</ele>
        <time>2022-05-23T12:12:21Z</time>
      </trkpt>
      <trkpt lat="47.83441" lon="2.27407">
        <ele>240.2</ele>
        <time>2022-05-23T12:12:24Z</time>
      </trkpt>
      <trkpt lat="47.83453" lon="2.27398">
        <ele>239.83</ele>
        <time>2022-05-23T12:12:27Z</time>
      </trkpt>
      <trkpt lat="47.83465" lon="2.27389">
        <ele>239.9</ele>
        <time>2022-05-23T12:12:30Z</time>
      </trkpt>
      <trkpt lat="47.83472" lon="2.27382">
        <ele>240.21</ele>
        <time>2022-05-23T12:12:32Z</time>
      </trkpt>
      <trkpt lat="47.8348" lon="2.27375">
        <ele>240.4</ele>
        <time>2022-05-23T12:12:34Z</time>
      </trkpt>
      <trkpt lat="47.83488" lon="2.27367">
        <ele>240.39</ele>
        <time>2022-05-23T12:12:36Z</time>
      </trkpt>
      <trkpt lat="47.83499" lon="2.27356">
        <ele>241.04</ele>
        <time>2022-05-23T12:12:39Z</time>
      </trkpt>
      <trkpt lat="47.83506" lon="2.27348">
        <ele>240.77</ele>
        <time>2022-05-23T12:12:41Z</time>
      </trkpt>
      <trkpt lat="47.83513" lon="2.27339">
        <ele>240.55</ele>
        <time>2022-05-23T12:12:43Z</time>
      </trkpt>
      <trkpt lat="47.8352" lon="2.2733">
        <ele>240.52</ele>
        <time>2022-05-23T12:12:45Z</time>
      </trkpt>
      <trkpt lat="47.83529" lon="2.27318">
        <ele>240.75</ele>
        <time>2022-05-23T12:12:48Z</time>
      </trkpt>
      <trkpt lat="47.83539" lon="2.27304">
        <ele>241.06</ele>
        <time>2022-05-23T12:12:51Z</time>
      </trkpt>
      <trkpt lat="47.83548" lon="2.2729">
        <ele>241.26</ele>
        <time>2022-05-23T12:12:54Z</time>
      </trkpt>
      <trkpt lat="47.83557" lon="2.27276">
        <ele>241.12</ele>
        <time>2022-05-23T12:12:57Z</time>
      </trkpt>
      <trkpt lat="47.83566" lon="2.27261">
        <ele>241.05</ele>
        <time>2022-05-23T12:13:00Z</time>
      </trkpt>
      <trkpt lat="47.83574" lon="2.27246">
        <ele>240.7</ele>
        <time>2022-05-23T12:13:03Z</time>
      </trkpt>
      <trkpt lat="47.83581" lon="2.2723">
        <ele>240.19</ele>
        <time>2022-05-23T12:13:06Z</time>
      </trkpt>
      <trkpt lat="47.83588" lon="2.27213">
        <ele>240.17</ele>
        <time>2022-05-23T12:13:09Z</time>
      </trkpt>
      <trkpt lat="47.83595" lon="2.27197">
        <ele>240.05</ele>
        <time>2022-05-23T12:13:12Z</time>
      </trkpt>
      <trkpt lat="47.83601" lon="2.2718">
        <ele>240.14</ele>
        <time>2022-05-23T12:13:15Z</time>
      </trkpt>
      <trkpt lat="47.83607" lon="2.27163">
        <ele>240.08</ele>
        <time>2022-05-23T12:13:18Z</time>
      </trkpt>
      <trkpt lat="47.83613" lon="2.27147">
        <ele>240.15</ele>
        <time>2022-05-23T12:13:21Z</time>
      </trkpt>
      <trkpt lat="47.83619" lon="2.27131">
        <ele>240.47</ele>
        <time>2022-05-23T12:13:24Z</time>
      </trkpt>
      <trkpt lat="47.83625" lon="2.27114">
        <ele>240.34</ele>
        <time>2022-05-23T12:13:27Z</time>
      </trkpt>
      <trkpt lat="47.83631" lon="2.27098">
        <ele>240.58</ele>
        <time>2022-05-23T12:13:30Z</time>
      </trkpt>
      <trkpt lat="47.83638" lon="2.27081">
        <ele>240.55</ele>
        <time>2022-05-23T12:13:33Z</time>
      </trkpt>
      <trkpt lat="47.83643" lon="2.27065">
        <ele>240.72</ele>
        <time>2022-05-23T12:13:36Z</time>
      </trkpt>
      <trkpt lat="47.8365" lon="2.27049">
        <ele>240.91</ele>
        <time>2022-05-23T12:13:39Z</time>
      </trkpt>
      <trkpt lat="47.83656" lon="2.27033">
        <ele>240.72</ele>
        <time>2022-05-23T12:13:42Z</time>
      </trkpt>
      <trkpt lat="47.83663" lon="2.27016">
        <ele>241.05</ele>
        <time>2022-05-23T12:13:45Z</time>
      </trkpt>
      <trkpt lat="47.83669" lon="2.27">
        <ele>240.9</ele>
        <time>2022-05-23T12:13:48Z</time>
      </trkpt>
      <trkpt lat="47.83675" lon="2.26983">
        <ele>240.93</ele>
        <time>2022-05-23T12:13:51Z</time>
      </trkpt>
      <trkpt lat="47.83681" lon="2.26966">
        <ele>240.97</ele>
        <time>2022-05-23T12:13:54Z</time>
      </trkpt>
      <trkpt lat="47.83687" lon="2.26949">
        <ele>240.9</ele>
        <time>2022-05-23T12:13:57Z</time>
      </trkpt>
      <trkpt lat="47.83694" lon="2.26932">
        <ele>240.8</ele>
        <time>2022-05-23T12:14:00Z</time>
      </trkpt>
      <trkpt lat="47.83701" lon="2.26915">
        <ele>240.65</ele>
        <time>2022-05-23T12:14:03Z</time>
      </trkpt>
      <trkpt lat="47.83708" lon="2.26899">
        <ele>240.53</ele>
        <time>2022-05-23T12:14:06Z</time>
      </trkpt>
      <trkpt lat="47.83714" lon="2.26888">
        <ele>240.32</ele>
        <time>2022-05-23T12:14:08Z</time>
      </trkpt>
      <trkpt lat="47.83721" lon="2.26878">
        <ele>239.99</ele>
        <time>2022-05-23T12:14:10Z</time>
      </trkpt>
      <trkpt lat="47.83731" lon="2.26865">
        <ele>239.56</ele>
        <time>2022-05-23T12:14:13Z</time>
      </trkpt>
      <trkpt lat="47.83743" lon="2.26855">
        <ele>239.6</ele>
        <time>2022-05-23T12:14:16Z</time>
      </trkpt>
      <trkpt lat="47.83751" lon="2.26848">
        <ele>239.57</ele>
        <time>2022-05-23T12:14:18Z</time>
      </trkpt>
      <trkpt lat="47.83759" lon="2.26842">
        <ele>239.33</ele>
        <time>2022-05-23T12:14:20Z</time>
      </trkpt>
      <trkpt lat="47.83768" lon="2.26837">
        <ele>239.15</ele>
        <time>2022-05-23T12:14:22Z</time>
      </trkpt>
      <trkpt lat="47.8378" lon="2.26833">
        <ele>240.03</ele>
        <time>2022-05-23T12:14:25Z</time>
      </trkpt>
      <trkpt lat="47.83789" lon="2.2683">
        <ele>239.8</ele>
        <time>2022-05-23T12:14:27Z</time>
      </trkpt>
      <trkpt lat="47.83799" lon="2.26829">
        <ele>239.74</ele>
        <time>2022-05-23T12:14:29Z</time>
      </trkpt>
      <trkpt lat="47.83808" lon="2.26829">
        <ele>239.62</ele>
        <time>2022-05-23T12:14:31Z</time>
      </trkpt>
      <trkpt lat="47.83818" lon="2.26829">
        <ele>239.81</ele>
        <time>2022-05-23T12:14:33Z</time>
      </trkpt>
      <trkpt lat="47.83827" lon="2.26829">
        <ele>239.63</ele>
        <time>2022-05-23T12:14:35Z</time>
      </trkpt>
      <trkpt lat="47.83836" lon="2.26829">
        <ele>239.89</ele>
        <time>2022-05-23T12:14:37Z</time>
      </trkpt>
      <trkpt lat="47.83846" lon="2.2683">
        <ele>240.2</ele>
        <time>2022-05-23T12:14:39Z</time>
      </trkpt>
      <trkpt lat="47.83855" lon="2.2683">
        <ele>240.29</ele>
        <time>2022-05-23T12:14:41Z</time>
      </trkpt>
      <trkpt lat="47.83864" lon="2.26831">
        <ele>240.53</ele>
        <time>2022-05-23T12:14:43Z</time>
      </trkpt>
      <trkpt lat="47.83873" lon="2.26831">
        <ele>240.29</ele>
        <time>2022-05-23T12:14:45Z</time>
      </trkpt>
      <trkpt lat="47.83887" lon="2.26833">
        <ele>239.87</ele>
        <time>2022-05-23T12:14:48Z</time>
      </trkpt>
      <trkpt lat="47.83896" lon="2.26833">
        <ele>239.76</ele>
        <time>2022-05-23T12:14:50Z</time>
      </trkpt>
      <trkpt lat="47.83905" lon="2.26834">
        <ele>239.53</ele>
        <time>2022-05-23T12:14:52Z</time>
      </trkpt>
      <trkpt lat="47.83914" lon="2.26834">
        <ele>239.51</ele>
        <time>2022-05-23T12:14:54Z</time>
      </trkpt>
      <trkpt lat="47.83927" lon="2.26833">
        <ele>239.3</ele>
        <time>2022-05-23T12:14:57Z</time>
      </trkpt>
      <trkpt lat="47.83941" lon="2.26832">
        <ele>238.84</ele>
        <time>2022-05-23T12:15:00Z</time>
      </trkpt>
      <trkpt lat="47.83954" lon="2.26829">
        <ele>238.86</ele>
        <time>2022-05-23T12:15:03Z</time>
      </trkpt>
      <trkpt lat="47.83967" lon="2.26826">
        <ele>238.63</ele>
        <time>2022-05-23T12:15:06Z</time>
      </trkpt>
      <trkpt lat="47.83981" lon="2.26822">
        <ele>238.25</ele>
        <time>2022-05-23T12:15:09Z</time>
      </trkpt>
      <trkpt lat="47.83993" lon="2.26818">
        <ele>238.13</ele>
        <time>2022-05-23T12:15:12Z</time>
      </trkpt>
      <trkpt lat="47.84005" lon="2.26814">
        <ele>238.02</ele>
        <time>2022-05-23T12:15:15Z</time>
      </trkpt>
      <trkpt lat="47.84017" lon="2.26809">
        <ele>239.44</ele>
        <time>2022-05-23T12:15:18Z</time>
      </trkpt>
      <trkpt lat="47.84029" lon="2.26805">
        <ele>239.89</ele>
        <time>2022-05-23T12:15:21Z</time>
      </trkpt>
      <trkpt lat="47.84041" lon="2.268">
        <ele>239.31</ele>
        <time>2022-05-23T12:15:24Z</time>
      </trkpt>
      <trkpt lat="47.84053" lon="2.26793">
        <ele>238.36</ele>
        <time>2022-05-23T12:15:27Z</time>
      </trkpt>
      <trkpt lat="47.84062" lon="2.26789">
        <ele>238.7</ele>
        <time>2022-05-23T12:15:29Z</time>
      </trkpt>
      <trkpt lat="47.84074" lon="2.26783">
        <ele>238.57</ele>
        <time>2022-05-23T12:15:32Z</time>
      </trkpt>
      <trkpt lat="47.84086" lon="2.26777">
        <ele>239.12</ele>
        <time>2022-05-23T12:15:35Z</time>
      </trkpt>
      <trkpt lat="47.84097" lon="2.2677">
        <ele>238.97</ele>
        <time>2022-05-23T12:15:38Z</time>
      </trkpt>
      <trkpt lat="47.84106" lon="2.26766">
        <ele>238.93</ele>
        <time>2022-05-23T12:15:40Z</time>
      </trkpt>
      <trkpt lat="47.84117" lon="2.26757">
        <ele>238.22</ele>
        <time>2022-05-23T12:15:43Z</time>
      </trkpt>
      <trkpt lat="47.84128" lon="2.26751">
        <ele>237.96</ele>
        <time>2022-05-23T12:15:46Z</time>
      </trkpt>
      <trkpt lat="47.8414" lon="2.26742">
        <ele>237.58</ele>
        <time>2022-05-23T12:15:49Z</time>
      </trkpt>
      <trkpt lat="47.84151" lon="2.26732">
        <ele>237.43</ele>
        <time>2022-05-23T12:15:52Z</time>
      </trkpt>
      <trkpt lat="47.84162" lon="2.26722">
        <ele>237.49</ele>
        <time>2022-05-23T12:15:55Z</time>
      </trkpt>
      <trkpt lat="47.84172" lon="2.26713">
        <ele>237.6</ele>
        <time>2022-05-23T12:15:58Z</time>
      </trkpt>
      <trkpt lat="47.84183" lon="2.26703">
        <ele>237.54</ele>
        <time>2022-05-23T12:16:01Z</time>
      </trkpt>
      <trkpt lat="47.84193" lon="2.26693">
        <ele>237.6</ele>
        <time>2022-05-23T12:16:04Z</time>
      </trkpt>
      <trkpt lat="47.84204" lon="2.26683">
        <ele>237.56</ele>
        <time>2022-05-23T12:16:07Z</time>
      </trkpt>
      <trkpt lat="47.84215" lon="2.26673">
        <ele>237.53</ele>
        <time>2022-05-23T12:16:10Z</time>
      </trkpt>
      <trkpt lat="47.84225" lon="2.26663">
        <ele>237.37</ele>
        <time>2022-05-23T12:16:13Z</time>
      </trkpt>
      <trkpt lat="47.84235" lon="2.26654">
        <ele>237.6</ele>
        <time>2022-05-23T12:16:16Z</time>
      </trkpt>
      <trkpt lat="47.84246" lon="2.26647">
        <ele>237.89</ele>
        <time>2022-05-23T12:16:19Z</time>
      </trkpt>
      <trkpt lat="47.84255" lon="2.26641">
        <ele>237.87</ele>
        <time>2022-05-23T12:16:22Z</time>
      </trkpt>
      <trkpt lat="47.84266" lon="2.26636">
        <ele>237.96</ele>
        <time>2022-05-23T12:16:25Z</time>
      </trkpt>
      <trkpt lat="47.84278" lon="2.26632">
        <ele>237.91</ele>
        <time>2022-05-23T12:16:28Z</time>
      </trkpt>
      <trkpt lat="47.8429" lon="2.26629">
        <ele>238.26</ele>
        <time>2022-05-23T12:16:31Z</time>
      </trkpt>
      <trkpt lat="47.84301" lon="2.26628">
        <ele>238.7</ele>
        <time>2022-05-23T12:16:34Z</time>
      </trkpt>
      <trkpt lat="47.84312" lon="2.26629">
        <ele>239.04</ele>
        <time>2022-05-23T12:16:37Z</time>
      </trkpt>
      <trkpt lat="47.84323" lon="2.26631">
        <ele>239.78</ele>
        <time>2022-05-23T12:16:40Z</time>
      </trkpt>
      <trkpt lat="47.84334" lon="2.26632">
        <ele>239.54</ele>
        <time>2022-05-23T12:16:43Z</time>
      </trkpt>
      <trkpt lat="47.84347" lon="2.26636">
        <ele>239.3</ele>
        <time>2022-05-23T12:16:46Z</time>
      </trkpt>
      <trkpt lat="47.84359" lon="2.26637">
        <ele>239.11</ele>
        <time>2022-05-23T12:16:49Z</time>
      </trkpt>
      <trkpt lat="47.84371" lon="2.26638">
        <ele>238.91</ele>
        <time>2022-05-23T12:16:52Z</time>
      </trkpt>
      <trkpt lat="47.84384" lon="2.26639">
        <ele>239.32</ele>
        <time>2022-05-23T12:16:55Z</time>
      </trkpt>
      <trkpt lat="47.84396" lon="2.26638">
        <ele>239.88</ele>
        <time>2022-05-23T12:16:58Z</time>
      </trkpt>
      <trkpt lat="47.84407" lon="2.26637">
        <ele>240.13</ele>
        <time>2022-05-23T12:17:01Z</time>
      </trkpt>
      <trkpt lat="47.84418" lon="2.26637">
        <ele>240.37</ele>
        <time>2022-05-23T12:17:04Z</time>
      </trkpt>
      <trkpt lat="47.84429" lon="2.26638">
        <ele>240.63</ele>
        <time>2022-05-23T12:17:07Z</time>
      </trkpt>
      <trkpt lat="47.84441" lon="2.26637">
        <ele>240.77</ele>
        <time>2022-05-23T12:17:10Z</time>
      </trkpt>
      <trkpt lat="47.84452" lon="2.26636">
        <ele>240.86</ele>
        <time>2022-05-23T12:17:13Z</time>
      </trkpt>
      <trkpt lat="47.84462" lon="2.26637">
        <ele>240.7</ele>
        <time>2022-05-23T12:17:16Z</time>
      </trkpt>
      <trkpt lat="47.84474" lon="2.26636">
        <ele>240.51</ele>
        <time>2022-05-23T12:17:19Z</time>
      </trkpt>
      <trkpt lat="47.84485" lon="2.26636">
        <ele>240.39</ele>
        <time>2022-05-23T12:17:22Z</time>
      </trkpt>
      <trkpt lat="47.84496" lon="2.26636">
        <ele>240.37</ele>
        <time>2022-05-23T12:17:25Z</time>
      </trkpt>
      <trkpt lat="47.84507" lon="2.26636">
        <ele>240.12</ele>
        <time>2022-05-23T12:17:28Z</time>
      </trkpt>
      <trkpt lat="47.84517" lon="2.26636">
        <ele>240.22</ele>
        <time>2022-05-23T12:17:31Z</time>
      </trkpt>
      <trkpt lat="47.84528" lon="2.26635">
        <ele>240.46</ele>
        <time>2022-05-23T12:17:34Z</time>
      </trkpt>
      <trkpt lat="47.84538" lon="2.26634">
        <ele>240.26</ele>
        <time>2022-05-23T12:17:37Z</time>
      </trkpt>
      <trkpt lat="47.84548" lon="2.26634">
        <ele>239.6</ele>
        <time>2022-05-23T12:17:40Z</time>
      </trkpt>
      <trkpt lat="47.8456" lon="2.26635">
        <ele>239.97</ele>
        <time>2022-05-23T12:17:44Z</time>
      </trkpt>
      <trkpt lat="47.84569" lon="2.26637">
        <ele>240.79</ele>
        <time>2022-05-23T12:17:48Z</time>
      </trkpt>
      <trkpt lat="47.8458" lon="2.26641">
        <ele>241.16</ele>
        <time>2022-05-23T12:17:53Z</time>
      </trkpt>
      <trkpt lat="47.8459" lon="2.26641">
        <ele>241.61</ele>
        <time>2022-05-23T12:17:58Z</time>
      </trkpt>
      <trkpt lat="47.84598" lon="2.26647">
        <ele>243.04</ele>
        <time>2022-05-23T12:18:28Z</time>
      </trkpt>
      <trkpt lat="47.84602" lon="2.26648">
        <ele>241.49</ele>
        <time>2022-05-23T12:20:29Z</time>
      </trkpt>
      <trkpt lat="47.84602" lon="2.26648">
        <ele>241.53</ele>
        <time>2022-05-23T12:22:30Z</time>
      </trkpt>
      <trkpt lat="47.84602" lon="2.26648">
        <ele>241.49</ele>
        <time>2022-05-23T12:24:31Z</time>
      </trkpt>
      <trkpt lat="47.84602" lon="2.26648">
        <ele>241.37</ele>
        <time>2022-05-23T12:26:32Z</time>
      </trkpt>
      <trkpt lat="47.84602" lon="2.26648">
        <ele>241.29</ele>
        <time>2022-05-23T12:28:33Z</time>
      </trkpt>
      <trkpt lat="47.84602" lon="2.26648">
        <ele>241.36</ele>
        <time>2022-05-23T12:30:34Z</time>
      </trkpt>
      <trkpt lat="47.84602" lon="2.26648">
        <ele>241.29</ele>
        <time>2022-05-23T12:32:35Z</time>
      </trkpt>
      <trkpt lat="47.84602" lon="2.26648">
        <ele>241.35</ele>
        <time>2022-05-23T12:34:36Z</time>
      </trkpt>
      <trkpt lat="47.84602" lon="2.26648">
        <ele>241.34</ele>
        <time>2022-05-23T12:36:37Z</time>
      </trkpt>
      <trkpt lat="47.84602" lon="2.26648">
        <ele>241.43</ele>
        <time>2022-05-23T12:38:38Z</time>
      </trkpt>
      <trkpt lat="47.84602" lon="2.26648">
        <ele>241.56</ele>
        <time>2022-05-23T12:40:39Z</time>
      </trkpt>
      <trkpt lat="47.84602" lon="2.26648">
        <ele>241.6</ele>
        <time>2022-05-23T12:42:40Z</time>
      </trkpt>
      <trkpt lat="47.84602" lon="2.26648">
        <ele>241.68</ele>
        <time>2022-05-23T12:44:41Z</time>
      </trkpt>
      <trkpt lat="47.84602" lon="2.26648">
        <ele>241.81</ele>
        <time>2022-05-23T12:46:42Z</time>
      </trkpt>
      <trkpt lat="47.84595" lon="2.26659">
        <ele>241.73</ele>
        <time>2022-05-23T12:47:48Z</time>
      </trkpt>
      <trkpt lat="47.8459" lon="2.26672">
        <ele>241.56</ele>
        <time>2022-05-23T12:47:57Z</time>
      </trkpt>
      <trkpt lat="47.84594" lon="2.26679">
        <ele>241.18</ele>
        <time>2022-05-23T12:49:58Z</time>
      </trkpt>
      <trkpt lat="47.84592" lon="2.2668">
        <ele>241.32</ele>
        <time>2022-05-23T12:51:59Z</time>
      </trkpt>
      <trkpt lat="47.8459" lon="2.26667">
        <ele>240.08</ele>
        <time>2022-05-23T12:52:39Z</time>
      </trkpt>
      <trkpt lat="47.84587" lon="2.26654">
        <ele>240.64</ele>
        <time>2022-05-23T12:52:59Z</time>
      </trkpt>
      <trkpt lat="47.84585" lon="2.26638">
        <ele>240.2</ele>
        <time>2022-05-23T12:53:17Z</time>
      </trkpt>
      <trkpt lat="47.84583" lon="2.26624">
        <ele>240.83</ele>
        <time>2022-05-23T12:53:23Z</time>
      </trkpt>
      <trkpt lat="47.84585" lon="2.2661">
        <ele>240.57</ele>
        <time>2022-05-23T12:53:28Z</time>
      </trkpt>
      <trkpt lat="47.84589" lon="2.26597">
        <ele>240.96</ele>
        <time>2022-05-23T12:53:32Z</time>
      </trkpt>
      <trkpt lat="47.84592" lon="2.26582">
        <ele>241.72</ele>
        <time>2022-05-23T12:53:36Z</time>
      </trkpt>
      <trkpt lat="47.84596" lon="2.26567">
        <ele>241.45</ele>
        <time>2022-05-23T12:53:40Z</time>
      </trkpt>
      <trkpt lat="47.846" lon="2.26554">
        <ele>241.45</ele>
        <time>2022-05-23T12:53:43Z</time>
      </trkpt>
      <trkpt lat="47.84602" lon="2.2654">
        <ele>241.72</ele>
        <time>2022-05-23T12:53:46Z</time>
      </trkpt>
      <trkpt lat="47.84606" lon="2.26526">
        <ele>241.44</ele>
        <time>2022-05-23T12:53:49Z</time>
      </trkpt>
      <trkpt lat="47.8461" lon="2.26511">
        <ele>241.25</ele>
        <time>2022-05-23T12:53:52Z</time>
      </trkpt>
      <trkpt lat="47.84613" lon="2.26495">
        <ele>241.17</ele>
        <time>2022-05-23T12:53:55Z</time>
      </trkpt>
      <trkpt lat="47.84617" lon="2.26479">
        <ele>241.38</ele>
        <time>2022-05-23T12:53:58Z</time>
      </trkpt>
      <trkpt lat="47.84621" lon="2.26462">
        <ele>241.35</ele>
        <time>2022-05-23T12:54:01Z</time>
      </trkpt>
      <trkpt lat="47.84626" lon="2.26443">
        <ele>241.49</ele>
        <time>2022-05-23T12:54:05Z</time>
      </trkpt>
      <trkpt lat="47.84629" lon="2.26427">
        <ele>241.5</ele>
        <time>2022-05-23T12:54:08Z</time>
      </trkpt>
      <trkpt lat="47.84633" lon="2.26411">
        <ele>241.67</ele>
        <time>2022-05-23T12:54:11Z</time>
      </trkpt>
      <trkpt lat="47.84638" lon="2.26396">
        <ele>241.46</ele>
        <time>2022-05-23T12:54:14Z</time>
      </trkpt>
      <trkpt lat="47.84642" lon="2.2638">
        <ele>241.44</ele>
        <time>2022-05-23T12:54:17Z</time>
      </trkpt>
      <trkpt lat="47.84642" lon="2.26366">
        <ele>241.56</ele>
        <time>2022-05-23T12:54:20Z</time>
      </trkpt>
      <trkpt lat="47.84644" lon="2.26352">
        <ele>241.47</ele>
        <time>2022-05-23T12:54:23Z</time>
      </trkpt>
      <trkpt lat="47.84647" lon="2.26336">
        <ele>241.19</ele>
        <time>2022-05-23T12:54:26Z</time>
      </trkpt>
      <trkpt lat="47.8465" lon="2.2632">
        <ele>241.49</ele>
        <time>2022-05-23T12:54:29Z</time>
      </trkpt>
      <trkpt lat="47.84653" lon="2.26303">
        <ele>241.51</ele>
        <time>2022-05-23T12:54:32Z</time>
      </trkpt>
      <trkpt lat="47.84656" lon="2.26286">
        <ele>241.22</ele>
        <time>2022-05-23T12:54:35Z</time>
      </trkpt>
      <trkpt lat="47.8466" lon="2.26268">
        <ele>241.13</ele>
        <time>2022-05-23T12:54:38Z</time>
      </trkpt>
      <trkpt lat="47.84663" lon="2.26255">
        <ele>241.11</ele>
        <time>2022-05-23T12:54:40Z</time>
      </trkpt>
      <trkpt lat="47.84665" lon="2.26241">
        <ele>241.14</ele>
        <time>2022-05-23T12:54:42Z</time>
      </trkpt>
      <trkpt lat="47.84668" lon="2.26228">
        <ele>241.16</ele>
        <time>2022-05-23T12:54:44Z</time>
      </trkpt>
      <trkpt lat="47.8467" lon="2.26214">
        <ele>241.04</ele>
        <time>2022-05-23T12:54:46Z</time>
      </trkpt>
      <trkpt lat="47.84675" lon="2.26196">
        <ele>240.76</ele>
        <time>2022-05-23T12:54:49Z</time>
      </trkpt>
      <trkpt lat="47.84678" lon="2.26179">
        <ele>240.62</ele>
        <time>2022-05-23T12:54:52Z</time>
      </trkpt>
      <trkpt lat="47.84682" lon="2.26161">
        <ele>240.24</ele>
        <time>2022-05-23T12:54:55Z</time>
      </trkpt>
      <trkpt lat="47.84685" lon="2.26148">
        <ele>239.81</ele>
        <time>2022-05-23T12:54:57Z</time>
      </trkpt>
      <trkpt lat="47.84688" lon="2.26134">
        <ele>239.68</ele>
        <time>2022-05-23T12:54:59Z</time>
      </trkpt>
      <trkpt lat="47.84692" lon="2.2612">
        <ele>239.25</ele>
        <time>2022-05-23T12:55:01Z</time>
      </trkpt>
      <trkpt lat="47.84694" lon="2.26104">
        <ele>239.38</ele>
        <time>2022-05-23T12:55:03Z</time>
      </trkpt>
      <trkpt lat="47.84697" lon="2.26089">
        <ele>239.04</ele>
        <time>2022-05-23T12:55:05Z</time>
      </trkpt>
      <trkpt lat="47.847" lon="2.26074">
        <ele>238.76</ele>
        <time>2022-05-23T12:55:07Z</time>
      </trkpt>
      <trkpt lat="47.84702" lon="2.2606">
        <ele>238.5</ele>
        <time>2022-05-23T12:55:09Z</time>
      </trkpt>
      <trkpt lat="47.84704" lon="2.26045">
        <ele>237.97</ele>
        <time>2022-05-23T12:55:11Z</time>
      </trkpt>
      <trkpt lat="47.84705" lon="2.26031">
        <ele>237.75</ele>
        <time>2022-05-23T12:55:13Z</time>
      </trkpt>
      <trkpt lat="47.84706" lon="2.26017">
        <ele>237.77</ele>
        <time>2022-05-23T12:55:15Z</time>
      </trkpt>
      <trkpt lat="47.84706" lon="2.26003">
        <ele>237.72</ele>
        <time>2022-05-23T12:55:17Z</time>
      </trkpt>
      <trkpt lat="47.84704" lon="2.2599">
        <ele>237.79</ele>
        <time>2022-05-23T12:55:19Z</time>
      </trkpt>
      <trkpt lat="47.84699" lon="2.25978">
        <ele>237.67</ele>
        <time>2022-05-23T12:55:21Z</time>
      </trkpt>
      <trkpt lat="47.84692" lon="2.25968">
        <ele>237.87</ele>
        <time>2022-05-23T12:55:23Z</time>
      </trkpt>
      <trkpt lat="47.8468" lon="2.25961">
        <ele>237.88</ele>
        <time>2022-05-23T12:55:26Z</time>
      </trkpt>
      <trkpt lat="47.84672" lon="2.25957">
        <ele>238.03</ele>
        <time>2022-05-23T12:55:28Z</time>
      </trkpt>
      <trkpt lat="47.84659" lon="2.25951">
        <ele>238.35</ele>
        <time>2022-05-23T12:55:31Z</time>
      </trkpt>
      <trkpt lat="47.84647" lon="2.25943">
        <ele>238.45</ele>
        <time>2022-05-23T12:55:34Z</time>
      </trkpt>
      <trkpt lat="47.84638" lon="2.25936">
        <ele>238.55</ele>
        <time>2022-05-23T12:55:36Z</time>
      </trkpt>
      <trkpt lat="47.8463" lon="2.25924">
        <ele>238.85</ele>
        <time>2022-05-23T12:55:39Z</time>
      </trkpt>
      <trkpt lat="47.84629" lon="2.2591">
        <ele>239.12</ele>
        <time>2022-05-23T12:55:42Z</time>
      </trkpt>
      <trkpt lat="47.84631" lon="2.25894">
        <ele>238.49</ele>
        <time>2022-05-23T12:55:45Z</time>
      </trkpt>
      <trkpt lat="47.84626" lon="2.25882">
        <ele>238.42</ele>
        <time>2022-05-23T12:55:47Z</time>
      </trkpt>
      <trkpt lat="47.84615" lon="2.2587">
        <ele>238.38</ele>
        <time>2022-05-23T12:55:50Z</time>
      </trkpt>
      <trkpt lat="47.84604" lon="2.25864">
        <ele>238.06</ele>
        <time>2022-05-23T12:55:53Z</time>
      </trkpt>
      <trkpt lat="47.84593" lon="2.25861">
        <ele>238</ele>
        <time>2022-05-23T12:55:56Z</time>
      </trkpt>
      <trkpt lat="47.84582" lon="2.25857">
        <ele>237.82</ele>
        <time>2022-05-23T12:55:59Z</time>
      </trkpt>
      <trkpt lat="47.84571" lon="2.25853">
        <ele>238.04</ele>
        <time>2022-05-23T12:56:02Z</time>
      </trkpt>
      <trkpt lat="47.8456" lon="2.2585">
        <ele>238.01</ele>
        <time>2022-05-23T12:56:05Z</time>
      </trkpt>
      <trkpt lat="47.84548" lon="2.25845">
        <ele>238.12</ele>
        <time>2022-05-23T12:56:08Z</time>
      </trkpt>
      <trkpt lat="47.84537" lon="2.2584">
        <ele>238.32</ele>
        <time>2022-05-23T12:56:11Z</time>
      </trkpt>
      <trkpt lat="47.84525" lon="2.25836">
        <ele>238.72</ele>
        <time>2022-05-23T12:56:14Z</time>
      </trkpt>
      <trkpt lat="47.84513" lon="2.25832">
        <ele>238.33</ele>
        <time>2022-05-23T12:56:17Z</time>
      </trkpt>
      <trkpt lat="47.845" lon="2.25826">
        <ele>238</ele>
        <time>2022-05-23T12:56:20Z</time>
      </trkpt>
      <trkpt lat="47.84491" lon="2.25822">
        <ele>237.85</ele>
        <time>2022-05-23T12:56:22Z</time>
      </trkpt>
      <trkpt lat="47.84482" lon="2.25819">
        <ele>237.73</ele>
        <time>2022-05-23T12:56:24Z</time>
      </trkpt>
      <trkpt lat="47.84472" lon="2.25815">
        <ele>237.54</ele>
        <time>2022-05-23T12:56:26Z</time>
      </trkpt>
      <trkpt lat="47.84463" lon="2.25812">
        <ele>237.5</ele>
        <time>2022-05-23T12:56:28Z</time>
      </trkpt>
      <trkpt lat="47.84453" lon="2.25808">
        <ele>237.57</ele>
        <time>2022-05-23T12:56:30Z</time>
      </trkpt>
      <trkpt lat="47.84444" lon="2.25804">
        <ele>237.68</ele>
        <time>2022-05-23T12:56:32Z</time>
      </trkpt>
      <trkpt lat="47.84432" lon="2.25799">
        <ele>237.86</ele>
        <time>2022-05-23T12:56:35Z</time>
      </trkpt>
      <trkpt lat="47.8442" lon="2.25793">
        <ele>237.94</ele>
        <time>2022-05-23T12:56:38Z</time>
      </trkpt>
      <trkpt lat="47.84409" lon="2.25788">
        <ele>238</ele>
        <time>2022-05-23T12:56:41Z</time>
      </trkpt>
      <trkpt lat="47.84399" lon="2.25783">
        <ele>237.67</ele>
        <time>2022-05-23T12:56:44Z</time>
      </trkpt>
      <trkpt lat="47.84388" lon="2.25778">
        <ele>237.84</ele>
        <time>2022-05-23T12:56:47Z</time>
      </trkpt>
      <trkpt lat="47.84378" lon="2.25772">
        <ele>237.95</ele>
        <time>2022-05-23T12:56:50Z</time>
      </trkpt>
      <trkpt lat="47.84368" lon="2.25763">
        <ele>238.01</ele>
        <time>2022-05-23T12:56:53Z</time>
      </trkpt>
      <trkpt lat="47.8436" lon="2.25749">
        <ele>238.38</ele>
        <time>2022-05-23T12:56:56Z</time>
      </trkpt>
      <trkpt lat="47.84359" lon="2.25733">
        <ele>238.33</ele>
        <time>2022-05-23T12:56:59Z</time>
      </trkpt>
      <trkpt lat="47.8436" lon="2.25717">
        <ele>238.16</ele>
        <time>2022-05-23T12:57:02Z</time>
      </trkpt>
      <trkpt lat="47.84364" lon="2.25701">
        <ele>237.92</ele>
        <time>2022-05-23T12:57:05Z</time>
      </trkpt>
      <trkpt lat="47.84368" lon="2.25684">
        <ele>238.1</ele>
        <time>2022-05-23T12:57:08Z</time>
      </trkpt>
      <trkpt lat="47.8437" lon="2.25666">
        <ele>238.14</ele>
        <time>2022-05-23T12:57:11Z</time>
      </trkpt>
      <trkpt lat="47.84367" lon="2.25648">
        <ele>238.4</ele>
        <time>2022-05-23T12:57:14Z</time>
      </trkpt>
      <trkpt lat="47.84361" lon="2.25631">
        <ele>238.56</ele>
        <time>2022-05-23T12:57:17Z</time>
      </trkpt>
      <trkpt lat="47.84352" lon="2.25619">
        <ele>238.67</ele>
        <time>2022-05-23T12:57:20Z</time>
      </trkpt>
      <trkpt lat="47.84342" lon="2.25608">
        <ele>238.93</ele>
        <time>2022-05-23T12:57:23Z</time>
      </trkpt>
      <trkpt lat="47.84333" lon="2.25597">
        <ele>239.1</ele>
        <time>2022-05-23T12:57:26Z</time>
      </trkpt>
      <trkpt lat="47.84323" lon="2.25586">
        <ele>239.33</ele>
        <time>2022-05-23T12:57:29Z</time>
      </trkpt>
      <trkpt lat="47.84314" lon="2.25573">
        <ele>239.29</ele>
        <time>2022-05-23T12:57:32Z</time>
      </trkpt>
      <trkpt lat="47.84304" lon="2.2556">
        <ele>239.33</ele>
        <time>2022-05-23T12:57:35Z</time>
      </trkpt>
      <trkpt lat="47.84297" lon="2.2555">
        <ele>239.15</ele>
        <time>2022-05-23T12:57:37Z</time>
      </trkpt>
      <trkpt lat="47.84288" lon="2.25536">
        <ele>239.02</ele>
        <time>2022-05-23T12:57:40Z</time>
      </trkpt>
      <trkpt lat="47.8428" lon="2.25522">
        <ele>238.76</ele>
        <time>2022-05-23T12:57:43Z</time>
      </trkpt>
      <trkpt lat="47.84272" lon="2.25508">
        <ele>238.59</ele>
        <time>2022-05-23T12:57:46Z</time>
      </trkpt>
      <trkpt lat="47.84264" lon="2.25493">
        <ele>238.82</ele>
        <time>2022-05-23T12:57:49Z</time>
      </trkpt>
      <trkpt lat="47.84255" lon="2.25479">
        <ele>239.01</ele>
        <time>2022-05-23T12:57:52Z</time>
      </trkpt>
      <trkpt lat="47.84246" lon="2.25464">
        <ele>238.94</ele>
        <time>2022-05-23T12:57:55Z</time>
      </trkpt>
      <trkpt lat="47.84237" lon="2.25449">
        <ele>238.74</ele>
        <time>2022-05-23T12:57:58Z</time>
      </trkpt>
      <trkpt lat="47.84229" lon="2.25435">
        <ele>238.58</ele>
        <time>2022-05-23T12:58:01Z</time>
      </trkpt>
      <trkpt lat="47.8422" lon="2.25421">
        <ele>238.73</ele>
        <time>2022-05-23T12:58:04Z</time>
      </trkpt>
      <trkpt lat="47.84208" lon="2.25411">
        <ele>238.77</ele>
        <time>2022-05-23T12:58:07Z</time>
      </trkpt>
      <trkpt lat="47.84199" lon="2.25407">
        <ele>238.74</ele>
        <time>2022-05-23T12:58:09Z</time>
      </trkpt>
      <trkpt lat="47.84189" lon="2.25404">
        <ele>238.9</ele>
        <time>2022-05-23T12:58:11Z</time>
      </trkpt>
      <trkpt lat="47.8418" lon="2.25401">
        <ele>238.89</ele>
        <time>2022-05-23T12:58:13Z</time>
      </trkpt>
      <trkpt lat="47.84168" lon="2.25397">
        <ele>238.51</ele>
        <time>2022-05-23T12:58:16Z</time>
      </trkpt>
      <trkpt lat="47.84156" lon="2.25391">
        <ele>237.99</ele>
        <time>2022-05-23T12:58:19Z</time>
      </trkpt>
      <trkpt lat="47.84144" lon="2.25383">
        <ele>238.31</ele>
        <time>2022-05-23T12:58:22Z</time>
      </trkpt>
      <trkpt lat="47.84137" lon="2.25376">
        <ele>238.35</ele>
        <time>2022-05-23T12:58:24Z</time>
      </trkpt>
      <trkpt lat="47.84129" lon="2.25368">
        <ele>238.32</ele>
        <time>2022-05-23T12:58:26Z</time>
      </trkpt>
      <trkpt lat="47.84122" lon="2.25359">
        <ele>238.18</ele>
        <time>2022-05-23T12:58:28Z</time>
      </trkpt>
      <trkpt lat="47.84112" lon="2.25346">
        <ele>237.99</ele>
        <time>2022-05-23T12:58:31Z</time>
      </trkpt>
      <trkpt lat="47.84103" lon="2.25333">
        <ele>238.55</ele>
        <time>2022-05-23T12:58:34Z</time>
      </trkpt>
      <trkpt lat="47.84095" lon="2.25319">
        <ele>238.5</ele>
        <time>2022-05-23T12:58:37Z</time>
      </trkpt>
      <trkpt lat="47.84086" lon="2.25306">
        <ele>239.07</ele>
        <time>2022-05-23T12:58:40Z</time>
      </trkpt>
      <trkpt lat="47.84079" lon="2.25295">
        <ele>239.3</ele>
        <time>2022-05-23T12:58:43Z</time>
      </trkpt>
      <trkpt lat="47.84071" lon="2.25284">
        <ele>239.59</ele>
        <time>2022-05-23T12:58:46Z</time>
      </trkpt>
      <trkpt lat="47.84062" lon="2.25275">
        <ele>239.57</ele>
        <time>2022-05-23T12:58:49Z</time>
      </trkpt>
      <trkpt lat="47.84054" lon="2.25265">
        <ele>239.79</ele>
        <time>2022-05-23T12:58:52Z</time>
      </trkpt>
      <trkpt lat="47.84048" lon="2.25253">
        <ele>239.64</ele>
        <time>2022-05-23T12:58:55Z</time>
      </trkpt>
      <trkpt lat="47.84048" lon="2.25236">
        <ele>239.52</ele>
        <time>2022-05-23T12:58:58Z</time>
      </trkpt>
      <trkpt lat="47.84053" lon="2.25223">
        <ele>239.88</ele>
        <time>2022-05-23T12:59:01Z</time>
      </trkpt>
      <trkpt lat="47.8406" lon="2.25209">
        <ele>239.88</ele>
        <time>2022-05-23T12:59:04Z</time>
      </trkpt>
      <trkpt lat="47.84068" lon="2.25193">
        <ele>239.95</ele>
        <time>2022-05-23T12:59:07Z</time>
      </trkpt>
      <trkpt lat="47.84075" lon="2.25178">
        <ele>240.08</ele>
        <time>2022-05-23T12:59:10Z</time>
      </trkpt>
      <trkpt lat="47.84082" lon="2.25164">
        <ele>239.66</ele>
        <time>2022-05-23T12:59:13Z</time>
      </trkpt>
      <trkpt lat="47.8409" lon="2.25151">
        <ele>239.42</ele>
        <time>2022-05-23T12:59:16Z</time>
      </trkpt>
      <trkpt lat="47.84098" lon="2.2514">
        <ele>239.42</ele>
        <time>2022-05-23T12:59:19Z</time>
      </trkpt>
      <trkpt lat="47.84106" lon="2.25128">
        <ele>239.32</ele>
        <time>2022-05-23T12:59:22Z</time>
      </trkpt>
      <trkpt lat="47.84115" lon="2.25116">
        <ele>239.39</ele>
        <time>2022-05-23T12:59:25Z</time>
      </trkpt>
      <trkpt lat="47.84123" lon="2.25102">
        <ele>239.69</ele>
        <time>2022-05-23T12:59:28Z</time>
      </trkpt>
      <trkpt lat="47.84131" lon="2.25087">
        <ele>239.74</ele>
        <time>2022-05-23T12:59:31Z</time>
      </trkpt>
      <trkpt lat="47.84139" lon="2.25071">
        <ele>239.73</ele>
        <time>2022-05-23T12:59:34Z</time>
      </trkpt>
      <trkpt lat="47.84146" lon="2.25055">
        <ele>239.61</ele>
        <time>2022-05-23T12:59:37Z</time>
      </trkpt>
      <trkpt lat="47.84152" lon="2.25038">
        <ele>239.74</ele>
        <time>2022-05-23T12:59:40Z</time>
      </trkpt>
      <trkpt lat="47.84158" lon="2.25027">
        <ele>239.79</ele>
        <time>2022-05-23T12:59:42Z</time>
      </trkpt>
      <trkpt lat="47.84163" lon="2.25015">
        <ele>239.62</ele>
        <time>2022-05-23T12:59:44Z</time>
      </trkpt>
      <trkpt lat="47.8417" lon="2.25003">
        <ele>239.52</ele>
        <time>2022-05-23T12:59:46Z</time>
      </trkpt>
      <trkpt lat="47.84177" lon="2.24993">
        <ele>239.26</ele>
        <time>2022-05-23T12:59:48Z</time>
      </trkpt>
      <trkpt lat="47.84185" lon="2.24984">
        <ele>239.16</ele>
        <time>2022-05-23T12:59:50Z</time>
      </trkpt>
      <trkpt lat="47.84193" lon="2.24974">
        <ele>239.23</ele>
        <time>2022-05-23T12:59:52Z</time>
      </trkpt>
      <trkpt lat="47.842" lon="2.24963">
        <ele>238.88</ele>
        <time>2022-05-23T12:59:54Z</time>
      </trkpt>
      <trkpt lat="47.84208" lon="2.24953">
        <ele>238.74</ele>
        <time>2022-05-23T12:59:56Z</time>
      </trkpt>
      <trkpt lat="47.84214" lon="2.24944">
        <ele>238.58</ele>
        <time>2022-05-23T12:59:58Z</time>
      </trkpt>
      <trkpt lat="47.84224" lon="2.24931">
        <ele>239.05</ele>
        <time>2022-05-23T13:00:01Z</time>
      </trkpt>
      <trkpt lat="47.84234" lon="2.24919">
        <ele>239.22</ele>
        <time>2022-05-23T13:00:04Z</time>
      </trkpt>
      <trkpt lat="47.84243" lon="2.24906">
        <ele>239.01</ele>
        <time>2022-05-23T13:00:07Z</time>
      </trkpt>
      <trkpt lat="47.84252" lon="2.24892">
        <ele>238.75</ele>
        <time>2022-05-23T13:00:10Z</time>
      </trkpt>
      <trkpt lat="47.84259" lon="2.24881">
        <ele>238.53</ele>
        <time>2022-05-23T13:00:12Z</time>
      </trkpt>
      <trkpt lat="47.84265" lon="2.24869">
        <ele>238.5</ele>
        <time>2022-05-23T13:00:14Z</time>
      </trkpt>
      <trkpt lat="47.84271" lon="2.24858">
        <ele>238.56</ele>
        <time>2022-05-23T13:00:16Z</time>
      </trkpt>
      <trkpt lat="47.84277" lon="2.24847">
        <ele>238.5</ele>
        <time>2022-05-23T13:00:18Z</time>
      </trkpt>
      <trkpt lat="47.84285" lon="2.24833">
        <ele>238.36</ele>
        <time>2022-05-23T13:00:21Z</time>
      </trkpt>
      <trkpt lat="47.84293" lon="2.24818">
        <ele>238.68</ele>
        <time>2022-05-23T13:00:24Z</time>
      </trkpt>
      <trkpt lat="47.84301" lon="2.24804">
        <ele>238.57</ele>
        <time>2022-05-23T13:00:27Z</time>
      </trkpt>
      <trkpt lat="47.8431" lon="2.2479">
        <ele>238.48</ele>
        <time>2022-05-23T13:00:30Z</time>
      </trkpt>
      <trkpt lat="47.84319" lon="2.24777">
        <ele>238.45</ele>
        <time>2022-05-23T13:00:33Z</time>
      </trkpt>
      <trkpt lat="47.84329" lon="2.24764">
        <ele>238.56</ele>
        <time>2022-05-23T13:00:36Z</time>
      </trkpt>
      <trkpt lat="47.84339" lon="2.24753">
        <ele>239.43</ele>
        <time>2022-05-23T13:00:39Z</time>
      </trkpt>
      <trkpt lat="47.84346" lon="2.24744">
        <ele>239.4</ele>
        <time>2022-05-23T13:00:42Z</time>
      </trkpt>
      <trkpt lat="47.84356" lon="2.24737">
        <ele>239.93</ele>
        <time>2022-05-23T13:00:45Z</time>
      </trkpt>
      <trkpt lat="47.84367" lon="2.2473">
        <ele>239.68</ele>
        <time>2022-05-23T13:00:48Z</time>
      </trkpt>
      <trkpt lat="47.84379" lon="2.24724">
        <ele>239.38</ele>
        <time>2022-05-23T13:00:51Z</time>
      </trkpt>
      <trkpt lat="47.8439" lon="2.24718">
        <ele>239.23</ele>
        <time>2022-05-23T13:00:54Z</time>
      </trkpt>
      <trkpt lat="47.84401" lon="2.24713">
        <ele>239.04</ele>
        <time>2022-05-23T13:00:57Z</time>
      </trkpt>
      <trkpt lat="47.84412" lon="2.24707">
        <ele>239.8</ele>
        <time>2022-05-23T13:01:00Z</time>
      </trkpt>
      <trkpt lat="47.84424" lon="2.247">
        <ele>240.48</ele>
        <time>2022-05-23T13:01:03Z</time>
      </trkpt>
      <trkpt lat="47.84435" lon="2.24693">
        <ele>240.21</ele>
        <time>2022-05-23T13:01:06Z</time>
      </trkpt>
      <trkpt lat="47.84447" lon="2.24683">
        <ele>239.98</ele>
        <time>2022-05-23T13:01:09Z</time>
      </trkpt>
      <trkpt lat="47.84457" lon="2.24672">
        <ele>239.43</ele>
        <time>2022-05-23T13:01:12Z</time>
      </trkpt>
      <trkpt lat="47.84468" lon="2.2466">
        <ele>239.82</ele>
        <time>2022-05-23T13:01:15Z</time>
      </trkpt>
      <trkpt lat="47.84479" lon="2.24649">
        <ele>239.7</ele>
        <time>2022-05-23T13:01:18Z</time>
      </trkpt>
      <trkpt lat="47.84489" lon="2.24637">
        <ele>239.1</ele>
        <time>2022-05-23T13:01:21Z</time>
      </trkpt>
      <trkpt lat="47.845" lon="2.24626">
        <ele>239.86</ele>
        <time>2022-05-23T13:01:24Z</time>
      </trkpt>
      <trkpt lat="47.84511" lon="2.24616">
        <ele>240.05</ele>
        <time>2022-05-23T13:01:27Z</time>
      </trkpt>
      <trkpt lat="47.84522" lon="2.24607">
        <ele>239.68</ele>
        <time>2022-05-23T13:01:30Z</time>
      </trkpt>
      <trkpt lat="47.84533" lon="2.24598">
        <ele>238.97</ele>
        <time>2022-05-23T13:01:33Z</time>
      </trkpt>
      <trkpt lat="47.84544" lon="2.2459">
        <ele>238.78</ele>
        <time>2022-05-23T13:01:36Z</time>
      </trkpt>
      <trkpt lat="47.84557" lon="2.24583">
        <ele>238.72</ele>
        <time>2022-05-23T13:01:39Z</time>
      </trkpt>
      <trkpt lat="47.84569" lon="2.2458">
        <ele>238.7</ele>
        <time>2022-05-23T13:01:42Z</time>
      </trkpt>
      <trkpt lat="47.84581" lon="2.24579">
        <ele>238.75</ele>
        <time>2022-05-23T13:01:45Z</time>
      </trkpt>
      <trkpt lat="47.84594" lon="2.24577">
        <ele>239.22</ele>
        <time>2022-05-23T13:01:48Z</time>
      </trkpt>
      <trkpt lat="47.84607" lon="2.24574">
        <ele>238.93</ele>
        <time>2022-05-23T13:01:51Z</time>
      </trkpt>
      <trkpt lat="47.84618" lon="2.24572">
        <ele>240.51</ele>
        <time>2022-05-23T13:01:54Z</time>
      </trkpt>
      <trkpt lat="47.84629" lon="2.24571">
        <ele>240.64</ele>
        <time>2022-05-23T13:01:57Z</time>
      </trkpt>
      <trkpt lat="47.84639" lon="2.24571">
        <ele>240.16</ele>
        <time>2022-05-23T13:02:00Z</time>
      </trkpt>
      <trkpt lat="47.84649" lon="2.24574">
        <ele>239.57</ele>
        <time>2022-05-23T13:02:03Z</time>
      </trkpt>
      <trkpt lat="47.84658" lon="2.24577">
        <ele>237.86</ele>
        <time>2022-05-23T13:02:06Z</time>
      </trkpt>
      <trkpt lat="47.84667" lon="2.24576">
        <ele>237.96</ele>
        <time>2022-05-23T13:02:09Z</time>
      </trkpt>
      <trkpt lat="47.84676" lon="2.24572">
        <ele>238.56</ele>
        <time>2022-05-23T13:02:12Z</time>
      </trkpt>
      <trkpt lat="47.84686" lon="2.24566">
        <ele>238.94</ele>
        <time>2022-05-23T13:02:15Z</time>
      </trkpt>
      <trkpt lat="47.84697" lon="2.24559">
        <ele>240.3</ele>
        <time>2022-05-23T13:02:18Z</time>
      </trkpt>
      <trkpt lat="47.8471" lon="2.24553">
        <ele>240.83</ele>
        <time>2022-05-23T13:02:21Z</time>
      </trkpt>
      <trkpt lat="47.84726" lon="2.24551">
        <ele>239.68</ele>
        <time>2022-05-23T13:02:24Z</time>
      </trkpt>
      <trkpt lat="47.84736" lon="2.24551">
        <ele>237.87</ele>
        <time>2022-05-23T13:02:26Z</time>
      </trkpt>
      <trkpt lat="47.84747" lon="2.24552">
        <ele>238.63</ele>
        <time>2022-05-23T13:02:28Z</time>
      </trkpt>
      <trkpt lat="47.84757" lon="2.24554">
        <ele>237.82</ele>
        <time>2022-05-23T13:02:30Z</time>
      </trkpt>
      <trkpt lat="47.8477" lon="2.24555">
        <ele>236.68</ele>
        <time>2022-05-23T13:02:33Z</time>
      </trkpt>
      <trkpt lat="47.84782" lon="2.24559">
        <ele>236.95</ele>
        <time>2022-05-23T13:02:36Z</time>
      </trkpt>
      <trkpt lat="47.84796" lon="2.24563">
        <ele>236.37</ele>
        <time>2022-05-23T13:02:39Z</time>
      </trkpt>
      <trkpt lat="47.84809" lon="2.24565">
        <ele>237</ele>
        <time>2022-05-23T13:02:42Z</time>
      </trkpt>
      <trkpt lat="47.8482" lon="2.24564">
        <ele>236.28</ele>
        <time>2022-05-23T13:02:44Z</time>
      </trkpt>
      <trkpt lat="47.84831" lon="2.24567">
        <ele>235.64</ele>
        <time>2022-05-23T13:02:46Z</time>
      </trkpt>
      <trkpt lat="47.84842" lon="2.24569">
        <ele>234.53</ele>
        <time>2022-05-23T13:02:49Z</time>
      </trkpt>
      <trkpt lat="47.84853" lon="2.24569">
        <ele>235.06</ele>
        <time>2022-05-23T13:02:51Z</time>
      </trkpt>
      <trkpt lat="47.84863" lon="2.24568">
        <ele>235.96</ele>
        <time>2022-05-23T13:02:53Z</time>
      </trkpt>
      <trkpt lat="47.84873" lon="2.24569">
        <ele>237.1</ele>
        <time>2022-05-23T13:02:55Z</time>
      </trkpt>
      <trkpt lat="47.84886" lon="2.24569">
        <ele>236.47</ele>
        <time>2022-05-23T13:02:58Z</time>
      </trkpt>
      <trkpt lat="47.84895" lon="2.24567">
        <ele>236.65</ele>
        <time>2022-05-23T13:03:00Z</time>
      </trkpt>
      <trkpt lat="47.84909" lon="2.24566">
        <ele>236.87</ele>
        <time>2022-05-23T13:03:03Z</time>
      </trkpt>
      <trkpt lat="47.84922" lon="2.24564">
        <ele>236.37</ele>
        <time>2022-05-23T13:03:06Z</time>
      </trkpt>
      <trkpt lat="47.84931" lon="2.24563">
        <ele>236.79</ele>
        <time>2022-05-23T13:03:08Z</time>
      </trkpt>
      <trkpt lat="47.84945" lon="2.24561">
        <ele>236.65</ele>
        <time>2022-05-23T13:03:11Z</time>
      </trkpt>
      <trkpt lat="47.84957" lon="2.24561">
        <ele>236.79</ele>
        <time>2022-05-23T13:03:14Z</time>
      </trkpt>
      <trkpt lat="47.8497" lon="2.24561">
        <ele>236.99</ele>
        <time>2022-05-23T13:03:17Z</time>
      </trkpt>
      <trkpt lat="47.84983" lon="2.24562">
        <ele>237.01</ele>
        <time>2022-05-23T13:03:20Z</time>
      </trkpt>
      <trkpt lat="47.84995" lon="2.24564">
        <ele>237.16</ele>
        <time>2022-05-23T13:03:23Z</time>
      </trkpt>
      <trkpt lat="47.85007" lon="2.24567">
        <ele>237.13</ele>
        <time>2022-05-23T13:03:26Z</time>
      </trkpt>
      <trkpt lat="47.85019" lon="2.24571">
        <ele>237</ele>
        <time>2022-05-23T13:03:29Z</time>
      </trkpt>
      <trkpt lat="47.85029" lon="2.24578">
        <ele>237</ele>
        <time>2022-05-23T13:03:32Z</time>
      </trkpt>
      <trkpt lat="47.85036" lon="2.24586">
        <ele>237.03</ele>
        <time>2022-05-23T13:03:36Z</time>
      </trkpt>
      <trkpt lat="47.85044" lon="2.24596">
        <ele>236.9</ele>
        <time>2022-05-23T13:03:42Z</time>
      </trkpt>
      <trkpt lat="47.85052" lon="2.2459">
        <ele>237.82</ele>
        <time>2022-05-23T13:03:51Z</time>
      </trkpt>
      <trkpt lat="47.8506" lon="2.24582">
        <ele>237.63</ele>
        <time>2022-05-23T13:03:56Z</time>
      </trkpt>
      <trkpt lat="47.8507" lon="2.24571">
        <ele>236.63</ele>
        <time>2022-05-23T13:04:00Z</time>
      </trkpt>
      <trkpt lat="47.85079" lon="2.24565">
        <ele>236.55</ele>
        <time>2022-05-23T13:04:02Z</time>
      </trkpt>
      <trkpt lat="47.85087" lon="2.2456">
        <ele>236.51</ele>
        <time>2022-05-23T13:04:04Z</time>
      </trkpt>
      <trkpt lat="47.85099" lon="2.24554">
        <ele>236.66</ele>
        <time>2022-05-23T13:04:07Z</time>
      </trkpt>
      <trkpt lat="47.85112" lon="2.2455">
        <ele>236.16</ele>
        <time>2022-05-23T13:04:10Z</time>
      </trkpt>
      <trkpt lat="47.85124" lon="2.24548">
        <ele>236.42</ele>
        <time>2022-05-23T13:04:13Z</time>
      </trkpt>
      <trkpt lat="47.85136" lon="2.24547">
        <ele>236.81</ele>
        <time>2022-05-23T13:04:16Z</time>
      </trkpt>
      <trkpt lat="47.85149" lon="2.24545">
        <ele>236.83</ele>
        <time>2022-05-23T13:04:19Z</time>
      </trkpt>
      <trkpt lat="47.85158" lon="2.24541">
        <ele>236.95</ele>
        <time>2022-05-23T13:04:21Z</time>
      </trkpt>
      <trkpt lat="47.85171" lon="2.24534">
        <ele>236.61</ele>
        <time>2022-05-23T13:04:24Z</time>
      </trkpt>
      <trkpt lat="47.85184" lon="2.24527">
        <ele>236.33</ele>
        <time>2022-05-23T13:04:27Z</time>
      </trkpt>
      <trkpt lat="47.85193" lon="2.24523">
        <ele>236.09</ele>
        <time>2022-05-23T13:04:29Z</time>
      </trkpt>
      <trkpt lat="47.85203" lon="2.24518">
        <ele>236.04</ele>
        <time>2022-05-23T13:04:31Z</time>
      </trkpt>
      <trkpt lat="47.85213" lon="2.24513">
        <ele>236.06</ele>
        <time>2022-05-23T13:04:33Z</time>
      </trkpt>
      <trkpt lat="47.85223" lon="2.24508">
        <ele>236.12</ele>
        <time>2022-05-23T13:04:35Z</time>
      </trkpt>
      <trkpt lat="47.85232" lon="2.24503">
        <ele>235.77</ele>
        <time>2022-05-23T13:04:37Z</time>
      </trkpt>
      <trkpt lat="47.85244" lon="2.24495">
        <ele>236.14</ele>
        <time>2022-05-23T13:04:40Z</time>
      </trkpt>
      <trkpt lat="47.85253" lon="2.2449">
        <ele>235.94</ele>
        <time>2022-05-23T13:04:42Z</time>
      </trkpt>
      <trkpt lat="47.85261" lon="2.24485">
        <ele>235.88</ele>
        <time>2022-05-23T13:04:44Z</time>
      </trkpt>
      <trkpt lat="47.85273" lon="2.24478">
        <ele>236.15</ele>
        <time>2022-05-23T13:04:47Z</time>
      </trkpt>
      <trkpt lat="47.85285" lon="2.2447">
        <ele>236.03</ele>
        <time>2022-05-23T13:04:50Z</time>
      </trkpt>
      <trkpt lat="47.85297" lon="2.24463">
        <ele>236.25</ele>
        <time>2022-05-23T13:04:53Z</time>
      </trkpt>
      <trkpt lat="47.85309" lon="2.24455">
        <ele>236.46</ele>
        <time>2022-05-23T13:04:56Z</time>
      </trkpt>
      <trkpt lat="47.85321" lon="2.24447">
        <ele>236.52</ele>
        <time>2022-05-23T13:04:59Z</time>
      </trkpt>
      <trkpt lat="47.85333" lon="2.24438">
        <ele>236.7</ele>
        <time>2022-05-23T13:05:02Z</time>
      </trkpt>
      <trkpt lat="47.85344" lon="2.24429">
        <ele>236.67</ele>
        <time>2022-05-23T13:05:05Z</time>
      </trkpt>
      <trkpt lat="47.85356" lon="2.24422">
        <ele>236.76</ele>
        <time>2022-05-23T13:05:08Z</time>
      </trkpt>
      <trkpt lat="47.85368" lon="2.24414">
        <ele>236.48</ele>
        <time>2022-05-23T13:05:11Z</time>
      </trkpt>
      <trkpt lat="47.8538" lon="2.24407">
        <ele>235.9</ele>
        <time>2022-05-23T13:05:14Z</time>
      </trkpt>
      <trkpt lat="47.85392" lon="2.24399">
        <ele>235.63</ele>
        <time>2022-05-23T13:05:17Z</time>
      </trkpt>
      <trkpt lat="47.85401" lon="2.24393">
        <ele>237.32</ele>
        <time>2022-05-23T13:05:19Z</time>
      </trkpt>
      <trkpt lat="47.85412" lon="2.24385">
        <ele>237.4</ele>
        <time>2022-05-23T13:05:22Z</time>
      </trkpt>
      <trkpt lat="47.85424" lon="2.24376">
        <ele>237.49</ele>
        <time>2022-05-23T13:05:25Z</time>
      </trkpt>
      <trkpt lat="47.85436" lon="2.24369">
        <ele>237.03</ele>
        <time>2022-05-23T13:05:28Z</time>
      </trkpt>
      <trkpt lat="47.85446" lon="2.2436">
        <ele>237.16</ele>
        <time>2022-05-23T13:05:31Z</time>
      </trkpt>
      <trkpt lat="47.85457" lon="2.24352">
        <ele>237.58</ele>
        <time>2022-05-23T13:05:34Z</time>
      </trkpt>
      <trkpt lat="47.85467" lon="2.24345">
        <ele>237.54</ele>
        <time>2022-05-23T13:05:37Z</time>
      </trkpt>
      <trkpt lat="47.85478" lon="2.24338">
        <ele>237.6</ele>
        <time>2022-05-23T13:05:40Z</time>
      </trkpt>
      <trkpt lat="47.85489" lon="2.2433">
        <ele>237.34</ele>
        <time>2022-05-23T13:05:43Z</time>
      </trkpt>
      <trkpt lat="47.85499" lon="2.2432">
        <ele>237.19</ele>
        <time>2022-05-23T13:05:46Z</time>
      </trkpt>
      <trkpt lat="47.85509" lon="2.24312">
        <ele>237.35</ele>
        <time>2022-05-23T13:05:49Z</time>
      </trkpt>
      <trkpt lat="47.85518" lon="2.24303">
        <ele>237.42</ele>
        <time>2022-05-23T13:05:52Z</time>
      </trkpt>
      <trkpt lat="47.85528" lon="2.24294">
        <ele>237.59</ele>
        <time>2022-05-23T13:05:55Z</time>
      </trkpt>
      <trkpt lat="47.85538" lon="2.24285">
        <ele>237.54</ele>
        <time>2022-05-23T13:05:58Z</time>
      </trkpt>
      <trkpt lat="47.85547" lon="2.24276">
        <ele>237.51</ele>
        <time>2022-05-23T13:06:01Z</time>
      </trkpt>
      <trkpt lat="47.85558" lon="2.24266">
        <ele>237.55</ele>
        <time>2022-05-23T13:06:04Z</time>
      </trkpt>
      <trkpt lat="47.85568" lon="2.24256">
        <ele>237.7</ele>
        <time>2022-05-23T13:06:07Z</time>
      </trkpt>
      <trkpt lat="47.8558" lon="2.24245">
        <ele>237.62</ele>
        <time>2022-05-23T13:06:10Z</time>
      </trkpt>
      <trkpt lat="47.85591" lon="2.24234">
        <ele>237.62</ele>
        <time>2022-05-23T13:06:13Z</time>
      </trkpt>
      <trkpt lat="47.85601" lon="2.24223">
        <ele>237.48</ele>
        <time>2022-05-23T13:06:16Z</time>
      </trkpt>
      <trkpt lat="47.85611" lon="2.24212">
        <ele>237.56</ele>
        <time>2022-05-23T13:06:19Z</time>
      </trkpt>
      <trkpt lat="47.85622" lon="2.24202">
        <ele>237.74</ele>
        <time>2022-05-23T13:06:22Z</time>
      </trkpt>
      <trkpt lat="47.85631" lon="2.24193">
        <ele>237.59</ele>
        <time>2022-05-23T13:06:25Z</time>
      </trkpt>
      <trkpt lat="47.8564" lon="2.24184">
        <ele>237.34</ele>
        <time>2022-05-23T13:06:28Z</time>
      </trkpt>
      <trkpt lat="47.85651" lon="2.24174">
        <ele>237.3</ele>
        <time>2022-05-23T13:06:31Z</time>
      </trkpt>
      <trkpt lat="47.85661" lon="2.24163">
        <ele>237.07</ele>
        <time>2022-05-23T13:06:34Z</time>
      </trkpt>
      <trkpt lat="47.85671" lon="2.24152">
        <ele>237.18</ele>
        <time>2022-05-23T13:06:37Z</time>
      </trkpt>
      <trkpt lat="47.85679" lon="2.24143">
        <ele>237.33</ele>
        <time>2022-05-23T13:06:40Z</time>
      </trkpt>
      <trkpt lat="47.85689" lon="2.24134">
        <ele>237.14</ele>
        <time>2022-05-23T13:06:44Z</time>
      </trkpt>
      <trkpt lat="47.85698" lon="2.24129">
        <ele>238.11</ele>
        <time>2022-05-23T13:06:59Z</time>
      </trkpt>
      <trkpt lat="47.85709" lon="2.24129">
        <ele>237.34</ele>
        <time>2022-05-23T13:07:07Z</time>
      </trkpt>
      <trkpt lat="47.85714" lon="2.24113">
        <ele>236.87</ele>
        <time>2022-05-23T13:07:11Z</time>
      </trkpt>
      <trkpt lat="47.85717" lon="2.24099">
        <ele>236.54</ele>
        <time>2022-05-23T13:07:14Z</time>
      </trkpt>
      <trkpt lat="47.8572" lon="2.24086">
        <ele>237.17</ele>
        <time>2022-05-23T13:07:17Z</time>
      </trkpt>
      <trkpt lat="47.85723" lon="2.24072">
        <ele>237.03</ele>
        <time>2022-05-23T13:07:21Z</time>
      </trkpt>
      <trkpt lat="47.85727" lon="2.24057">
        <ele>237.49</ele>
        <time>2022-05-23T13:07:25Z</time>
      </trkpt>
      <trkpt lat="47.8573" lon="2.24044">
        <ele>237.46</ele>
        <time>2022-05-23T13:07:28Z</time>
      </trkpt>
      <trkpt lat="47.85741" lon="2.24043">
        <ele>238.16</ele>
        <time>2022-05-23T13:07:32Z</time>
      </trkpt>
      <trkpt lat="47.8575" lon="2.24045">
        <ele>238.14</ele>
        <time>2022-05-23T13:07:35Z</time>
      </trkpt>
      <trkpt lat="47.85761" lon="2.24042">
        <ele>238.87</ele>
        <time>2022-05-23T13:07:39Z</time>
      </trkpt>
      <trkpt lat="47.85764" lon="2.24028">
        <ele>238.89</ele>
        <time>2022-05-23T13:07:42Z</time>
      </trkpt>
      <trkpt lat="47.85769" lon="2.24012">
        <ele>238.82</ele>
        <time>2022-05-23T13:07:45Z</time>
      </trkpt>
      <trkpt lat="47.85774" lon="2.23997">
        <ele>238.58</ele>
        <time>2022-05-23T13:07:48Z</time>
      </trkpt>
      <trkpt lat="47.85779" lon="2.23983">
        <ele>238.84</ele>
        <time>2022-05-23T13:07:51Z</time>
      </trkpt>
      <trkpt lat="47.85781" lon="2.23966">
        <ele>239.05</ele>
        <time>2022-05-23T13:07:54Z</time>
      </trkpt>
      <trkpt lat="47.8578" lon="2.23949">
        <ele>238.76</ele>
        <time>2022-05-23T13:07:57Z</time>
      </trkpt>
      <trkpt lat="47.85779" lon="2.23934">
        <ele>238.72</ele>
        <time>2022-05-23T13:08:00Z</time>
      </trkpt>
      <trkpt lat="47.85777" lon="2.2392">
        <ele>238.44</ele>
        <time>2022-05-23T13:08:03Z</time>
      </trkpt>
      <trkpt lat="47.85775" lon="2.23906">
        <ele>238.28</ele>
        <time>2022-05-23T13:08:06Z</time>
      </trkpt>
      <trkpt lat="47.85774" lon="2.2389">
        <ele>238.5</ele>
        <time>2022-05-23T13:08:09Z</time>
      </trkpt>
      <trkpt lat="47.85773" lon="2.23874">
        <ele>238.36</ele>
        <time>2022-05-23T13:08:12Z</time>
      </trkpt>
      <trkpt lat="47.85775" lon="2.23857">
        <ele>238.3</ele>
        <time>2022-05-23T13:08:15Z</time>
      </trkpt>
      <trkpt lat="47.85777" lon="2.23841">
        <ele>238.22</ele>
        <time>2022-05-23T13:08:18Z</time>
      </trkpt>
      <trkpt lat="47.85778" lon="2.23826">
        <ele>238.48</ele>
        <time>2022-05-23T13:08:21Z</time>
      </trkpt>
      <trkpt lat="47.85783" lon="2.2381">
        <ele>239.12</ele>
        <time>2022-05-23T13:08:25Z</time>
      </trkpt>
      <trkpt lat="47.85787" lon="2.23796">
        <ele>239.83</ele>
        <time>2022-05-23T13:08:29Z</time>
      </trkpt>
      <trkpt lat="47.85791" lon="2.23784">
        <ele>239.77</ele>
        <time>2022-05-23T13:08:33Z</time>
      </trkpt>
      <trkpt lat="47.85794" lon="2.23768">
        <ele>239.98</ele>
        <time>2022-05-23T13:08:37Z</time>
      </trkpt>
      <trkpt lat="47.85798" lon="2.23755">
        <ele>239.69</ele>
        <time>2022-05-23T13:08:40Z</time>
      </trkpt>
      <trkpt lat="47.85802" lon="2.23742">
        <ele>239.62</ele>
        <time>2022-05-23T13:08:43Z</time>
      </trkpt>
      <trkpt lat="47.85805" lon="2.23729">
        <ele>239.54</ele>
        <time>2022-05-23T13:08:46Z</time>
      </trkpt>
      <trkpt lat="47.85809" lon="2.23714">
        <ele>239.58</ele>
        <time>2022-05-23T13:08:49Z</time>
      </trkpt>
      <trkpt lat="47.85814" lon="2.23698">
        <ele>239.11</ele>
        <time>2022-05-23T13:08:52Z</time>
      </trkpt>
      <trkpt lat="47.85818" lon="2.23684">
        <ele>238.38</ele>
        <time>2022-05-23T13:08:55Z</time>
      </trkpt>
      <trkpt lat="47.85822" lon="2.2367">
        <ele>238.2</ele>
        <time>2022-05-23T13:08:58Z</time>
      </trkpt>
      <trkpt lat="47.85825" lon="2.23657">
        <ele>238.14</ele>
        <time>2022-05-23T13:09:01Z</time>
      </trkpt>
      <trkpt lat="47.85829" lon="2.23644">
        <ele>238.18</ele>
        <time>2022-05-23T13:09:04Z</time>
      </trkpt>
      <trkpt lat="47.85829" lon="2.23628">
        <ele>237.9</ele>
        <time>2022-05-23T13:09:07Z</time>
      </trkpt>
      <trkpt lat="47.85832" lon="2.23613">
        <ele>237.19</ele>
        <time>2022-05-23T13:09:10Z</time>
      </trkpt>
      <trkpt lat="47.85836" lon="2.23596">
        <ele>236.98</ele>
        <time>2022-05-23T13:09:13Z</time>
      </trkpt>
      <trkpt lat="47.8584" lon="2.23581">
        <ele>238</ele>
        <time>2022-05-23T13:09:16Z</time>
      </trkpt>
      <trkpt lat="47.85844" lon="2.23564">
        <ele>238.36</ele>
        <time>2022-05-23T13:09:19Z</time>
      </trkpt>
      <trkpt lat="47.85848" lon="2.23549">
        <ele>234.54</ele>
        <time>2022-05-23T13:09:22Z</time>
      </trkpt>
      <trkpt lat="47.85852" lon="2.23536">
        <ele>234.66</ele>
        <time>2022-05-23T13:09:24Z</time>
      </trkpt>
      <trkpt lat="47.85855" lon="2.23516">
        <ele>235.13</ele>
        <time>2022-05-23T13:09:27Z</time>
      </trkpt>
      <trkpt lat="47.85857" lon="2.23503">
        <ele>234.49</ele>
        <time>2022-05-23T13:09:29Z</time>
      </trkpt>
      <trkpt lat="47.8586" lon="2.2349">
        <ele>234.74</ele>
        <time>2022-05-23T13:09:31Z</time>
      </trkpt>
      <trkpt lat="47.85862" lon="2.23477">
        <ele>234.21</ele>
        <time>2022-05-23T13:09:33Z</time>
      </trkpt>
      <trkpt lat="47.85866" lon="2.2346">
        <ele>232.37</ele>
        <time>2022-05-23T13:09:36Z</time>
      </trkpt>
      <trkpt lat="47.8587" lon="2.23441">
        <ele>232.41</ele>
        <time>2022-05-23T13:09:39Z</time>
      </trkpt>
      <trkpt lat="47.85873" lon="2.23422">
        <ele>233.11</ele>
        <time>2022-05-23T13:09:42Z</time>
      </trkpt>
      <trkpt lat="47.85875" lon="2.23409">
        <ele>233.92</ele>
        <time>2022-05-23T13:09:44Z</time>
      </trkpt>
      <trkpt lat="47.85878" lon="2.23394">
        <ele>234.29</ele>
        <time>2022-05-23T13:09:47Z</time>
      </trkpt>
      <trkpt lat="47.85882" lon="2.23379">
        <ele>232.99</ele>
        <time>2022-05-23T13:09:50Z</time>
      </trkpt>
      <trkpt lat="47.85884" lon="2.23364">
        <ele>231.3</ele>
        <time>2022-05-23T13:09:53Z</time>
      </trkpt>
      <trkpt lat="47.85885" lon="2.23348">
        <ele>229.84</ele>
        <time>2022-05-23T13:09:58Z</time>
      </trkpt>
      <trkpt lat="47.85888" lon="2.23331">
        <ele>231.86</ele>
        <time>2022-05-23T13:10:01Z</time>
      </trkpt>
      <trkpt lat="47.85892" lon="2.23314">
        <ele>234.2</ele>
        <time>2022-05-23T13:10:04Z</time>
      </trkpt>
      <trkpt lat="47.85894" lon="2.23294">
        <ele>235.09</ele>
        <time>2022-05-23T13:10:07Z</time>
      </trkpt>
      <trkpt lat="47.85898" lon="2.23281">
        <ele>235.87</ele>
        <time>2022-05-23T13:10:09Z</time>
      </trkpt>
      <trkpt lat="47.85902" lon="2.23265">
        <ele>234.48</ele>
        <time>2022-05-23T13:10:12Z</time>
      </trkpt>
      <trkpt lat="47.85905" lon="2.23248">
        <ele>233.63</ele>
        <time>2022-05-23T13:10:15Z</time>
      </trkpt>
      <trkpt lat="47.85908" lon="2.23234">
        <ele>232.07</ele>
        <time>2022-05-23T13:10:18Z</time>
      </trkpt>
      <trkpt lat="47.85913" lon="2.23218">
        <ele>230.89</ele>
        <time>2022-05-23T13:10:21Z</time>
      </trkpt>
      <trkpt lat="47.85918" lon="2.232">
        <ele>231.68</ele>
        <time>2022-05-23T13:10:24Z</time>
      </trkpt>
      <trkpt lat="47.85922" lon="2.23183">
        <ele>230.54</ele>
        <time>2022-05-23T13:10:27Z</time>
      </trkpt>
      <trkpt lat="47.85926" lon="2.23167">
        <ele>230.45</ele>
        <time>2022-05-23T13:10:30Z</time>
      </trkpt>
      <trkpt lat="47.85928" lon="2.23153">
        <ele>230.88</ele>
        <time>2022-05-23T13:10:33Z</time>
      </trkpt>
      <trkpt lat="47.85931" lon="2.23137">
        <ele>231.49</ele>
        <time>2022-05-23T13:10:36Z</time>
      </trkpt>
      <trkpt lat="47.85934" lon="2.23122">
        <ele>230.35</ele>
        <time>2022-05-23T13:10:39Z</time>
      </trkpt>
      <trkpt lat="47.85936" lon="2.23108">
        <ele>229.45</ele>
        <time>2022-05-23T13:10:43Z</time>
      </trkpt>
      <trkpt lat="47.85942" lon="2.23098">
        <ele>231.04</ele>
        <time>2022-05-23T13:11:48Z</time>
      </trkpt>
      <trkpt lat="47.8594" lon="2.23084">
        <ele>231.32</ele>
        <time>2022-05-23T13:12:55Z</time>
      </trkpt>
      <trkpt lat="47.85943" lon="2.2307">
        <ele>230.96</ele>
        <time>2022-05-23T13:12:59Z</time>
      </trkpt>
      <trkpt lat="47.85947" lon="2.23057">
        <ele>230.42</ele>
        <time>2022-05-23T13:13:02Z</time>
      </trkpt>
      <trkpt lat="47.85951" lon="2.23043">
        <ele>230.19</ele>
        <time>2022-05-23T13:13:05Z</time>
      </trkpt>
      <trkpt lat="47.85952" lon="2.23029">
        <ele>229.08</ele>
        <time>2022-05-23T13:13:08Z</time>
      </trkpt>
      <trkpt lat="47.85955" lon="2.23015">
        <ele>229.2</ele>
        <time>2022-05-23T13:13:11Z</time>
      </trkpt>
      <trkpt lat="47.85959" lon="2.23002">
        <ele>228.8</ele>
        <time>2022-05-23T13:13:14Z</time>
      </trkpt>
      <trkpt lat="47.85962" lon="2.22987">
        <ele>230.01</ele>
        <time>2022-05-23T13:13:17Z</time>
      </trkpt>
      <trkpt lat="47.85963" lon="2.22971">
        <ele>230.99</ele>
        <time>2022-05-23T13:13:20Z</time>
      </trkpt>
      <trkpt lat="47.85966" lon="2.22956">
        <ele>230.12</ele>
        <time>2022-05-23T13:13:23Z</time>
      </trkpt>
      <trkpt lat="47.85969" lon="2.2294">
        <ele>234.75</ele>
        <time>2022-05-23T13:13:27Z</time>
      </trkpt>
      <trkpt lat="47.85971" lon="2.22925">
        <ele>232.6</ele>
        <time>2022-05-23T13:13:30Z</time>
      </trkpt>
      <trkpt lat="47.85973" lon="2.2291">
        <ele>231.23</ele>
        <time>2022-05-23T13:13:33Z</time>
      </trkpt>
      <trkpt lat="47.85977" lon="2.22894">
        <ele>231.25</ele>
        <time>2022-05-23T13:13:37Z</time>
      </trkpt>
      <trkpt lat="47.85977" lon="2.2288">
        <ele>230.38</ele>
        <time>2022-05-23T13:13:40Z</time>
      </trkpt>
      <trkpt lat="47.85976" lon="2.22865">
        <ele>231.91</ele>
        <time>2022-05-23T13:13:43Z</time>
      </trkpt>
      <trkpt lat="47.85976" lon="2.22848">
        <ele>230.52</ele>
        <time>2022-05-23T13:13:46Z</time>
      </trkpt>
      <trkpt lat="47.85976" lon="2.22832">
        <ele>232.47</ele>
        <time>2022-05-23T13:13:49Z</time>
      </trkpt>
      <trkpt lat="47.85979" lon="2.22818">
        <ele>231.42</ele>
        <time>2022-05-23T13:13:52Z</time>
      </trkpt>
      <trkpt lat="47.85981" lon="2.22804">
        <ele>231.62</ele>
        <time>2022-05-23T13:13:55Z</time>
      </trkpt>
      <trkpt lat="47.85983" lon="2.22788">
        <ele>232.11</ele>
        <time>2022-05-23T13:13:59Z</time>
      </trkpt>
      <trkpt lat="47.85984" lon="2.22771">
        <ele>232.98</ele>
        <time>2022-05-23T13:14:03Z</time>
      </trkpt>
      <trkpt lat="47.85985" lon="2.22758">
        <ele>232.95</ele>
        <time>2022-05-23T13:14:06Z</time>
      </trkpt>
      <trkpt lat="47.85986" lon="2.22743">
        <ele>235.49</ele>
        <time>2022-05-23T13:14:09Z</time>
      </trkpt>
      <trkpt lat="47.85986" lon="2.22728">
        <ele>239.02</ele>
        <time>2022-05-23T13:14:12Z</time>
      </trkpt>
      <trkpt lat="47.85987" lon="2.22713">
        <ele>241.09</ele>
        <time>2022-05-23T13:14:15Z</time>
      </trkpt>
      <trkpt lat="47.85988" lon="2.22698">
        <ele>239.67</ele>
        <time>2022-05-23T13:14:18Z</time>
      </trkpt>
      <trkpt lat="47.85989" lon="2.22685">
        <ele>239.82</ele>
        <time>2022-05-23T13:14:21Z</time>
      </trkpt>
      <trkpt lat="47.8599" lon="2.22669">
        <ele>240.65</ele>
        <time>2022-05-23T13:14:25Z</time>
      </trkpt>
      <trkpt lat="47.85992" lon="2.22656">
        <ele>238.81</ele>
        <time>2022-05-23T13:14:36Z</time>
      </trkpt>
      <trkpt lat="47.86" lon="2.22663">
        <ele>239.53</ele>
        <time>2022-05-23T13:15:15Z</time>
      </trkpt>
      <trkpt lat="47.85996" lon="2.22676">
        <ele>239.92</ele>
        <time>2022-05-23T13:15:22Z</time>
      </trkpt>
      <trkpt lat="47.85998" lon="2.22692">
        <ele>242.59</ele>
        <time>2022-05-23T13:15:47Z</time>
      </trkpt>
      <trkpt lat="47.85999" lon="2.22706">
        <ele>243.17</ele>
        <time>2022-05-23T13:15:52Z</time>
      </trkpt>
      <trkpt lat="47.86001" lon="2.22722">
        <ele>243.42</ele>
        <time>2022-05-23T13:15:58Z</time>
      </trkpt>
      <trkpt lat="47.86003" lon="2.22736">
        <ele>243.76</ele>
        <time>2022-05-23T13:16:03Z</time>
      </trkpt>
      <trkpt lat="47.86" lon="2.22751">
        <ele>243.78</ele>
        <time>2022-05-23T13:16:08Z</time>
      </trkpt>
      <trkpt lat="47.86001" lon="2.22765">
        <ele>244.07</ele>
        <time>2022-05-23T13:16:13Z</time>
      </trkpt>
      <trkpt lat="47.86002" lon="2.2278">
        <ele>246.47</ele>
        <time>2022-05-23T13:16:18Z</time>
      </trkpt>
      <trkpt lat="47.86002" lon="2.22795">
        <ele>245.59</ele>
        <time>2022-05-23T13:16:23Z</time>
      </trkpt>
      <trkpt lat="47.86003" lon="2.22812">
        <ele>247.36</ele>
        <time>2022-05-23T13:16:28Z</time>
      </trkpt>
      <trkpt lat="47.86004" lon="2.22825">
        <ele>247.19</ele>
        <time>2022-05-23T13:16:32Z</time>
      </trkpt>
      <trkpt lat="47.86004" lon="2.22839">
        <ele>246.82</ele>
        <time>2022-05-23T13:16:37Z</time>
      </trkpt>
      <trkpt lat="47.86007" lon="2.22852">
        <ele>247.81</ele>
        <time>2022-05-23T13:16:56Z</time>
      </trkpt>
      <trkpt lat="47.86008" lon="2.22839">
        <ele>249.03</ele>
        <time>2022-05-23T13:17:07Z</time>
      </trkpt>
      <trkpt lat="47.86009" lon="2.22824">
        <ele>249.71</ele>
        <time>2022-05-23T13:17:11Z</time>
      </trkpt>
      <trkpt lat="47.86011" lon="2.22807">
        <ele>250.22</ele>
        <time>2022-05-23T13:17:15Z</time>
      </trkpt>
      <trkpt lat="47.86012" lon="2.22788">
        <ele>250.49</ele>
        <time>2022-05-23T13:17:19Z</time>
      </trkpt>
      <trkpt lat="47.86012" lon="2.22767">
        <ele>250</ele>
        <time>2022-05-23T13:17:23Z</time>
      </trkpt>
      <trkpt lat="47.86013" lon="2.2275">
        <ele>249.5</ele>
        <time>2022-05-23T13:17:26Z</time>
      </trkpt>
      <trkpt lat="47.86013" lon="2.22731">
        <ele>248.77</ele>
        <time>2022-05-23T13:17:29Z</time>
      </trkpt>
      <trkpt lat="47.86013" lon="2.22712">
        <ele>248.19</ele>
        <time>2022-05-23T13:17:32Z</time>
      </trkpt>
      <trkpt lat="47.86013" lon="2.22693">
        <ele>247.53</ele>
        <time>2022-05-23T13:17:35Z</time>
      </trkpt>
      <trkpt lat="47.86013" lon="2.22678">
        <ele>246.7</ele>
        <time>2022-05-23T13:17:38Z</time>
      </trkpt>
      <trkpt lat="47.86011" lon="2.22664">
        <ele>246.17</ele>
        <time>2022-05-23T13:17:41Z</time>
      </trkpt>
      <trkpt lat="47.86008" lon="2.2265">
        <ele>245.27</ele>
        <time>2022-05-23T13:17:45Z</time>
      </trkpt>
      <trkpt lat="47.86006" lon="2.22636">
        <ele>244.98</ele>
        <time>2022-05-23T13:18:17Z</time>
      </trkpt>
      <trkpt lat="47.86006" lon="2.22623">
        <ele>244.62</ele>
        <time>2022-05-23T13:18:24Z</time>
      </trkpt>
      <trkpt lat="47.86006" lon="2.22607">
        <ele>244.22</ele>
        <time>2022-05-23T13:18:31Z</time>
      </trkpt>
      <trkpt lat="47.86005" lon="2.22593">
        <ele>244.14</ele>
        <time>2022-05-23T13:18:37Z</time>
      </trkpt>
      <trkpt lat="47.8601" lon="2.22581">
        <ele>244.62</ele>
        <time>2022-05-23T13:18:42Z</time>
      </trkpt>
      <trkpt lat="47.86019" lon="2.22573">
        <ele>245.02</ele>
        <time>2022-05-23T13:18:47Z</time>
      </trkpt>
      <trkpt lat="47.86028" lon="2.22565">
        <ele>245.11</ele>
        <time>2022-05-23T13:18:52Z</time>
      </trkpt>
      <trkpt lat="47.86037" lon="2.22557">
        <ele>245.11</ele>
        <time>2022-05-23T13:18:57Z</time>
      </trkpt>
      <trkpt lat="47.86046" lon="2.22551">
        <ele>245.96</ele>
        <time>2022-05-23T13:19:03Z</time>
      </trkpt>
      <trkpt lat="47.86049" lon="2.22537">
        <ele>245.54</ele>
        <time>2022-05-23T13:19:11Z</time>
      </trkpt>
      <trkpt lat="47.86053" lon="2.22523">
        <ele>246.08</ele>
        <time>2022-05-23T13:19:15Z</time>
      </trkpt>
      <trkpt lat="47.86058" lon="2.22511">
        <ele>245.95</ele>
        <time>2022-05-23T13:19:19Z</time>
      </trkpt>
      <trkpt lat="47.86064" lon="2.22498">
        <ele>244.93</ele>
        <time>2022-05-23T13:19:23Z</time>
      </trkpt>
      <trkpt lat="47.86069" lon="2.22485">
        <ele>244.75</ele>
        <time>2022-05-23T13:19:26Z</time>
      </trkpt>
      <trkpt lat="47.86074" lon="2.2247">
        <ele>244.49</ele>
        <time>2022-05-23T13:19:29Z</time>
      </trkpt>
      <trkpt lat="47.86077" lon="2.22455">
        <ele>243.96</ele>
        <time>2022-05-23T13:19:32Z</time>
      </trkpt>
      <trkpt lat="47.86079" lon="2.22441">
        <ele>244.25</ele>
        <time>2022-05-23T13:19:35Z</time>
      </trkpt>
      <trkpt lat="47.86081" lon="2.22427">
        <ele>244.84</ele>
        <time>2022-05-23T13:19:38Z</time>
      </trkpt>
      <trkpt lat="47.86083" lon="2.22411">
        <ele>245.15</ele>
        <time>2022-05-23T13:19:42Z</time>
      </trkpt>
      <trkpt lat="47.86086" lon="2.22396">
        <ele>245.05</ele>
        <time>2022-05-23T13:19:47Z</time>
      </trkpt>
      <trkpt lat="47.86088" lon="2.22382">
        <ele>245.06</ele>
        <time>2022-05-23T13:19:51Z</time>
      </trkpt>
      <trkpt lat="47.86091" lon="2.22368">
        <ele>245.4</ele>
        <time>2022-05-23T13:19:54Z</time>
      </trkpt>
      <trkpt lat="47.86094" lon="2.22352">
        <ele>245.17</ele>
        <time>2022-05-23T13:19:57Z</time>
      </trkpt>
      <trkpt lat="47.86096" lon="2.22335">
        <ele>244.88</ele>
        <time>2022-05-23T13:20:00Z</time>
      </trkpt>
      <trkpt lat="47.86099" lon="2.22319">
        <ele>245.43</ele>
        <time>2022-05-23T13:20:03Z</time>
      </trkpt>
      <trkpt lat="47.86103" lon="2.22304">
        <ele>245.73</ele>
        <time>2022-05-23T13:20:06Z</time>
      </trkpt>
      <trkpt lat="47.86107" lon="2.22289">
        <ele>245.58</ele>
        <time>2022-05-23T13:20:09Z</time>
      </trkpt>
      <trkpt lat="47.8611" lon="2.22274">
        <ele>245.54</ele>
        <time>2022-05-23T13:20:12Z</time>
      </trkpt>
      <trkpt lat="47.86114" lon="2.22258">
        <ele>245.47</ele>
        <time>2022-05-23T13:20:15Z</time>
      </trkpt>
      <trkpt lat="47.86119" lon="2.22241">
        <ele>245.7</ele>
        <time>2022-05-23T13:20:18Z</time>
      </trkpt>
      <trkpt lat="47.86124" lon="2.22226">
        <ele>245.69</ele>
        <time>2022-05-23T13:20:21Z</time>
      </trkpt>
      <trkpt lat="47.8613" lon="2.22212">
        <ele>245.83</ele>
        <time>2022-05-23T13:20:24Z</time>
      </trkpt>
      <trkpt lat="47.86135" lon="2.222">
        <ele>245.78</ele>
        <time>2022-05-23T13:20:27Z</time>
      </trkpt>
      <trkpt lat="47.8614" lon="2.22187">
        <ele>245.76</ele>
        <time>2022-05-23T13:20:30Z</time>
      </trkpt>
      <trkpt lat="47.86147" lon="2.22175">
        <ele>245.97</ele>
        <time>2022-05-23T13:20:33Z</time>
      </trkpt>
      <trkpt lat="47.86154" lon="2.22162">
        <ele>245.7</ele>
        <time>2022-05-23T13:20:36Z</time>
      </trkpt>
      <trkpt lat="47.8616" lon="2.22148">
        <ele>245.56</ele>
        <time>2022-05-23T13:20:39Z</time>
      </trkpt>
      <trkpt lat="47.86168" lon="2.22134">
        <ele>244.89</ele>
        <time>2022-05-23T13:20:43Z</time>
      </trkpt>
      <trkpt lat="47.86176" lon="2.22124">
        <ele>245.15</ele>
        <time>2022-05-23T13:20:46Z</time>
      </trkpt>
      <trkpt lat="47.86184" lon="2.22114">
        <ele>245.85</ele>
        <time>2022-05-23T13:20:49Z</time>
      </trkpt>
      <trkpt lat="47.86191" lon="2.22102">
        <ele>246.82</ele>
        <time>2022-05-23T13:20:52Z</time>
      </trkpt>
      <trkpt lat="47.86197" lon="2.2209">
        <ele>247.32</ele>
        <time>2022-05-23T13:20:55Z</time>
      </trkpt>
      <trkpt lat="47.86203" lon="2.22078">
        <ele>247.16</ele>
        <time>2022-05-23T13:20:58Z</time>
      </trkpt>
      <trkpt lat="47.8621" lon="2.22068">
        <ele>248.01</ele>
        <time>2022-05-23T13:21:01Z</time>
      </trkpt>
      <trkpt lat="47.86218" lon="2.22059">
        <ele>248.87</ele>
        <time>2022-05-23T13:21:04Z</time>
      </trkpt>
      <trkpt lat="47.86225" lon="2.2205">
        <ele>248.66</ele>
        <time>2022-05-23T13:21:07Z</time>
      </trkpt>
      <trkpt lat="47.86232" lon="2.2204">
        <ele>249.09</ele>
        <time>2022-05-23T13:21:10Z</time>
      </trkpt>
      <trkpt lat="47.86239" lon="2.22031">
        <ele>250.27</ele>
        <time>2022-05-23T13:21:13Z</time>
      </trkpt>
      <trkpt lat="47.86246" lon="2.22021">
        <ele>250.8</ele>
        <time>2022-05-23T13:21:16Z</time>
      </trkpt>
      <trkpt lat="47.86253" lon="2.22012">
        <ele>251.94</ele>
        <time>2022-05-23T13:21:19Z</time>
      </trkpt>
      <trkpt lat="47.86261" lon="2.22004">
        <ele>251.54</ele>
        <time>2022-05-23T13:21:22Z</time>
      </trkpt>
      <trkpt lat="47.8627" lon="2.21997">
        <ele>251.57</ele>
        <time>2022-05-23T13:21:25Z</time>
      </trkpt>
      <trkpt lat="47.86278" lon="2.21989">
        <ele>252.26</ele>
        <time>2022-05-23T13:21:28Z</time>
      </trkpt>
      <trkpt lat="47.86286" lon="2.21977">
        <ele>252.1</ele>
        <time>2022-05-23T13:21:31Z</time>
      </trkpt>
      <trkpt lat="47.86292" lon="2.21965">
        <ele>252.34</ele>
        <time>2022-05-23T13:21:34Z</time>
      </trkpt>
      <trkpt lat="47.86298" lon="2.21953">
        <ele>252.77</ele>
        <time>2022-05-23T13:21:37Z</time>
      </trkpt>
      <trkpt lat="47.86306" lon="2.2194">
        <ele>252.29</ele>
        <time>2022-05-23T13:21:41Z</time>
      </trkpt>
      <trkpt lat="47.86315" lon="2.21938">
        <ele>252.38</ele>
        <time>2022-05-23T13:21:44Z</time>
      </trkpt>
      <trkpt lat="47.86324" lon="2.21939">
        <ele>252.77</ele>
        <time>2022-05-23T13:21:47Z</time>
      </trkpt>
      <trkpt lat="47.86334" lon="2.21942">
        <ele>253.21</ele>
        <time>2022-05-23T13:21:50Z</time>
      </trkpt>
      <trkpt lat="47.86346" lon="2.21945">
        <ele>253.3</ele>
        <time>2022-05-23T13:21:54Z</time>
      </trkpt>
      <trkpt lat="47.86357" lon="2.21948">
        <ele>251.99</ele>
        <time>2022-05-23T13:21:58Z</time>
      </trkpt>
      <trkpt lat="47.86369" lon="2.21952">
        <ele>253.22</ele>
        <time>2022-05-23T13:22:02Z</time>
      </trkpt>
      <trkpt lat="47.86378" lon="2.21957">
        <ele>251.84</ele>
        <time>2022-05-23T13:22:05Z</time>
      </trkpt>
      <trkpt lat="47.86389" lon="2.21955">
        <ele>251.82</ele>
        <time>2022-05-23T13:22:09Z</time>
      </trkpt>
      <trkpt lat="47.86395" lon="2.21945">
        <ele>252.06</ele>
        <time>2022-05-23T13:22:12Z</time>
      </trkpt>
      <trkpt lat="47.86402" lon="2.21934">
        <ele>251.97</ele>
        <time>2022-05-23T13:22:15Z</time>
      </trkpt>
      <trkpt lat="47.8641" lon="2.21926">
        <ele>252.3</ele>
        <time>2022-05-23T13:22:18Z</time>
      </trkpt>
      <trkpt lat="47.86409" lon="2.21912">
        <ele>253.28</ele>
        <time>2022-05-23T13:22:45Z</time>
      </trkpt>
      <trkpt lat="47.86407" lon="2.21898">
        <ele>252.67</ele>
        <time>2022-05-23T13:22:49Z</time>
      </trkpt>
      <trkpt lat="47.86411" lon="2.21881">
        <ele>252.89</ele>
        <time>2022-05-23T13:22:53Z</time>
      </trkpt>
      <trkpt lat="47.86412" lon="2.21866">
        <ele>252.13</ele>
        <time>2022-05-23T13:22:57Z</time>
      </trkpt>
      <trkpt lat="47.86416" lon="2.21852">
        <ele>250.54</ele>
        <time>2022-05-23T13:23:04Z</time>
      </trkpt>
      <trkpt lat="47.86423" lon="2.21842">
        <ele>251.18</ele>
        <time>2022-05-23T13:23:09Z</time>
      </trkpt>
      <trkpt lat="47.86427" lon="2.21828">
        <ele>251.35</ele>
        <time>2022-05-23T13:23:14Z</time>
      </trkpt>
      <trkpt lat="47.86432" lon="2.21814">
        <ele>250.53</ele>
        <time>2022-05-23T13:23:19Z</time>
      </trkpt>
      <trkpt lat="47.86437" lon="2.21801">
        <ele>249.86</ele>
        <time>2022-05-23T13:23:24Z</time>
      </trkpt>
      <trkpt lat="47.86437" lon="2.21787">
        <ele>248.84</ele>
        <time>2022-05-23T13:23:30Z</time>
      </trkpt>
      <trkpt lat="47.86428" lon="2.21783">
        <ele>248.56</ele>
        <time>2022-05-23T13:23:36Z</time>
      </trkpt>
      <trkpt lat="47.8642" lon="2.21775">
        <ele>248.77</ele>
        <time>2022-05-23T13:23:41Z</time>
      </trkpt>
      <trkpt lat="47.86412" lon="2.21768">
        <ele>248.73</ele>
        <time>2022-05-23T13:23:57Z</time>
      </trkpt>
      <trkpt lat="47.86407" lon="2.21755">
        <ele>248.49</ele>
        <time>2022-05-23T13:24:03Z</time>
      </trkpt>
      <trkpt lat="47.86402" lon="2.2174">
        <ele>248.02</ele>
        <time>2022-05-23T13:24:08Z</time>
      </trkpt>
      <trkpt lat="47.864" lon="2.21726">
        <ele>248</ele>
        <time>2022-05-23T13:24:12Z</time>
      </trkpt>
      <trkpt lat="47.86398" lon="2.21712">
        <ele>248.4</ele>
        <time>2022-05-23T13:24:17Z</time>
      </trkpt>
      <trkpt lat="47.86393" lon="2.21699">
        <ele>248.51</ele>
        <time>2022-05-23T13:24:22Z</time>
      </trkpt>
      <trkpt lat="47.86387" lon="2.21689">
        <ele>248.99</ele>
        <time>2022-05-23T13:24:28Z</time>
      </trkpt>
      <trkpt lat="47.86395" lon="2.21698">
        <ele>248.75</ele>
        <time>2022-05-23T13:25:28Z</time>
      </trkpt>
      <trkpt lat="47.86404" lon="2.21688">
        <ele>248.74</ele>
        <time>2022-05-23T13:25:33Z</time>
      </trkpt>
      <trkpt lat="47.86414" lon="2.2168">
        <ele>248.47</ele>
        <time>2022-05-23T13:25:37Z</time>
      </trkpt>
      <trkpt lat="47.86424" lon="2.21676">
        <ele>247.83</ele>
        <time>2022-05-23T13:25:41Z</time>
      </trkpt>
      <trkpt lat="47.86431" lon="2.21663">
        <ele>247.24</ele>
        <time>2022-05-23T13:25:46Z</time>
      </trkpt>
      <trkpt lat="47.86434" lon="2.21648">
        <ele>248.23</ele>
        <time>2022-05-23T13:25:50Z</time>
      </trkpt>
      <trkpt lat="47.86435" lon="2.21631">
        <ele>249.03</ele>
        <time>2022-05-23T13:25:54Z</time>
      </trkpt>
      <trkpt lat="47.86435" lon="2.21618">
        <ele>248.87</ele>
        <time>2022-05-23T13:25:57Z</time>
      </trkpt>
      <trkpt lat="47.86434" lon="2.21604">
        <ele>248.95</ele>
        <time>2022-05-23T13:26:00Z</time>
      </trkpt>
      <trkpt lat="47.86433" lon="2.2159">
        <ele>249.02</ele>
        <time>2022-05-23T13:26:04Z</time>
      </trkpt>
      <trkpt lat="47.86428" lon="2.21577">
        <ele>248.39</ele>
        <time>2022-05-23T13:26:08Z</time>
      </trkpt>
      <trkpt lat="47.86425" lon="2.21564">
        <ele>249.01</ele>
        <time>2022-05-23T13:26:12Z</time>
      </trkpt>
      <trkpt lat="47.86422" lon="2.2155">
        <ele>248.53</ele>
        <time>2022-05-23T13:26:22Z</time>
      </trkpt>
      <trkpt lat="47.86426" lon="2.21537">
        <ele>249.18</ele>
        <time>2022-05-23T13:26:27Z</time>
      </trkpt>
      <trkpt lat="47.86428" lon="2.21521">
        <ele>249.29</ele>
        <time>2022-05-23T13:26:31Z</time>
      </trkpt>
      <trkpt lat="47.8643" lon="2.21507">
        <ele>249.68</ele>
        <time>2022-05-23T13:26:34Z</time>
      </trkpt>
      <trkpt lat="47.86434" lon="2.21491">
        <ele>249.35</ele>
        <time>2022-05-23T13:26:38Z</time>
      </trkpt>
      <trkpt lat="47.86437" lon="2.21475">
        <ele>249.37</ele>
        <time>2022-05-23T13:26:42Z</time>
      </trkpt>
      <trkpt lat="47.86438" lon="2.21459">
        <ele>249.68</ele>
        <time>2022-05-23T13:26:46Z</time>
      </trkpt>
      <trkpt lat="47.86441" lon="2.21442">
        <ele>249.15</ele>
        <time>2022-05-23T13:26:50Z</time>
      </trkpt>
      <trkpt lat="47.86444" lon="2.21425">
        <ele>248.92</ele>
        <time>2022-05-23T13:26:53Z</time>
      </trkpt>
      <trkpt lat="47.86446" lon="2.21408">
        <ele>248.65</ele>
        <time>2022-05-23T13:26:56Z</time>
      </trkpt>
      <trkpt lat="47.86448" lon="2.21392">
        <ele>248.62</ele>
        <time>2022-05-23T13:26:59Z</time>
      </trkpt>
      <trkpt lat="47.8645" lon="2.21377">
        <ele>248.85</ele>
        <time>2022-05-23T13:27:02Z</time>
      </trkpt>
      <trkpt lat="47.86452" lon="2.21361">
        <ele>249.14</ele>
        <time>2022-05-23T13:27:05Z</time>
      </trkpt>
      <trkpt lat="47.86454" lon="2.21345">
        <ele>248.81</ele>
        <time>2022-05-23T13:27:08Z</time>
      </trkpt>
      <trkpt lat="47.86457" lon="2.21326">
        <ele>248.78</ele>
        <time>2022-05-23T13:27:11Z</time>
      </trkpt>
      <trkpt lat="47.86459" lon="2.21313">
        <ele>248.51</ele>
        <time>2022-05-23T13:27:13Z</time>
      </trkpt>
      <trkpt lat="47.8646" lon="2.21294">
        <ele>248.13</ele>
        <time>2022-05-23T13:27:16Z</time>
      </trkpt>
      <trkpt lat="47.86463" lon="2.21278">
        <ele>248.27</ele>
        <time>2022-05-23T13:27:19Z</time>
      </trkpt>
      <trkpt lat="47.86464" lon="2.2126">
        <ele>248.11</ele>
        <time>2022-05-23T13:27:22Z</time>
      </trkpt>
      <trkpt lat="47.86464" lon="2.21242">
        <ele>247.32</ele>
        <time>2022-05-23T13:27:25Z</time>
      </trkpt>
      <trkpt lat="47.86463" lon="2.21224">
        <ele>247.28</ele>
        <time>2022-05-23T13:27:28Z</time>
      </trkpt>
      <trkpt lat="47.86461" lon="2.21209">
        <ele>247.42</ele>
        <time>2022-05-23T13:27:31Z</time>
      </trkpt>
      <trkpt lat="47.86459" lon="2.21194">
        <ele>246.57</ele>
        <time>2022-05-23T13:27:34Z</time>
      </trkpt>
      <trkpt lat="47.86459" lon="2.21181">
        <ele>246.82</ele>
        <time>2022-05-23T13:27:38Z</time>
      </trkpt>
      <trkpt lat="47.86453" lon="2.21191">
        <ele>246.88</ele>
        <time>2022-05-23T13:27:59Z</time>
      </trkpt>
      <trkpt lat="47.86451" lon="2.21208">
        <ele>245.6</ele>
        <time>2022-05-23T13:28:04Z</time>
      </trkpt>
      <trkpt lat="47.86449" lon="2.21221">
        <ele>244.46</ele>
        <time>2022-05-23T13:28:07Z</time>
      </trkpt>
      <trkpt lat="47.86447" lon="2.21235">
        <ele>244.13</ele>
        <time>2022-05-23T13:28:11Z</time>
      </trkpt>
      <trkpt lat="47.86445" lon="2.21249">
        <ele>241.65</ele>
        <time>2022-05-23T13:28:15Z</time>
      </trkpt>
      <trkpt lat="47.86441" lon="2.21263">
        <ele>241.51</ele>
        <time>2022-05-23T13:28:18Z</time>
      </trkpt>
      <trkpt lat="47.86436" lon="2.21276">
        <ele>241.61</ele>
        <time>2022-05-23T13:28:22Z</time>
      </trkpt>
      <trkpt lat="47.86429" lon="2.21287">
        <ele>240.68</ele>
        <time>2022-05-23T13:28:26Z</time>
      </trkpt>
      <trkpt lat="47.86422" lon="2.21297">
        <ele>240.16</ele>
        <time>2022-05-23T13:28:29Z</time>
      </trkpt>
      <trkpt lat="47.86416" lon="2.21309">
        <ele>240.49</ele>
        <time>2022-05-23T13:28:32Z</time>
      </trkpt>
      <trkpt lat="47.86409" lon="2.21321">
        <ele>238.7</ele>
        <time>2022-05-23T13:28:35Z</time>
      </trkpt>
      <trkpt lat="47.864" lon="2.21333">
        <ele>237.53</ele>
        <time>2022-05-23T13:28:38Z</time>
      </trkpt>
      <trkpt lat="47.86395" lon="2.21344">
        <ele>237.3</ele>
        <time>2022-05-23T13:28:42Z</time>
      </trkpt>
      <trkpt lat="47.86394" lon="2.21328">
        <ele>235.88</ele>
        <time>2022-05-23T13:28:54Z</time>
      </trkpt>
      <trkpt lat="47.86399" lon="2.21312">
        <ele>233.89</ele>
        <time>2022-05-23T13:28:58Z</time>
      </trkpt>
      <trkpt lat="47.86403" lon="2.21299">
        <ele>234.51</ele>
        <time>2022-05-23T13:29:02Z</time>
      </trkpt>
      <trkpt lat="47.86406" lon="2.21283">
        <ele>234.31</ele>
        <time>2022-05-23T13:29:07Z</time>
      </trkpt>
      <trkpt lat="47.86408" lon="2.21268">
        <ele>233.31</ele>
        <time>2022-05-23T13:29:12Z</time>
      </trkpt>
      <trkpt lat="47.86407" lon="2.21254">
        <ele>232.85</ele>
        <time>2022-05-23T13:29:17Z</time>
      </trkpt>
      <trkpt lat="47.86409" lon="2.2124">
        <ele>229.65</ele>
        <time>2022-05-23T13:29:33Z</time>
      </trkpt>
      <trkpt lat="47.86405" lon="2.21225">
        <ele>236.45</ele>
        <time>2022-05-23T13:30:36Z</time>
      </trkpt>
      <trkpt lat="47.86406" lon="2.21209">
        <ele>236.51</ele>
        <time>2022-05-23T13:30:41Z</time>
      </trkpt>
      <trkpt lat="47.86404" lon="2.21193">
        <ele>237.11</ele>
        <time>2022-05-23T13:30:45Z</time>
      </trkpt>
      <trkpt lat="47.86403" lon="2.21178">
        <ele>236.53</ele>
        <time>2022-05-23T13:30:48Z</time>
      </trkpt>
      <trkpt lat="47.86403" lon="2.21164">
        <ele>237.36</ele>
        <time>2022-05-23T13:30:51Z</time>
      </trkpt>
      <trkpt lat="47.86406" lon="2.21148">
        <ele>237.63</ele>
        <time>2022-05-23T13:30:56Z</time>
      </trkpt>
      <trkpt lat="47.86405" lon="2.21132">
        <ele>241.52</ele>
        <time>2022-05-23T13:31:01Z</time>
      </trkpt>
      <trkpt lat="47.86405" lon="2.21118">
        <ele>239.85</ele>
        <time>2022-05-23T13:31:52Z</time>
      </trkpt>
      <trkpt lat="47.86401" lon="2.21103">
        <ele>241.97</ele>
        <time>2022-05-23T13:31:58Z</time>
      </trkpt>
      <trkpt lat="47.86398" lon="2.21089">
        <ele>241.06</ele>
        <time>2022-05-23T13:32:02Z</time>
      </trkpt>
      <trkpt lat="47.86397" lon="2.21075">
        <ele>239.11</ele>
        <time>2022-05-23T13:32:07Z</time>
      </trkpt>
      <trkpt lat="47.86393" lon="2.2106">
        <ele>237.79</ele>
        <time>2022-05-23T13:32:19Z</time>
      </trkpt>
      <trkpt lat="47.86391" lon="2.21047">
        <ele>237.93</ele>
        <time>2022-05-23T13:32:23Z</time>
      </trkpt>
      <trkpt lat="47.86388" lon="2.21032">
        <ele>239.1</ele>
        <time>2022-05-23T13:32:34Z</time>
      </trkpt>
      <trkpt lat="47.86386" lon="2.21018">
        <ele>237.23</ele>
        <time>2022-05-23T13:32:38Z</time>
      </trkpt>
      <trkpt lat="47.86385" lon="2.21005">
        <ele>236.58</ele>
        <time>2022-05-23T13:32:42Z</time>
      </trkpt>
      <trkpt lat="47.86381" lon="2.20991">
        <ele>237.31</ele>
        <time>2022-05-23T13:32:46Z</time>
      </trkpt>
      <trkpt lat="47.86375" lon="2.20976">
        <ele>237.59</ele>
        <time>2022-05-23T13:32:50Z</time>
      </trkpt>
      <trkpt lat="47.86368" lon="2.2096">
        <ele>239.94</ele>
        <time>2022-05-23T13:32:55Z</time>
      </trkpt>
      <trkpt lat="47.86364" lon="2.20948">
        <ele>240.46</ele>
        <time>2022-05-23T13:32:58Z</time>
      </trkpt>
      <trkpt lat="47.86367" lon="2.20935">
        <ele>237.66</ele>
        <time>2022-05-23T13:33:05Z</time>
      </trkpt>
      <trkpt lat="47.86366" lon="2.2092">
        <ele>233.84</ele>
        <time>2022-05-23T13:33:11Z</time>
      </trkpt>
      <trkpt lat="47.86361" lon="2.20908">
        <ele>232.87</ele>
        <time>2022-05-23T13:33:29Z</time>
      </trkpt>
      <trkpt lat="47.86363" lon="2.20922">
        <ele>236.06</ele>
        <time>2022-05-23T13:34:12Z</time>
      </trkpt>
      <trkpt lat="47.86365" lon="2.20936">
        <ele>234.35</ele>
        <time>2022-05-23T13:34:17Z</time>
      </trkpt>
      <trkpt lat="47.86368" lon="2.20949">
        <ele>234.08</ele>
        <time>2022-05-23T13:34:22Z</time>
      </trkpt>
      <trkpt lat="47.86372" lon="2.20962">
        <ele>235.04</ele>
        <time>2022-05-23T13:34:27Z</time>
      </trkpt>
      <trkpt lat="47.86376" lon="2.20976">
        <ele>234.93</ele>
        <time>2022-05-23T13:34:30Z</time>
      </trkpt>
      <trkpt lat="47.86382" lon="2.2099">
        <ele>235.34</ele>
        <time>2022-05-23T13:34:35Z</time>
      </trkpt>
      <trkpt lat="47.86382" lon="2.21007">
        <ele>236.62</ele>
        <time>2022-05-23T13:34:39Z</time>
      </trkpt>
      <trkpt lat="47.86385" lon="2.21021">
        <ele>233.92</ele>
        <time>2022-05-23T13:34:43Z</time>
      </trkpt>
      <trkpt lat="47.86388" lon="2.21036">
        <ele>234.18</ele>
        <time>2022-05-23T13:34:47Z</time>
      </trkpt>
      <trkpt lat="47.86392" lon="2.21051">
        <ele>235.16</ele>
        <time>2022-05-23T13:34:51Z</time>
      </trkpt>
      <trkpt lat="47.86395" lon="2.21065">
        <ele>236.2</ele>
        <time>2022-05-23T13:34:55Z</time>
      </trkpt>
      <trkpt lat="47.86397" lon="2.2108">
        <ele>236.3</ele>
        <time>2022-05-23T13:34:59Z</time>
      </trkpt>
      <trkpt lat="47.864" lon="2.21094">
        <ele>236.02</ele>
        <time>2022-05-23T13:35:02Z</time>
      </trkpt>
      <trkpt lat="47.86403" lon="2.21108">
        <ele>233.97</ele>
        <time>2022-05-23T13:35:07Z</time>
      </trkpt>
      <trkpt lat="47.86404" lon="2.21124">
        <ele>235.01</ele>
        <time>2022-05-23T13:35:11Z</time>
      </trkpt>
      <trkpt lat="47.86403" lon="2.21142">
        <ele>234.99</ele>
        <time>2022-05-23T13:35:14Z</time>
      </trkpt>
      <trkpt lat="47.86404" lon="2.21156">
        <ele>234.48</ele>
        <time>2022-05-23T13:35:17Z</time>
      </trkpt>
      <trkpt lat="47.86404" lon="2.21173">
        <ele>233.89</ele>
        <time>2022-05-23T13:35:21Z</time>
      </trkpt>
      <trkpt lat="47.86403" lon="2.21188">
        <ele>234.11</ele>
        <time>2022-05-23T13:35:25Z</time>
      </trkpt>
      <trkpt lat="47.86406" lon="2.21202">
        <ele>234.65</ele>
        <time>2022-05-23T13:35:29Z</time>
      </trkpt>
      <trkpt lat="47.86407" lon="2.21215">
        <ele>236.67</ele>
        <time>2022-05-23T13:35:33Z</time>
      </trkpt>
      <trkpt lat="47.86407" lon="2.2123">
        <ele>235.83</ele>
        <time>2022-05-23T13:35:38Z</time>
      </trkpt>
      <trkpt lat="47.86406" lon="2.21246">
        <ele>235.63</ele>
        <time>2022-05-23T13:35:44Z</time>
      </trkpt>
      <trkpt lat="47.8641" lon="2.2126">
        <ele>231.01</ele>
        <time>2022-05-23T13:36:08Z</time>
      </trkpt>
      <trkpt lat="47.86411" lon="2.21275">
        <ele>232.32</ele>
        <time>2022-05-23T13:36:13Z</time>
      </trkpt>
      <trkpt lat="47.86411" lon="2.2129">
        <ele>233.76</ele>
        <time>2022-05-23T13:36:17Z</time>
      </trkpt>
      <trkpt lat="47.86408" lon="2.21304">
        <ele>233.45</ele>
        <time>2022-05-23T13:36:21Z</time>
      </trkpt>
      <trkpt lat="47.86404" lon="2.21317">
        <ele>232.9</ele>
        <time>2022-05-23T13:36:24Z</time>
      </trkpt>
      <trkpt lat="47.864" lon="2.21332">
        <ele>232.76</ele>
        <time>2022-05-23T13:36:28Z</time>
      </trkpt>
      <trkpt lat="47.86396" lon="2.21345">
        <ele>235.65</ele>
        <time>2022-05-23T13:36:32Z</time>
      </trkpt>
      <trkpt lat="47.86396" lon="2.21359">
        <ele>238.19</ele>
        <time>2022-05-23T13:36:37Z</time>
      </trkpt>
      <trkpt lat="47.86395" lon="2.21376">
        <ele>238.12</ele>
        <time>2022-05-23T13:36:41Z</time>
      </trkpt>
      <trkpt lat="47.86394" lon="2.2139">
        <ele>237.13</ele>
        <time>2022-05-23T13:36:45Z</time>
      </trkpt>
      <trkpt lat="47.86392" lon="2.21403">
        <ele>238.04</ele>
        <time>2022-05-23T13:36:49Z</time>
      </trkpt>
      <trkpt lat="47.86389" lon="2.21416">
        <ele>238.93</ele>
        <time>2022-05-23T13:36:54Z</time>
      </trkpt>
      <trkpt lat="47.86381" lon="2.21427">
        <ele>236.93</ele>
        <time>2022-05-23T13:36:59Z</time>
      </trkpt>
      <trkpt lat="47.8637" lon="2.2143">
        <ele>237.68</ele>
        <time>2022-05-23T13:37:03Z</time>
      </trkpt>
      <trkpt lat="47.86366" lon="2.21443">
        <ele>236.22</ele>
        <time>2022-05-23T13:37:08Z</time>
      </trkpt>
      <trkpt lat="47.86363" lon="2.2146">
        <ele>235.95</ele>
        <time>2022-05-23T13:37:12Z</time>
      </trkpt>
      <trkpt lat="47.86363" lon="2.21476">
        <ele>236.58</ele>
        <time>2022-05-23T13:37:15Z</time>
      </trkpt>
      <trkpt lat="47.86362" lon="2.21491">
        <ele>238</ele>
        <time>2022-05-23T13:37:19Z</time>
      </trkpt>
      <trkpt lat="47.86362" lon="2.21508">
        <ele>237.88</ele>
        <time>2022-05-23T13:37:23Z</time>
      </trkpt>
      <trkpt lat="47.86362" lon="2.21524">
        <ele>236.39</ele>
        <time>2022-05-23T13:37:27Z</time>
      </trkpt>
      <trkpt lat="47.86362" lon="2.2154">
        <ele>238.55</ele>
        <time>2022-05-23T13:37:31Z</time>
      </trkpt>
      <trkpt lat="47.86361" lon="2.21555">
        <ele>237.76</ele>
        <time>2022-05-23T13:37:35Z</time>
      </trkpt>
      <trkpt lat="47.86356" lon="2.21569">
        <ele>237.82</ele>
        <time>2022-05-23T13:37:40Z</time>
      </trkpt>
      <trkpt lat="47.86349" lon="2.21576">
        <ele>238.14</ele>
        <time>2022-05-23T13:37:50Z</time>
      </trkpt>
      <trkpt lat="47.86344" lon="2.21564">
        <ele>239.18</ele>
        <time>2022-05-23T13:37:55Z</time>
      </trkpt>
      <trkpt lat="47.86345" lon="2.2156">
        <ele>236.39</ele>
        <time>2022-05-23T13:39:56Z</time>
      </trkpt>
      <trkpt lat="47.86344" lon="2.21573">
        <ele>237.9</ele>
        <time>2022-05-23T13:40:14Z</time>
      </trkpt>
      <trkpt lat="47.86343" lon="2.21587">
        <ele>238.11</ele>
        <time>2022-05-23T13:40:24Z</time>
      </trkpt>
      <trkpt lat="47.8634" lon="2.216">
        <ele>238.58</ele>
        <time>2022-05-23T13:41:02Z</time>
      </trkpt>
      <trkpt lat="47.86336" lon="2.21618">
        <ele>238.92</ele>
        <time>2022-05-23T13:41:08Z</time>
      </trkpt>
      <trkpt lat="47.86333" lon="2.21631">
        <ele>238.86</ele>
        <time>2022-05-23T13:41:12Z</time>
      </trkpt>
      <trkpt lat="47.8633" lon="2.21646">
        <ele>239.46</ele>
        <time>2022-05-23T13:41:16Z</time>
      </trkpt>
      <trkpt lat="47.86325" lon="2.2166">
        <ele>239.48</ele>
        <time>2022-05-23T13:41:20Z</time>
      </trkpt>
      <trkpt lat="47.86319" lon="2.21673">
        <ele>239.01</ele>
        <time>2022-05-23T13:41:25Z</time>
      </trkpt>
      <trkpt lat="47.86312" lon="2.21684">
        <ele>237.87</ele>
        <time>2022-05-23T13:41:32Z</time>
      </trkpt>
      <trkpt lat="47.86313" lon="2.21698">
        <ele>240.35</ele>
        <time>2022-05-23T13:42:09Z</time>
      </trkpt>
      <trkpt lat="47.86307" lon="2.21708">
        <ele>240.48</ele>
        <time>2022-05-23T13:42:18Z</time>
      </trkpt>
      <trkpt lat="47.86297" lon="2.21712">
        <ele>239.79</ele>
        <time>2022-05-23T13:42:27Z</time>
      </trkpt>
      <trkpt lat="47.86289" lon="2.21723">
        <ele>239.5</ele>
        <time>2022-05-23T13:42:32Z</time>
      </trkpt>
      <trkpt lat="47.86281" lon="2.21734">
        <ele>238.97</ele>
        <time>2022-05-23T13:42:36Z</time>
      </trkpt>
      <trkpt lat="47.86274" lon="2.21744">
        <ele>237.46</ele>
        <time>2022-05-23T13:42:40Z</time>
      </trkpt>
      <trkpt lat="47.86266" lon="2.21751">
        <ele>237.38</ele>
        <time>2022-05-23T13:42:44Z</time>
      </trkpt>
      <trkpt lat="47.86256" lon="2.21755">
        <ele>236.66</ele>
        <time>2022-05-23T13:42:48Z</time>
      </trkpt>
      <trkpt lat="47.86246" lon="2.21761">
        <ele>235.35</ele>
        <time>2022-05-23T13:42:53Z</time>
      </trkpt>
      <trkpt lat="47.86237" lon="2.21769">
        <ele>234</ele>
        <time>2022-05-23T13:42:57Z</time>
      </trkpt>
      <trkpt lat="47.8623" lon="2.21778">
        <ele>233.14</ele>
        <time>2022-05-23T13:43:00Z</time>
      </trkpt>
      <trkpt lat="47.86221" lon="2.2179">
        <ele>233.18</ele>
        <time>2022-05-23T13:43:04Z</time>
      </trkpt>
      <trkpt lat="47.86214" lon="2.21799">
        <ele>232.51</ele>
        <time>2022-05-23T13:43:07Z</time>
      </trkpt>
      <trkpt lat="47.86206" lon="2.21806">
        <ele>233.75</ele>
        <time>2022-05-23T13:43:10Z</time>
      </trkpt>
      <trkpt lat="47.86198" lon="2.21814">
        <ele>233.76</ele>
        <time>2022-05-23T13:43:13Z</time>
      </trkpt>
      <trkpt lat="47.86191" lon="2.21824">
        <ele>233.51</ele>
        <time>2022-05-23T13:43:16Z</time>
      </trkpt>
      <trkpt lat="47.86184" lon="2.21833">
        <ele>233.2</ele>
        <time>2022-05-23T13:43:19Z</time>
      </trkpt>
      <trkpt lat="47.86176" lon="2.21843">
        <ele>232.69</ele>
        <time>2022-05-23T13:43:22Z</time>
      </trkpt>
      <trkpt lat="47.86169" lon="2.21854">
        <ele>233.22</ele>
        <time>2022-05-23T13:43:25Z</time>
      </trkpt>
      <trkpt lat="47.86161" lon="2.21864">
        <ele>234.11</ele>
        <time>2022-05-23T13:43:28Z</time>
      </trkpt>
      <trkpt lat="47.86153" lon="2.21873">
        <ele>233.92</ele>
        <time>2022-05-23T13:43:31Z</time>
      </trkpt>
      <trkpt lat="47.86147" lon="2.21881">
        <ele>234.05</ele>
        <time>2022-05-23T13:43:34Z</time>
      </trkpt>
      <trkpt lat="47.86137" lon="2.21892">
        <ele>235.16</ele>
        <time>2022-05-23T13:43:38Z</time>
      </trkpt>
      <trkpt lat="47.86129" lon="2.21902">
        <ele>235.63</ele>
        <time>2022-05-23T13:43:41Z</time>
      </trkpt>
      <trkpt lat="47.86121" lon="2.21912">
        <ele>236.03</ele>
        <time>2022-05-23T13:43:44Z</time>
      </trkpt>
      <trkpt lat="47.86112" lon="2.21922">
        <ele>236.86</ele>
        <time>2022-05-23T13:43:47Z</time>
      </trkpt>
      <trkpt lat="47.86105" lon="2.21931">
        <ele>236.67</ele>
        <time>2022-05-23T13:43:50Z</time>
      </trkpt>
      <trkpt lat="47.86097" lon="2.21941">
        <ele>237.48</ele>
        <time>2022-05-23T13:43:54Z</time>
      </trkpt>
      <trkpt lat="47.86089" lon="2.2195">
        <ele>237.81</ele>
        <time>2022-05-23T13:43:58Z</time>
      </trkpt>
      <trkpt lat="47.86081" lon="2.21958">
        <ele>237.17</ele>
        <time>2022-05-23T13:44:03Z</time>
      </trkpt>
      <trkpt lat="47.86072" lon="2.21961">
        <ele>237.87</ele>
        <time>2022-05-23T13:44:17Z</time>
      </trkpt>
      <trkpt lat="47.86065" lon="2.21952">
        <ele>237.75</ele>
        <time>2022-05-23T13:44:21Z</time>
      </trkpt>
      <trkpt lat="47.86056" lon="2.21943">
        <ele>237.61</ele>
        <time>2022-05-23T13:44:25Z</time>
      </trkpt>
      <trkpt lat="47.86046" lon="2.21936">
        <ele>238.64</ele>
        <time>2022-05-23T13:44:28Z</time>
      </trkpt>
      <trkpt lat="47.86036" lon="2.21932">
        <ele>239.17</ele>
        <time>2022-05-23T13:44:31Z</time>
      </trkpt>
      <trkpt lat="47.86025" lon="2.21931">
        <ele>239.45</ele>
        <time>2022-05-23T13:44:35Z</time>
      </trkpt>
      <trkpt lat="47.86018" lon="2.21943">
        <ele>239.47</ele>
        <time>2022-05-23T13:44:39Z</time>
      </trkpt>
      <trkpt lat="47.86017" lon="2.21958">
        <ele>239.6</ele>
        <time>2022-05-23T13:44:42Z</time>
      </trkpt>
      <trkpt lat="47.86017" lon="2.21974">
        <ele>239.5</ele>
        <time>2022-05-23T13:44:45Z</time>
      </trkpt>
      <trkpt lat="47.86017" lon="2.21989">
        <ele>240.24</ele>
        <time>2022-05-23T13:44:48Z</time>
      </trkpt>
      <trkpt lat="47.86017" lon="2.22003">
        <ele>241.15</ele>
        <time>2022-05-23T13:44:51Z</time>
      </trkpt>
      <trkpt lat="47.86016" lon="2.22017">
        <ele>241.26</ele>
        <time>2022-05-23T13:44:54Z</time>
      </trkpt>
      <trkpt lat="47.86015" lon="2.22031">
        <ele>241.44</ele>
        <time>2022-05-23T13:44:57Z</time>
      </trkpt>
      <trkpt lat="47.86013" lon="2.22045">
        <ele>241.64</ele>
        <time>2022-05-23T13:45:00Z</time>
      </trkpt>
      <trkpt lat="47.86013" lon="2.22059">
        <ele>241.99</ele>
        <time>2022-05-23T13:45:03Z</time>
      </trkpt>
      <trkpt lat="47.86013" lon="2.22076">
        <ele>241.53</ele>
        <time>2022-05-23T13:45:07Z</time>
      </trkpt>
      <trkpt lat="47.86011" lon="2.22091">
        <ele>241.28</ele>
        <time>2022-05-23T13:45:11Z</time>
      </trkpt>
      <trkpt lat="47.86005" lon="2.22105">
        <ele>240.8</ele>
        <time>2022-05-23T13:45:14Z</time>
      </trkpt>
      <trkpt lat="47.85998" lon="2.22117">
        <ele>240.12</ele>
        <time>2022-05-23T13:45:17Z</time>
      </trkpt>
      <trkpt lat="47.85988" lon="2.22124">
        <ele>240.05</ele>
        <time>2022-05-23T13:45:22Z</time>
      </trkpt>
      <trkpt lat="47.85988" lon="2.2214">
        <ele>238.81</ele>
        <time>2022-05-23T13:45:33Z</time>
      </trkpt>
      <trkpt lat="47.85987" lon="2.22154">
        <ele>238.7</ele>
        <time>2022-05-23T13:45:37Z</time>
      </trkpt>
      <trkpt lat="47.85986" lon="2.22168">
        <ele>239.36</ele>
        <time>2022-05-23T13:45:49Z</time>
      </trkpt>
      <trkpt lat="47.85988" lon="2.22182">
        <ele>239.24</ele>
        <time>2022-05-23T13:46:33Z</time>
      </trkpt>
      <trkpt lat="47.85989" lon="2.22198">
        <ele>240.11</ele>
        <time>2022-05-23T13:46:38Z</time>
      </trkpt>
      <trkpt lat="47.85992" lon="2.22213">
        <ele>240.62</ele>
        <time>2022-05-23T13:46:42Z</time>
      </trkpt>
      <trkpt lat="47.85993" lon="2.22228">
        <ele>240.68</ele>
        <time>2022-05-23T13:46:46Z</time>
      </trkpt>
      <trkpt lat="47.85997" lon="2.22241">
        <ele>241</ele>
        <time>2022-05-23T13:46:50Z</time>
      </trkpt>
      <trkpt lat="47.85994" lon="2.22254">
        <ele>241.66</ele>
        <time>2022-05-23T13:46:57Z</time>
      </trkpt>
      <trkpt lat="47.85994" lon="2.22269">
        <ele>241.89</ele>
        <time>2022-05-23T13:47:05Z</time>
      </trkpt>
      <trkpt lat="47.85992" lon="2.22282">
        <ele>242.65</ele>
        <time>2022-05-23T13:47:33Z</time>
      </trkpt>
      <trkpt lat="47.85992" lon="2.22298">
        <ele>242.85</ele>
        <time>2022-05-23T13:47:38Z</time>
      </trkpt>
      <trkpt lat="47.85992" lon="2.22314">
        <ele>243.53</ele>
        <time>2022-05-23T13:47:43Z</time>
      </trkpt>
      <trkpt lat="47.85988" lon="2.22327">
        <ele>243.15</ele>
        <time>2022-05-23T13:47:52Z</time>
      </trkpt>
      <trkpt lat="47.85978" lon="2.22326">
        <ele>243.21</ele>
        <time>2022-05-23T13:47:56Z</time>
      </trkpt>
      <trkpt lat="47.85968" lon="2.22327">
        <ele>243.38</ele>
        <time>2022-05-23T13:47:59Z</time>
      </trkpt>
      <trkpt lat="47.85958" lon="2.22329">
        <ele>243.67</ele>
        <time>2022-05-23T13:48:02Z</time>
      </trkpt>
      <trkpt lat="47.85947" lon="2.2233">
        <ele>243.73</ele>
        <time>2022-05-23T13:48:05Z</time>
      </trkpt>
      <trkpt lat="47.85936" lon="2.22332">
        <ele>243.56</ele>
        <time>2022-05-23T13:48:08Z</time>
      </trkpt>
      <trkpt lat="47.85926" lon="2.22332">
        <ele>243.44</ele>
        <time>2022-05-23T13:48:11Z</time>
      </trkpt>
      <trkpt lat="47.85915" lon="2.22334">
        <ele>243.77</ele>
        <time>2022-05-23T13:48:14Z</time>
      </trkpt>
      <trkpt lat="47.85905" lon="2.22335">
        <ele>243.82</ele>
        <time>2022-05-23T13:48:17Z</time>
      </trkpt>
      <trkpt lat="47.85895" lon="2.22335">
        <ele>243.6</ele>
        <time>2022-05-23T13:48:20Z</time>
      </trkpt>
      <trkpt lat="47.85885" lon="2.22336">
        <ele>243.59</ele>
        <time>2022-05-23T13:48:23Z</time>
      </trkpt>
      <trkpt lat="47.85875" lon="2.22337">
        <ele>243.92</ele>
        <time>2022-05-23T13:48:26Z</time>
      </trkpt>
      <trkpt lat="47.85864" lon="2.22337">
        <ele>243.84</ele>
        <time>2022-05-23T13:48:29Z</time>
      </trkpt>
      <trkpt lat="47.85854" lon="2.22338">
        <ele>243.88</ele>
        <time>2022-05-23T13:48:32Z</time>
      </trkpt>
      <trkpt lat="47.85844" lon="2.22339">
        <ele>244.24</ele>
        <time>2022-05-23T13:48:35Z</time>
      </trkpt>
      <trkpt lat="47.85835" lon="2.22339">
        <ele>244.7</ele>
        <time>2022-05-23T13:48:38Z</time>
      </trkpt>
      <trkpt lat="47.85825" lon="2.22341">
        <ele>244.27</ele>
        <time>2022-05-23T13:48:41Z</time>
      </trkpt>
      <trkpt lat="47.85814" lon="2.22341">
        <ele>244.29</ele>
        <time>2022-05-23T13:48:44Z</time>
      </trkpt>
      <trkpt lat="47.85802" lon="2.22342">
        <ele>244.18</ele>
        <time>2022-05-23T13:48:47Z</time>
      </trkpt>
      <trkpt lat="47.85791" lon="2.22343">
        <ele>243.63</ele>
        <time>2022-05-23T13:48:50Z</time>
      </trkpt>
      <trkpt lat="47.85781" lon="2.22344">
        <ele>243.67</ele>
        <time>2022-05-23T13:48:53Z</time>
      </trkpt>
      <trkpt lat="47.8577" lon="2.22345">
        <ele>243.5</ele>
        <time>2022-05-23T13:48:56Z</time>
      </trkpt>
      <trkpt lat="47.8576" lon="2.22347">
        <ele>242.94</ele>
        <time>2022-05-23T13:48:59Z</time>
      </trkpt>
      <trkpt lat="47.85748" lon="2.22348">
        <ele>242.52</ele>
        <time>2022-05-23T13:49:02Z</time>
      </trkpt>
      <trkpt lat="47.85735" lon="2.22349">
        <ele>242.15</ele>
        <time>2022-05-23T13:49:05Z</time>
      </trkpt>
      <trkpt lat="47.85723" lon="2.2235">
        <ele>242.28</ele>
        <time>2022-05-23T13:49:08Z</time>
      </trkpt>
      <trkpt lat="47.85713" lon="2.22352">
        <ele>241.4</ele>
        <time>2022-05-23T13:49:10Z</time>
      </trkpt>
      <trkpt lat="47.85703" lon="2.22353">
        <ele>241.37</ele>
        <time>2022-05-23T13:49:12Z</time>
      </trkpt>
      <trkpt lat="47.85693" lon="2.22353">
        <ele>241.16</ele>
        <time>2022-05-23T13:49:14Z</time>
      </trkpt>
      <trkpt lat="47.85684" lon="2.22355">
        <ele>241.23</ele>
        <time>2022-05-23T13:49:16Z</time>
      </trkpt>
      <trkpt lat="47.85678" lon="2.22369">
        <ele>241.53</ele>
        <time>2022-05-23T13:49:19Z</time>
      </trkpt>
      <trkpt lat="47.85677" lon="2.22386">
        <ele>240.77</ele>
        <time>2022-05-23T13:49:22Z</time>
      </trkpt>
      <trkpt lat="47.85677" lon="2.22404">
        <ele>240.58</ele>
        <time>2022-05-23T13:49:25Z</time>
      </trkpt>
      <trkpt lat="47.85677" lon="2.22417">
        <ele>240.06</ele>
        <time>2022-05-23T13:49:27Z</time>
      </trkpt>
      <trkpt lat="47.85678" lon="2.22437">
        <ele>240.23</ele>
        <time>2022-05-23T13:49:30Z</time>
      </trkpt>
      <trkpt lat="47.85678" lon="2.22456">
        <ele>240.84</ele>
        <time>2022-05-23T13:49:33Z</time>
      </trkpt>
      <trkpt lat="47.85678" lon="2.22474">
        <ele>239.24</ele>
        <time>2022-05-23T13:49:36Z</time>
      </trkpt>
      <trkpt lat="47.85677" lon="2.22488">
        <ele>239.47</ele>
        <time>2022-05-23T13:49:38Z</time>
      </trkpt>
      <trkpt lat="47.85677" lon="2.22502">
        <ele>238.8</ele>
        <time>2022-05-23T13:49:40Z</time>
      </trkpt>
      <trkpt lat="47.85677" lon="2.22517">
        <ele>238.84</ele>
        <time>2022-05-23T13:49:42Z</time>
      </trkpt>
      <trkpt lat="47.85676" lon="2.22532">
        <ele>238.2</ele>
        <time>2022-05-23T13:49:44Z</time>
      </trkpt>
      <trkpt lat="47.85677" lon="2.22545">
        <ele>238.42</ele>
        <time>2022-05-23T13:49:46Z</time>
      </trkpt>
      <trkpt lat="47.85676" lon="2.22559">
        <ele>238.26</ele>
        <time>2022-05-23T13:49:48Z</time>
      </trkpt>
      <trkpt lat="47.85676" lon="2.22573">
        <ele>238.05</ele>
        <time>2022-05-23T13:49:50Z</time>
      </trkpt>
      <trkpt lat="47.85675" lon="2.22586">
        <ele>238.26</ele>
        <time>2022-05-23T13:49:52Z</time>
      </trkpt>
      <trkpt lat="47.85675" lon="2.22604">
        <ele>238.07</ele>
        <time>2022-05-23T13:49:55Z</time>
      </trkpt>
      <trkpt lat="47.85674" lon="2.22622">
        <ele>238.01</ele>
        <time>2022-05-23T13:49:58Z</time>
      </trkpt>
      <trkpt lat="47.85674" lon="2.22638">
        <ele>237.52</ele>
        <time>2022-05-23T13:50:01Z</time>
      </trkpt>
      <trkpt lat="47.85673" lon="2.22653">
        <ele>237.98</ele>
        <time>2022-05-23T13:50:04Z</time>
      </trkpt>
      <trkpt lat="47.85673" lon="2.22667">
        <ele>238.12</ele>
        <time>2022-05-23T13:50:07Z</time>
      </trkpt>
      <trkpt lat="47.85673" lon="2.22682">
        <ele>237.92</ele>
        <time>2022-05-23T13:50:10Z</time>
      </trkpt>
      <trkpt lat="47.85673" lon="2.22697">
        <ele>237.84</ele>
        <time>2022-05-23T13:50:13Z</time>
      </trkpt>
      <trkpt lat="47.85673" lon="2.22711">
        <ele>238.13</ele>
        <time>2022-05-23T13:50:16Z</time>
      </trkpt>
      <trkpt lat="47.85672" lon="2.22729">
        <ele>237.74</ele>
        <time>2022-05-23T13:50:20Z</time>
      </trkpt>
      <trkpt lat="47.85672" lon="2.22744">
        <ele>237.55</ele>
        <time>2022-05-23T13:50:23Z</time>
      </trkpt>
      <trkpt lat="47.85672" lon="2.22759">
        <ele>237.24</ele>
        <time>2022-05-23T13:50:26Z</time>
      </trkpt>
      <trkpt lat="47.85672" lon="2.22774">
        <ele>237.65</ele>
        <time>2022-05-23T13:50:29Z</time>
      </trkpt>
      <trkpt lat="47.85672" lon="2.22788">
        <ele>237.73</ele>
        <time>2022-05-23T13:50:32Z</time>
      </trkpt>
      <trkpt lat="47.85671" lon="2.22803">
        <ele>237.61</ele>
        <time>2022-05-23T13:50:35Z</time>
      </trkpt>
      <trkpt lat="47.85671" lon="2.22818">
        <ele>237.27</ele>
        <time>2022-05-23T13:50:38Z</time>
      </trkpt>
      <trkpt lat="47.85671" lon="2.22831">
        <ele>237.8</ele>
        <time>2022-05-23T13:50:41Z</time>
      </trkpt>
      <trkpt lat="47.85672" lon="2.22845">
        <ele>238.11</ele>
        <time>2022-05-23T13:50:44Z</time>
      </trkpt>
      <trkpt lat="47.85672" lon="2.22862">
        <ele>238.31</ele>
        <time>2022-05-23T13:50:48Z</time>
      </trkpt>
      <trkpt lat="47.85672" lon="2.22876">
        <ele>238.47</ele>
        <time>2022-05-23T13:50:51Z</time>
      </trkpt>
      <trkpt lat="47.85671" lon="2.2289">
        <ele>238.56</ele>
        <time>2022-05-23T13:50:54Z</time>
      </trkpt>
      <trkpt lat="47.85672" lon="2.22907">
        <ele>238.7</ele>
        <time>2022-05-23T13:50:58Z</time>
      </trkpt>
      <trkpt lat="47.85671" lon="2.22924">
        <ele>238.55</ele>
        <time>2022-05-23T13:51:02Z</time>
      </trkpt>
      <trkpt lat="47.85671" lon="2.2294">
        <ele>238.12</ele>
        <time>2022-05-23T13:51:06Z</time>
      </trkpt>
      <trkpt lat="47.85664" lon="2.22947">
        <ele>239.21</ele>
        <time>2022-05-23T13:53:07Z</time>
      </trkpt>
      <trkpt lat="47.85662" lon="2.22946">
        <ele>236.74</ele>
        <time>2022-05-23T13:55:08Z</time>
      </trkpt>
      <trkpt lat="47.85662" lon="2.22947">
        <ele>239.88</ele>
        <time>2022-05-23T13:57:09Z</time>
      </trkpt>
    </trkseg>
  </trk>
</gpx>